<?xml version="1.0" encoding="UTF-8" standalone="no" ?>
<gpx xmlns="http://www.topografix.com/GPX/1/1" creator="MapSource 6.15.7" version="1.1" xmlns:xsi="http://www.w3.org/2001/XMLSchema-instance" xsi:schemaLocation="http://www.topografix.com/GPX/1/1 http://www.topografix.com/GPX/1/1/gpx.xsd">

  <metadata>
    <link href="http://www.garmin.com">
      <text>Garmin International</text>
    </link>
    <time>2009-11-25T15:07:54Z</time>
    <bounds maxlat="49.5314404" maxlon="12.0372578" minlat="48.9105866" minlon="11.0974016"/>
  </metadata>

  <trk>
    <name>Fünf Flüsse Radweg</name>
    <extensions>
      <gpxx:TrackExtension xmlns:gpxx="http://www.garmin.com/xmlschemas/GpxExtensions/v3">
        <gpxx:DisplayColor>White</gpxx:DisplayColor>
      </gpxx:TrackExtension>
    </extensions>
    <trkseg>
      <trkpt lat="49.5115764" lon="11.2691019">
        <ele>365.9000000</ele>
        <time>2009-11-25T15:51:36Z</time>
      </trkpt>
      <trkpt lat="49.5115775" lon="11.2690981">
        <ele>365.9000000</ele>
        <time>2009-11-25T15:51:36Z</time>
      </trkpt>
      <trkpt lat="49.5115886" lon="11.2690801">
        <ele>364.5000000</ele>
        <time>2009-11-25T15:51:36Z</time>
      </trkpt>
      <trkpt lat="49.5114785" lon="11.2691956">
        <ele>365.0000000</ele>
        <time>2009-11-25T15:51:40Z</time>
      </trkpt>
      <trkpt lat="49.5112544" lon="11.2692827">
        <ele>365.0000000</ele>
        <time>2009-11-25T15:51:47Z</time>
      </trkpt>
      <trkpt lat="49.5106266" lon="11.2698218">
        <ele>363.5000000</ele>
        <time>2009-11-25T15:52:10Z</time>
      </trkpt>
      <trkpt lat="49.5105893" lon="11.2700351">
        <ele>364.0000000</ele>
        <time>2009-11-25T15:52:14Z</time>
      </trkpt>
      <trkpt lat="49.5105551" lon="11.2705264">
        <ele>366.4000000</ele>
        <time>2009-11-25T15:52:24Z</time>
      </trkpt>
      <trkpt lat="49.5104909" lon="11.2708434">
        <ele>369.8000000</ele>
        <time>2009-11-25T15:52:31Z</time>
      </trkpt>
      <trkpt lat="49.5104826" lon="11.2708906">
        <ele>370.2000000</ele>
        <time>2009-11-25T15:52:32Z</time>
      </trkpt>
      <trkpt lat="49.5103658" lon="11.2713115">
        <ele>369.3000000</ele>
        <time>2009-11-25T15:52:41Z</time>
      </trkpt>
      <trkpt lat="49.5102464" lon="11.2715417">
        <ele>366.9000000</ele>
        <time>2009-11-25T15:52:47Z</time>
      </trkpt>
      <trkpt lat="49.5101852" lon="11.2716971">
        <ele>365.4000000</ele>
        <time>2009-11-25T15:52:50Z</time>
      </trkpt>
      <trkpt lat="49.5102458" lon="11.2722062">
        <ele>365.0000000</ele>
        <time>2009-11-25T15:53:01Z</time>
      </trkpt>
      <trkpt lat="49.5103515" lon="11.2726206">
        <ele>364.5000000</ele>
        <time>2009-11-25T15:53:10Z</time>
      </trkpt>
      <trkpt lat="49.5109036" lon="11.2736227">
        <ele>365.4000000</ele>
        <time>2009-11-25T15:53:36Z</time>
      </trkpt>
      <trkpt lat="49.5112069" lon="11.2742064">
        <ele>365.0000000</ele>
        <time>2009-11-25T15:53:51Z</time>
      </trkpt>
      <trkpt lat="49.5114444" lon="11.2746922">
        <ele>364.0000000</ele>
        <time>2009-11-25T15:54:03Z</time>
      </trkpt>
      <trkpt lat="49.5120199" lon="11.2759210">
        <ele>362.1000000</ele>
        <time>2009-11-25T15:54:34Z</time>
      </trkpt>
      <trkpt lat="49.5124516" lon="11.2767917">
        <ele>360.2000000</ele>
        <time>2009-11-25T15:54:56Z</time>
      </trkpt>
      <trkpt lat="49.5130973" lon="11.2781157">
        <ele>363.0000000</ele>
        <time>2009-11-25T15:55:29Z</time>
      </trkpt>
      <trkpt lat="49.5137213" lon="11.2794015">
        <ele>362.1000000</ele>
        <time>2009-11-25T15:56:01Z</time>
      </trkpt>
      <trkpt lat="49.5142941" lon="11.2806394">
        <ele>362.1000000</ele>
        <time>2009-11-25T15:56:32Z</time>
      </trkpt>
      <trkpt lat="49.5148466" lon="11.2818449">
        <ele>358.2000000</ele>
        <time>2009-11-25T15:57:01Z</time>
      </trkpt>
      <trkpt lat="49.5152094" lon="11.2826559">
        <ele>359.2000000</ele>
        <time>2009-11-25T15:57:21Z</time>
      </trkpt>
      <trkpt lat="49.5154074" lon="11.2833518">
        <ele>360.2000000</ele>
        <time>2009-11-25T15:57:36Z</time>
      </trkpt>
      <trkpt lat="49.5155695" lon="11.2841578">
        <ele>359.2000000</ele>
        <time>2009-11-25T15:57:53Z</time>
      </trkpt>
      <trkpt lat="49.5155965" lon="11.2842991">
        <ele>357.3000000</ele>
        <time>2009-11-25T15:57:56Z</time>
      </trkpt>
      <trkpt lat="49.5156104" lon="11.2843007">
        <ele>357.3000000</ele>
        <time>2009-11-25T15:57:57Z</time>
      </trkpt>
      <trkpt lat="49.5156389" lon="11.2844251">
        <ele>356.8000000</ele>
        <time>2009-11-25T15:57:59Z</time>
      </trkpt>
      <trkpt lat="49.5158148" lon="11.2851959">
        <ele>354.4000000</ele>
        <time>2009-11-25T15:58:16Z</time>
      </trkpt>
      <trkpt lat="49.5161761" lon="11.2868494">
        <ele>352.5000000</ele>
        <time>2009-11-25T15:58:51Z</time>
      </trkpt>
      <trkpt lat="49.5161909" lon="11.2870981">
        <ele>350.1000000</ele>
        <time>2009-11-25T15:58:56Z</time>
      </trkpt>
      <trkpt lat="49.5162158" lon="11.2874446">
        <ele>351.0000000</ele>
        <time>2009-11-25T15:59:03Z</time>
      </trkpt>
      <trkpt lat="49.5162245" lon="11.2877098">
        <ele>351.5000000</ele>
        <time>2009-11-25T15:59:08Z</time>
      </trkpt>
      <trkpt lat="49.5164089" lon="11.2880666">
        <ele>352.0000000</ele>
        <time>2009-11-25T15:59:17Z</time>
      </trkpt>
      <trkpt lat="49.5170334" lon="11.2885547">
        <ele>353.4000000</ele>
        <time>2009-11-25T15:59:39Z</time>
      </trkpt>
      <trkpt lat="49.5170458" lon="11.2886892">
        <ele>352.9000000</ele>
        <time>2009-11-25T15:59:42Z</time>
      </trkpt>
      <trkpt lat="49.5170800" lon="11.2895234">
        <ele>352.9000000</ele>
        <time>2009-11-25T15:59:58Z</time>
      </trkpt>
      <trkpt lat="49.5170907" lon="11.2897804">
        <ele>352.5000000</ele>
        <time>2009-11-25T16:00:04Z</time>
      </trkpt>
      <trkpt lat="49.5173609" lon="11.2904048">
        <ele>351.5000000</ele>
        <time>2009-11-25T16:00:19Z</time>
      </trkpt>
      <trkpt lat="49.5173841" lon="11.2905074">
        <ele>350.5000000</ele>
        <time>2009-11-25T16:00:21Z</time>
      </trkpt>
      <trkpt lat="49.5175789" lon="11.2909526">
        <ele>349.1000000</ele>
        <time>2009-11-25T16:00:32Z</time>
      </trkpt>
      <trkpt lat="49.5178477" lon="11.2912130">
        <ele>348.1000000</ele>
        <time>2009-11-25T16:00:41Z</time>
      </trkpt>
      <trkpt lat="49.5179309" lon="11.2916389">
        <ele>349.1000000</ele>
        <time>2009-11-25T16:00:50Z</time>
      </trkpt>
      <trkpt lat="49.5179776" lon="11.2921880">
        <ele>348.6000000</ele>
        <time>2009-11-25T16:01:02Z</time>
      </trkpt>
      <trkpt lat="49.5179905" lon="11.2925786">
        <ele>348.6000000</ele>
        <time>2009-11-25T16:01:09Z</time>
      </trkpt>
      <trkpt lat="49.5180189" lon="11.2934875">
        <ele>348.1000000</ele>
        <time>2009-11-25T16:01:28Z</time>
      </trkpt>
      <trkpt lat="49.5179977" lon="11.2939601">
        <ele>348.1000000</ele>
        <time>2009-11-25T16:01:37Z</time>
      </trkpt>
      <trkpt lat="49.5176938" lon="11.2950702">
        <ele>347.7000000</ele>
        <time>2009-11-25T16:02:01Z</time>
      </trkpt>
      <trkpt lat="49.5174852" lon="11.2953536">
        <ele>347.2000000</ele>
        <time>2009-11-25T16:02:10Z</time>
      </trkpt>
      <trkpt lat="49.5173333" lon="11.2954273">
        <ele>347.2000000</ele>
        <time>2009-11-25T16:02:15Z</time>
      </trkpt>
      <trkpt lat="49.5172722" lon="11.2957316">
        <ele>347.7000000</ele>
        <time>2009-11-25T16:02:21Z</time>
      </trkpt>
      <trkpt lat="49.5173543" lon="11.2960439">
        <ele>347.2000000</ele>
        <time>2009-11-25T16:02:28Z</time>
      </trkpt>
      <trkpt lat="49.5174214" lon="11.2962462">
        <ele>347.7000000</ele>
        <time>2009-11-25T16:02:33Z</time>
      </trkpt>
      <trkpt lat="49.5175343" lon="11.2966865">
        <ele>348.6000000</ele>
        <time>2009-11-25T16:02:42Z</time>
      </trkpt>
      <trkpt lat="49.5177455" lon="11.2980310">
        <ele>350.1000000</ele>
        <time>2009-11-25T16:03:10Z</time>
      </trkpt>
      <trkpt lat="49.5177638" lon="11.2981225">
        <ele>350.5000000</ele>
        <time>2009-11-25T16:03:12Z</time>
      </trkpt>
      <trkpt lat="49.5178333" lon="11.2983969">
        <ele>349.6000000</ele>
        <time>2009-11-25T16:03:18Z</time>
      </trkpt>
      <trkpt lat="49.5179388" lon="11.2987292">
        <ele>349.1000000</ele>
        <time>2009-11-25T16:03:25Z</time>
      </trkpt>
      <trkpt lat="49.5181122" lon="11.3001759">
        <ele>352.5000000</ele>
        <time>2009-11-25T16:03:55Z</time>
      </trkpt>
      <trkpt lat="49.5182937" lon="11.3018951">
        <ele>352.5000000</ele>
        <time>2009-11-25T16:04:30Z</time>
      </trkpt>
      <trkpt lat="49.5182626" lon="11.3027900">
        <ele>351.5000000</ele>
        <time>2009-11-25T16:04:48Z</time>
      </trkpt>
      <trkpt lat="49.5182604" lon="11.3028870">
        <ele>351.5000000</ele>
        <time>2009-11-25T16:04:50Z</time>
      </trkpt>
      <trkpt lat="49.5182674" lon="11.3033069">
        <ele>350.1000000</ele>
        <time>2009-11-25T16:04:58Z</time>
      </trkpt>
      <trkpt lat="49.5183008" lon="11.3037465">
        <ele>349.1000000</ele>
        <time>2009-11-25T16:05:07Z</time>
      </trkpt>
      <trkpt lat="49.5178523" lon="11.3041309">
        <ele>350.1000000</ele>
        <time>2009-11-25T16:05:23Z</time>
      </trkpt>
      <trkpt lat="49.5177884" lon="11.3041311">
        <ele>350.1000000</ele>
        <time>2009-11-25T16:05:25Z</time>
      </trkpt>
      <trkpt lat="49.5174885" lon="11.3041442">
        <ele>351.0000000</ele>
        <time>2009-11-25T16:05:34Z</time>
      </trkpt>
      <trkpt lat="49.5171980" lon="11.3044856">
        <ele>352.5000000</ele>
        <time>2009-11-25T16:05:45Z</time>
      </trkpt>
      <trkpt lat="49.5171303" lon="11.3057184">
        <ele>352.5000000</ele>
        <time>2009-11-25T16:06:10Z</time>
      </trkpt>
      <trkpt lat="49.5174545" lon="11.3072216">
        <ele>352.0000000</ele>
        <time>2009-11-25T16:06:42Z</time>
      </trkpt>
      <trkpt lat="49.5175069" lon="11.3075012">
        <ele>351.0000000</ele>
        <time>2009-11-25T16:06:48Z</time>
      </trkpt>
      <trkpt lat="49.5175410" lon="11.3080733">
        <ele>349.6000000</ele>
        <time>2009-11-25T16:06:59Z</time>
      </trkpt>
      <trkpt lat="49.5175385" lon="11.3084420">
        <ele>348.1000000</ele>
        <time>2009-11-25T16:07:07Z</time>
      </trkpt>
      <trkpt lat="49.5175350" lon="11.3086592">
        <ele>348.6000000</ele>
        <time>2009-11-25T16:07:11Z</time>
      </trkpt>
      <trkpt lat="49.5171844" lon="11.3094705">
        <ele>350.1000000</ele>
        <time>2009-11-25T16:07:31Z</time>
      </trkpt>
      <trkpt lat="49.5170142" lon="11.3101464">
        <ele>352.5000000</ele>
        <time>2009-11-25T16:07:45Z</time>
      </trkpt>
      <trkpt lat="49.5167910" lon="11.3113819">
        <ele>352.0000000</ele>
        <time>2009-11-25T16:08:11Z</time>
      </trkpt>
      <trkpt lat="49.5167012" lon="11.3117932">
        <ele>352.0000000</ele>
        <time>2009-11-25T16:08:20Z</time>
      </trkpt>
      <trkpt lat="49.5167167" lon="11.3122898">
        <ele>351.5000000</ele>
        <time>2009-11-25T16:08:30Z</time>
      </trkpt>
      <trkpt lat="49.5166655" lon="11.3126739">
        <ele>349.6000000</ele>
        <time>2009-11-25T16:08:37Z</time>
      </trkpt>
      <trkpt lat="49.5166044" lon="11.3129194">
        <ele>349.1000000</ele>
        <time>2009-11-25T16:08:43Z</time>
      </trkpt>
      <trkpt lat="49.5163149" lon="11.3137362">
        <ele>351.0000000</ele>
        <time>2009-11-25T16:09:01Z</time>
      </trkpt>
      <trkpt lat="49.5162577" lon="11.3140040">
        <ele>350.5000000</ele>
        <time>2009-11-25T16:09:07Z</time>
      </trkpt>
      <trkpt lat="49.5161129" lon="11.3152696">
        <ele>349.6000000</ele>
        <time>2009-11-25T16:09:33Z</time>
      </trkpt>
      <trkpt lat="49.5162165" lon="11.3168203">
        <ele>346.2000000</ele>
        <time>2009-11-25T16:10:04Z</time>
      </trkpt>
      <trkpt lat="49.5165431" lon="11.3185138">
        <ele>344.3000000</ele>
        <time>2009-11-25T16:10:40Z</time>
      </trkpt>
      <trkpt lat="49.5168431" lon="11.3200747">
        <ele>343.8000000</ele>
        <time>2009-11-25T16:11:12Z</time>
      </trkpt>
      <trkpt lat="49.5171393" lon="11.3219037">
        <ele>344.3000000</ele>
        <time>2009-11-25T16:11:50Z</time>
      </trkpt>
      <trkpt lat="49.5173535" lon="11.3230084">
        <ele>344.8000000</ele>
        <time>2009-11-25T16:12:13Z</time>
      </trkpt>
      <trkpt lat="49.5175436" lon="11.3241539">
        <ele>344.8000000</ele>
        <time>2009-11-25T16:12:37Z</time>
      </trkpt>
      <trkpt lat="49.5177128" lon="11.3254013">
        <ele>344.8000000</ele>
        <time>2009-11-25T16:13:03Z</time>
      </trkpt>
      <trkpt lat="49.5177708" lon="11.3258025">
        <ele>344.3000000</ele>
        <time>2009-11-25T16:13:11Z</time>
      </trkpt>
      <trkpt lat="49.5178014" lon="11.3261207">
        <ele>342.8000000</ele>
        <time>2009-11-25T16:13:17Z</time>
      </trkpt>
      <trkpt lat="49.5178423" lon="11.3263005">
        <ele>343.3000000</ele>
        <time>2009-11-25T16:13:21Z</time>
      </trkpt>
      <trkpt lat="49.5179600" lon="11.3265972">
        <ele>343.3000000</ele>
        <time>2009-11-25T16:13:28Z</time>
      </trkpt>
      <trkpt lat="49.5177736" lon="11.3271084">
        <ele>342.8000000</ele>
        <time>2009-11-25T16:13:40Z</time>
      </trkpt>
      <trkpt lat="49.5176902" lon="11.3272317">
        <ele>342.8000000</ele>
        <time>2009-11-25T16:13:44Z</time>
      </trkpt>
      <trkpt lat="49.5170789" lon="11.3289494">
        <ele>343.8000000</ele>
        <time>2009-11-25T16:14:23Z</time>
      </trkpt>
      <trkpt lat="49.5166382" lon="11.3304597">
        <ele>343.3000000</ele>
        <time>2009-11-25T16:14:56Z</time>
      </trkpt>
      <trkpt lat="49.5165361" lon="11.3317879">
        <ele>343.3000000</ele>
        <time>2009-11-25T16:15:23Z</time>
      </trkpt>
      <trkpt lat="49.5165657" lon="11.3324144">
        <ele>343.3000000</ele>
        <time>2009-11-25T16:15:36Z</time>
      </trkpt>
      <trkpt lat="49.5169059" lon="11.3338313">
        <ele>341.4000000</ele>
        <time>2009-11-25T16:16:06Z</time>
      </trkpt>
      <trkpt lat="49.5170882" lon="11.3339254">
        <ele>341.9000000</ele>
        <time>2009-11-25T16:16:12Z</time>
      </trkpt>
      <trkpt lat="49.5171552" lon="11.3338710">
        <ele>342.4000000</ele>
        <time>2009-11-25T16:16:14Z</time>
      </trkpt>
      <trkpt lat="49.5173196" lon="11.3342752">
        <ele>342.4000000</ele>
        <time>2009-11-25T16:16:24Z</time>
      </trkpt>
      <trkpt lat="49.5174442" lon="11.3346710">
        <ele>342.8000000</ele>
        <time>2009-11-25T16:16:33Z</time>
      </trkpt>
      <trkpt lat="49.5175761" lon="11.3351643">
        <ele>343.3000000</ele>
        <time>2009-11-25T16:16:43Z</time>
      </trkpt>
      <trkpt lat="49.5179414" lon="11.3362088">
        <ele>342.8000000</ele>
        <time>2009-11-25T16:17:07Z</time>
      </trkpt>
      <trkpt lat="49.5182976" lon="11.3368237">
        <ele>343.3000000</ele>
        <time>2009-11-25T16:17:24Z</time>
      </trkpt>
      <trkpt lat="49.5186169" lon="11.3370511">
        <ele>343.3000000</ele>
        <time>2009-11-25T16:17:35Z</time>
      </trkpt>
      <trkpt lat="49.5186381" lon="11.3371822">
        <ele>342.8000000</ele>
        <time>2009-11-25T16:17:37Z</time>
      </trkpt>
      <trkpt lat="49.5188493" lon="11.3383706">
        <ele>341.9000000</ele>
        <time>2009-11-25T16:18:02Z</time>
      </trkpt>
      <trkpt lat="49.5189619" lon="11.3388194">
        <ele>341.9000000</ele>
        <time>2009-11-25T16:18:12Z</time>
      </trkpt>
      <trkpt lat="49.5190432" lon="11.3393715">
        <ele>341.9000000</ele>
        <time>2009-11-25T16:18:23Z</time>
      </trkpt>
      <trkpt lat="49.5190501" lon="11.3409556">
        <ele>342.8000000</ele>
        <time>2009-11-25T16:18:55Z</time>
      </trkpt>
      <trkpt lat="49.5188941" lon="11.3427501">
        <ele>343.3000000</ele>
        <time>2009-11-25T16:19:31Z</time>
      </trkpt>
      <trkpt lat="49.5187099" lon="11.3442787">
        <ele>343.8000000</ele>
        <time>2009-11-25T16:20:02Z</time>
      </trkpt>
      <trkpt lat="49.5185760" lon="11.3453753">
        <ele>343.8000000</ele>
        <time>2009-11-25T16:20:25Z</time>
      </trkpt>
      <trkpt lat="49.5183797" lon="11.3467748">
        <ele>343.8000000</ele>
        <time>2009-11-25T16:20:53Z</time>
      </trkpt>
      <trkpt lat="49.5182681" lon="11.3480782">
        <ele>344.8000000</ele>
        <time>2009-11-25T16:21:20Z</time>
      </trkpt>
      <trkpt lat="49.5180118" lon="11.3496219">
        <ele>347.2000000</ele>
        <time>2009-11-25T16:21:52Z</time>
      </trkpt>
      <trkpt lat="49.5178383" lon="11.3505238">
        <ele>348.6000000</ele>
        <time>2009-11-25T16:22:11Z</time>
      </trkpt>
      <trkpt lat="49.5175730" lon="11.3519094">
        <ele>351.0000000</ele>
        <time>2009-11-25T16:22:40Z</time>
      </trkpt>
      <trkpt lat="49.5172875" lon="11.3533816">
        <ele>350.5000000</ele>
        <time>2009-11-25T16:23:11Z</time>
      </trkpt>
      <trkpt lat="49.5170541" lon="11.3548366">
        <ele>347.7000000</ele>
        <time>2009-11-25T16:23:41Z</time>
      </trkpt>
      <trkpt lat="49.5168868" lon="11.3565900">
        <ele>344.3000000</ele>
        <time>2009-11-25T16:24:16Z</time>
      </trkpt>
      <trkpt lat="49.5167412" lon="11.3582266">
        <ele>344.8000000</ele>
        <time>2009-11-25T16:24:49Z</time>
      </trkpt>
      <trkpt lat="49.5164272" lon="11.3602772">
        <ele>342.8000000</ele>
        <time>2009-11-25T16:25:32Z</time>
      </trkpt>
      <trkpt lat="49.5158145" lon="11.3620443">
        <ele>343.3000000</ele>
        <time>2009-11-25T16:26:12Z</time>
      </trkpt>
      <trkpt lat="49.5153259" lon="11.3634471">
        <ele>344.8000000</ele>
        <time>2009-11-25T16:26:44Z</time>
      </trkpt>
      <trkpt lat="49.5150472" lon="11.3642629">
        <ele>345.7000000</ele>
        <time>2009-11-25T16:27:02Z</time>
      </trkpt>
      <trkpt lat="49.5149557" lon="11.3645167">
        <ele>346.2000000</ele>
        <time>2009-11-25T16:27:08Z</time>
      </trkpt>
      <trkpt lat="49.5149152" lon="11.3646820">
        <ele>346.2000000</ele>
        <time>2009-11-25T16:27:12Z</time>
      </trkpt>
      <trkpt lat="49.5147936" lon="11.3650798">
        <ele>346.2000000</ele>
        <time>2009-11-25T16:27:21Z</time>
      </trkpt>
      <trkpt lat="49.5145690" lon="11.3658512">
        <ele>347.7000000</ele>
        <time>2009-11-25T16:27:38Z</time>
      </trkpt>
      <trkpt lat="49.5142781" lon="11.3676408">
        <ele>350.1000000</ele>
        <time>2009-11-25T16:28:15Z</time>
      </trkpt>
      <trkpt lat="49.5142320" lon="11.3680661">
        <ele>350.1000000</ele>
        <time>2009-11-25T16:28:23Z</time>
      </trkpt>
      <trkpt lat="49.5141267" lon="11.3683499">
        <ele>350.1000000</ele>
        <time>2009-11-25T16:28:30Z</time>
      </trkpt>
      <trkpt lat="49.5139325" lon="11.3696370">
        <ele>350.5000000</ele>
        <time>2009-11-25T16:28:56Z</time>
      </trkpt>
      <trkpt lat="49.5136637" lon="11.3710842">
        <ele>350.1000000</ele>
        <time>2009-11-25T16:29:27Z</time>
      </trkpt>
      <trkpt lat="49.5131774" lon="11.3730945">
        <ele>349.1000000</ele>
        <time>2009-11-25T16:30:10Z</time>
      </trkpt>
      <trkpt lat="49.5127761" lon="11.3745488">
        <ele>348.1000000</ele>
        <time>2009-11-25T16:30:41Z</time>
      </trkpt>
      <trkpt lat="49.5125897" lon="11.3751882">
        <ele>346.7000000</ele>
        <time>2009-11-25T16:30:55Z</time>
      </trkpt>
      <trkpt lat="49.5125469" lon="11.3757922">
        <ele>345.7000000</ele>
        <time>2009-11-25T16:31:08Z</time>
      </trkpt>
      <trkpt lat="49.5127940" lon="11.3771508">
        <ele>346.7000000</ele>
        <time>2009-11-25T16:31:36Z</time>
      </trkpt>
      <trkpt lat="49.5130075" lon="11.3784676">
        <ele>347.7000000</ele>
        <time>2009-11-25T16:32:03Z</time>
      </trkpt>
      <trkpt lat="49.5131738" lon="11.3787839">
        <ele>348.1000000</ele>
        <time>2009-11-25T16:32:11Z</time>
      </trkpt>
      <trkpt lat="49.5134270" lon="11.3790244">
        <ele>349.6000000</ele>
        <time>2009-11-25T16:32:21Z</time>
      </trkpt>
      <trkpt lat="49.5134467" lon="11.3793300">
        <ele>350.5000000</ele>
        <time>2009-11-25T16:32:27Z</time>
      </trkpt>
      <trkpt lat="49.5134763" lon="11.3800523">
        <ele>352.5000000</ele>
        <time>2009-11-25T16:32:41Z</time>
      </trkpt>
      <trkpt lat="49.5132981" lon="11.3808682">
        <ele>351.0000000</ele>
        <time>2009-11-25T16:32:59Z</time>
      </trkpt>
      <trkpt lat="49.5131481" lon="11.3828473">
        <ele>350.5000000</ele>
        <time>2009-11-25T16:33:39Z</time>
      </trkpt>
      <trkpt lat="49.5130457" lon="11.3845720">
        <ele>350.1000000</ele>
        <time>2009-11-25T16:34:13Z</time>
      </trkpt>
      <trkpt lat="49.5129131" lon="11.3857874">
        <ele>350.5000000</ele>
        <time>2009-11-25T16:34:38Z</time>
      </trkpt>
      <trkpt lat="49.5126733" lon="11.3871158">
        <ele>351.0000000</ele>
        <time>2009-11-25T16:35:06Z</time>
      </trkpt>
      <trkpt lat="49.5123946" lon="11.3883483">
        <ele>350.5000000</ele>
        <time>2009-11-25T16:35:32Z</time>
      </trkpt>
      <trkpt lat="49.5120030" lon="11.3900430">
        <ele>348.1000000</ele>
        <time>2009-11-25T16:36:08Z</time>
      </trkpt>
      <trkpt lat="49.5116103" lon="11.3920084">
        <ele>347.7000000</ele>
        <time>2009-11-25T16:36:49Z</time>
      </trkpt>
      <trkpt lat="49.5111585" lon="11.3943130">
        <ele>349.1000000</ele>
        <time>2009-11-25T16:37:38Z</time>
      </trkpt>
      <trkpt lat="49.5109063" lon="11.3967183">
        <ele>347.2000000</ele>
        <time>2009-11-25T16:38:27Z</time>
      </trkpt>
      <trkpt lat="49.5107991" lon="11.3991555">
        <ele>346.2000000</ele>
        <time>2009-11-25T16:39:16Z</time>
      </trkpt>
      <trkpt lat="49.5106743" lon="11.4015150">
        <ele>346.7000000</ele>
        <time>2009-11-25T16:40:03Z</time>
      </trkpt>
      <trkpt lat="49.5104746" lon="11.4032939">
        <ele>346.7000000</ele>
        <time>2009-11-25T16:40:40Z</time>
      </trkpt>
      <trkpt lat="49.5103593" lon="11.4037951">
        <ele>346.2000000</ele>
        <time>2009-11-25T16:40:50Z</time>
      </trkpt>
      <trkpt lat="49.5101470" lon="11.4037955">
        <ele>345.7000000</ele>
        <time>2009-11-25T16:40:57Z</time>
      </trkpt>
      <trkpt lat="49.5098361" lon="11.4036774">
        <ele>346.2000000</ele>
        <time>2009-11-25T16:41:07Z</time>
      </trkpt>
      <trkpt lat="49.5087010" lon="11.4038491">
        <ele>344.8000000</ele>
        <time>2009-11-25T16:41:42Z</time>
      </trkpt>
      <trkpt lat="49.5076052" lon="11.4040210">
        <ele>345.3000000</ele>
        <time>2009-11-25T16:42:16Z</time>
      </trkpt>
      <trkpt lat="49.5066144" lon="11.4042025">
        <ele>344.8000000</ele>
        <time>2009-11-25T16:42:47Z</time>
      </trkpt>
      <trkpt lat="49.5061268" lon="11.4042912">
        <ele>343.8000000</ele>
        <time>2009-11-25T16:43:02Z</time>
      </trkpt>
      <trkpt lat="49.5059956" lon="11.4042839">
        <ele>344.3000000</ele>
        <time>2009-11-25T16:43:06Z</time>
      </trkpt>
      <trkpt lat="49.5054072" lon="11.4043828">
        <ele>347.2000000</ele>
        <time>2009-11-25T16:43:24Z</time>
      </trkpt>
      <trkpt lat="49.5048698" lon="11.4045541">
        <ele>346.7000000</ele>
        <time>2009-11-25T16:43:41Z</time>
      </trkpt>
      <trkpt lat="49.5040166" lon="11.4050500">
        <ele>343.3000000</ele>
        <time>2009-11-25T16:44:10Z</time>
      </trkpt>
      <trkpt lat="49.5037765" lon="11.4053085">
        <ele>342.8000000</ele>
        <time>2009-11-25T16:44:19Z</time>
      </trkpt>
      <trkpt lat="49.5035308" lon="11.4055069">
        <ele>342.8000000</ele>
        <time>2009-11-25T16:44:27Z</time>
      </trkpt>
      <trkpt lat="49.5034982" lon="11.4059884">
        <ele>343.3000000</ele>
        <time>2009-11-25T16:44:37Z</time>
      </trkpt>
      <trkpt lat="49.5035464" lon="11.4062890">
        <ele>342.8000000</ele>
        <time>2009-11-25T16:44:43Z</time>
      </trkpt>
      <trkpt lat="49.5035235" lon="11.4084759">
        <ele>343.3000000</ele>
        <time>2009-11-25T16:45:27Z</time>
      </trkpt>
      <trkpt lat="49.5034822" lon="11.4108398">
        <ele>343.3000000</ele>
        <time>2009-11-25T16:46:15Z</time>
      </trkpt>
      <trkpt lat="49.5034391" lon="11.4134016">
        <ele>343.3000000</ele>
        <time>2009-11-25T16:47:06Z</time>
      </trkpt>
      <trkpt lat="49.5033981" lon="11.4154750">
        <ele>343.8000000</ele>
        <time>2009-11-25T16:47:48Z</time>
      </trkpt>
      <trkpt lat="49.5033381" lon="11.4182297">
        <ele>343.8000000</ele>
        <time>2009-11-25T16:48:43Z</time>
      </trkpt>
      <trkpt lat="49.5033280" lon="11.4191515">
        <ele>343.8000000</ele>
        <time>2009-11-25T16:49:02Z</time>
      </trkpt>
      <trkpt lat="49.5036502" lon="11.4206730">
        <ele>344.3000000</ele>
        <time>2009-11-25T16:49:34Z</time>
      </trkpt>
      <trkpt lat="49.5042699" lon="11.4234906">
        <ele>344.8000000</ele>
        <time>2009-11-25T16:50:33Z</time>
      </trkpt>
      <trkpt lat="49.5044864" lon="11.4251629">
        <ele>344.8000000</ele>
        <time>2009-11-25T16:51:08Z</time>
      </trkpt>
      <trkpt lat="49.5044613" lon="11.4270187">
        <ele>344.8000000</ele>
        <time>2009-11-25T16:51:45Z</time>
      </trkpt>
      <trkpt lat="49.5046642" lon="11.4273358">
        <ele>344.8000000</ele>
        <time>2009-11-25T16:51:54Z</time>
      </trkpt>
      <trkpt lat="49.5049519" lon="11.4274880">
        <ele>345.3000000</ele>
        <time>2009-11-25T16:52:03Z</time>
      </trkpt>
      <trkpt lat="49.5051165" lon="11.4276694">
        <ele>345.3000000</ele>
        <time>2009-11-25T16:52:10Z</time>
      </trkpt>
      <trkpt lat="49.5050757" lon="11.4280803">
        <ele>345.3000000</ele>
        <time>2009-11-25T16:52:18Z</time>
      </trkpt>
      <trkpt lat="49.5049853" lon="11.4293843">
        <ele>345.3000000</ele>
        <time>2009-11-25T16:52:44Z</time>
      </trkpt>
      <trkpt lat="49.5049544" lon="11.4314400">
        <ele>345.3000000</ele>
        <time>2009-11-25T16:53:25Z</time>
      </trkpt>
      <trkpt lat="49.5049663" lon="11.4318498">
        <ele>345.3000000</ele>
        <time>2009-11-25T16:53:34Z</time>
      </trkpt>
      <trkpt lat="49.5052893" lon="11.4325500">
        <ele>345.7000000</ele>
        <time>2009-11-25T16:53:51Z</time>
      </trkpt>
      <trkpt lat="49.5056057" lon="11.4327894">
        <ele>345.7000000</ele>
        <time>2009-11-25T16:54:02Z</time>
      </trkpt>
      <trkpt lat="49.5060167" lon="11.4328289">
        <ele>346.2000000</ele>
        <time>2009-11-25T16:54:15Z</time>
      </trkpt>
      <trkpt lat="49.5063249" lon="11.4330872">
        <ele>345.7000000</ele>
        <time>2009-11-25T16:54:25Z</time>
      </trkpt>
      <trkpt lat="49.5065136" lon="11.4333830">
        <ele>345.7000000</ele>
        <time>2009-11-25T16:54:34Z</time>
      </trkpt>
      <trkpt lat="49.5068804" lon="11.4334645">
        <ele>345.7000000</ele>
        <time>2009-11-25T16:54:45Z</time>
      </trkpt>
      <trkpt lat="49.5069489" lon="11.4335850">
        <ele>346.7000000</ele>
        <time>2009-11-25T16:54:48Z</time>
      </trkpt>
      <trkpt lat="49.5069005" lon="11.4336491">
        <ele>346.7000000</ele>
        <time>2009-11-25T16:54:50Z</time>
      </trkpt>
      <trkpt lat="49.5062127" lon="11.4343429">
        <ele>347.2000000</ele>
        <time>2009-11-25T16:55:16Z</time>
      </trkpt>
      <trkpt lat="49.5055580" lon="11.4350710">
        <ele>347.2000000</ele>
        <time>2009-11-25T16:55:41Z</time>
      </trkpt>
      <trkpt lat="49.5055589" lon="11.4355914">
        <ele>346.7000000</ele>
        <time>2009-11-25T16:55:51Z</time>
      </trkpt>
      <trkpt lat="49.5056066" lon="11.4361133">
        <ele>346.2000000</ele>
        <time>2009-11-25T16:56:02Z</time>
      </trkpt>
      <trkpt lat="49.5052119" lon="11.4374240">
        <ele>346.2000000</ele>
        <time>2009-11-25T16:56:31Z</time>
      </trkpt>
      <trkpt lat="49.5050736" lon="11.4377721">
        <ele>346.2000000</ele>
        <time>2009-11-25T16:56:39Z</time>
      </trkpt>
      <trkpt lat="49.5044509" lon="11.4391427">
        <ele>346.7000000</ele>
        <time>2009-11-25T16:57:13Z</time>
      </trkpt>
      <trkpt lat="49.5041762" lon="11.4395580">
        <ele>346.7000000</ele>
        <time>2009-11-25T16:57:25Z</time>
      </trkpt>
      <trkpt lat="49.5038812" lon="11.4399202">
        <ele>346.7000000</ele>
        <time>2009-11-25T16:57:36Z</time>
      </trkpt>
      <trkpt lat="49.5039430" lon="11.4402887">
        <ele>346.2000000</ele>
        <time>2009-11-25T16:57:44Z</time>
      </trkpt>
      <trkpt lat="49.5041539" lon="11.4404200">
        <ele>346.7000000</ele>
        <time>2009-11-25T16:57:51Z</time>
      </trkpt>
      <trkpt lat="49.5042799" lon="11.4405357">
        <ele>346.7000000</ele>
        <time>2009-11-25T16:57:55Z</time>
      </trkpt>
      <trkpt lat="49.5045175" lon="11.4407155">
        <ele>346.2000000</ele>
        <time>2009-11-25T16:58:04Z</time>
      </trkpt>
      <trkpt lat="49.5044803" lon="11.4412630">
        <ele>347.2000000</ele>
        <time>2009-11-25T16:58:15Z</time>
      </trkpt>
      <trkpt lat="49.5044634" lon="11.4414759">
        <ele>347.2000000</ele>
        <time>2009-11-25T16:58:19Z</time>
      </trkpt>
      <trkpt lat="49.5044657" lon="11.4418537">
        <ele>347.2000000</ele>
        <time>2009-11-25T16:58:27Z</time>
      </trkpt>
      <trkpt lat="49.5044628" lon="11.4421296">
        <ele>346.7000000</ele>
        <time>2009-11-25T16:58:32Z</time>
      </trkpt>
      <trkpt lat="49.5044043" lon="11.4434666">
        <ele>347.2000000</ele>
        <time>2009-11-25T16:58:59Z</time>
      </trkpt>
      <trkpt lat="49.5043882" lon="11.4437769">
        <ele>347.2000000</ele>
        <time>2009-11-25T16:59:05Z</time>
      </trkpt>
      <trkpt lat="49.5043432" lon="11.4444882">
        <ele>347.2000000</ele>
        <time>2009-11-25T16:59:20Z</time>
      </trkpt>
      <trkpt lat="49.5042280" lon="11.4458277">
        <ele>347.7000000</ele>
        <time>2009-11-25T16:59:47Z</time>
      </trkpt>
      <trkpt lat="49.5040381" lon="11.4472864">
        <ele>348.1000000</ele>
        <time>2009-11-25T17:00:17Z</time>
      </trkpt>
      <trkpt lat="49.5037600" lon="11.4488199">
        <ele>348.6000000</ele>
        <time>2009-11-25T17:00:49Z</time>
      </trkpt>
      <trkpt lat="49.5035117" lon="11.4499723">
        <ele>348.6000000</ele>
        <time>2009-11-25T17:01:13Z</time>
      </trkpt>
      <trkpt lat="49.5032528" lon="11.4509763">
        <ele>349.1000000</ele>
        <time>2009-11-25T17:01:35Z</time>
      </trkpt>
      <trkpt lat="49.5028390" lon="11.4524148">
        <ele>349.6000000</ele>
        <time>2009-11-25T17:02:06Z</time>
      </trkpt>
      <trkpt lat="49.5023746" lon="11.4541713">
        <ele>350.5000000</ele>
        <time>2009-11-25T17:02:44Z</time>
      </trkpt>
      <trkpt lat="49.5019350" lon="11.4558567">
        <ele>351.0000000</ele>
        <time>2009-11-25T17:03:21Z</time>
      </trkpt>
      <trkpt lat="49.5015462" lon="11.4579196">
        <ele>351.0000000</ele>
        <time>2009-11-25T17:04:04Z</time>
      </trkpt>
      <trkpt lat="49.5013931" lon="11.4593779">
        <ele>351.0000000</ele>
        <time>2009-11-25T17:04:34Z</time>
      </trkpt>
      <trkpt lat="49.5015564" lon="11.4598089">
        <ele>351.0000000</ele>
        <time>2009-11-25T17:04:44Z</time>
      </trkpt>
      <trkpt lat="49.5017864" lon="11.4600362">
        <ele>351.0000000</ele>
        <time>2009-11-25T17:04:52Z</time>
      </trkpt>
      <trkpt lat="49.5019955" lon="11.4604321">
        <ele>351.5000000</ele>
        <time>2009-11-25T17:05:02Z</time>
      </trkpt>
      <trkpt lat="49.5020556" lon="11.4607246">
        <ele>351.5000000</ele>
        <time>2009-11-25T17:05:09Z</time>
      </trkpt>
      <trkpt lat="49.5020811" lon="11.4609069">
        <ele>352.5000000</ele>
        <time>2009-11-25T17:05:12Z</time>
      </trkpt>
      <trkpt lat="49.5021276" lon="11.4614253">
        <ele>352.9000000</ele>
        <time>2009-11-25T17:05:23Z</time>
      </trkpt>
      <trkpt lat="49.5021971" lon="11.4618762">
        <ele>352.0000000</ele>
        <time>2009-11-25T17:05:32Z</time>
      </trkpt>
      <trkpt lat="49.5019743" lon="11.4621752">
        <ele>352.0000000</ele>
        <time>2009-11-25T17:05:41Z</time>
      </trkpt>
      <trkpt lat="49.5015152" lon="11.4625495">
        <ele>352.9000000</ele>
        <time>2009-11-25T17:05:57Z</time>
      </trkpt>
      <trkpt lat="49.5013758" lon="11.4629726">
        <ele>352.9000000</ele>
        <time>2009-11-25T17:06:07Z</time>
      </trkpt>
      <trkpt lat="49.5013506" lon="11.4632674">
        <ele>352.5000000</ele>
        <time>2009-11-25T17:06:13Z</time>
      </trkpt>
      <trkpt lat="49.5013537" lon="11.4637382">
        <ele>353.4000000</ele>
        <time>2009-11-25T17:06:22Z</time>
      </trkpt>
      <trkpt lat="49.5014831" lon="11.4645880">
        <ele>353.4000000</ele>
        <time>2009-11-25T17:06:40Z</time>
      </trkpt>
      <trkpt lat="49.5015551" lon="11.4651325">
        <ele>353.9000000</ele>
        <time>2009-11-25T17:06:51Z</time>
      </trkpt>
      <trkpt lat="49.5013833" lon="11.4652381">
        <ele>353.4000000</ele>
        <time>2009-11-25T17:06:57Z</time>
      </trkpt>
      <trkpt lat="49.5010621" lon="11.4654675">
        <ele>353.9000000</ele>
        <time>2009-11-25T17:07:08Z</time>
      </trkpt>
      <trkpt lat="49.5010707" lon="11.4655283">
        <ele>353.9000000</ele>
        <time>2009-11-25T17:07:09Z</time>
      </trkpt>
      <trkpt lat="49.5011776" lon="11.4666787">
        <ele>353.4000000</ele>
        <time>2009-11-25T17:07:32Z</time>
      </trkpt>
      <trkpt lat="49.5010221" lon="11.4668466">
        <ele>353.4000000</ele>
        <time>2009-11-25T17:07:38Z</time>
      </trkpt>
      <trkpt lat="49.5006202" lon="11.4666657">
        <ele>353.9000000</ele>
        <time>2009-11-25T17:07:51Z</time>
      </trkpt>
      <trkpt lat="49.5004405" lon="11.4669437">
        <ele>353.9000000</ele>
        <time>2009-11-25T17:07:59Z</time>
      </trkpt>
      <trkpt lat="49.5004063" lon="11.4676456">
        <ele>356.8000000</ele>
        <time>2009-11-25T17:08:13Z</time>
      </trkpt>
      <trkpt lat="49.5005881" lon="11.4679986">
        <ele>357.7000000</ele>
        <time>2009-11-25T17:08:22Z</time>
      </trkpt>
      <trkpt lat="49.5010848" lon="11.4681931">
        <ele>358.7000000</ele>
        <time>2009-11-25T17:08:38Z</time>
      </trkpt>
      <trkpt lat="49.5017423" lon="11.4685948">
        <ele>360.2000000</ele>
        <time>2009-11-25T17:09:00Z</time>
      </trkpt>
      <trkpt lat="49.5019638" lon="11.4688195">
        <ele>359.7000000</ele>
        <time>2009-11-25T17:09:08Z</time>
      </trkpt>
      <trkpt lat="49.5021383" lon="11.4690878">
        <ele>359.2000000</ele>
        <time>2009-11-25T17:09:16Z</time>
      </trkpt>
      <trkpt lat="49.5022743" lon="11.4694858">
        <ele>358.7000000</ele>
        <time>2009-11-25T17:09:25Z</time>
      </trkpt>
      <trkpt lat="49.5023217" lon="11.4697100">
        <ele>358.2000000</ele>
        <time>2009-11-25T17:09:29Z</time>
      </trkpt>
      <trkpt lat="49.5023596" lon="11.4706746">
        <ele>356.3000000</ele>
        <time>2009-11-25T17:09:49Z</time>
      </trkpt>
      <trkpt lat="49.5023527" lon="11.4711242">
        <ele>355.3000000</ele>
        <time>2009-11-25T17:09:58Z</time>
      </trkpt>
      <trkpt lat="49.5026001" lon="11.4726496">
        <ele>352.0000000</ele>
        <time>2009-11-25T17:10:29Z</time>
      </trkpt>
      <trkpt lat="49.5032453" lon="11.4739381">
        <ele>352.0000000</ele>
        <time>2009-11-25T17:11:02Z</time>
      </trkpt>
      <trkpt lat="49.5042981" lon="11.4757818">
        <ele>352.0000000</ele>
        <time>2009-11-25T17:11:51Z</time>
      </trkpt>
      <trkpt lat="49.5045157" lon="11.4773346">
        <ele>352.5000000</ele>
        <time>2009-11-25T17:12:23Z</time>
      </trkpt>
      <trkpt lat="49.5045380" lon="11.4790985">
        <ele>352.5000000</ele>
        <time>2009-11-25T17:12:59Z</time>
      </trkpt>
      <trkpt lat="49.5045587" lon="11.4793216">
        <ele>352.5000000</ele>
        <time>2009-11-25T17:13:03Z</time>
      </trkpt>
      <trkpt lat="49.5049732" lon="11.4808121">
        <ele>352.5000000</ele>
        <time>2009-11-25T17:13:36Z</time>
      </trkpt>
      <trkpt lat="49.5054808" lon="11.4821890">
        <ele>352.9000000</ele>
        <time>2009-11-25T17:14:08Z</time>
      </trkpt>
      <trkpt lat="49.5062187" lon="11.4836052">
        <ele>352.5000000</ele>
        <time>2009-11-25T17:14:44Z</time>
      </trkpt>
      <trkpt lat="49.5069653" lon="11.4840969">
        <ele>352.9000000</ele>
        <time>2009-11-25T17:15:09Z</time>
      </trkpt>
      <trkpt lat="49.5072715" lon="11.4848228">
        <ele>352.9000000</ele>
        <time>2009-11-25T17:15:27Z</time>
      </trkpt>
      <trkpt lat="49.5072642" lon="11.4849344">
        <ele>352.5000000</ele>
        <time>2009-11-25T17:15:29Z</time>
      </trkpt>
      <trkpt lat="49.5069234" lon="11.4866075">
        <ele>352.9000000</ele>
        <time>2009-11-25T17:16:04Z</time>
      </trkpt>
      <trkpt lat="49.5068560" lon="11.4869147">
        <ele>352.9000000</ele>
        <time>2009-11-25T17:16:11Z</time>
      </trkpt>
      <trkpt lat="49.5069451" lon="11.4877569">
        <ele>353.4000000</ele>
        <time>2009-11-25T17:16:28Z</time>
      </trkpt>
      <trkpt lat="49.5070291" lon="11.4882672">
        <ele>353.4000000</ele>
        <time>2009-11-25T17:16:38Z</time>
      </trkpt>
      <trkpt lat="49.5068850" lon="11.4891819">
        <ele>353.4000000</ele>
        <time>2009-11-25T17:16:57Z</time>
      </trkpt>
      <trkpt lat="49.5066155" lon="11.4898473">
        <ele>353.9000000</ele>
        <time>2009-11-25T17:17:13Z</time>
      </trkpt>
      <trkpt lat="49.5063950" lon="11.4901366">
        <ele>353.9000000</ele>
        <time>2009-11-25T17:17:22Z</time>
      </trkpt>
      <trkpt lat="49.5055419" lon="11.4905569">
        <ele>353.9000000</ele>
        <time>2009-11-25T17:17:50Z</time>
      </trkpt>
      <trkpt lat="49.5053025" lon="11.4907222">
        <ele>353.4000000</ele>
        <time>2009-11-25T17:17:58Z</time>
      </trkpt>
      <trkpt lat="49.5047660" lon="11.4909536">
        <ele>355.8000000</ele>
        <time>2009-11-25T17:18:15Z</time>
      </trkpt>
      <trkpt lat="49.5043395" lon="11.4914773">
        <ele>356.8000000</ele>
        <time>2009-11-25T17:18:32Z</time>
      </trkpt>
      <trkpt lat="49.5042313" lon="11.4914785">
        <ele>355.8000000</ele>
        <time>2009-11-25T17:18:35Z</time>
      </trkpt>
      <trkpt lat="49.5040675" lon="11.4914390">
        <ele>355.3000000</ele>
        <time>2009-11-25T17:18:40Z</time>
      </trkpt>
      <trkpt lat="49.5039141" lon="11.4916550">
        <ele>355.8000000</ele>
        <time>2009-11-25T17:18:47Z</time>
      </trkpt>
      <trkpt lat="49.5038007" lon="11.4923481">
        <ele>356.8000000</ele>
        <time>2009-11-25T17:19:01Z</time>
      </trkpt>
      <trkpt lat="49.5038508" lon="11.4937073">
        <ele>357.7000000</ele>
        <time>2009-11-25T17:19:28Z</time>
      </trkpt>
      <trkpt lat="49.5038878" lon="11.4953762">
        <ele>357.7000000</ele>
        <time>2009-11-25T17:20:02Z</time>
      </trkpt>
      <trkpt lat="49.5037003" lon="11.4971371">
        <ele>357.7000000</ele>
        <time>2009-11-25T17:20:38Z</time>
      </trkpt>
      <trkpt lat="49.5036516" lon="11.4977318">
        <ele>358.2000000</ele>
        <time>2009-11-25T17:20:50Z</time>
      </trkpt>
      <trkpt lat="49.5037163" lon="11.4984009">
        <ele>358.7000000</ele>
        <time>2009-11-25T17:21:03Z</time>
      </trkpt>
      <trkpt lat="49.5035677" lon="11.4987283">
        <ele>357.7000000</ele>
        <time>2009-11-25T17:21:11Z</time>
      </trkpt>
      <trkpt lat="49.5036299" lon="11.4991057">
        <ele>357.3000000</ele>
        <time>2009-11-25T17:21:19Z</time>
      </trkpt>
      <trkpt lat="49.5035255" lon="11.5000453">
        <ele>358.7000000</ele>
        <time>2009-11-25T17:21:38Z</time>
      </trkpt>
      <trkpt lat="49.5031762" lon="11.5011596">
        <ele>359.2000000</ele>
        <time>2009-11-25T17:22:03Z</time>
      </trkpt>
      <trkpt lat="49.5030005" lon="11.5014283">
        <ele>359.2000000</ele>
        <time>2009-11-25T17:22:11Z</time>
      </trkpt>
      <trkpt lat="49.5028383" lon="11.5019431">
        <ele>358.7000000</ele>
        <time>2009-11-25T17:22:22Z</time>
      </trkpt>
      <trkpt lat="49.5028466" lon="11.5037511">
        <ele>358.7000000</ele>
        <time>2009-11-25T17:22:59Z</time>
      </trkpt>
      <trkpt lat="49.5028574" lon="11.5055898">
        <ele>359.2000000</ele>
        <time>2009-11-25T17:23:36Z</time>
      </trkpt>
      <trkpt lat="49.5028507" lon="11.5056742">
        <ele>359.7000000</ele>
        <time>2009-11-25T17:23:37Z</time>
      </trkpt>
      <trkpt lat="49.5030135" lon="11.5059086">
        <ele>358.7000000</ele>
        <time>2009-11-25T17:23:44Z</time>
      </trkpt>
      <trkpt lat="49.5032211" lon="11.5062412">
        <ele>359.2000000</ele>
        <time>2009-11-25T17:23:53Z</time>
      </trkpt>
      <trkpt lat="49.5031932" lon="11.5067147">
        <ele>359.7000000</ele>
        <time>2009-11-25T17:24:03Z</time>
      </trkpt>
      <trkpt lat="49.5031460" lon="11.5069944">
        <ele>359.2000000</ele>
        <time>2009-11-25T17:24:09Z</time>
      </trkpt>
      <trkpt lat="49.5029563" lon="11.5074866">
        <ele>360.2000000</ele>
        <time>2009-11-25T17:24:20Z</time>
      </trkpt>
      <trkpt lat="49.5025375" lon="11.5087365">
        <ele>361.1000000</ele>
        <time>2009-11-25T17:24:48Z</time>
      </trkpt>
      <trkpt lat="49.5023343" lon="11.5100659">
        <ele>361.6000000</ele>
        <time>2009-11-25T17:25:16Z</time>
      </trkpt>
      <trkpt lat="49.5021799" lon="11.5110489">
        <ele>362.6000000</ele>
        <time>2009-11-25T17:25:36Z</time>
      </trkpt>
      <trkpt lat="49.5021401" lon="11.5112213">
        <ele>363.0000000</ele>
        <time>2009-11-25T17:25:40Z</time>
      </trkpt>
      <trkpt lat="49.5020961" lon="11.5117067">
        <ele>363.0000000</ele>
        <time>2009-11-25T17:25:50Z</time>
      </trkpt>
      <trkpt lat="49.5020769" lon="11.5120428">
        <ele>364.0000000</ele>
        <time>2009-11-25T17:25:57Z</time>
      </trkpt>
      <trkpt lat="49.5019629" lon="11.5122889">
        <ele>365.4000000</ele>
        <time>2009-11-25T17:26:03Z</time>
      </trkpt>
      <trkpt lat="49.5017661" lon="11.5124110">
        <ele>364.5000000</ele>
        <time>2009-11-25T17:26:09Z</time>
      </trkpt>
      <trkpt lat="49.5014910" lon="11.5124064">
        <ele>363.0000000</ele>
        <time>2009-11-25T17:26:18Z</time>
      </trkpt>
      <trkpt lat="49.5014095" lon="11.5126096">
        <ele>363.0000000</ele>
        <time>2009-11-25T17:26:22Z</time>
      </trkpt>
      <trkpt lat="49.5012941" lon="11.5140656">
        <ele>364.0000000</ele>
        <time>2009-11-25T17:26:52Z</time>
      </trkpt>
      <trkpt lat="49.5010941" lon="11.5160435">
        <ele>365.0000000</ele>
        <time>2009-11-25T17:27:32Z</time>
      </trkpt>
      <trkpt lat="49.5009018" lon="11.5172721">
        <ele>367.4000000</ele>
        <time>2009-11-25T17:27:57Z</time>
      </trkpt>
      <trkpt lat="49.5008621" lon="11.5174087">
        <ele>368.3000000</ele>
        <time>2009-11-25T17:28:00Z</time>
      </trkpt>
      <trkpt lat="49.5008239" lon="11.5176379">
        <ele>368.8000000</ele>
        <time>2009-11-25T17:28:05Z</time>
      </trkpt>
      <trkpt lat="49.5006806" lon="11.5181234">
        <ele>368.8000000</ele>
        <time>2009-11-25T17:28:16Z</time>
      </trkpt>
      <trkpt lat="49.5003484" lon="11.5193997">
        <ele>366.9000000</ele>
        <time>2009-11-25T17:28:44Z</time>
      </trkpt>
      <trkpt lat="49.4999562" lon="11.5208698">
        <ele>366.4000000</ele>
        <time>2009-11-25T17:29:15Z</time>
      </trkpt>
      <trkpt lat="49.4995868" lon="11.5226128">
        <ele>369.3000000</ele>
        <time>2009-11-25T17:29:52Z</time>
      </trkpt>
      <trkpt lat="49.4996303" lon="11.5239626">
        <ele>369.8000000</ele>
        <time>2009-11-25T17:30:19Z</time>
      </trkpt>
      <trkpt lat="49.4996986" lon="11.5242264">
        <ele>370.2000000</ele>
        <time>2009-11-25T17:30:25Z</time>
      </trkpt>
      <trkpt lat="49.4998184" lon="11.5256800">
        <ele>368.8000000</ele>
        <time>2009-11-25T17:30:55Z</time>
      </trkpt>
      <trkpt lat="49.5002329" lon="11.5278977">
        <ele>368.8000000</ele>
        <time>2009-11-25T17:31:41Z</time>
      </trkpt>
      <trkpt lat="49.5004304" lon="11.5294765">
        <ele>368.8000000</ele>
        <time>2009-11-25T17:32:13Z</time>
      </trkpt>
      <trkpt lat="49.5003610" lon="11.5315611">
        <ele>369.8000000</ele>
        <time>2009-11-25T17:32:55Z</time>
      </trkpt>
      <trkpt lat="49.5001975" lon="11.5326078">
        <ele>372.6000000</ele>
        <time>2009-11-25T17:33:17Z</time>
      </trkpt>
      <trkpt lat="49.4996163" lon="11.5346964">
        <ele>373.6000000</ele>
        <time>2009-11-25T17:34:02Z</time>
      </trkpt>
      <trkpt lat="49.4993355" lon="11.5358630">
        <ele>373.1000000</ele>
        <time>2009-11-25T17:34:27Z</time>
      </trkpt>
      <trkpt lat="49.4988045" lon="11.5375717">
        <ele>371.7000000</ele>
        <time>2009-11-25T17:35:05Z</time>
      </trkpt>
      <trkpt lat="49.4981835" lon="11.5400528">
        <ele>372.2000000</ele>
        <time>2009-11-25T17:35:59Z</time>
      </trkpt>
      <trkpt lat="49.4975469" lon="11.5425187">
        <ele>372.6000000</ele>
        <time>2009-11-25T17:36:52Z</time>
      </trkpt>
      <trkpt lat="49.4970111" lon="11.5445749">
        <ele>373.6000000</ele>
        <time>2009-11-25T17:37:37Z</time>
      </trkpt>
      <trkpt lat="49.4967257" lon="11.5456379">
        <ele>374.6000000</ele>
        <time>2009-11-25T17:38:00Z</time>
      </trkpt>
      <trkpt lat="49.4964050" lon="11.5460251">
        <ele>375.1000000</ele>
        <time>2009-11-25T17:38:12Z</time>
      </trkpt>
      <trkpt lat="49.4962932" lon="11.5461443">
        <ele>375.5000000</ele>
        <time>2009-11-25T17:38:17Z</time>
      </trkpt>
      <trkpt lat="49.4961244" lon="11.5465328">
        <ele>376.0000000</ele>
        <time>2009-11-25T17:38:26Z</time>
      </trkpt>
      <trkpt lat="49.4958333" lon="11.5479928">
        <ele>376.5000000</ele>
        <time>2009-11-25T17:38:57Z</time>
      </trkpt>
      <trkpt lat="49.4960717" lon="11.5495686">
        <ele>377.0000000</ele>
        <time>2009-11-25T17:39:29Z</time>
      </trkpt>
      <trkpt lat="49.4963262" lon="11.5515166">
        <ele>377.0000000</ele>
        <time>2009-11-25T17:40:09Z</time>
      </trkpt>
      <trkpt lat="49.4965310" lon="11.5522672">
        <ele>377.9000000</ele>
        <time>2009-11-25T17:40:25Z</time>
      </trkpt>
      <trkpt lat="49.4970136" lon="11.5535550">
        <ele>377.5000000</ele>
        <time>2009-11-25T17:40:55Z</time>
      </trkpt>
      <trkpt lat="49.4971478" lon="11.5537590">
        <ele>377.5000000</ele>
        <time>2009-11-25T17:41:01Z</time>
      </trkpt>
      <trkpt lat="49.4977837" lon="11.5554635">
        <ele>377.5000000</ele>
        <time>2009-11-25T17:41:41Z</time>
      </trkpt>
      <trkpt lat="49.4979312" lon="11.5566892">
        <ele>379.9000000</ele>
        <time>2009-11-25T17:42:06Z</time>
      </trkpt>
      <trkpt lat="49.4979690" lon="11.5578017">
        <ele>380.8000000</ele>
        <time>2009-11-25T17:42:28Z</time>
      </trkpt>
      <trkpt lat="49.4979777" lon="11.5579893">
        <ele>380.8000000</ele>
        <time>2009-11-25T17:42:32Z</time>
      </trkpt>
      <trkpt lat="49.4980825" lon="11.5592914">
        <ele>382.7000000</ele>
        <time>2009-11-25T17:42:58Z</time>
      </trkpt>
      <trkpt lat="49.4981424" lon="11.5604479">
        <ele>384.2000000</ele>
        <time>2009-11-25T17:43:21Z</time>
      </trkpt>
      <trkpt lat="49.4981633" lon="11.5616667">
        <ele>386.1000000</ele>
        <time>2009-11-25T17:43:46Z</time>
      </trkpt>
      <trkpt lat="49.4982087" lon="11.5635978">
        <ele>385.1000000</ele>
        <time>2009-11-25T17:44:25Z</time>
      </trkpt>
      <trkpt lat="49.4983363" lon="11.5655489">
        <ele>383.2000000</ele>
        <time>2009-11-25T17:45:04Z</time>
      </trkpt>
      <trkpt lat="49.4988181" lon="11.5679304">
        <ele>382.3000000</ele>
        <time>2009-11-25T17:45:54Z</time>
      </trkpt>
      <trkpt lat="49.4993546" lon="11.5698969">
        <ele>384.7000000</ele>
        <time>2009-11-25T17:46:37Z</time>
      </trkpt>
      <trkpt lat="49.4994866" lon="11.5702045">
        <ele>384.7000000</ele>
        <time>2009-11-25T17:46:44Z</time>
      </trkpt>
      <trkpt lat="49.4998565" lon="11.5705763">
        <ele>385.1000000</ele>
        <time>2009-11-25T17:46:58Z</time>
      </trkpt>
      <trkpt lat="49.5002755" lon="11.5706256">
        <ele>387.5000000</ele>
        <time>2009-11-25T17:47:11Z</time>
      </trkpt>
      <trkpt lat="49.5010197" lon="11.5697995">
        <ele>387.1000000</ele>
        <time>2009-11-25T17:47:39Z</time>
      </trkpt>
      <trkpt lat="49.5011557" lon="11.5696824">
        <ele>386.1000000</ele>
        <time>2009-11-25T17:47:44Z</time>
      </trkpt>
      <trkpt lat="49.5015401" lon="11.5693846">
        <ele>383.7000000</ele>
        <time>2009-11-25T17:47:58Z</time>
      </trkpt>
      <trkpt lat="49.5018969" lon="11.5688904">
        <ele>381.8000000</ele>
        <time>2009-11-25T17:48:12Z</time>
      </trkpt>
      <trkpt lat="49.5023509" lon="11.5688348">
        <ele>382.7000000</ele>
        <time>2009-11-25T17:48:26Z</time>
      </trkpt>
      <trkpt lat="49.5024243" lon="11.5688877">
        <ele>382.7000000</ele>
        <time>2009-11-25T17:48:29Z</time>
      </trkpt>
      <trkpt lat="49.5032107" lon="11.5693747">
        <ele>384.2000000</ele>
        <time>2009-11-25T17:48:55Z</time>
      </trkpt>
      <trkpt lat="49.5040153" lon="11.5695383">
        <ele>385.1000000</ele>
        <time>2009-11-25T17:49:20Z</time>
      </trkpt>
      <trkpt lat="49.5049535" lon="11.5696979">
        <ele>385.1000000</ele>
        <time>2009-11-25T17:49:49Z</time>
      </trkpt>
      <trkpt lat="49.5050093" lon="11.5697031">
        <ele>385.6000000</ele>
        <time>2009-11-25T17:49:51Z</time>
      </trkpt>
      <trkpt lat="49.5056155" lon="11.5696768">
        <ele>385.6000000</ele>
        <time>2009-11-25T17:50:10Z</time>
      </trkpt>
      <trkpt lat="49.5059980" lon="11.5698481">
        <ele>386.1000000</ele>
        <time>2009-11-25T17:50:22Z</time>
      </trkpt>
      <trkpt lat="49.5062867" lon="11.5702734">
        <ele>387.1000000</ele>
        <time>2009-11-25T17:50:35Z</time>
      </trkpt>
      <trkpt lat="49.5066527" lon="11.5707781">
        <ele>388.0000000</ele>
        <time>2009-11-25T17:50:50Z</time>
      </trkpt>
      <trkpt lat="49.5070082" lon="11.5712940">
        <ele>391.9000000</ele>
        <time>2009-11-25T17:51:05Z</time>
      </trkpt>
      <trkpt lat="49.5073657" lon="11.5710400">
        <ele>390.9000000</ele>
        <time>2009-11-25T17:51:17Z</time>
      </trkpt>
      <trkpt lat="49.5078978" lon="11.5700349">
        <ele>390.9000000</ele>
        <time>2009-11-25T17:51:43Z</time>
      </trkpt>
      <trkpt lat="49.5083247" lon="11.5690114">
        <ele>393.3000000</ele>
        <time>2009-11-25T17:52:08Z</time>
      </trkpt>
      <trkpt lat="49.5087846" lon="11.5671150">
        <ele>392.8000000</ele>
        <time>2009-11-25T17:52:48Z</time>
      </trkpt>
      <trkpt lat="49.5089945" lon="11.5664546">
        <ele>393.3000000</ele>
        <time>2009-11-25T17:53:03Z</time>
      </trkpt>
      <trkpt lat="49.5092742" lon="11.5655764">
        <ele>392.8000000</ele>
        <time>2009-11-25T17:53:23Z</time>
      </trkpt>
      <trkpt lat="49.5094434" lon="11.5635748">
        <ele>393.8000000</ele>
        <time>2009-11-25T17:54:03Z</time>
      </trkpt>
      <trkpt lat="49.5096301" lon="11.5624319">
        <ele>394.8000000</ele>
        <time>2009-11-25T17:54:27Z</time>
      </trkpt>
      <trkpt lat="49.5097647" lon="11.5619918">
        <ele>395.7000000</ele>
        <time>2009-11-25T17:54:37Z</time>
      </trkpt>
      <trkpt lat="49.5101268" lon="11.5616951">
        <ele>396.2000000</ele>
        <time>2009-11-25T17:54:49Z</time>
      </trkpt>
      <trkpt lat="49.5102983" lon="11.5615351">
        <ele>396.2000000</ele>
        <time>2009-11-25T17:54:55Z</time>
      </trkpt>
      <trkpt lat="49.5109383" lon="11.5607948">
        <ele>397.2000000</ele>
        <time>2009-11-25T17:55:20Z</time>
      </trkpt>
      <trkpt lat="49.5117534" lon="11.5605834">
        <ele>398.1000000</ele>
        <time>2009-11-25T17:55:46Z</time>
      </trkpt>
      <trkpt lat="49.5122084" lon="11.5604851">
        <ele>398.1000000</ele>
        <time>2009-11-25T17:56:00Z</time>
      </trkpt>
      <trkpt lat="49.5126167" lon="11.5603549">
        <ele>398.6000000</ele>
        <time>2009-11-25T17:56:13Z</time>
      </trkpt>
      <trkpt lat="49.5132539" lon="11.5602568">
        <ele>399.1000000</ele>
        <time>2009-11-25T17:56:33Z</time>
      </trkpt>
      <trkpt lat="49.5135838" lon="11.5602960">
        <ele>399.1000000</ele>
        <time>2009-11-25T17:56:43Z</time>
      </trkpt>
      <trkpt lat="49.5139047" lon="11.5603472">
        <ele>399.1000000</ele>
        <time>2009-11-25T17:56:53Z</time>
      </trkpt>
      <trkpt lat="49.5140710" lon="11.5604152">
        <ele>399.1000000</ele>
        <time>2009-11-25T17:56:58Z</time>
      </trkpt>
      <trkpt lat="49.5142552" lon="11.5605163">
        <ele>399.6000000</ele>
        <time>2009-11-25T17:57:04Z</time>
      </trkpt>
      <trkpt lat="49.5143628" lon="11.5605017">
        <ele>399.6000000</ele>
        <time>2009-11-25T17:57:08Z</time>
      </trkpt>
      <trkpt lat="49.5148920" lon="11.5605106">
        <ele>402.4000000</ele>
        <time>2009-11-25T17:57:24Z</time>
      </trkpt>
      <trkpt lat="49.5151033" lon="11.5605878">
        <ele>403.4000000</ele>
        <time>2009-11-25T17:57:31Z</time>
      </trkpt>
      <trkpt lat="49.5151899" lon="11.5606444">
        <ele>404.9000000</ele>
        <time>2009-11-25T17:57:34Z</time>
      </trkpt>
      <trkpt lat="49.5152757" lon="11.5607053">
        <ele>406.3000000</ele>
        <time>2009-11-25T17:57:36Z</time>
      </trkpt>
      <trkpt lat="49.5153434" lon="11.5607922">
        <ele>406.8000000</ele>
        <time>2009-11-25T17:57:39Z</time>
      </trkpt>
      <trkpt lat="49.5154861" lon="11.5610452">
        <ele>406.8000000</ele>
        <time>2009-11-25T17:57:46Z</time>
      </trkpt>
      <trkpt lat="49.5157197" lon="11.5612973">
        <ele>407.3000000</ele>
        <time>2009-11-25T17:57:55Z</time>
      </trkpt>
      <trkpt lat="49.5158931" lon="11.5614221">
        <ele>407.3000000</ele>
        <time>2009-11-25T17:58:01Z</time>
      </trkpt>
      <trkpt lat="49.5160486" lon="11.5621090">
        <ele>408.2000000</ele>
        <time>2009-11-25T17:58:15Z</time>
      </trkpt>
      <trkpt lat="49.5160859" lon="11.5624545">
        <ele>409.7000000</ele>
        <time>2009-11-25T17:58:22Z</time>
      </trkpt>
      <trkpt lat="49.5163449" lon="11.5631133">
        <ele>408.7000000</ele>
        <time>2009-11-25T17:58:38Z</time>
      </trkpt>
      <trkpt lat="49.5163979" lon="11.5631657">
        <ele>408.2000000</ele>
        <time>2009-11-25T17:58:40Z</time>
      </trkpt>
      <trkpt lat="49.5166905" lon="11.5633842">
        <ele>408.2000000</ele>
        <time>2009-11-25T17:58:50Z</time>
      </trkpt>
      <trkpt lat="49.5173606" lon="11.5632113">
        <ele>405.8000000</ele>
        <time>2009-11-25T17:59:11Z</time>
      </trkpt>
      <trkpt lat="49.5175828" lon="11.5630005">
        <ele>405.3000000</ele>
        <time>2009-11-25T17:59:19Z</time>
      </trkpt>
      <trkpt lat="49.5179897" lon="11.5629540">
        <ele>405.3000000</ele>
        <time>2009-11-25T17:59:31Z</time>
      </trkpt>
      <trkpt lat="49.5181191" lon="11.5629863">
        <ele>406.3000000</ele>
        <time>2009-11-25T17:59:36Z</time>
      </trkpt>
      <trkpt lat="49.5182140" lon="11.5630195">
        <ele>407.3000000</ele>
        <time>2009-11-25T17:59:39Z</time>
      </trkpt>
      <trkpt lat="49.5184185" lon="11.5631346">
        <ele>407.7000000</ele>
        <time>2009-11-25T17:59:45Z</time>
      </trkpt>
      <trkpt lat="49.5186235" lon="11.5633171">
        <ele>408.2000000</ele>
        <time>2009-11-25T17:59:53Z</time>
      </trkpt>
      <trkpt lat="49.5191915" lon="11.5643343">
        <ele>409.2000000</ele>
        <time>2009-11-25T18:00:20Z</time>
      </trkpt>
      <trkpt lat="49.5197348" lon="11.5656657">
        <ele>410.1000000</ele>
        <time>2009-11-25T18:00:51Z</time>
      </trkpt>
      <trkpt lat="49.5203450" lon="11.5673146">
        <ele>411.1000000</ele>
        <time>2009-11-25T18:01:29Z</time>
      </trkpt>
      <trkpt lat="49.5207822" lon="11.5686234">
        <ele>412.5000000</ele>
        <time>2009-11-25T18:01:59Z</time>
      </trkpt>
      <trkpt lat="49.5216234" lon="11.5698728">
        <ele>412.5000000</ele>
        <time>2009-11-25T18:02:35Z</time>
      </trkpt>
      <trkpt lat="49.5217290" lon="11.5700035">
        <ele>412.5000000</ele>
        <time>2009-11-25T18:02:39Z</time>
      </trkpt>
      <trkpt lat="49.5218436" lon="11.5703799">
        <ele>412.5000000</ele>
        <time>2009-11-25T18:02:47Z</time>
      </trkpt>
      <trkpt lat="49.5219905" lon="11.5721077">
        <ele>413.5000000</ele>
        <time>2009-11-25T18:03:22Z</time>
      </trkpt>
      <trkpt lat="49.5221550" lon="11.5737861">
        <ele>414.5000000</ele>
        <time>2009-11-25T18:03:56Z</time>
      </trkpt>
      <trkpt lat="49.5219858" lon="11.5751462">
        <ele>414.5000000</ele>
        <time>2009-11-25T18:04:24Z</time>
      </trkpt>
      <trkpt lat="49.5222211" lon="11.5763446">
        <ele>414.9000000</ele>
        <time>2009-11-25T18:04:49Z</time>
      </trkpt>
      <trkpt lat="49.5226841" lon="11.5780240">
        <ele>415.9000000</ele>
        <time>2009-11-25T18:05:26Z</time>
      </trkpt>
      <trkpt lat="49.5229584" lon="11.5783491">
        <ele>416.9000000</ele>
        <time>2009-11-25T18:05:37Z</time>
      </trkpt>
      <trkpt lat="49.5232609" lon="11.5784493">
        <ele>418.8000000</ele>
        <time>2009-11-25T18:05:46Z</time>
      </trkpt>
      <trkpt lat="49.5234396" lon="11.5786838">
        <ele>420.7000000</ele>
        <time>2009-11-25T18:05:54Z</time>
      </trkpt>
      <trkpt lat="49.5236430" lon="11.5792759">
        <ele>423.1000000</ele>
        <time>2009-11-25T18:06:07Z</time>
      </trkpt>
      <trkpt lat="49.5238042" lon="11.5796722">
        <ele>425.5000000</ele>
        <time>2009-11-25T18:06:16Z</time>
      </trkpt>
      <trkpt lat="49.5239071" lon="11.5798675">
        <ele>425.0000000</ele>
        <time>2009-11-25T18:06:21Z</time>
      </trkpt>
      <trkpt lat="49.5246441" lon="11.5806774">
        <ele>421.7000000</ele>
        <time>2009-11-25T18:06:49Z</time>
      </trkpt>
      <trkpt lat="49.5248563" lon="11.5808982">
        <ele>420.7000000</ele>
        <time>2009-11-25T18:06:57Z</time>
      </trkpt>
      <trkpt lat="49.5250808" lon="11.5812785">
        <ele>419.8000000</ele>
        <time>2009-11-25T18:07:08Z</time>
      </trkpt>
      <trkpt lat="49.5257219" lon="11.5827822">
        <ele>419.8000000</ele>
        <time>2009-11-25T18:07:44Z</time>
      </trkpt>
      <trkpt lat="49.5266772" lon="11.5841378">
        <ele>419.8000000</ele>
        <time>2009-11-25T18:08:24Z</time>
      </trkpt>
      <trkpt lat="49.5267612" lon="11.5845461">
        <ele>419.3000000</ele>
        <time>2009-11-25T18:08:33Z</time>
      </trkpt>
      <trkpt lat="49.5266425" lon="11.5857862">
        <ele>419.8000000</ele>
        <time>2009-11-25T18:08:58Z</time>
      </trkpt>
      <trkpt lat="49.5264658" lon="11.5863365">
        <ele>419.8000000</ele>
        <time>2009-11-25T18:09:10Z</time>
      </trkpt>
      <trkpt lat="49.5262359" lon="11.5867154">
        <ele>419.3000000</ele>
        <time>2009-11-25T18:09:20Z</time>
      </trkpt>
      <trkpt lat="49.5261836" lon="11.5873166">
        <ele>419.3000000</ele>
        <time>2009-11-25T18:09:33Z</time>
      </trkpt>
      <trkpt lat="49.5261973" lon="11.5873865">
        <ele>418.8000000</ele>
        <time>2009-11-25T18:09:34Z</time>
      </trkpt>
      <trkpt lat="49.5263174" lon="11.5877529">
        <ele>420.2000000</ele>
        <time>2009-11-25T18:09:42Z</time>
      </trkpt>
      <trkpt lat="49.5263757" lon="11.5878698">
        <ele>421.2000000</ele>
        <time>2009-11-25T18:09:45Z</time>
      </trkpt>
      <trkpt lat="49.5264042" lon="11.5881696">
        <ele>422.2000000</ele>
        <time>2009-11-25T18:09:51Z</time>
      </trkpt>
      <trkpt lat="49.5264788" lon="11.5891217">
        <ele>423.1000000</ele>
        <time>2009-11-25T18:10:11Z</time>
      </trkpt>
      <trkpt lat="49.5268854" lon="11.5897699">
        <ele>422.2000000</ele>
        <time>2009-11-25T18:10:29Z</time>
      </trkpt>
      <trkpt lat="49.5272490" lon="11.5904115">
        <ele>422.2000000</ele>
        <time>2009-11-25T18:10:46Z</time>
      </trkpt>
      <trkpt lat="49.5274320" lon="11.5915926">
        <ele>423.1000000</ele>
        <time>2009-11-25T18:11:10Z</time>
      </trkpt>
      <trkpt lat="49.5275251" lon="11.5918888">
        <ele>423.6000000</ele>
        <time>2009-11-25T18:11:17Z</time>
      </trkpt>
      <trkpt lat="49.5281720" lon="11.5929154">
        <ele>423.1000000</ele>
        <time>2009-11-25T18:11:46Z</time>
      </trkpt>
      <trkpt lat="49.5283537" lon="11.5931881">
        <ele>423.6000000</ele>
        <time>2009-11-25T18:11:53Z</time>
      </trkpt>
      <trkpt lat="49.5287208" lon="11.5935937">
        <ele>423.6000000</ele>
        <time>2009-11-25T18:12:07Z</time>
      </trkpt>
      <trkpt lat="49.5289756" lon="11.5940928">
        <ele>423.6000000</ele>
        <time>2009-11-25T18:12:20Z</time>
      </trkpt>
      <trkpt lat="49.5291433" lon="11.5946858">
        <ele>424.1000000</ele>
        <time>2009-11-25T18:12:33Z</time>
      </trkpt>
      <trkpt lat="49.5293123" lon="11.5959630">
        <ele>425.5000000</ele>
        <time>2009-11-25T18:12:59Z</time>
      </trkpt>
      <trkpt lat="49.5294278" lon="11.5980278">
        <ele>427.4000000</ele>
        <time>2009-11-25T18:13:41Z</time>
      </trkpt>
      <trkpt lat="49.5294443" lon="11.5983345">
        <ele>428.4000000</ele>
        <time>2009-11-25T18:13:47Z</time>
      </trkpt>
      <trkpt lat="49.5293848" lon="11.5986231">
        <ele>427.9000000</ele>
        <time>2009-11-25T18:13:53Z</time>
      </trkpt>
      <trkpt lat="49.5292776" lon="11.5989713">
        <ele>427.9000000</ele>
        <time>2009-11-25T18:14:01Z</time>
      </trkpt>
      <trkpt lat="49.5292544" lon="11.6005011">
        <ele>426.5000000</ele>
        <time>2009-11-25T18:14:32Z</time>
      </trkpt>
      <trkpt lat="49.5293386" lon="11.6010033">
        <ele>426.0000000</ele>
        <time>2009-11-25T18:14:42Z</time>
      </trkpt>
      <trkpt lat="49.5298045" lon="11.6019621">
        <ele>428.4000000</ele>
        <time>2009-11-25T18:15:06Z</time>
      </trkpt>
      <trkpt lat="49.5300520" lon="11.6030466">
        <ele>428.4000000</ele>
        <time>2009-11-25T18:15:29Z</time>
      </trkpt>
      <trkpt lat="49.5300919" lon="11.6032112">
        <ele>428.4000000</ele>
        <time>2009-11-25T18:15:33Z</time>
      </trkpt>
      <trkpt lat="49.5303250" lon="11.6036602">
        <ele>429.4000000</ele>
        <time>2009-11-25T18:15:44Z</time>
      </trkpt>
      <trkpt lat="49.5304033" lon="11.6038592">
        <ele>430.3000000</ele>
        <time>2009-11-25T18:15:49Z</time>
      </trkpt>
      <trkpt lat="49.5304524" lon="11.6039837">
        <ele>430.8000000</ele>
        <time>2009-11-25T18:15:52Z</time>
      </trkpt>
      <trkpt lat="49.5306578" lon="11.6041487">
        <ele>432.7000000</ele>
        <time>2009-11-25T18:15:59Z</time>
      </trkpt>
      <trkpt lat="49.5307941" lon="11.6042098">
        <ele>434.7000000</ele>
        <time>2009-11-25T18:16:03Z</time>
      </trkpt>
      <trkpt lat="49.5310569" lon="11.6043440">
        <ele>436.6000000</ele>
        <time>2009-11-25T18:16:12Z</time>
      </trkpt>
      <trkpt lat="49.5311366" lon="11.6044128">
        <ele>435.6000000</ele>
        <time>2009-11-25T18:16:15Z</time>
      </trkpt>
      <trkpt lat="49.5314404" lon="11.6045064">
        <ele>434.7000000</ele>
        <time>2009-11-25T18:16:24Z</time>
      </trkpt>
      <trkpt lat="49.5314392" lon="11.6047416">
        <ele>434.2000000</ele>
        <time>2009-11-25T18:16:29Z</time>
      </trkpt>
      <trkpt lat="49.5308897" lon="11.6059760">
        <ele>431.8000000</ele>
        <time>2009-11-25T18:16:59Z</time>
      </trkpt>
      <trkpt lat="49.5304141" lon="11.6066220">
        <ele>430.3000000</ele>
        <time>2009-11-25T18:17:19Z</time>
      </trkpt>
      <trkpt lat="49.5297649" lon="11.6068585">
        <ele>429.8000000</ele>
        <time>2009-11-25T18:17:39Z</time>
      </trkpt>
      <trkpt lat="49.5295234" lon="11.6072526">
        <ele>430.3000000</ele>
        <time>2009-11-25T18:17:50Z</time>
      </trkpt>
      <trkpt lat="49.5294395" lon="11.6089965">
        <ele>431.3000000</ele>
        <time>2009-11-25T18:18:25Z</time>
      </trkpt>
      <trkpt lat="49.5289569" lon="11.6103751">
        <ele>431.8000000</ele>
        <time>2009-11-25T18:18:57Z</time>
      </trkpt>
      <trkpt lat="49.5277404" lon="11.6131387">
        <ele>433.2000000</ele>
        <time>2009-11-25T18:20:04Z</time>
      </trkpt>
      <trkpt lat="49.5272887" lon="11.6149135">
        <ele>436.1000000</ele>
        <time>2009-11-25T18:20:42Z</time>
      </trkpt>
      <trkpt lat="49.5267259" lon="11.6173624">
        <ele>438.0000000</ele>
        <time>2009-11-25T18:21:34Z</time>
      </trkpt>
      <trkpt lat="49.5262752" lon="11.6196562">
        <ele>438.0000000</ele>
        <time>2009-11-25T18:22:22Z</time>
      </trkpt>
      <trkpt lat="49.5263721" lon="11.6212845">
        <ele>440.9000000</ele>
        <time>2009-11-25T18:22:55Z</time>
      </trkpt>
      <trkpt lat="49.5264410" lon="11.6218460">
        <ele>441.4000000</ele>
        <time>2009-11-25T18:23:06Z</time>
      </trkpt>
      <trkpt lat="49.5265746" lon="11.6222781">
        <ele>440.9000000</ele>
        <time>2009-11-25T18:23:16Z</time>
      </trkpt>
      <trkpt lat="49.5271360" lon="11.6233279">
        <ele>437.5000000</ele>
        <time>2009-11-25T18:23:43Z</time>
      </trkpt>
      <trkpt lat="49.5277717" lon="11.6240696">
        <ele>438.0000000</ele>
        <time>2009-11-25T18:24:08Z</time>
      </trkpt>
      <trkpt lat="49.5283861" lon="11.6250379">
        <ele>438.5000000</ele>
        <time>2009-11-25T18:24:35Z</time>
      </trkpt>
      <trkpt lat="49.5288564" lon="11.6257766">
        <ele>439.5000000</ele>
        <time>2009-11-25T18:24:56Z</time>
      </trkpt>
      <trkpt lat="49.5290693" lon="11.6263343">
        <ele>439.5000000</ele>
        <time>2009-11-25T18:25:09Z</time>
      </trkpt>
      <trkpt lat="49.5289541" lon="11.6270608">
        <ele>440.4000000</ele>
        <time>2009-11-25T18:25:24Z</time>
      </trkpt>
      <trkpt lat="49.5289239" lon="11.6272416">
        <ele>440.9000000</ele>
        <time>2009-11-25T18:25:28Z</time>
      </trkpt>
      <trkpt lat="49.5290637" lon="11.6287276">
        <ele>442.3000000</ele>
        <time>2009-11-25T18:25:58Z</time>
      </trkpt>
      <trkpt lat="49.5290298" lon="11.6297420">
        <ele>443.3000000</ele>
        <time>2009-11-25T18:26:18Z</time>
      </trkpt>
      <trkpt lat="49.5289722" lon="11.6306320">
        <ele>443.8000000</ele>
        <time>2009-11-25T18:26:36Z</time>
      </trkpt>
      <trkpt lat="49.5287414" lon="11.6318788">
        <ele>443.3000000</ele>
        <time>2009-11-25T18:27:02Z</time>
      </trkpt>
      <trkpt lat="49.5284441" lon="11.6321941">
        <ele>443.3000000</ele>
        <time>2009-11-25T18:27:13Z</time>
      </trkpt>
      <trkpt lat="49.5274542" lon="11.6331632">
        <ele>443.3000000</ele>
        <time>2009-11-25T18:27:50Z</time>
      </trkpt>
      <trkpt lat="49.5268895" lon="11.6341324">
        <ele>445.7000000</ele>
        <time>2009-11-25T18:28:16Z</time>
      </trkpt>
      <trkpt lat="49.5266803" lon="11.6344237">
        <ele>447.2000000</ele>
        <time>2009-11-25T18:28:24Z</time>
      </trkpt>
      <trkpt lat="49.5265295" lon="11.6345423">
        <ele>446.7000000</ele>
        <time>2009-11-25T18:28:30Z</time>
      </trkpt>
      <trkpt lat="49.5258701" lon="11.6353334">
        <ele>447.6000000</ele>
        <time>2009-11-25T18:28:56Z</time>
      </trkpt>
      <trkpt lat="49.5256277" lon="11.6364975">
        <ele>448.1000000</ele>
        <time>2009-11-25T18:29:20Z</time>
      </trkpt>
      <trkpt lat="49.5255221" lon="11.6378341">
        <ele>452.0000000</ele>
        <time>2009-11-25T18:29:47Z</time>
      </trkpt>
      <trkpt lat="49.5249906" lon="11.6391491">
        <ele>453.4000000</ele>
        <time>2009-11-25T18:30:18Z</time>
      </trkpt>
      <trkpt lat="49.5247551" lon="11.6396847">
        <ele>456.3000000</ele>
        <time>2009-11-25T18:30:31Z</time>
      </trkpt>
      <trkpt lat="49.5243999" lon="11.6407735">
        <ele>459.2000000</ele>
        <time>2009-11-25T18:30:56Z</time>
      </trkpt>
      <trkpt lat="49.5241643" lon="11.6415695">
        <ele>461.6000000</ele>
        <time>2009-11-25T18:31:13Z</time>
      </trkpt>
      <trkpt lat="49.5238752" lon="11.6425946">
        <ele>464.9000000</ele>
        <time>2009-11-25T18:31:36Z</time>
      </trkpt>
      <trkpt lat="49.5236436" lon="11.6436320">
        <ele>467.8000000</ele>
        <time>2009-11-25T18:31:58Z</time>
      </trkpt>
      <trkpt lat="49.5234223" lon="11.6447912">
        <ele>471.2000000</ele>
        <time>2009-11-25T18:32:22Z</time>
      </trkpt>
      <trkpt lat="49.5232371" lon="11.6457887">
        <ele>474.1000000</ele>
        <time>2009-11-25T18:32:43Z</time>
      </trkpt>
      <trkpt lat="49.5232190" lon="11.6458630">
        <ele>474.5000000</ele>
        <time>2009-11-25T18:32:44Z</time>
      </trkpt>
      <trkpt lat="49.5228841" lon="11.6461052">
        <ele>476.0000000</ele>
        <time>2009-11-25T18:32:56Z</time>
      </trkpt>
      <trkpt lat="49.5228356" lon="11.6460800">
        <ele>476.0000000</ele>
        <time>2009-11-25T18:32:57Z</time>
      </trkpt>
      <trkpt lat="49.5226349" lon="11.6459878">
        <ele>476.5000000</ele>
        <time>2009-11-25T18:33:04Z</time>
      </trkpt>
      <trkpt lat="49.5222902" lon="11.6463317">
        <ele>476.5000000</ele>
        <time>2009-11-25T18:33:17Z</time>
      </trkpt>
      <trkpt lat="49.5218887" lon="11.6474876">
        <ele>478.4000000</ele>
        <time>2009-11-25T18:33:43Z</time>
      </trkpt>
      <trkpt lat="49.5213375" lon="11.6484878">
        <ele>481.8000000</ele>
        <time>2009-11-25T18:34:09Z</time>
      </trkpt>
      <trkpt lat="49.5207079" lon="11.6494686">
        <ele>481.3000000</ele>
        <time>2009-11-25T18:34:37Z</time>
      </trkpt>
      <trkpt lat="49.5204946" lon="11.6498469">
        <ele>479.8000000</ele>
        <time>2009-11-25T18:34:47Z</time>
      </trkpt>
      <trkpt lat="49.5203813" lon="11.6500820">
        <ele>478.9000000</ele>
        <time>2009-11-25T18:34:53Z</time>
      </trkpt>
      <trkpt lat="49.5202222" lon="11.6504479">
        <ele>476.5000000</ele>
        <time>2009-11-25T18:35:02Z</time>
      </trkpt>
      <trkpt lat="49.5199254" lon="11.6511679">
        <ele>473.6000000</ele>
        <time>2009-11-25T18:35:19Z</time>
      </trkpt>
      <trkpt lat="49.5198108" lon="11.6514663">
        <ele>472.1000000</ele>
        <time>2009-11-25T18:35:26Z</time>
      </trkpt>
      <trkpt lat="49.5194655" lon="11.6529690">
        <ele>471.2000000</ele>
        <time>2009-11-25T18:35:58Z</time>
      </trkpt>
      <trkpt lat="49.5193099" lon="11.6548763">
        <ele>469.3000000</ele>
        <time>2009-11-25T18:36:36Z</time>
      </trkpt>
      <trkpt lat="49.5192332" lon="11.6551632">
        <ele>468.3000000</ele>
        <time>2009-11-25T18:36:43Z</time>
      </trkpt>
      <trkpt lat="49.5189998" lon="11.6557103">
        <ele>465.9000000</ele>
        <time>2009-11-25T18:36:56Z</time>
      </trkpt>
      <trkpt lat="49.5187573" lon="11.6560937">
        <ele>464.0000000</ele>
        <time>2009-11-25T18:37:06Z</time>
      </trkpt>
      <trkpt lat="49.5181041" lon="11.6566747">
        <ele>459.6000000</ele>
        <time>2009-11-25T18:37:30Z</time>
      </trkpt>
      <trkpt lat="49.5175805" lon="11.6571886">
        <ele>456.8000000</ele>
        <time>2009-11-25T18:37:49Z</time>
      </trkpt>
      <trkpt lat="49.5174023" lon="11.6574409">
        <ele>456.3000000</ele>
        <time>2009-11-25T18:37:56Z</time>
      </trkpt>
      <trkpt lat="49.5168770" lon="11.6587221">
        <ele>453.4000000</ele>
        <time>2009-11-25T18:38:27Z</time>
      </trkpt>
      <trkpt lat="49.5163961" lon="11.6606854">
        <ele>452.9000000</ele>
        <time>2009-11-25T18:39:09Z</time>
      </trkpt>
      <trkpt lat="49.5159937" lon="11.6614944">
        <ele>451.5000000</ele>
        <time>2009-11-25T18:39:30Z</time>
      </trkpt>
      <trkpt lat="49.5161154" lon="11.6617513">
        <ele>450.5000000</ele>
        <time>2009-11-25T18:39:36Z</time>
      </trkpt>
      <trkpt lat="49.5161215" lon="11.6621501">
        <ele>449.6000000</ele>
        <time>2009-11-25T18:39:44Z</time>
      </trkpt>
      <trkpt lat="49.5160777" lon="11.6623979">
        <ele>449.1000000</ele>
        <time>2009-11-25T18:39:49Z</time>
      </trkpt>
      <trkpt lat="49.5157294" lon="11.6642055">
        <ele>446.7000000</ele>
        <time>2009-11-25T18:40:27Z</time>
      </trkpt>
      <trkpt lat="49.5151234" lon="11.6659948">
        <ele>445.2000000</ele>
        <time>2009-11-25T18:41:07Z</time>
      </trkpt>
      <trkpt lat="49.5148860" lon="11.6678021">
        <ele>441.9000000</ele>
        <time>2009-11-25T18:41:44Z</time>
      </trkpt>
      <trkpt lat="49.5144250" lon="11.6704518">
        <ele>440.9000000</ele>
        <time>2009-11-25T18:42:40Z</time>
      </trkpt>
      <trkpt lat="49.5140973" lon="11.6724458">
        <ele>440.4000000</ele>
        <time>2009-11-25T18:43:21Z</time>
      </trkpt>
      <trkpt lat="49.5134461" lon="11.6745286">
        <ele>439.0000000</ele>
        <time>2009-11-25T18:44:07Z</time>
      </trkpt>
      <trkpt lat="49.5133771" lon="11.6748138">
        <ele>438.5000000</ele>
        <time>2009-11-25T18:44:13Z</time>
      </trkpt>
      <trkpt lat="49.5128943" lon="11.6767296">
        <ele>435.1000000</ele>
        <time>2009-11-25T18:44:55Z</time>
      </trkpt>
      <trkpt lat="49.5126001" lon="11.6784501">
        <ele>433.7000000</ele>
        <time>2009-11-25T18:45:30Z</time>
      </trkpt>
      <trkpt lat="49.5121146" lon="11.6798004">
        <ele>433.7000000</ele>
        <time>2009-11-25T18:46:01Z</time>
      </trkpt>
      <trkpt lat="49.5117616" lon="11.6821406">
        <ele>433.2000000</ele>
        <time>2009-11-25T18:46:50Z</time>
      </trkpt>
      <trkpt lat="49.5113585" lon="11.6838247">
        <ele>432.7000000</ele>
        <time>2009-11-25T18:47:26Z</time>
      </trkpt>
      <trkpt lat="49.5108769" lon="11.6851059">
        <ele>431.3000000</ele>
        <time>2009-11-25T18:47:55Z</time>
      </trkpt>
      <trkpt lat="49.5105899" lon="11.6862242">
        <ele>431.3000000</ele>
        <time>2009-11-25T18:48:19Z</time>
      </trkpt>
      <trkpt lat="49.5102747" lon="11.6867863">
        <ele>430.8000000</ele>
        <time>2009-11-25T18:48:34Z</time>
      </trkpt>
      <trkpt lat="49.5098308" lon="11.6882760">
        <ele>430.3000000</ele>
        <time>2009-11-25T18:49:07Z</time>
      </trkpt>
      <trkpt lat="49.5091791" lon="11.6897807">
        <ele>430.8000000</ele>
        <time>2009-11-25T18:49:44Z</time>
      </trkpt>
      <trkpt lat="49.5086828" lon="11.6912836">
        <ele>429.8000000</ele>
        <time>2009-11-25T18:50:17Z</time>
      </trkpt>
      <trkpt lat="49.5081527" lon="11.6925130">
        <ele>429.4000000</ele>
        <time>2009-11-25T18:50:47Z</time>
      </trkpt>
      <trkpt lat="49.5079765" lon="11.6934156">
        <ele>430.8000000</ele>
        <time>2009-11-25T18:51:06Z</time>
      </trkpt>
      <trkpt lat="49.5077950" lon="11.6940167">
        <ele>430.8000000</ele>
        <time>2009-11-25T18:51:19Z</time>
      </trkpt>
      <trkpt lat="49.5074187" lon="11.6947984">
        <ele>430.8000000</ele>
        <time>2009-11-25T18:51:39Z</time>
      </trkpt>
      <trkpt lat="49.5073450" lon="11.6950087">
        <ele>430.8000000</ele>
        <time>2009-11-25T18:51:44Z</time>
      </trkpt>
      <trkpt lat="49.5073226" lon="11.6952418">
        <ele>431.3000000</ele>
        <time>2009-11-25T18:51:48Z</time>
      </trkpt>
      <trkpt lat="49.5072207" lon="11.6969989">
        <ele>434.7000000</ele>
        <time>2009-11-25T18:52:24Z</time>
      </trkpt>
      <trkpt lat="49.5072399" lon="11.6983302">
        <ele>438.5000000</ele>
        <time>2009-11-25T18:52:51Z</time>
      </trkpt>
      <trkpt lat="49.5071425" lon="11.6991891">
        <ele>441.4000000</ele>
        <time>2009-11-25T18:53:08Z</time>
      </trkpt>
      <trkpt lat="49.5069752" lon="11.7006346">
        <ele>442.8000000</ele>
        <time>2009-11-25T18:53:38Z</time>
      </trkpt>
      <trkpt lat="49.5067426" lon="11.7021831">
        <ele>441.9000000</ele>
        <time>2009-11-25T18:54:09Z</time>
      </trkpt>
      <trkpt lat="49.5067856" lon="11.7037032">
        <ele>440.9000000</ele>
        <time>2009-11-25T18:54:40Z</time>
      </trkpt>
      <trkpt lat="49.5068761" lon="11.7052078">
        <ele>437.5000000</ele>
        <time>2009-11-25T18:55:10Z</time>
      </trkpt>
      <trkpt lat="49.5069181" lon="11.7054573">
        <ele>435.6000000</ele>
        <time>2009-11-25T18:55:16Z</time>
      </trkpt>
      <trkpt lat="49.5069475" lon="11.7065433">
        <ele>431.3000000</ele>
        <time>2009-11-25T18:55:37Z</time>
      </trkpt>
      <trkpt lat="49.5069353" lon="11.7068401">
        <ele>428.4000000</ele>
        <time>2009-11-25T18:55:43Z</time>
      </trkpt>
      <trkpt lat="49.5069128" lon="11.7072703">
        <ele>427.9000000</ele>
        <time>2009-11-25T18:55:52Z</time>
      </trkpt>
      <trkpt lat="49.5067750" lon="11.7079154">
        <ele>426.5000000</ele>
        <time>2009-11-25T18:56:06Z</time>
      </trkpt>
      <trkpt lat="49.5068176" lon="11.7084127">
        <ele>426.5000000</ele>
        <time>2009-11-25T18:56:16Z</time>
      </trkpt>
      <trkpt lat="49.5072751" lon="11.7103666">
        <ele>427.0000000</ele>
        <time>2009-11-25T18:56:57Z</time>
      </trkpt>
      <trkpt lat="49.5077300" lon="11.7122771">
        <ele>427.9000000</ele>
        <time>2009-11-25T18:57:38Z</time>
      </trkpt>
      <trkpt lat="49.5082137" lon="11.7143672">
        <ele>424.6000000</ele>
        <time>2009-11-25T18:58:23Z</time>
      </trkpt>
      <trkpt lat="49.5084427" lon="11.7157545">
        <ele>421.2000000</ele>
        <time>2009-11-25T18:58:52Z</time>
      </trkpt>
      <trkpt lat="49.5084984" lon="11.7164278">
        <ele>420.2000000</ele>
        <time>2009-11-25T18:59:05Z</time>
      </trkpt>
      <trkpt lat="49.5085119" lon="11.7171229">
        <ele>416.9000000</ele>
        <time>2009-11-25T18:59:19Z</time>
      </trkpt>
      <trkpt lat="49.5085105" lon="11.7172985">
        <ele>417.3000000</ele>
        <time>2009-11-25T18:59:23Z</time>
      </trkpt>
      <trkpt lat="49.5084482" lon="11.7183611">
        <ele>414.0000000</ele>
        <time>2009-11-25T18:59:44Z</time>
      </trkpt>
      <trkpt lat="49.5082831" lon="11.7197364">
        <ele>411.1000000</ele>
        <time>2009-11-25T19:00:12Z</time>
      </trkpt>
      <trkpt lat="49.5081826" lon="11.7219119">
        <ele>407.7000000</ele>
        <time>2009-11-25T19:00:56Z</time>
      </trkpt>
      <trkpt lat="49.5082054" lon="11.7233025">
        <ele>408.2000000</ele>
        <time>2009-11-25T19:01:24Z</time>
      </trkpt>
      <trkpt lat="49.5082101" lon="11.7235012">
        <ele>408.7000000</ele>
        <time>2009-11-25T19:01:28Z</time>
      </trkpt>
      <trkpt lat="49.5082609" lon="11.7238230">
        <ele>408.7000000</ele>
        <time>2009-11-25T19:01:35Z</time>
      </trkpt>
      <trkpt lat="49.5082733" lon="11.7238829">
        <ele>408.7000000</ele>
        <time>2009-11-25T19:01:36Z</time>
      </trkpt>
      <trkpt lat="49.5082874" lon="11.7241742">
        <ele>408.7000000</ele>
        <time>2009-11-25T19:01:42Z</time>
      </trkpt>
      <trkpt lat="49.5081710" lon="11.7247948">
        <ele>408.7000000</ele>
        <time>2009-11-25T19:01:55Z</time>
      </trkpt>
      <trkpt lat="49.5077605" lon="11.7255743">
        <ele>406.3000000</ele>
        <time>2009-11-25T19:02:15Z</time>
      </trkpt>
      <trkpt lat="49.5066937" lon="11.7276312">
        <ele>405.3000000</ele>
        <time>2009-11-25T19:03:08Z</time>
      </trkpt>
      <trkpt lat="49.5062788" lon="11.7290637">
        <ele>404.4000000</ele>
        <time>2009-11-25T19:03:39Z</time>
      </trkpt>
      <trkpt lat="49.5059452" lon="11.7306533">
        <ele>405.3000000</ele>
        <time>2009-11-25T19:04:13Z</time>
      </trkpt>
      <trkpt lat="49.5057980" lon="11.7326839">
        <ele>403.4000000</ele>
        <time>2009-11-25T19:04:54Z</time>
      </trkpt>
      <trkpt lat="49.5057238" lon="11.7330553">
        <ele>402.4000000</ele>
        <time>2009-11-25T19:05:02Z</time>
      </trkpt>
      <trkpt lat="49.5056333" lon="11.7334191">
        <ele>402.0000000</ele>
        <time>2009-11-25T19:05:09Z</time>
      </trkpt>
      <trkpt lat="49.5055502" lon="11.7338017">
        <ele>402.0000000</ele>
        <time>2009-11-25T19:05:17Z</time>
      </trkpt>
      <trkpt lat="49.5055723" lon="11.7338635">
        <ele>402.0000000</ele>
        <time>2009-11-25T19:05:19Z</time>
      </trkpt>
      <trkpt lat="49.5052746" lon="11.7340377">
        <ele>402.0000000</ele>
        <time>2009-11-25T19:05:29Z</time>
      </trkpt>
      <trkpt lat="49.5044851" lon="11.7340314">
        <ele>402.4000000</ele>
        <time>2009-11-25T19:05:53Z</time>
      </trkpt>
      <trkpt lat="49.5039373" lon="11.7340013">
        <ele>402.9000000</ele>
        <time>2009-11-25T19:06:10Z</time>
      </trkpt>
      <trkpt lat="49.5037452" lon="11.7341060">
        <ele>403.4000000</ele>
        <time>2009-11-25T19:06:16Z</time>
      </trkpt>
      <trkpt lat="49.5035243" lon="11.7343474">
        <ele>404.4000000</ele>
        <time>2009-11-25T19:06:25Z</time>
      </trkpt>
      <trkpt lat="49.5029860" lon="11.7352576">
        <ele>404.4000000</ele>
        <time>2009-11-25T19:06:49Z</time>
      </trkpt>
      <trkpt lat="49.5028932" lon="11.7357138">
        <ele>403.9000000</ele>
        <time>2009-11-25T19:06:59Z</time>
      </trkpt>
      <trkpt lat="49.5028218" lon="11.7371123">
        <ele>402.0000000</ele>
        <time>2009-11-25T19:07:27Z</time>
      </trkpt>
      <trkpt lat="49.5027794" lon="11.7373550">
        <ele>401.0000000</ele>
        <time>2009-11-25T19:07:32Z</time>
      </trkpt>
      <trkpt lat="49.5025007" lon="11.7377775">
        <ele>401.0000000</ele>
        <time>2009-11-25T19:07:44Z</time>
      </trkpt>
      <trkpt lat="49.5023683" lon="11.7378569">
        <ele>401.0000000</ele>
        <time>2009-11-25T19:07:49Z</time>
      </trkpt>
      <trkpt lat="49.5020407" lon="11.7376923">
        <ele>401.0000000</ele>
        <time>2009-11-25T19:07:59Z</time>
      </trkpt>
      <trkpt lat="49.5018663" lon="11.7374813">
        <ele>402.0000000</ele>
        <time>2009-11-25T19:08:06Z</time>
      </trkpt>
      <trkpt lat="49.5011449" lon="11.7365027">
        <ele>402.0000000</ele>
        <time>2009-11-25T19:08:36Z</time>
      </trkpt>
      <trkpt lat="49.5011004" lon="11.7364200">
        <ele>401.0000000</ele>
        <time>2009-11-25T19:08:38Z</time>
      </trkpt>
      <trkpt lat="49.5007713" lon="11.7364163">
        <ele>402.4000000</ele>
        <time>2009-11-25T19:08:48Z</time>
      </trkpt>
      <trkpt lat="49.5007021" lon="11.7365909">
        <ele>402.4000000</ele>
        <time>2009-11-25T19:08:52Z</time>
      </trkpt>
      <trkpt lat="49.5001274" lon="11.7383443">
        <ele>402.0000000</ele>
        <time>2009-11-25T19:09:32Z</time>
      </trkpt>
      <trkpt lat="49.4995188" lon="11.7399781">
        <ele>401.5000000</ele>
        <time>2009-11-25T19:10:10Z</time>
      </trkpt>
      <trkpt lat="49.4992494" lon="11.7409590">
        <ele>401.5000000</ele>
        <time>2009-11-25T19:10:31Z</time>
      </trkpt>
      <trkpt lat="49.4991681" lon="11.7415385">
        <ele>400.0000000</ele>
        <time>2009-11-25T19:10:43Z</time>
      </trkpt>
      <trkpt lat="49.4990957" lon="11.7416385">
        <ele>399.1000000</ele>
        <time>2009-11-25T19:10:46Z</time>
      </trkpt>
      <trkpt lat="49.4984766" lon="11.7430669">
        <ele>398.6000000</ele>
        <time>2009-11-25T19:11:21Z</time>
      </trkpt>
      <trkpt lat="49.4983471" lon="11.7433197">
        <ele>395.7000000</ele>
        <time>2009-11-25T19:11:27Z</time>
      </trkpt>
      <trkpt lat="49.4982700" lon="11.7434809">
        <ele>395.2000000</ele>
        <time>2009-11-25T19:11:31Z</time>
      </trkpt>
      <trkpt lat="49.4981517" lon="11.7437596">
        <ele>395.2000000</ele>
        <time>2009-11-25T19:11:38Z</time>
      </trkpt>
      <trkpt lat="49.4977347" lon="11.7449401">
        <ele>396.7000000</ele>
        <time>2009-11-25T19:12:05Z</time>
      </trkpt>
      <trkpt lat="49.4976989" lon="11.7450173">
        <ele>396.7000000</ele>
        <time>2009-11-25T19:12:07Z</time>
      </trkpt>
      <trkpt lat="49.4973961" lon="11.7463216">
        <ele>395.7000000</ele>
        <time>2009-11-25T19:12:34Z</time>
      </trkpt>
      <trkpt lat="49.4970976" lon="11.7475592">
        <ele>396.2000000</ele>
        <time>2009-11-25T19:13:01Z</time>
      </trkpt>
      <trkpt lat="49.4969455" lon="11.7489578">
        <ele>396.7000000</ele>
        <time>2009-11-25T19:13:29Z</time>
      </trkpt>
      <trkpt lat="49.4969190" lon="11.7494681">
        <ele>395.7000000</ele>
        <time>2009-11-25T19:13:40Z</time>
      </trkpt>
      <trkpt lat="49.4964969" lon="11.7510976">
        <ele>395.2000000</ele>
        <time>2009-11-25T19:14:15Z</time>
      </trkpt>
      <trkpt lat="49.4962113" lon="11.7519396">
        <ele>394.3000000</ele>
        <time>2009-11-25T19:14:34Z</time>
      </trkpt>
      <trkpt lat="49.4963358" lon="11.7523516">
        <ele>394.8000000</ele>
        <time>2009-11-25T19:14:43Z</time>
      </trkpt>
      <trkpt lat="49.4968440" lon="11.7525306">
        <ele>394.3000000</ele>
        <time>2009-11-25T19:14:59Z</time>
      </trkpt>
      <trkpt lat="49.4976049" lon="11.7532704">
        <ele>394.8000000</ele>
        <time>2009-11-25T19:15:27Z</time>
      </trkpt>
      <trkpt lat="49.4979867" lon="11.7536477">
        <ele>395.2000000</ele>
        <time>2009-11-25T19:15:41Z</time>
      </trkpt>
      <trkpt lat="49.4979850" lon="11.7538200">
        <ele>395.7000000</ele>
        <time>2009-11-25T19:15:45Z</time>
      </trkpt>
      <trkpt lat="49.4975690" lon="11.7544589">
        <ele>395.2000000</ele>
        <time>2009-11-25T19:16:03Z</time>
      </trkpt>
      <trkpt lat="49.4970536" lon="11.7551163">
        <ele>395.2000000</ele>
        <time>2009-11-25T19:16:23Z</time>
      </trkpt>
      <trkpt lat="49.4961331" lon="11.7558671">
        <ele>394.8000000</ele>
        <time>2009-11-25T19:16:56Z</time>
      </trkpt>
      <trkpt lat="49.4948704" lon="11.7568200">
        <ele>394.3000000</ele>
        <time>2009-11-25T19:17:39Z</time>
      </trkpt>
      <trkpt lat="49.4945249" lon="11.7571174">
        <ele>394.3000000</ele>
        <time>2009-11-25T19:17:51Z</time>
      </trkpt>
      <trkpt lat="49.4942160" lon="11.7568298">
        <ele>392.8000000</ele>
        <time>2009-11-25T19:18:03Z</time>
      </trkpt>
      <trkpt lat="49.4940558" lon="11.7568864">
        <ele>392.8000000</ele>
        <time>2009-11-25T19:18:08Z</time>
      </trkpt>
      <trkpt lat="49.4938279" lon="11.7571040">
        <ele>392.8000000</ele>
        <time>2009-11-25T19:18:16Z</time>
      </trkpt>
      <trkpt lat="49.4936291" lon="11.7574236">
        <ele>392.4000000</ele>
        <time>2009-11-25T19:18:25Z</time>
      </trkpt>
      <trkpt lat="49.4934912" lon="11.7576636">
        <ele>392.4000000</ele>
        <time>2009-11-25T19:18:31Z</time>
      </trkpt>
      <trkpt lat="49.4932893" lon="11.7580482">
        <ele>392.4000000</ele>
        <time>2009-11-25T19:18:41Z</time>
      </trkpt>
      <trkpt lat="49.4928699" lon="11.7588664">
        <ele>392.4000000</ele>
        <time>2009-11-25T19:19:02Z</time>
      </trkpt>
      <trkpt lat="49.4922279" lon="11.7599649">
        <ele>394.3000000</ele>
        <time>2009-11-25T19:19:32Z</time>
      </trkpt>
      <trkpt lat="49.4914794" lon="11.7612625">
        <ele>393.3000000</ele>
        <time>2009-11-25T19:20:07Z</time>
      </trkpt>
      <trkpt lat="49.4908250" lon="11.7624169">
        <ele>391.9000000</ele>
        <time>2009-11-25T19:20:37Z</time>
      </trkpt>
      <trkpt lat="49.4901490" lon="11.7636442">
        <ele>391.9000000</ele>
        <time>2009-11-25T19:21:10Z</time>
      </trkpt>
      <trkpt lat="49.4900037" lon="11.7638874">
        <ele>391.9000000</ele>
        <time>2009-11-25T19:21:16Z</time>
      </trkpt>
      <trkpt lat="49.4900259" lon="11.7644242">
        <ele>391.4000000</ele>
        <time>2009-11-25T19:21:27Z</time>
      </trkpt>
      <trkpt lat="49.4900145" lon="11.7645095">
        <ele>391.9000000</ele>
        <time>2009-11-25T19:21:29Z</time>
      </trkpt>
      <trkpt lat="49.4899057" lon="11.7657584">
        <ele>390.9000000</ele>
        <time>2009-11-25T19:21:54Z</time>
      </trkpt>
      <trkpt lat="49.4899260" lon="11.7678757">
        <ele>391.9000000</ele>
        <time>2009-11-25T19:22:37Z</time>
      </trkpt>
      <trkpt lat="49.4898796" lon="11.7703525">
        <ele>391.9000000</ele>
        <time>2009-11-25T19:23:27Z</time>
      </trkpt>
      <trkpt lat="49.4902186" lon="11.7724687">
        <ele>391.4000000</ele>
        <time>2009-11-25T19:24:10Z</time>
      </trkpt>
      <trkpt lat="49.4909245" lon="11.7744604">
        <ele>390.4000000</ele>
        <time>2009-11-25T19:24:56Z</time>
      </trkpt>
      <trkpt lat="49.4913256" lon="11.7755514">
        <ele>389.5000000</ele>
        <time>2009-11-25T19:25:21Z</time>
      </trkpt>
      <trkpt lat="49.4913411" lon="11.7771982">
        <ele>390.0000000</ele>
        <time>2009-11-25T19:25:54Z</time>
      </trkpt>
      <trkpt lat="49.4912998" lon="11.7787186">
        <ele>389.0000000</ele>
        <time>2009-11-25T19:26:25Z</time>
      </trkpt>
      <trkpt lat="49.4912363" lon="11.7793649">
        <ele>389.0000000</ele>
        <time>2009-11-25T19:26:38Z</time>
      </trkpt>
      <trkpt lat="49.4911721" lon="11.7819235">
        <ele>388.0000000</ele>
        <time>2009-11-25T19:27:29Z</time>
      </trkpt>
      <trkpt lat="49.4910940" lon="11.7832506">
        <ele>388.5000000</ele>
        <time>2009-11-25T19:27:56Z</time>
      </trkpt>
      <trkpt lat="49.4905304" lon="11.7851731">
        <ele>388.0000000</ele>
        <time>2009-11-25T19:28:38Z</time>
      </trkpt>
      <trkpt lat="49.4904272" lon="11.7855362">
        <ele>386.6000000</ele>
        <time>2009-11-25T19:28:46Z</time>
      </trkpt>
      <trkpt lat="49.4901517" lon="11.7864411">
        <ele>387.1000000</ele>
        <time>2009-11-25T19:29:07Z</time>
      </trkpt>
      <trkpt lat="49.4899176" lon="11.7866746">
        <ele>386.6000000</ele>
        <time>2009-11-25T19:29:15Z</time>
      </trkpt>
      <trkpt lat="49.4893805" lon="11.7868710">
        <ele>388.5000000</ele>
        <time>2009-11-25T19:29:32Z</time>
      </trkpt>
      <trkpt lat="49.4887479" lon="11.7868131">
        <ele>390.9000000</ele>
        <time>2009-11-25T19:29:52Z</time>
      </trkpt>
      <trkpt lat="49.4885872" lon="11.7867364">
        <ele>391.4000000</ele>
        <time>2009-11-25T19:29:57Z</time>
      </trkpt>
      <trkpt lat="49.4884186" lon="11.7866968">
        <ele>391.9000000</ele>
        <time>2009-11-25T19:30:02Z</time>
      </trkpt>
      <trkpt lat="49.4875067" lon="11.7863815">
        <ele>394.3000000</ele>
        <time>2009-11-25T19:30:31Z</time>
      </trkpt>
      <trkpt lat="49.4874027" lon="11.7863348">
        <ele>395.7000000</ele>
        <time>2009-11-25T19:30:35Z</time>
      </trkpt>
      <trkpt lat="49.4873061" lon="11.7862540">
        <ele>396.7000000</ele>
        <time>2009-11-25T19:30:38Z</time>
      </trkpt>
      <trkpt lat="49.4868173" lon="11.7853434">
        <ele>397.6000000</ele>
        <time>2009-11-25T19:31:02Z</time>
      </trkpt>
      <trkpt lat="49.4867971" lon="11.7852675">
        <ele>398.1000000</ele>
        <time>2009-11-25T19:31:03Z</time>
      </trkpt>
      <trkpt lat="49.4866687" lon="11.7850311">
        <ele>398.1000000</ele>
        <time>2009-11-25T19:31:10Z</time>
      </trkpt>
      <trkpt lat="49.4865164" lon="11.7847959">
        <ele>398.6000000</ele>
        <time>2009-11-25T19:31:16Z</time>
      </trkpt>
      <trkpt lat="49.4861983" lon="11.7839059">
        <ele>400.5000000</ele>
        <time>2009-11-25T19:31:37Z</time>
      </trkpt>
      <trkpt lat="49.4859745" lon="11.7835573">
        <ele>401.5000000</ele>
        <time>2009-11-25T19:31:46Z</time>
      </trkpt>
      <trkpt lat="49.4857389" lon="11.7833821">
        <ele>401.5000000</ele>
        <time>2009-11-25T19:31:55Z</time>
      </trkpt>
      <trkpt lat="49.4853207" lon="11.7833045">
        <ele>404.4000000</ele>
        <time>2009-11-25T19:32:08Z</time>
      </trkpt>
      <trkpt lat="49.4852208" lon="11.7833326">
        <ele>405.8000000</ele>
        <time>2009-11-25T19:32:11Z</time>
      </trkpt>
      <trkpt lat="49.4850178" lon="11.7834426">
        <ele>406.3000000</ele>
        <time>2009-11-25T19:32:17Z</time>
      </trkpt>
      <trkpt lat="49.4848204" lon="11.7836754">
        <ele>407.3000000</ele>
        <time>2009-11-25T19:32:25Z</time>
      </trkpt>
      <trkpt lat="49.4843571" lon="11.7844948">
        <ele>412.5000000</ele>
        <time>2009-11-25T19:32:47Z</time>
      </trkpt>
      <trkpt lat="49.4843217" lon="11.7845524">
        <ele>412.5000000</ele>
        <time>2009-11-25T19:32:48Z</time>
      </trkpt>
      <trkpt lat="49.4839621" lon="11.7851748">
        <ele>415.9000000</ele>
        <time>2009-11-25T19:33:05Z</time>
      </trkpt>
      <trkpt lat="49.4838388" lon="11.7853739">
        <ele>416.4000000</ele>
        <time>2009-11-25T19:33:11Z</time>
      </trkpt>
      <trkpt lat="49.4836387" lon="11.7856651">
        <ele>418.3000000</ele>
        <time>2009-11-25T19:33:19Z</time>
      </trkpt>
      <trkpt lat="49.4830648" lon="11.7867663">
        <ele>419.8000000</ele>
        <time>2009-11-25T19:33:48Z</time>
      </trkpt>
      <trkpt lat="49.4827334" lon="11.7875490">
        <ele>417.3000000</ele>
        <time>2009-11-25T19:34:06Z</time>
      </trkpt>
      <trkpt lat="49.4826353" lon="11.7877775">
        <ele>415.4000000</ele>
        <time>2009-11-25T19:34:12Z</time>
      </trkpt>
      <trkpt lat="49.4823149" lon="11.7884715">
        <ele>412.5000000</ele>
        <time>2009-11-25T19:34:29Z</time>
      </trkpt>
      <trkpt lat="49.4822278" lon="11.7886901">
        <ele>411.1000000</ele>
        <time>2009-11-25T19:34:34Z</time>
      </trkpt>
      <trkpt lat="49.4819711" lon="11.7893915">
        <ele>409.2000000</ele>
        <time>2009-11-25T19:34:50Z</time>
      </trkpt>
      <trkpt lat="49.4813118" lon="11.7910513">
        <ele>408.2000000</ele>
        <time>2009-11-25T19:35:29Z</time>
      </trkpt>
      <trkpt lat="49.4812063" lon="11.7914668">
        <ele>407.3000000</ele>
        <time>2009-11-25T19:35:38Z</time>
      </trkpt>
      <trkpt lat="49.4803256" lon="11.7935786">
        <ele>410.6000000</ele>
        <time>2009-11-25T19:36:29Z</time>
      </trkpt>
      <trkpt lat="49.4795129" lon="11.7950248">
        <ele>412.5000000</ele>
        <time>2009-11-25T19:37:07Z</time>
      </trkpt>
      <trkpt lat="49.4783271" lon="11.7970193">
        <ele>415.9000000</ele>
        <time>2009-11-25T19:38:01Z</time>
      </trkpt>
      <trkpt lat="49.4774812" lon="11.7988594">
        <ele>413.5000000</ele>
        <time>2009-11-25T19:38:47Z</time>
      </trkpt>
      <trkpt lat="49.4769236" lon="11.8007237">
        <ele>411.1000000</ele>
        <time>2009-11-25T19:39:28Z</time>
      </trkpt>
      <trkpt lat="49.4768270" lon="11.8016905">
        <ele>407.7000000</ele>
        <time>2009-11-25T19:39:48Z</time>
      </trkpt>
      <trkpt lat="49.4767788" lon="11.8041724">
        <ele>404.9000000</ele>
        <time>2009-11-25T19:40:38Z</time>
      </trkpt>
      <trkpt lat="49.4766232" lon="11.8076524">
        <ele>401.5000000</ele>
        <time>2009-11-25T19:41:48Z</time>
      </trkpt>
      <trkpt lat="49.4762052" lon="11.8101550">
        <ele>401.5000000</ele>
        <time>2009-11-25T19:42:40Z</time>
      </trkpt>
      <trkpt lat="49.4754932" lon="11.8128892">
        <ele>402.9000000</ele>
        <time>2009-11-25T19:43:39Z</time>
      </trkpt>
      <trkpt lat="49.4749187" lon="11.8156170">
        <ele>405.8000000</ele>
        <time>2009-11-25T19:44:36Z</time>
      </trkpt>
      <trkpt lat="49.4746237" lon="11.8190125">
        <ele>405.3000000</ele>
        <time>2009-11-25T19:45:45Z</time>
      </trkpt>
      <trkpt lat="49.4743317" lon="11.8209395">
        <ele>402.4000000</ele>
        <time>2009-11-25T19:46:25Z</time>
      </trkpt>
      <trkpt lat="49.4739154" lon="11.8227130">
        <ele>398.6000000</ele>
        <time>2009-11-25T19:47:03Z</time>
      </trkpt>
      <trkpt lat="49.4738562" lon="11.8245172">
        <ele>395.2000000</ele>
        <time>2009-11-25T19:47:39Z</time>
      </trkpt>
      <trkpt lat="49.4735863" lon="11.8260993">
        <ele>392.8000000</ele>
        <time>2009-11-25T19:48:12Z</time>
      </trkpt>
      <trkpt lat="49.4731593" lon="11.8273561">
        <ele>389.5000000</ele>
        <time>2009-11-25T19:48:41Z</time>
      </trkpt>
      <trkpt lat="49.4722831" lon="11.8298232">
        <ele>386.6000000</ele>
        <time>2009-11-25T19:49:37Z</time>
      </trkpt>
      <trkpt lat="49.4713045" lon="11.8310547">
        <ele>386.6000000</ele>
        <time>2009-11-25T19:50:16Z</time>
      </trkpt>
      <trkpt lat="49.4698296" lon="11.8329271">
        <ele>383.2000000</ele>
        <time>2009-11-25T19:51:15Z</time>
      </trkpt>
      <trkpt lat="49.4681258" lon="11.8351335">
        <ele>382.3000000</ele>
        <time>2009-11-25T19:52:24Z</time>
      </trkpt>
      <trkpt lat="49.4667655" lon="11.8368505">
        <ele>381.3000000</ele>
        <time>2009-11-25T19:53:19Z</time>
      </trkpt>
      <trkpt lat="49.4646750" lon="11.8392086">
        <ele>380.3000000</ele>
        <time>2009-11-25T19:54:39Z</time>
      </trkpt>
      <trkpt lat="49.4633653" lon="11.8406902">
        <ele>380.8000000</ele>
        <time>2009-11-25T19:55:29Z</time>
      </trkpt>
      <trkpt lat="49.4622315" lon="11.8419824">
        <ele>381.8000000</ele>
        <time>2009-11-25T19:56:13Z</time>
      </trkpt>
      <trkpt lat="49.4614183" lon="11.8428208">
        <ele>381.8000000</ele>
        <time>2009-11-25T19:56:43Z</time>
      </trkpt>
      <trkpt lat="49.4603570" lon="11.8436060">
        <ele>381.8000000</ele>
        <time>2009-11-25T19:57:19Z</time>
      </trkpt>
      <trkpt lat="49.4591372" lon="11.8439998">
        <ele>382.3000000</ele>
        <time>2009-11-25T19:57:58Z</time>
      </trkpt>
      <trkpt lat="49.4578839" lon="11.8442333">
        <ele>378.9000000</ele>
        <time>2009-11-25T19:58:37Z</time>
      </trkpt>
      <trkpt lat="49.4570260" lon="11.8443726">
        <ele>377.9000000</ele>
        <time>2009-11-25T19:59:04Z</time>
      </trkpt>
      <trkpt lat="49.4561734" lon="11.8450978">
        <ele>377.0000000</ele>
        <time>2009-11-25T19:59:34Z</time>
      </trkpt>
      <trkpt lat="49.4556984" lon="11.8460055">
        <ele>376.5000000</ele>
        <time>2009-11-25T19:59:57Z</time>
      </trkpt>
      <trkpt lat="49.4555699" lon="11.8468001">
        <ele>377.9000000</ele>
        <time>2009-11-25T20:00:14Z</time>
      </trkpt>
      <trkpt lat="49.4555309" lon="11.8473424">
        <ele>378.4000000</ele>
        <time>2009-11-25T20:00:25Z</time>
      </trkpt>
      <trkpt lat="49.4552918" lon="11.8484068">
        <ele>379.4000000</ele>
        <time>2009-11-25T20:00:47Z</time>
      </trkpt>
      <trkpt lat="49.4548541" lon="11.8494093">
        <ele>378.9000000</ele>
        <time>2009-11-25T20:01:11Z</time>
      </trkpt>
      <trkpt lat="49.4547280" lon="11.8495968">
        <ele>378.4000000</ele>
        <time>2009-11-25T20:01:17Z</time>
      </trkpt>
      <trkpt lat="49.4543139" lon="11.8500602">
        <ele>378.9000000</ele>
        <time>2009-11-25T20:01:33Z</time>
      </trkpt>
      <trkpt lat="49.4538227" lon="11.8504370">
        <ele>378.4000000</ele>
        <time>2009-11-25T20:01:50Z</time>
      </trkpt>
      <trkpt lat="49.4528662" lon="11.8508700">
        <ele>377.9000000</ele>
        <time>2009-11-25T20:02:20Z</time>
      </trkpt>
      <trkpt lat="49.4518031" lon="11.8513530">
        <ele>377.0000000</ele>
        <time>2009-11-25T20:02:55Z</time>
      </trkpt>
      <trkpt lat="49.4507258" lon="11.8518486">
        <ele>376.5000000</ele>
        <time>2009-11-25T20:03:30Z</time>
      </trkpt>
      <trkpt lat="49.4496059" lon="11.8522014">
        <ele>376.5000000</ele>
        <time>2009-11-25T20:04:05Z</time>
      </trkpt>
      <trkpt lat="49.4477599" lon="11.8528010">
        <ele>377.0000000</ele>
        <time>2009-11-25T20:05:03Z</time>
      </trkpt>
      <trkpt lat="49.4469770" lon="11.8534519">
        <ele>376.5000000</ele>
        <time>2009-11-25T20:05:31Z</time>
      </trkpt>
      <trkpt lat="49.4468637" lon="11.8536424">
        <ele>376.0000000</ele>
        <time>2009-11-25T20:05:36Z</time>
      </trkpt>
      <trkpt lat="49.4465414" lon="11.8549645">
        <ele>375.1000000</ele>
        <time>2009-11-25T20:06:04Z</time>
      </trkpt>
      <trkpt lat="49.4464629" lon="11.8555695">
        <ele>375.1000000</ele>
        <time>2009-11-25T20:06:17Z</time>
      </trkpt>
      <trkpt lat="49.4462015" lon="11.8558793">
        <ele>374.1000000</ele>
        <time>2009-11-25T20:06:27Z</time>
      </trkpt>
      <trkpt lat="49.4461290" lon="11.8557459">
        <ele>374.1000000</ele>
        <time>2009-11-25T20:06:30Z</time>
      </trkpt>
      <trkpt lat="49.4459872" lon="11.8552802">
        <ele>374.6000000</ele>
        <time>2009-11-25T20:06:41Z</time>
      </trkpt>
      <trkpt lat="49.4459334" lon="11.8551583">
        <ele>374.6000000</ele>
        <time>2009-11-25T20:06:44Z</time>
      </trkpt>
      <trkpt lat="49.4458568" lon="11.8548815">
        <ele>374.6000000</ele>
        <time>2009-11-25T20:06:50Z</time>
      </trkpt>
      <trkpt lat="49.4458076" lon="11.8547545">
        <ele>375.1000000</ele>
        <time>2009-11-25T20:06:53Z</time>
      </trkpt>
      <trkpt lat="49.4456060" lon="11.8544992">
        <ele>376.5000000</ele>
        <time>2009-11-25T20:07:01Z</time>
      </trkpt>
      <trkpt lat="49.4452088" lon="11.8546966">
        <ele>376.0000000</ele>
        <time>2009-11-25T20:07:14Z</time>
      </trkpt>
      <trkpt lat="49.4447689" lon="11.8549125">
        <ele>375.5000000</ele>
        <time>2009-11-25T20:07:28Z</time>
      </trkpt>
      <trkpt lat="49.4446788" lon="11.8549414">
        <ele>375.1000000</ele>
        <time>2009-11-25T20:07:31Z</time>
      </trkpt>
      <trkpt lat="49.4447693" lon="11.8554348">
        <ele>374.6000000</ele>
        <time>2009-11-25T20:07:41Z</time>
      </trkpt>
      <trkpt lat="49.4448865" lon="11.8557674">
        <ele>374.6000000</ele>
        <time>2009-11-25T20:07:49Z</time>
      </trkpt>
      <trkpt lat="49.4447891" lon="11.8558902">
        <ele>375.1000000</ele>
        <time>2009-11-25T20:07:53Z</time>
      </trkpt>
      <trkpt lat="49.4444052" lon="11.8561651">
        <ele>374.6000000</ele>
        <time>2009-11-25T20:08:06Z</time>
      </trkpt>
      <trkpt lat="49.4439192" lon="11.8562994">
        <ele>374.6000000</ele>
        <time>2009-11-25T20:08:21Z</time>
      </trkpt>
      <trkpt lat="49.4436027" lon="11.8563676">
        <ele>375.1000000</ele>
        <time>2009-11-25T20:08:31Z</time>
      </trkpt>
      <trkpt lat="49.4434127" lon="11.8560980">
        <ele>375.1000000</ele>
        <time>2009-11-25T20:08:39Z</time>
      </trkpt>
      <trkpt lat="49.4431222" lon="11.8559335">
        <ele>376.5000000</ele>
        <time>2009-11-25T20:08:48Z</time>
      </trkpt>
      <trkpt lat="49.4427621" lon="11.8558725">
        <ele>376.5000000</ele>
        <time>2009-11-25T20:09:00Z</time>
      </trkpt>
      <trkpt lat="49.4423363" lon="11.8558269">
        <ele>377.0000000</ele>
        <time>2009-11-25T20:09:13Z</time>
      </trkpt>
      <trkpt lat="49.4422206" lon="11.8561009">
        <ele>377.0000000</ele>
        <time>2009-11-25T20:09:19Z</time>
      </trkpt>
      <trkpt lat="49.4421554" lon="11.8568091">
        <ele>377.9000000</ele>
        <time>2009-11-25T20:09:34Z</time>
      </trkpt>
      <trkpt lat="49.4421629" lon="11.8573726">
        <ele>376.5000000</ele>
        <time>2009-11-25T20:09:45Z</time>
      </trkpt>
      <trkpt lat="49.4420105" lon="11.8574152">
        <ele>375.5000000</ele>
        <time>2009-11-25T20:09:50Z</time>
      </trkpt>
      <trkpt lat="49.4416384" lon="11.8572469">
        <ele>373.6000000</ele>
        <time>2009-11-25T20:10:02Z</time>
      </trkpt>
      <trkpt lat="49.4413156" lon="11.8575316">
        <ele>373.1000000</ele>
        <time>2009-11-25T20:10:13Z</time>
      </trkpt>
      <trkpt lat="49.4411761" lon="11.8577038">
        <ele>373.6000000</ele>
        <time>2009-11-25T20:10:19Z</time>
      </trkpt>
      <trkpt lat="49.4407890" lon="11.8581158">
        <ele>373.1000000</ele>
        <time>2009-11-25T20:10:34Z</time>
      </trkpt>
      <trkpt lat="49.4403434" lon="11.8586319">
        <ele>374.1000000</ele>
        <time>2009-11-25T20:10:51Z</time>
      </trkpt>
      <trkpt lat="49.4402104" lon="11.8592404">
        <ele>373.6000000</ele>
        <time>2009-11-25T20:11:04Z</time>
      </trkpt>
      <trkpt lat="49.4400872" lon="11.8597281">
        <ele>373.6000000</ele>
        <time>2009-11-25T20:11:14Z</time>
      </trkpt>
      <trkpt lat="49.4397151" lon="11.8603217">
        <ele>373.1000000</ele>
        <time>2009-11-25T20:11:31Z</time>
      </trkpt>
      <trkpt lat="49.4393695" lon="11.8607321">
        <ele>373.1000000</ele>
        <time>2009-11-25T20:11:44Z</time>
      </trkpt>
      <trkpt lat="49.4392956" lon="11.8608743">
        <ele>373.1000000</ele>
        <time>2009-11-25T20:11:48Z</time>
      </trkpt>
      <trkpt lat="49.4392432" lon="11.8611653">
        <ele>373.6000000</ele>
        <time>2009-11-25T20:11:54Z</time>
      </trkpt>
      <trkpt lat="49.4391039" lon="11.8615002">
        <ele>373.6000000</ele>
        <time>2009-11-25T20:12:02Z</time>
      </trkpt>
      <trkpt lat="49.4387372" lon="11.8620475">
        <ele>374.1000000</ele>
        <time>2009-11-25T20:12:18Z</time>
      </trkpt>
      <trkpt lat="49.4386073" lon="11.8621607">
        <ele>374.1000000</ele>
        <time>2009-11-25T20:12:22Z</time>
      </trkpt>
      <trkpt lat="49.4384697" lon="11.8622523">
        <ele>374.1000000</ele>
        <time>2009-11-25T20:12:27Z</time>
      </trkpt>
      <trkpt lat="49.4377992" lon="11.8624197">
        <ele>374.1000000</ele>
        <time>2009-11-25T20:12:48Z</time>
      </trkpt>
      <trkpt lat="49.4377476" lon="11.8624413">
        <ele>373.6000000</ele>
        <time>2009-11-25T20:12:50Z</time>
      </trkpt>
      <trkpt lat="49.4377618" lon="11.8627240">
        <ele>374.1000000</ele>
        <time>2009-11-25T20:12:55Z</time>
      </trkpt>
      <trkpt lat="49.4378280" lon="11.8634671">
        <ele>373.6000000</ele>
        <time>2009-11-25T20:13:11Z</time>
      </trkpt>
      <trkpt lat="49.4378294" lon="11.8639712">
        <ele>373.1000000</ele>
        <time>2009-11-25T20:13:21Z</time>
      </trkpt>
      <trkpt lat="49.4377369" lon="11.8645495">
        <ele>373.6000000</ele>
        <time>2009-11-25T20:13:33Z</time>
      </trkpt>
      <trkpt lat="49.4376488" lon="11.8648138">
        <ele>374.1000000</ele>
        <time>2009-11-25T20:13:39Z</time>
      </trkpt>
      <trkpt lat="49.4370790" lon="11.8656934">
        <ele>375.1000000</ele>
        <time>2009-11-25T20:14:04Z</time>
      </trkpt>
      <trkpt lat="49.4365067" lon="11.8665856">
        <ele>374.1000000</ele>
        <time>2009-11-25T20:14:29Z</time>
      </trkpt>
      <trkpt lat="49.4357859" lon="11.8672055">
        <ele>375.1000000</ele>
        <time>2009-11-25T20:14:54Z</time>
      </trkpt>
      <trkpt lat="49.4352028" lon="11.8676550">
        <ele>374.1000000</ele>
        <time>2009-11-25T20:15:14Z</time>
      </trkpt>
      <trkpt lat="49.4350194" lon="11.8678173">
        <ele>374.1000000</ele>
        <time>2009-11-25T20:15:21Z</time>
      </trkpt>
      <trkpt lat="49.4348889" lon="11.8677648">
        <ele>374.6000000</ele>
        <time>2009-11-25T20:15:25Z</time>
      </trkpt>
      <trkpt lat="49.4346605" lon="11.8675185">
        <ele>375.1000000</ele>
        <time>2009-11-25T20:15:34Z</time>
      </trkpt>
      <trkpt lat="49.4344095" lon="11.8669568">
        <ele>375.1000000</ele>
        <time>2009-11-25T20:15:48Z</time>
      </trkpt>
      <trkpt lat="49.4342619" lon="11.8666854">
        <ele>375.1000000</ele>
        <time>2009-11-25T20:15:55Z</time>
      </trkpt>
      <trkpt lat="49.4338291" lon="11.8665403">
        <ele>374.6000000</ele>
        <time>2009-11-25T20:16:08Z</time>
      </trkpt>
      <trkpt lat="49.4337197" lon="11.8666186">
        <ele>374.6000000</ele>
        <time>2009-11-25T20:16:12Z</time>
      </trkpt>
      <trkpt lat="49.4334610" lon="11.8665197">
        <ele>374.6000000</ele>
        <time>2009-11-25T20:16:20Z</time>
      </trkpt>
      <trkpt lat="49.4330422" lon="11.8662295">
        <ele>374.6000000</ele>
        <time>2009-11-25T20:16:35Z</time>
      </trkpt>
      <trkpt lat="49.4329772" lon="11.8662595">
        <ele>375.1000000</ele>
        <time>2009-11-25T20:16:37Z</time>
      </trkpt>
      <trkpt lat="49.4326602" lon="11.8664649">
        <ele>374.6000000</ele>
        <time>2009-11-25T20:16:47Z</time>
      </trkpt>
      <trkpt lat="49.4323330" lon="11.8665065">
        <ele>374.6000000</ele>
        <time>2009-11-25T20:16:57Z</time>
      </trkpt>
      <trkpt lat="49.4320456" lon="11.8664845">
        <ele>374.6000000</ele>
        <time>2009-11-25T20:17:06Z</time>
      </trkpt>
      <trkpt lat="49.4317544" lon="11.8667481">
        <ele>374.6000000</ele>
        <time>2009-11-25T20:17:17Z</time>
      </trkpt>
      <trkpt lat="49.4314054" lon="11.8672747">
        <ele>374.1000000</ele>
        <time>2009-11-25T20:17:32Z</time>
      </trkpt>
      <trkpt lat="49.4308856" lon="11.8676250">
        <ele>374.1000000</ele>
        <time>2009-11-25T20:17:49Z</time>
      </trkpt>
      <trkpt lat="49.4301031" lon="11.8678867">
        <ele>374.1000000</ele>
        <time>2009-11-25T20:18:14Z</time>
      </trkpt>
      <trkpt lat="49.4296414" lon="11.8680645">
        <ele>374.1000000</ele>
        <time>2009-11-25T20:18:29Z</time>
      </trkpt>
      <trkpt lat="49.4291762" lon="11.8681598">
        <ele>374.1000000</ele>
        <time>2009-11-25T20:18:43Z</time>
      </trkpt>
      <trkpt lat="49.4283773" lon="11.8683587">
        <ele>374.1000000</ele>
        <time>2009-11-25T20:19:08Z</time>
      </trkpt>
      <trkpt lat="49.4273866" lon="11.8686812">
        <ele>374.6000000</ele>
        <time>2009-11-25T20:19:40Z</time>
      </trkpt>
      <trkpt lat="49.4266505" lon="11.8692911">
        <ele>374.1000000</ele>
        <time>2009-11-25T20:20:06Z</time>
      </trkpt>
      <trkpt lat="49.4254825" lon="11.8702217">
        <ele>373.1000000</ele>
        <time>2009-11-25T20:20:46Z</time>
      </trkpt>
      <trkpt lat="49.4239637" lon="11.8715371">
        <ele>373.6000000</ele>
        <time>2009-11-25T20:21:40Z</time>
      </trkpt>
      <trkpt lat="49.4228550" lon="11.8724287">
        <ele>373.6000000</ele>
        <time>2009-11-25T20:22:19Z</time>
      </trkpt>
      <trkpt lat="49.4216925" lon="11.8729752">
        <ele>374.1000000</ele>
        <time>2009-11-25T20:22:56Z</time>
      </trkpt>
      <trkpt lat="49.4204875" lon="11.8734632">
        <ele>374.6000000</ele>
        <time>2009-11-25T20:23:35Z</time>
      </trkpt>
      <trkpt lat="49.4196585" lon="11.8740691">
        <ele>376.0000000</ele>
        <time>2009-11-25T20:24:03Z</time>
      </trkpt>
      <trkpt lat="49.4186850" lon="11.8748606">
        <ele>376.0000000</ele>
        <time>2009-11-25T20:24:37Z</time>
      </trkpt>
      <trkpt lat="49.4179671" lon="11.8754489">
        <ele>376.5000000</ele>
        <time>2009-11-25T20:25:03Z</time>
      </trkpt>
      <trkpt lat="49.4178591" lon="11.8756264">
        <ele>374.1000000</ele>
        <time>2009-11-25T20:25:08Z</time>
      </trkpt>
      <trkpt lat="49.4176134" lon="11.8757880">
        <ele>375.1000000</ele>
        <time>2009-11-25T20:25:16Z</time>
      </trkpt>
      <trkpt lat="49.4167276" lon="11.8764831">
        <ele>375.5000000</ele>
        <time>2009-11-25T20:25:47Z</time>
      </trkpt>
      <trkpt lat="49.4166581" lon="11.8765297">
        <ele>375.1000000</ele>
        <time>2009-11-25T20:25:49Z</time>
      </trkpt>
      <trkpt lat="49.4163971" lon="11.8767587">
        <ele>375.5000000</ele>
        <time>2009-11-25T20:25:58Z</time>
      </trkpt>
      <trkpt lat="49.4155055" lon="11.8776123">
        <ele>375.5000000</ele>
        <time>2009-11-25T20:26:31Z</time>
      </trkpt>
      <trkpt lat="49.4150362" lon="11.8784693">
        <ele>376.0000000</ele>
        <time>2009-11-25T20:26:53Z</time>
      </trkpt>
      <trkpt lat="49.4146600" lon="11.8796393">
        <ele>376.5000000</ele>
        <time>2009-11-25T20:27:19Z</time>
      </trkpt>
      <trkpt lat="49.4140923" lon="11.8814744">
        <ele>376.5000000</ele>
        <time>2009-11-25T20:28:00Z</time>
      </trkpt>
      <trkpt lat="49.4137614" lon="11.8830224">
        <ele>377.5000000</ele>
        <time>2009-11-25T20:28:33Z</time>
      </trkpt>
      <trkpt lat="49.4137490" lon="11.8831162">
        <ele>377.0000000</ele>
        <time>2009-11-25T20:28:35Z</time>
      </trkpt>
      <trkpt lat="49.4137085" lon="11.8834740">
        <ele>377.0000000</ele>
        <time>2009-11-25T20:28:42Z</time>
      </trkpt>
      <trkpt lat="49.4134412" lon="11.8848263">
        <ele>377.0000000</ele>
        <time>2009-11-25T20:29:11Z</time>
      </trkpt>
      <trkpt lat="49.4132502" lon="11.8857379">
        <ele>377.5000000</ele>
        <time>2009-11-25T20:29:30Z</time>
      </trkpt>
      <trkpt lat="49.4131310" lon="11.8861984">
        <ele>377.9000000</ele>
        <time>2009-11-25T20:29:40Z</time>
      </trkpt>
      <trkpt lat="49.4130076" lon="11.8867402">
        <ele>377.5000000</ele>
        <time>2009-11-25T20:29:52Z</time>
      </trkpt>
      <trkpt lat="49.4126697" lon="11.8882137">
        <ele>377.5000000</ele>
        <time>2009-11-25T20:30:23Z</time>
      </trkpt>
      <trkpt lat="49.4122575" lon="11.8894007">
        <ele>378.4000000</ele>
        <time>2009-11-25T20:30:50Z</time>
      </trkpt>
      <trkpt lat="49.4118343" lon="11.8907206">
        <ele>378.9000000</ele>
        <time>2009-11-25T20:31:20Z</time>
      </trkpt>
      <trkpt lat="49.4114348" lon="11.8918416">
        <ele>378.9000000</ele>
        <time>2009-11-25T20:31:45Z</time>
      </trkpt>
      <trkpt lat="49.4108905" lon="11.8931232">
        <ele>378.9000000</ele>
        <time>2009-11-25T20:32:16Z</time>
      </trkpt>
      <trkpt lat="49.4107456" lon="11.8933951">
        <ele>378.9000000</ele>
        <time>2009-11-25T20:32:23Z</time>
      </trkpt>
      <trkpt lat="49.4106378" lon="11.8936466">
        <ele>378.4000000</ele>
        <time>2009-11-25T20:32:29Z</time>
      </trkpt>
      <trkpt lat="49.4106026" lon="11.8937270">
        <ele>378.9000000</ele>
        <time>2009-11-25T20:32:31Z</time>
      </trkpt>
      <trkpt lat="49.4105858" lon="11.8937317">
        <ele>378.9000000</ele>
        <time>2009-11-25T20:32:32Z</time>
      </trkpt>
      <trkpt lat="49.4104906" lon="11.8938841">
        <ele>378.9000000</ele>
        <time>2009-11-25T20:32:36Z</time>
      </trkpt>
      <trkpt lat="49.4101450" lon="11.8945413">
        <ele>378.9000000</ele>
        <time>2009-11-25T20:32:53Z</time>
      </trkpt>
      <trkpt lat="49.4100140" lon="11.8947402">
        <ele>378.9000000</ele>
        <time>2009-11-25T20:32:59Z</time>
      </trkpt>
      <trkpt lat="49.4095379" lon="11.8953416">
        <ele>379.4000000</ele>
        <time>2009-11-25T20:33:18Z</time>
      </trkpt>
      <trkpt lat="49.4087277" lon="11.8963940">
        <ele>379.4000000</ele>
        <time>2009-11-25T20:33:51Z</time>
      </trkpt>
      <trkpt lat="49.4082720" lon="11.8968725">
        <ele>379.9000000</ele>
        <time>2009-11-25T20:34:08Z</time>
      </trkpt>
      <trkpt lat="49.4080148" lon="11.8970682">
        <ele>379.4000000</ele>
        <time>2009-11-25T20:34:17Z</time>
      </trkpt>
      <trkpt lat="49.4074058" lon="11.8975656">
        <ele>379.4000000</ele>
        <time>2009-11-25T20:34:38Z</time>
      </trkpt>
      <trkpt lat="49.4069258" lon="11.8979521">
        <ele>378.4000000</ele>
        <time>2009-11-25T20:34:55Z</time>
      </trkpt>
      <trkpt lat="49.4062750" lon="11.8986057">
        <ele>377.9000000</ele>
        <time>2009-11-25T20:35:19Z</time>
      </trkpt>
      <trkpt lat="49.4061481" lon="11.8987444">
        <ele>377.9000000</ele>
        <time>2009-11-25T20:35:23Z</time>
      </trkpt>
      <trkpt lat="49.4054616" lon="11.8997796">
        <ele>377.0000000</ele>
        <time>2009-11-25T20:35:53Z</time>
      </trkpt>
      <trkpt lat="49.4048328" lon="11.9007439">
        <ele>377.5000000</ele>
        <time>2009-11-25T20:36:21Z</time>
      </trkpt>
      <trkpt lat="49.4041512" lon="11.9014147">
        <ele>377.0000000</ele>
        <time>2009-11-25T20:36:46Z</time>
      </trkpt>
      <trkpt lat="49.4023191" lon="11.9022159">
        <ele>376.5000000</ele>
        <time>2009-11-25T20:37:45Z</time>
      </trkpt>
      <trkpt lat="49.4007276" lon="11.9023388">
        <ele>376.5000000</ele>
        <time>2009-11-25T20:38:34Z</time>
      </trkpt>
      <trkpt lat="49.3990505" lon="11.9024142">
        <ele>376.5000000</ele>
        <time>2009-11-25T20:39:26Z</time>
      </trkpt>
      <trkpt lat="49.3978789" lon="11.9026638">
        <ele>376.5000000</ele>
        <time>2009-11-25T20:40:02Z</time>
      </trkpt>
      <trkpt lat="49.3964472" lon="11.9030311">
        <ele>374.6000000</ele>
        <time>2009-11-25T20:40:47Z</time>
      </trkpt>
      <trkpt lat="49.3954814" lon="11.9033086">
        <ele>373.6000000</ele>
        <time>2009-11-25T20:41:18Z</time>
      </trkpt>
      <trkpt lat="49.3944182" lon="11.9035770">
        <ele>373.6000000</ele>
        <time>2009-11-25T20:41:51Z</time>
      </trkpt>
      <trkpt lat="49.3940757" lon="11.9037732">
        <ele>374.1000000</ele>
        <time>2009-11-25T20:42:02Z</time>
      </trkpt>
      <trkpt lat="49.3930788" lon="11.9043841">
        <ele>373.6000000</ele>
        <time>2009-11-25T20:42:35Z</time>
      </trkpt>
      <trkpt lat="49.3921090" lon="11.9049762">
        <ele>374.6000000</ele>
        <time>2009-11-25T20:43:08Z</time>
      </trkpt>
      <trkpt lat="49.3913678" lon="11.9054532">
        <ele>371.7000000</ele>
        <time>2009-11-25T20:43:33Z</time>
      </trkpt>
      <trkpt lat="49.3912888" lon="11.9054999">
        <ele>371.2000000</ele>
        <time>2009-11-25T20:43:35Z</time>
      </trkpt>
      <trkpt lat="49.3910829" lon="11.9056274">
        <ele>371.7000000</ele>
        <time>2009-11-25T20:43:42Z</time>
      </trkpt>
      <trkpt lat="49.3907677" lon="11.9058403">
        <ele>374.6000000</ele>
        <time>2009-11-25T20:43:53Z</time>
      </trkpt>
      <trkpt lat="49.3897127" lon="11.9064620">
        <ele>376.0000000</ele>
        <time>2009-11-25T20:44:28Z</time>
      </trkpt>
      <trkpt lat="49.3891445" lon="11.9068395">
        <ele>376.5000000</ele>
        <time>2009-11-25T20:44:47Z</time>
      </trkpt>
      <trkpt lat="49.3883239" lon="11.9073289">
        <ele>377.0000000</ele>
        <time>2009-11-25T20:45:14Z</time>
      </trkpt>
      <trkpt lat="49.3879986" lon="11.9075040">
        <ele>377.5000000</ele>
        <time>2009-11-25T20:45:25Z</time>
      </trkpt>
      <trkpt lat="49.3876923" lon="11.9076170">
        <ele>377.9000000</ele>
        <time>2009-11-25T20:45:34Z</time>
      </trkpt>
      <trkpt lat="49.3875785" lon="11.9076355">
        <ele>378.4000000</ele>
        <time>2009-11-25T20:45:38Z</time>
      </trkpt>
      <trkpt lat="49.3866435" lon="11.9080884">
        <ele>380.3000000</ele>
        <time>2009-11-25T20:46:08Z</time>
      </trkpt>
      <trkpt lat="49.3864700" lon="11.9081374">
        <ele>380.3000000</ele>
        <time>2009-11-25T20:46:14Z</time>
      </trkpt>
      <trkpt lat="49.3861985" lon="11.9081946">
        <ele>380.3000000</ele>
        <time>2009-11-25T20:46:22Z</time>
      </trkpt>
      <trkpt lat="49.3855964" lon="11.9083205">
        <ele>380.3000000</ele>
        <time>2009-11-25T20:46:41Z</time>
      </trkpt>
      <trkpt lat="49.3850316" lon="11.9084214">
        <ele>380.8000000</ele>
        <time>2009-11-25T20:46:59Z</time>
      </trkpt>
      <trkpt lat="49.3849236" lon="11.9084208">
        <ele>380.8000000</ele>
        <time>2009-11-25T20:47:02Z</time>
      </trkpt>
      <trkpt lat="49.3847016" lon="11.9084548">
        <ele>380.3000000</ele>
        <time>2009-11-25T20:47:09Z</time>
      </trkpt>
      <trkpt lat="49.3839835" lon="11.9082667">
        <ele>379.4000000</ele>
        <time>2009-11-25T20:47:31Z</time>
      </trkpt>
      <trkpt lat="49.3828328" lon="11.9078672">
        <ele>376.5000000</ele>
        <time>2009-11-25T20:48:08Z</time>
      </trkpt>
      <trkpt lat="49.3818587" lon="11.9075089">
        <ele>376.0000000</ele>
        <time>2009-11-25T20:48:39Z</time>
      </trkpt>
      <trkpt lat="49.3808112" lon="11.9072016">
        <ele>374.1000000</ele>
        <time>2009-11-25T20:49:12Z</time>
      </trkpt>
      <trkpt lat="49.3797615" lon="11.9069737">
        <ele>373.6000000</ele>
        <time>2009-11-25T20:49:45Z</time>
      </trkpt>
      <trkpt lat="49.3796842" lon="11.9069803">
        <ele>373.1000000</ele>
        <time>2009-11-25T20:49:47Z</time>
      </trkpt>
      <trkpt lat="49.3786994" lon="11.9073078">
        <ele>373.1000000</ele>
        <time>2009-11-25T20:50:18Z</time>
      </trkpt>
      <trkpt lat="49.3780597" lon="11.9077579">
        <ele>373.1000000</ele>
        <time>2009-11-25T20:50:40Z</time>
      </trkpt>
      <trkpt lat="49.3777983" lon="11.9079962">
        <ele>374.1000000</ele>
        <time>2009-11-25T20:50:49Z</time>
      </trkpt>
      <trkpt lat="49.3775597" lon="11.9083324">
        <ele>373.6000000</ele>
        <time>2009-11-25T20:50:59Z</time>
      </trkpt>
      <trkpt lat="49.3769826" lon="11.9094259">
        <ele>373.6000000</ele>
        <time>2009-11-25T20:51:28Z</time>
      </trkpt>
      <trkpt lat="49.3767491" lon="11.9099439">
        <ele>374.1000000</ele>
        <time>2009-11-25T20:51:40Z</time>
      </trkpt>
      <trkpt lat="49.3766761" lon="11.9100936">
        <ele>374.6000000</ele>
        <time>2009-11-25T20:51:44Z</time>
      </trkpt>
      <trkpt lat="49.3764926" lon="11.9107928">
        <ele>374.1000000</ele>
        <time>2009-11-25T20:51:59Z</time>
      </trkpt>
      <trkpt lat="49.3764128" lon="11.9110654">
        <ele>373.6000000</ele>
        <time>2009-11-25T20:52:05Z</time>
      </trkpt>
      <trkpt lat="49.3762890" lon="11.9115040">
        <ele>373.6000000</ele>
        <time>2009-11-25T20:52:15Z</time>
      </trkpt>
      <trkpt lat="49.3759838" lon="11.9126656">
        <ele>373.6000000</ele>
        <time>2009-11-25T20:52:40Z</time>
      </trkpt>
      <trkpt lat="49.3757518" lon="11.9136295">
        <ele>373.6000000</ele>
        <time>2009-11-25T20:53:01Z</time>
      </trkpt>
      <trkpt lat="49.3754611" lon="11.9149517">
        <ele>372.6000000</ele>
        <time>2009-11-25T20:53:29Z</time>
      </trkpt>
      <trkpt lat="49.3752556" lon="11.9158656">
        <ele>373.1000000</ele>
        <time>2009-11-25T20:53:48Z</time>
      </trkpt>
      <trkpt lat="49.3748598" lon="11.9170628">
        <ele>373.6000000</ele>
        <time>2009-11-25T20:54:15Z</time>
      </trkpt>
      <trkpt lat="49.3741088" lon="11.9183681">
        <ele>374.6000000</ele>
        <time>2009-11-25T20:54:50Z</time>
      </trkpt>
      <trkpt lat="49.3731289" lon="11.9190780">
        <ele>375.5000000</ele>
        <time>2009-11-25T20:55:24Z</time>
      </trkpt>
      <trkpt lat="49.3719875" lon="11.9191257">
        <ele>377.5000000</ele>
        <time>2009-11-25T20:55:59Z</time>
      </trkpt>
      <trkpt lat="49.3715154" lon="11.9189289">
        <ele>377.9000000</ele>
        <time>2009-11-25T20:56:14Z</time>
      </trkpt>
      <trkpt lat="49.3706566" lon="11.9181193">
        <ele>378.4000000</ele>
        <time>2009-11-25T20:56:46Z</time>
      </trkpt>
      <trkpt lat="49.3697735" lon="11.9169415">
        <ele>378.4000000</ele>
        <time>2009-11-25T20:57:22Z</time>
      </trkpt>
      <trkpt lat="49.3688162" lon="11.9159130">
        <ele>379.9000000</ele>
        <time>2009-11-25T20:57:58Z</time>
      </trkpt>
      <trkpt lat="49.3687674" lon="11.9158718">
        <ele>380.8000000</ele>
        <time>2009-11-25T20:58:00Z</time>
      </trkpt>
      <trkpt lat="49.3684406" lon="11.9156207">
        <ele>380.3000000</ele>
        <time>2009-11-25T20:58:11Z</time>
      </trkpt>
      <trkpt lat="49.3675755" lon="11.9149214">
        <ele>380.3000000</ele>
        <time>2009-11-25T20:58:41Z</time>
      </trkpt>
      <trkpt lat="49.3672066" lon="11.9146028">
        <ele>379.9000000</ele>
        <time>2009-11-25T20:58:54Z</time>
      </trkpt>
      <trkpt lat="49.3669341" lon="11.9143465">
        <ele>378.9000000</ele>
        <time>2009-11-25T20:59:04Z</time>
      </trkpt>
      <trkpt lat="49.3658509" lon="11.9140321">
        <ele>377.9000000</ele>
        <time>2009-11-25T20:59:38Z</time>
      </trkpt>
      <trkpt lat="49.3649216" lon="11.9144082">
        <ele>377.9000000</ele>
        <time>2009-11-25T21:00:08Z</time>
      </trkpt>
      <trkpt lat="49.3647871" lon="11.9145227">
        <ele>377.0000000</ele>
        <time>2009-11-25T21:00:13Z</time>
      </trkpt>
      <trkpt lat="49.3645204" lon="11.9147649">
        <ele>377.0000000</ele>
        <time>2009-11-25T21:00:22Z</time>
      </trkpt>
      <trkpt lat="49.3643959" lon="11.9148821">
        <ele>377.5000000</ele>
        <time>2009-11-25T21:00:27Z</time>
      </trkpt>
      <trkpt lat="49.3642432" lon="11.9150162">
        <ele>377.0000000</ele>
        <time>2009-11-25T21:00:32Z</time>
      </trkpt>
      <trkpt lat="49.3634378" lon="11.9156937">
        <ele>376.5000000</ele>
        <time>2009-11-25T21:01:01Z</time>
      </trkpt>
      <trkpt lat="49.3620923" lon="11.9165238">
        <ele>376.0000000</ele>
        <time>2009-11-25T21:01:45Z</time>
      </trkpt>
      <trkpt lat="49.3614610" lon="11.9169208">
        <ele>375.5000000</ele>
        <time>2009-11-25T21:02:07Z</time>
      </trkpt>
      <trkpt lat="49.3604794" lon="11.9179513">
        <ele>374.6000000</ele>
        <time>2009-11-25T21:02:43Z</time>
      </trkpt>
      <trkpt lat="49.3590891" lon="11.9196108">
        <ele>372.2000000</ele>
        <time>2009-11-25T21:03:38Z</time>
      </trkpt>
      <trkpt lat="49.3578058" lon="11.9210189">
        <ele>370.7000000</ele>
        <time>2009-11-25T21:04:27Z</time>
      </trkpt>
      <trkpt lat="49.3568288" lon="11.9218907">
        <ele>370.7000000</ele>
        <time>2009-11-25T21:05:01Z</time>
      </trkpt>
      <trkpt lat="49.3559647" lon="11.9226707">
        <ele>370.2000000</ele>
        <time>2009-11-25T21:05:32Z</time>
      </trkpt>
      <trkpt lat="49.3548626" lon="11.9238378">
        <ele>371.2000000</ele>
        <time>2009-11-25T21:06:14Z</time>
      </trkpt>
      <trkpt lat="49.3541064" lon="11.9249371">
        <ele>370.2000000</ele>
        <time>2009-11-25T21:06:46Z</time>
      </trkpt>
      <trkpt lat="49.3536799" lon="11.9254313">
        <ele>370.2000000</ele>
        <time>2009-11-25T21:07:03Z</time>
      </trkpt>
      <trkpt lat="49.3530362" lon="11.9257754">
        <ele>370.7000000</ele>
        <time>2009-11-25T21:07:24Z</time>
      </trkpt>
      <trkpt lat="49.3521259" lon="11.9263002">
        <ele>370.2000000</ele>
        <time>2009-11-25T21:07:54Z</time>
      </trkpt>
      <trkpt lat="49.3517157" lon="11.9265318">
        <ele>369.8000000</ele>
        <time>2009-11-25T21:08:07Z</time>
      </trkpt>
      <trkpt lat="49.3505036" lon="11.9271406">
        <ele>370.7000000</ele>
        <time>2009-11-25T21:08:47Z</time>
      </trkpt>
      <trkpt lat="49.3494203" lon="11.9271921">
        <ele>369.8000000</ele>
        <time>2009-11-25T21:09:20Z</time>
      </trkpt>
      <trkpt lat="49.3478828" lon="11.9270362">
        <ele>368.8000000</ele>
        <time>2009-11-25T21:10:08Z</time>
      </trkpt>
      <trkpt lat="49.3461584" lon="11.9268539">
        <ele>367.4000000</ele>
        <time>2009-11-25T21:11:01Z</time>
      </trkpt>
      <trkpt lat="49.3442014" lon="11.9266876">
        <ele>367.4000000</ele>
        <time>2009-11-25T21:12:02Z</time>
      </trkpt>
      <trkpt lat="49.3432089" lon="11.9270839">
        <ele>367.4000000</ele>
        <time>2009-11-25T21:12:34Z</time>
      </trkpt>
      <trkpt lat="49.3424847" lon="11.9278578">
        <ele>367.4000000</ele>
        <time>2009-11-25T21:13:01Z</time>
      </trkpt>
      <trkpt lat="49.3417376" lon="11.9287656">
        <ele>367.4000000</ele>
        <time>2009-11-25T21:13:30Z</time>
      </trkpt>
      <trkpt lat="49.3414311" lon="11.9291145">
        <ele>366.9000000</ele>
        <time>2009-11-25T21:13:42Z</time>
      </trkpt>
      <trkpt lat="49.3412752" lon="11.9293270">
        <ele>367.4000000</ele>
        <time>2009-11-25T21:13:49Z</time>
      </trkpt>
      <trkpt lat="49.3410761" lon="11.9295859">
        <ele>366.9000000</ele>
        <time>2009-11-25T21:13:57Z</time>
      </trkpt>
      <trkpt lat="49.3407913" lon="11.9299842">
        <ele>367.4000000</ele>
        <time>2009-11-25T21:14:09Z</time>
      </trkpt>
      <trkpt lat="49.3402683" lon="11.9309898">
        <ele>367.4000000</ele>
        <time>2009-11-25T21:14:35Z</time>
      </trkpt>
      <trkpt lat="49.3397428" lon="11.9320403">
        <ele>367.4000000</ele>
        <time>2009-11-25T21:15:01Z</time>
      </trkpt>
      <trkpt lat="49.3396512" lon="11.9321845">
        <ele>366.9000000</ele>
        <time>2009-11-25T21:15:05Z</time>
      </trkpt>
      <trkpt lat="49.3390032" lon="11.9332673">
        <ele>366.9000000</ele>
        <time>2009-11-25T21:15:35Z</time>
      </trkpt>
      <trkpt lat="49.3386920" lon="11.9336870">
        <ele>366.9000000</ele>
        <time>2009-11-25T21:15:48Z</time>
      </trkpt>
      <trkpt lat="49.3384580" lon="11.9339645">
        <ele>367.4000000</ele>
        <time>2009-11-25T21:15:57Z</time>
      </trkpt>
      <trkpt lat="49.3379743" lon="11.9345328">
        <ele>366.9000000</ele>
        <time>2009-11-25T21:16:16Z</time>
      </trkpt>
      <trkpt lat="49.3378608" lon="11.9346876">
        <ele>367.4000000</ele>
        <time>2009-11-25T21:16:20Z</time>
      </trkpt>
      <trkpt lat="49.3377297" lon="11.9348404">
        <ele>366.9000000</ele>
        <time>2009-11-25T21:16:25Z</time>
      </trkpt>
      <trkpt lat="49.3375403" lon="11.9350510">
        <ele>366.9000000</ele>
        <time>2009-11-25T21:16:33Z</time>
      </trkpt>
      <trkpt lat="49.3373731" lon="11.9352580">
        <ele>366.4000000</ele>
        <time>2009-11-25T21:16:39Z</time>
      </trkpt>
      <trkpt lat="49.3372067" lon="11.9354482">
        <ele>367.8000000</ele>
        <time>2009-11-25T21:16:46Z</time>
      </trkpt>
      <trkpt lat="49.3363959" lon="11.9365982">
        <ele>367.4000000</ele>
        <time>2009-11-25T21:17:20Z</time>
      </trkpt>
      <trkpt lat="49.3358371" lon="11.9373776">
        <ele>367.8000000</ele>
        <time>2009-11-25T21:17:43Z</time>
      </trkpt>
      <trkpt lat="49.3351863" lon="11.9382909">
        <ele>368.3000000</ele>
        <time>2009-11-25T21:18:11Z</time>
      </trkpt>
      <trkpt lat="49.3348467" lon="11.9387151">
        <ele>368.3000000</ele>
        <time>2009-11-25T21:18:24Z</time>
      </trkpt>
      <trkpt lat="49.3345434" lon="11.9391504">
        <ele>368.8000000</ele>
        <time>2009-11-25T21:18:37Z</time>
      </trkpt>
      <trkpt lat="49.3342275" lon="11.9395342">
        <ele>369.8000000</ele>
        <time>2009-11-25T21:18:49Z</time>
      </trkpt>
      <trkpt lat="49.3333781" lon="11.9402138">
        <ele>369.8000000</ele>
        <time>2009-11-25T21:19:19Z</time>
      </trkpt>
      <trkpt lat="49.3327574" lon="11.9403354">
        <ele>369.8000000</ele>
        <time>2009-11-25T21:19:38Z</time>
      </trkpt>
      <trkpt lat="49.3325260" lon="11.9403066">
        <ele>370.7000000</ele>
        <time>2009-11-25T21:19:46Z</time>
      </trkpt>
      <trkpt lat="49.3322420" lon="11.9402253">
        <ele>371.2000000</ele>
        <time>2009-11-25T21:19:54Z</time>
      </trkpt>
      <trkpt lat="49.3321379" lon="11.9401859">
        <ele>371.7000000</ele>
        <time>2009-11-25T21:19:58Z</time>
      </trkpt>
      <trkpt lat="49.3313869" lon="11.9395342">
        <ele>372.2000000</ele>
        <time>2009-11-25T21:20:24Z</time>
      </trkpt>
      <trkpt lat="49.3305140" lon="11.9386302">
        <ele>373.1000000</ele>
        <time>2009-11-25T21:20:57Z</time>
      </trkpt>
      <trkpt lat="49.3295158" lon="11.9380911">
        <ele>374.6000000</ele>
        <time>2009-11-25T21:21:30Z</time>
      </trkpt>
      <trkpt lat="49.3286196" lon="11.9378398">
        <ele>376.0000000</ele>
        <time>2009-11-25T21:21:58Z</time>
      </trkpt>
      <trkpt lat="49.3282908" lon="11.9377545">
        <ele>376.0000000</ele>
        <time>2009-11-25T21:22:08Z</time>
      </trkpt>
      <trkpt lat="49.3271877" lon="11.9376632">
        <ele>377.5000000</ele>
        <time>2009-11-25T21:22:42Z</time>
      </trkpt>
      <trkpt lat="49.3271190" lon="11.9376576">
        <ele>377.5000000</ele>
        <time>2009-11-25T21:22:45Z</time>
      </trkpt>
      <trkpt lat="49.3262973" lon="11.9379211">
        <ele>377.5000000</ele>
        <time>2009-11-25T21:23:10Z</time>
      </trkpt>
      <trkpt lat="49.3260948" lon="11.9380466">
        <ele>377.5000000</ele>
        <time>2009-11-25T21:23:17Z</time>
      </trkpt>
      <trkpt lat="49.3258228" lon="11.9381416">
        <ele>377.5000000</ele>
        <time>2009-11-25T21:23:26Z</time>
      </trkpt>
      <trkpt lat="49.3254814" lon="11.9383013">
        <ele>377.9000000</ele>
        <time>2009-11-25T21:23:37Z</time>
      </trkpt>
      <trkpt lat="49.3246461" lon="11.9390109">
        <ele>377.5000000</ele>
        <time>2009-11-25T21:24:06Z</time>
      </trkpt>
      <trkpt lat="49.3238643" lon="11.9398942">
        <ele>377.0000000</ele>
        <time>2009-11-25T21:24:36Z</time>
      </trkpt>
      <trkpt lat="49.3235980" lon="11.9401191">
        <ele>377.5000000</ele>
        <time>2009-11-25T21:24:46Z</time>
      </trkpt>
      <trkpt lat="49.3232023" lon="11.9403216">
        <ele>376.5000000</ele>
        <time>2009-11-25T21:24:59Z</time>
      </trkpt>
      <trkpt lat="49.3220503" lon="11.9408428">
        <ele>374.1000000</ele>
        <time>2009-11-25T21:25:36Z</time>
      </trkpt>
      <trkpt lat="49.3217343" lon="11.9411730">
        <ele>369.8000000</ele>
        <time>2009-11-25T21:25:48Z</time>
      </trkpt>
      <trkpt lat="49.3216971" lon="11.9412145">
        <ele>368.8000000</ele>
        <time>2009-11-25T21:25:49Z</time>
      </trkpt>
      <trkpt lat="49.3215995" lon="11.9413756">
        <ele>367.4000000</ele>
        <time>2009-11-25T21:25:54Z</time>
      </trkpt>
      <trkpt lat="49.3215667" lon="11.9414095">
        <ele>367.8000000</ele>
        <time>2009-11-25T21:25:55Z</time>
      </trkpt>
      <trkpt lat="49.3214500" lon="11.9416147">
        <ele>368.3000000</ele>
        <time>2009-11-25T21:26:00Z</time>
      </trkpt>
      <trkpt lat="49.3212661" lon="11.9419098">
        <ele>372.2000000</ele>
        <time>2009-11-25T21:26:08Z</time>
      </trkpt>
      <trkpt lat="49.3211561" lon="11.9422010">
        <ele>372.2000000</ele>
        <time>2009-11-25T21:26:15Z</time>
      </trkpt>
      <trkpt lat="49.3206763" lon="11.9437735">
        <ele>372.2000000</ele>
        <time>2009-11-25T21:26:50Z</time>
      </trkpt>
      <trkpt lat="49.3202777" lon="11.9450861">
        <ele>372.6000000</ele>
        <time>2009-11-25T21:27:19Z</time>
      </trkpt>
      <trkpt lat="49.3199016" lon="11.9458270">
        <ele>372.2000000</ele>
        <time>2009-11-25T21:27:38Z</time>
      </trkpt>
      <trkpt lat="49.3198587" lon="11.9458685">
        <ele>371.2000000</ele>
        <time>2009-11-25T21:27:40Z</time>
      </trkpt>
      <trkpt lat="49.3197076" lon="11.9459912">
        <ele>371.2000000</ele>
        <time>2009-11-25T21:27:45Z</time>
      </trkpt>
      <trkpt lat="49.3188697" lon="11.9466855">
        <ele>369.3000000</ele>
        <time>2009-11-25T21:28:15Z</time>
      </trkpt>
      <trkpt lat="49.3179963" lon="11.9467848">
        <ele>368.3000000</ele>
        <time>2009-11-25T21:28:42Z</time>
      </trkpt>
      <trkpt lat="49.3176689" lon="11.9467538">
        <ele>367.4000000</ele>
        <time>2009-11-25T21:28:52Z</time>
      </trkpt>
      <trkpt lat="49.3173750" lon="11.9467833">
        <ele>365.9000000</ele>
        <time>2009-11-25T21:29:01Z</time>
      </trkpt>
      <trkpt lat="49.3165862" lon="11.9469665">
        <ele>364.5000000</ele>
        <time>2009-11-25T21:29:26Z</time>
      </trkpt>
      <trkpt lat="49.3161825" lon="11.9471152">
        <ele>364.5000000</ele>
        <time>2009-11-25T21:29:39Z</time>
      </trkpt>
      <trkpt lat="49.3159544" lon="11.9471799">
        <ele>365.0000000</ele>
        <time>2009-11-25T21:29:46Z</time>
      </trkpt>
      <trkpt lat="49.3156512" lon="11.9473111">
        <ele>365.4000000</ele>
        <time>2009-11-25T21:29:55Z</time>
      </trkpt>
      <trkpt lat="49.3151212" lon="11.9473931">
        <ele>364.5000000</ele>
        <time>2009-11-25T21:30:12Z</time>
      </trkpt>
      <trkpt lat="49.3144222" lon="11.9475416">
        <ele>366.4000000</ele>
        <time>2009-11-25T21:30:34Z</time>
      </trkpt>
      <trkpt lat="49.3141774" lon="11.9475770">
        <ele>365.0000000</ele>
        <time>2009-11-25T21:30:41Z</time>
      </trkpt>
      <trkpt lat="49.3131938" lon="11.9478140">
        <ele>365.9000000</ele>
        <time>2009-11-25T21:31:12Z</time>
      </trkpt>
      <trkpt lat="49.3122370" lon="11.9481874">
        <ele>365.9000000</ele>
        <time>2009-11-25T21:31:43Z</time>
      </trkpt>
      <trkpt lat="49.3114718" lon="11.9485823">
        <ele>365.9000000</ele>
        <time>2009-11-25T21:32:08Z</time>
      </trkpt>
      <trkpt lat="49.3111820" lon="11.9487424">
        <ele>365.4000000</ele>
        <time>2009-11-25T21:32:17Z</time>
      </trkpt>
      <trkpt lat="49.3109606" lon="11.9488751">
        <ele>365.9000000</ele>
        <time>2009-11-25T21:32:25Z</time>
      </trkpt>
      <trkpt lat="49.3101873" lon="11.9491795">
        <ele>365.4000000</ele>
        <time>2009-11-25T21:32:49Z</time>
      </trkpt>
      <trkpt lat="49.3092833" lon="11.9495317">
        <ele>364.5000000</ele>
        <time>2009-11-25T21:33:18Z</time>
      </trkpt>
      <trkpt lat="49.3084138" lon="11.9496545">
        <ele>365.0000000</ele>
        <time>2009-11-25T21:33:45Z</time>
      </trkpt>
      <trkpt lat="49.3069617" lon="11.9494148">
        <ele>365.0000000</ele>
        <time>2009-11-25T21:34:30Z</time>
      </trkpt>
      <trkpt lat="49.3053587" lon="11.9490075">
        <ele>364.5000000</ele>
        <time>2009-11-25T21:35:20Z</time>
      </trkpt>
      <trkpt lat="49.3039339" lon="11.9489380">
        <ele>365.9000000</ele>
        <time>2009-11-25T21:36:05Z</time>
      </trkpt>
      <trkpt lat="49.3028854" lon="11.9488930">
        <ele>363.5000000</ele>
        <time>2009-11-25T21:36:37Z</time>
      </trkpt>
      <trkpt lat="49.3022761" lon="11.9488723">
        <ele>366.4000000</ele>
        <time>2009-11-25T21:36:56Z</time>
      </trkpt>
      <trkpt lat="49.3009544" lon="11.9486121">
        <ele>368.3000000</ele>
        <time>2009-11-25T21:37:37Z</time>
      </trkpt>
      <trkpt lat="49.3008102" lon="11.9485956">
        <ele>367.8000000</ele>
        <time>2009-11-25T21:37:41Z</time>
      </trkpt>
      <trkpt lat="49.3005299" lon="11.9485714">
        <ele>367.8000000</ele>
        <time>2009-11-25T21:37:50Z</time>
      </trkpt>
      <trkpt lat="49.3000198" lon="11.9484920">
        <ele>367.8000000</ele>
        <time>2009-11-25T21:38:06Z</time>
      </trkpt>
      <trkpt lat="49.2999091" lon="11.9484612">
        <ele>368.3000000</ele>
        <time>2009-11-25T21:38:10Z</time>
      </trkpt>
      <trkpt lat="49.2993371" lon="11.9482384">
        <ele>368.3000000</ele>
        <time>2009-11-25T21:38:28Z</time>
      </trkpt>
      <trkpt lat="49.2984973" lon="11.9480151">
        <ele>368.8000000</ele>
        <time>2009-11-25T21:38:54Z</time>
      </trkpt>
      <trkpt lat="49.2980413" lon="11.9478505">
        <ele>369.3000000</ele>
        <time>2009-11-25T21:39:09Z</time>
      </trkpt>
      <trkpt lat="49.2977096" lon="11.9477471">
        <ele>368.8000000</ele>
        <time>2009-11-25T21:39:19Z</time>
      </trkpt>
      <trkpt lat="49.2974230" lon="11.9476490">
        <ele>368.8000000</ele>
        <time>2009-11-25T21:39:28Z</time>
      </trkpt>
      <trkpt lat="49.2967443" lon="11.9474069">
        <ele>369.3000000</ele>
        <time>2009-11-25T21:39:50Z</time>
      </trkpt>
      <trkpt lat="49.2960946" lon="11.9471437">
        <ele>368.8000000</ele>
        <time>2009-11-25T21:40:10Z</time>
      </trkpt>
      <trkpt lat="49.2952515" lon="11.9468288">
        <ele>368.8000000</ele>
        <time>2009-11-25T21:40:37Z</time>
      </trkpt>
      <trkpt lat="49.2951190" lon="11.9467836">
        <ele>368.8000000</ele>
        <time>2009-11-25T21:40:42Z</time>
      </trkpt>
      <trkpt lat="49.2945326" lon="11.9463666">
        <ele>370.2000000</ele>
        <time>2009-11-25T21:41:02Z</time>
      </trkpt>
      <trkpt lat="49.2943948" lon="11.9461710">
        <ele>369.8000000</ele>
        <time>2009-11-25T21:41:07Z</time>
      </trkpt>
      <trkpt lat="49.2941741" lon="11.9458957">
        <ele>369.3000000</ele>
        <time>2009-11-25T21:41:16Z</time>
      </trkpt>
      <trkpt lat="49.2933981" lon="11.9443190">
        <ele>367.8000000</ele>
        <time>2009-11-25T21:41:56Z</time>
      </trkpt>
      <trkpt lat="49.2926371" lon="11.9427475">
        <ele>367.8000000</ele>
        <time>2009-11-25T21:42:35Z</time>
      </trkpt>
      <trkpt lat="49.2924865" lon="11.9424988">
        <ele>367.8000000</ele>
        <time>2009-11-25T21:42:42Z</time>
      </trkpt>
      <trkpt lat="49.2917456" lon="11.9412023">
        <ele>367.4000000</ele>
        <time>2009-11-25T21:43:17Z</time>
      </trkpt>
      <trkpt lat="49.2911093" lon="11.9400788">
        <ele>366.4000000</ele>
        <time>2009-11-25T21:43:47Z</time>
      </trkpt>
      <trkpt lat="49.2908552" lon="11.9397688">
        <ele>366.4000000</ele>
        <time>2009-11-25T21:43:57Z</time>
      </trkpt>
      <trkpt lat="49.2901143" lon="11.9390950">
        <ele>364.5000000</ele>
        <time>2009-11-25T21:44:24Z</time>
      </trkpt>
      <trkpt lat="49.2890295" lon="11.9386583">
        <ele>364.0000000</ele>
        <time>2009-11-25T21:44:58Z</time>
      </trkpt>
      <trkpt lat="49.2885743" lon="11.9386583">
        <ele>364.5000000</ele>
        <time>2009-11-25T21:45:13Z</time>
      </trkpt>
      <trkpt lat="49.2881057" lon="11.9387728">
        <ele>363.5000000</ele>
        <time>2009-11-25T21:45:27Z</time>
      </trkpt>
      <trkpt lat="49.2871313" lon="11.9391859">
        <ele>364.0000000</ele>
        <time>2009-11-25T21:45:58Z</time>
      </trkpt>
      <trkpt lat="49.2866897" lon="11.9394128">
        <ele>364.0000000</ele>
        <time>2009-11-25T21:46:13Z</time>
      </trkpt>
      <trkpt lat="49.2858699" lon="11.9398486">
        <ele>364.0000000</ele>
        <time>2009-11-25T21:46:40Z</time>
      </trkpt>
      <trkpt lat="49.2849985" lon="11.9402666">
        <ele>364.0000000</ele>
        <time>2009-11-25T21:47:08Z</time>
      </trkpt>
      <trkpt lat="49.2840719" lon="11.9404494">
        <ele>361.6000000</ele>
        <time>2009-11-25T21:47:37Z</time>
      </trkpt>
      <trkpt lat="49.2838859" lon="11.9404831">
        <ele>360.2000000</ele>
        <time>2009-11-25T21:47:43Z</time>
      </trkpt>
      <trkpt lat="49.2831985" lon="11.9406105">
        <ele>363.0000000</ele>
        <time>2009-11-25T21:48:04Z</time>
      </trkpt>
      <trkpt lat="49.2818739" lon="11.9408213">
        <ele>364.0000000</ele>
        <time>2009-11-25T21:48:45Z</time>
      </trkpt>
      <trkpt lat="49.2806274" lon="11.9406510">
        <ele>363.0000000</ele>
        <time>2009-11-25T21:49:24Z</time>
      </trkpt>
      <trkpt lat="49.2794520" lon="11.9397921">
        <ele>362.1000000</ele>
        <time>2009-11-25T21:50:04Z</time>
      </trkpt>
      <trkpt lat="49.2786085" lon="11.9385639">
        <ele>362.1000000</ele>
        <time>2009-11-25T21:50:40Z</time>
      </trkpt>
      <trkpt lat="49.2777526" lon="11.9371958">
        <ele>361.6000000</ele>
        <time>2009-11-25T21:51:18Z</time>
      </trkpt>
      <trkpt lat="49.2770730" lon="11.9361351">
        <ele>360.6000000</ele>
        <time>2009-11-25T21:51:48Z</time>
      </trkpt>
      <trkpt lat="49.2766783" lon="11.9355254">
        <ele>360.6000000</ele>
        <time>2009-11-25T21:52:06Z</time>
      </trkpt>
      <trkpt lat="49.2758967" lon="11.9347771">
        <ele>359.7000000</ele>
        <time>2009-11-25T21:52:34Z</time>
      </trkpt>
      <trkpt lat="49.2753468" lon="11.9346233">
        <ele>359.2000000</ele>
        <time>2009-11-25T21:52:51Z</time>
      </trkpt>
      <trkpt lat="49.2750619" lon="11.9344687">
        <ele>359.2000000</ele>
        <time>2009-11-25T21:53:01Z</time>
      </trkpt>
      <trkpt lat="49.2740053" lon="11.9342147">
        <ele>359.7000000</ele>
        <time>2009-11-25T21:53:34Z</time>
      </trkpt>
      <trkpt lat="49.2729303" lon="11.9339697">
        <ele>358.2000000</ele>
        <time>2009-11-25T21:54:07Z</time>
      </trkpt>
      <trkpt lat="49.2719229" lon="11.9332414">
        <ele>359.2000000</ele>
        <time>2009-11-25T21:54:42Z</time>
      </trkpt>
      <trkpt lat="49.2713567" lon="11.9323040">
        <ele>358.2000000</ele>
        <time>2009-11-25T21:55:08Z</time>
      </trkpt>
      <trkpt lat="49.2712989" lon="11.9321623">
        <ele>357.7000000</ele>
        <time>2009-11-25T21:55:11Z</time>
      </trkpt>
      <trkpt lat="49.2711844" lon="11.9318794">
        <ele>358.2000000</ele>
        <time>2009-11-25T21:55:18Z</time>
      </trkpt>
      <trkpt lat="49.2711250" lon="11.9312331">
        <ele>359.7000000</ele>
        <time>2009-11-25T21:55:31Z</time>
      </trkpt>
      <trkpt lat="49.2711003" lon="11.9310523">
        <ele>359.7000000</ele>
        <time>2009-11-25T21:55:35Z</time>
      </trkpt>
      <trkpt lat="49.2709848" lon="11.9295745">
        <ele>360.2000000</ele>
        <time>2009-11-25T21:56:05Z</time>
      </trkpt>
      <trkpt lat="49.2706963" lon="11.9283745">
        <ele>359.2000000</ele>
        <time>2009-11-25T21:56:31Z</time>
      </trkpt>
      <trkpt lat="49.2701817" lon="11.9265457">
        <ele>359.7000000</ele>
        <time>2009-11-25T21:57:11Z</time>
      </trkpt>
      <trkpt lat="49.2696975" lon="11.9253428">
        <ele>359.2000000</ele>
        <time>2009-11-25T21:57:39Z</time>
      </trkpt>
      <trkpt lat="49.2688711" lon="11.9238552">
        <ele>356.8000000</ele>
        <time>2009-11-25T21:58:19Z</time>
      </trkpt>
      <trkpt lat="49.2685388" lon="11.9230795">
        <ele>355.8000000</ele>
        <time>2009-11-25T21:58:37Z</time>
      </trkpt>
      <trkpt lat="49.2684379" lon="11.9221229">
        <ele>355.8000000</ele>
        <time>2009-11-25T21:58:57Z</time>
      </trkpt>
      <trkpt lat="49.2683773" lon="11.9215596">
        <ele>353.9000000</ele>
        <time>2009-11-25T21:59:08Z</time>
      </trkpt>
      <trkpt lat="49.2681407" lon="11.9214425">
        <ele>354.9000000</ele>
        <time>2009-11-25T21:59:16Z</time>
      </trkpt>
      <trkpt lat="49.2680607" lon="11.9214130">
        <ele>354.4000000</ele>
        <time>2009-11-25T21:59:19Z</time>
      </trkpt>
      <trkpt lat="49.2678631" lon="11.9213071">
        <ele>354.4000000</ele>
        <time>2009-11-25T21:59:25Z</time>
      </trkpt>
      <trkpt lat="49.2674380" lon="11.9212738">
        <ele>353.4000000</ele>
        <time>2009-11-25T21:59:38Z</time>
      </trkpt>
      <trkpt lat="49.2673805" lon="11.9214609">
        <ele>353.9000000</ele>
        <time>2009-11-25T21:59:42Z</time>
      </trkpt>
      <trkpt lat="49.2674529" lon="11.9217645">
        <ele>354.4000000</ele>
        <time>2009-11-25T21:59:49Z</time>
      </trkpt>
      <trkpt lat="49.2674943" lon="11.9218310">
        <ele>353.9000000</ele>
        <time>2009-11-25T21:59:51Z</time>
      </trkpt>
      <trkpt lat="49.2674425" lon="11.9215549">
        <ele>354.4000000</ele>
        <time>2009-11-25T21:59:57Z</time>
      </trkpt>
      <trkpt lat="49.2672707" lon="11.9216656">
        <ele>355.3000000</ele>
        <time>2009-11-25T22:00:02Z</time>
      </trkpt>
      <trkpt lat="49.2672195" lon="11.9215685">
        <ele>355.3000000</ele>
        <time>2009-11-25T22:00:05Z</time>
      </trkpt>
      <trkpt lat="49.2670231" lon="11.9213724">
        <ele>355.3000000</ele>
        <time>2009-11-25T22:00:12Z</time>
      </trkpt>
      <trkpt lat="49.2670144" lon="11.9213039">
        <ele>356.3000000</ele>
        <time>2009-11-25T22:00:14Z</time>
      </trkpt>
      <trkpt lat="49.2670149" lon="11.9215980">
        <ele>356.8000000</ele>
        <time>2009-11-25T22:00:20Z</time>
      </trkpt>
      <trkpt lat="49.2670427" lon="11.9221416">
        <ele>355.3000000</ele>
        <time>2009-11-25T22:00:31Z</time>
      </trkpt>
      <trkpt lat="49.2668718" lon="11.9221637">
        <ele>355.3000000</ele>
        <time>2009-11-25T22:00:36Z</time>
      </trkpt>
      <trkpt lat="49.2667937" lon="11.9221317">
        <ele>355.3000000</ele>
        <time>2009-11-25T22:00:38Z</time>
      </trkpt>
      <trkpt lat="49.2664158" lon="11.9217111">
        <ele>355.8000000</ele>
        <time>2009-11-25T22:00:53Z</time>
      </trkpt>
      <trkpt lat="49.2661383" lon="11.9215282">
        <ele>356.3000000</ele>
        <time>2009-11-25T22:01:02Z</time>
      </trkpt>
      <trkpt lat="49.2657742" lon="11.9214703">
        <ele>357.3000000</ele>
        <time>2009-11-25T22:01:13Z</time>
      </trkpt>
      <trkpt lat="49.2656104" lon="11.9215355">
        <ele>356.8000000</ele>
        <time>2009-11-25T22:01:19Z</time>
      </trkpt>
      <trkpt lat="49.2653644" lon="11.9218462">
        <ele>355.8000000</ele>
        <time>2009-11-25T22:01:28Z</time>
      </trkpt>
      <trkpt lat="49.2653515" lon="11.9218414">
        <ele>355.8000000</ele>
        <time>2009-11-25T22:01:29Z</time>
      </trkpt>
      <trkpt lat="49.2653385" lon="11.9218017">
        <ele>356.3000000</ele>
        <time>2009-11-25T22:01:30Z</time>
      </trkpt>
      <trkpt lat="49.2654396" lon="11.9216540">
        <ele>356.8000000</ele>
        <time>2009-11-25T22:01:34Z</time>
      </trkpt>
      <trkpt lat="49.2655452" lon="11.9215658">
        <ele>356.8000000</ele>
        <time>2009-11-25T22:01:38Z</time>
      </trkpt>
      <trkpt lat="49.2655067" lon="11.9214850">
        <ele>356.8000000</ele>
        <time>2009-11-25T22:01:40Z</time>
      </trkpt>
      <trkpt lat="49.2649180" lon="11.9220006">
        <ele>355.3000000</ele>
        <time>2009-11-25T22:02:01Z</time>
      </trkpt>
      <trkpt lat="49.2647407" lon="11.9221798">
        <ele>355.3000000</ele>
        <time>2009-11-25T22:02:07Z</time>
      </trkpt>
      <trkpt lat="49.2644375" lon="11.9220369">
        <ele>354.9000000</ele>
        <time>2009-11-25T22:02:17Z</time>
      </trkpt>
      <trkpt lat="49.2642854" lon="11.9220369">
        <ele>354.4000000</ele>
        <time>2009-11-25T22:02:22Z</time>
      </trkpt>
      <trkpt lat="49.2641860" lon="11.9220850">
        <ele>354.4000000</ele>
        <time>2009-11-25T22:02:25Z</time>
      </trkpt>
      <trkpt lat="49.2639087" lon="11.9222931">
        <ele>354.9000000</ele>
        <time>2009-11-25T22:02:35Z</time>
      </trkpt>
      <trkpt lat="49.2636854" lon="11.9222980">
        <ele>355.3000000</ele>
        <time>2009-11-25T22:02:42Z</time>
      </trkpt>
      <trkpt lat="49.2635861" lon="11.9222124">
        <ele>355.8000000</ele>
        <time>2009-11-25T22:02:45Z</time>
      </trkpt>
      <trkpt lat="49.2634171" lon="11.9222838">
        <ele>355.8000000</ele>
        <time>2009-11-25T22:02:51Z</time>
      </trkpt>
      <trkpt lat="49.2624458" lon="11.9231870">
        <ele>356.3000000</ele>
        <time>2009-11-25T22:03:26Z</time>
      </trkpt>
      <trkpt lat="49.2614861" lon="11.9237198">
        <ele>356.3000000</ele>
        <time>2009-11-25T22:03:57Z</time>
      </trkpt>
      <trkpt lat="49.2606377" lon="11.9244026">
        <ele>355.8000000</ele>
        <time>2009-11-25T22:04:27Z</time>
      </trkpt>
      <trkpt lat="49.2598554" lon="11.9253864">
        <ele>355.8000000</ele>
        <time>2009-11-25T22:04:58Z</time>
      </trkpt>
      <trkpt lat="49.2590105" lon="11.9263524">
        <ele>354.4000000</ele>
        <time>2009-11-25T22:05:31Z</time>
      </trkpt>
      <trkpt lat="49.2589458" lon="11.9264130">
        <ele>353.9000000</ele>
        <time>2009-11-25T22:05:33Z</time>
      </trkpt>
      <trkpt lat="49.2587195" lon="11.9265637">
        <ele>354.4000000</ele>
        <time>2009-11-25T22:05:41Z</time>
      </trkpt>
      <trkpt lat="49.2581950" lon="11.9272605">
        <ele>354.4000000</ele>
        <time>2009-11-25T22:06:02Z</time>
      </trkpt>
      <trkpt lat="49.2575776" lon="11.9281611">
        <ele>353.9000000</ele>
        <time>2009-11-25T22:06:29Z</time>
      </trkpt>
      <trkpt lat="49.2573414" lon="11.9283873">
        <ele>353.9000000</ele>
        <time>2009-11-25T22:06:37Z</time>
      </trkpt>
      <trkpt lat="49.2563276" lon="11.9287737">
        <ele>355.3000000</ele>
        <time>2009-11-25T22:07:09Z</time>
      </trkpt>
      <trkpt lat="49.2561913" lon="11.9287864">
        <ele>355.3000000</ele>
        <time>2009-11-25T22:07:14Z</time>
      </trkpt>
      <trkpt lat="49.2553725" lon="11.9284380">
        <ele>357.3000000</ele>
        <time>2009-11-25T22:07:40Z</time>
      </trkpt>
      <trkpt lat="49.2544038" lon="11.9281412">
        <ele>357.3000000</ele>
        <time>2009-11-25T22:08:11Z</time>
      </trkpt>
      <trkpt lat="49.2536622" lon="11.9279283">
        <ele>356.3000000</ele>
        <time>2009-11-25T22:08:34Z</time>
      </trkpt>
      <trkpt lat="49.2533833" lon="11.9277190">
        <ele>355.8000000</ele>
        <time>2009-11-25T22:08:43Z</time>
      </trkpt>
      <trkpt lat="49.2521717" lon="11.9267021">
        <ele>354.4000000</ele>
        <time>2009-11-25T22:09:26Z</time>
      </trkpt>
      <trkpt lat="49.2520946" lon="11.9266570">
        <ele>354.4000000</ele>
        <time>2009-11-25T22:09:29Z</time>
      </trkpt>
      <trkpt lat="49.2517496" lon="11.9263106">
        <ele>357.3000000</ele>
        <time>2009-11-25T22:09:41Z</time>
      </trkpt>
      <trkpt lat="49.2514418" lon="11.9262456">
        <ele>355.8000000</ele>
        <time>2009-11-25T22:09:51Z</time>
      </trkpt>
      <trkpt lat="49.2506146" lon="11.9263653">
        <ele>355.3000000</ele>
        <time>2009-11-25T22:10:17Z</time>
      </trkpt>
      <trkpt lat="49.2503023" lon="11.9264259">
        <ele>355.8000000</ele>
        <time>2009-11-25T22:10:27Z</time>
      </trkpt>
      <trkpt lat="49.2501275" lon="11.9264253">
        <ele>356.3000000</ele>
        <time>2009-11-25T22:10:32Z</time>
      </trkpt>
      <trkpt lat="49.2498571" lon="11.9265054">
        <ele>356.3000000</ele>
        <time>2009-11-25T22:10:40Z</time>
      </trkpt>
      <trkpt lat="49.2495730" lon="11.9265794">
        <ele>356.3000000</ele>
        <time>2009-11-25T22:10:49Z</time>
      </trkpt>
      <trkpt lat="49.2492526" lon="11.9267342">
        <ele>356.3000000</ele>
        <time>2009-11-25T22:11:00Z</time>
      </trkpt>
      <trkpt lat="49.2489113" lon="11.9269704">
        <ele>356.3000000</ele>
        <time>2009-11-25T22:11:11Z</time>
      </trkpt>
      <trkpt lat="49.2486100" lon="11.9272308">
        <ele>355.8000000</ele>
        <time>2009-11-25T22:11:22Z</time>
      </trkpt>
      <trkpt lat="49.2483586" lon="11.9274977">
        <ele>354.9000000</ele>
        <time>2009-11-25T22:11:31Z</time>
      </trkpt>
      <trkpt lat="49.2475381" lon="11.9283514">
        <ele>355.8000000</ele>
        <time>2009-11-25T22:12:02Z</time>
      </trkpt>
      <trkpt lat="49.2471038" lon="11.9289819">
        <ele>354.4000000</ele>
        <time>2009-11-25T22:12:21Z</time>
      </trkpt>
      <trkpt lat="49.2469303" lon="11.9293472">
        <ele>353.9000000</ele>
        <time>2009-11-25T22:12:30Z</time>
      </trkpt>
      <trkpt lat="49.2468507" lon="11.9295316">
        <ele>354.4000000</ele>
        <time>2009-11-25T22:12:34Z</time>
      </trkpt>
      <trkpt lat="49.2466336" lon="11.9298951">
        <ele>353.9000000</ele>
        <time>2009-11-25T22:12:44Z</time>
      </trkpt>
      <trkpt lat="49.2461722" lon="11.9309827">
        <ele>353.9000000</ele>
        <time>2009-11-25T22:13:10Z</time>
      </trkpt>
      <trkpt lat="49.2456384" lon="11.9320364">
        <ele>352.9000000</ele>
        <time>2009-11-25T22:13:37Z</time>
      </trkpt>
      <trkpt lat="49.2455558" lon="11.9322117">
        <ele>352.9000000</ele>
        <time>2009-11-25T22:13:42Z</time>
      </trkpt>
      <trkpt lat="49.2447115" lon="11.9333163">
        <ele>352.5000000</ele>
        <time>2009-11-25T22:14:16Z</time>
      </trkpt>
      <trkpt lat="49.2439424" lon="11.9339340">
        <ele>352.9000000</ele>
        <time>2009-11-25T22:14:43Z</time>
      </trkpt>
      <trkpt lat="49.2430133" lon="11.9340390">
        <ele>352.9000000</ele>
        <time>2009-11-25T22:15:12Z</time>
      </trkpt>
      <trkpt lat="49.2420823" lon="11.9339564">
        <ele>352.9000000</ele>
        <time>2009-11-25T22:15:40Z</time>
      </trkpt>
      <trkpt lat="49.2407404" lon="11.9332426">
        <ele>352.5000000</ele>
        <time>2009-11-25T22:16:24Z</time>
      </trkpt>
      <trkpt lat="49.2394583" lon="11.9323733">
        <ele>352.5000000</ele>
        <time>2009-11-25T22:17:08Z</time>
      </trkpt>
      <trkpt lat="49.2385126" lon="11.9321980">
        <ele>352.9000000</ele>
        <time>2009-11-25T22:17:37Z</time>
      </trkpt>
      <trkpt lat="49.2380834" lon="11.9322080">
        <ele>352.9000000</ele>
        <time>2009-11-25T22:17:51Z</time>
      </trkpt>
      <trkpt lat="49.2379016" lon="11.9324448">
        <ele>352.5000000</ele>
        <time>2009-11-25T22:17:58Z</time>
      </trkpt>
      <trkpt lat="49.2371810" lon="11.9325483">
        <ele>352.5000000</ele>
        <time>2009-11-25T22:18:20Z</time>
      </trkpt>
      <trkpt lat="49.2371121" lon="11.9325478">
        <ele>352.9000000</ele>
        <time>2009-11-25T22:18:22Z</time>
      </trkpt>
      <trkpt lat="49.2359765" lon="11.9321060">
        <ele>352.0000000</ele>
        <time>2009-11-25T22:18:59Z</time>
      </trkpt>
      <trkpt lat="49.2349285" lon="11.9319800">
        <ele>352.5000000</ele>
        <time>2009-11-25T22:19:31Z</time>
      </trkpt>
      <trkpt lat="49.2345195" lon="11.9320177">
        <ele>352.0000000</ele>
        <time>2009-11-25T22:19:44Z</time>
      </trkpt>
      <trkpt lat="49.2341766" lon="11.9321627">
        <ele>351.5000000</ele>
        <time>2009-11-25T22:19:55Z</time>
      </trkpt>
      <trkpt lat="49.2339425" lon="11.9325492">
        <ele>352.0000000</ele>
        <time>2009-11-25T22:20:05Z</time>
      </trkpt>
      <trkpt lat="49.2338207" lon="11.9328636">
        <ele>351.0000000</ele>
        <time>2009-11-25T22:20:13Z</time>
      </trkpt>
      <trkpt lat="49.2335834" lon="11.9331337">
        <ele>351.0000000</ele>
        <time>2009-11-25T22:20:22Z</time>
      </trkpt>
      <trkpt lat="49.2332363" lon="11.9333220">
        <ele>351.0000000</ele>
        <time>2009-11-25T22:20:33Z</time>
      </trkpt>
      <trkpt lat="49.2325752" lon="11.9333079">
        <ele>351.0000000</ele>
        <time>2009-11-25T22:20:54Z</time>
      </trkpt>
      <trkpt lat="49.2323046" lon="11.9331034">
        <ele>351.0000000</ele>
        <time>2009-11-25T22:21:03Z</time>
      </trkpt>
      <trkpt lat="49.2320194" lon="11.9329840">
        <ele>350.5000000</ele>
        <time>2009-11-25T22:21:12Z</time>
      </trkpt>
      <trkpt lat="49.2317949" lon="11.9330032">
        <ele>351.0000000</ele>
        <time>2009-11-25T22:21:19Z</time>
      </trkpt>
      <trkpt lat="49.2308680" lon="11.9336461">
        <ele>350.5000000</ele>
        <time>2009-11-25T22:21:51Z</time>
      </trkpt>
      <trkpt lat="49.2296557" lon="11.9346653">
        <ele>351.0000000</ele>
        <time>2009-11-25T22:22:33Z</time>
      </trkpt>
      <trkpt lat="49.2289171" lon="11.9350462">
        <ele>351.0000000</ele>
        <time>2009-11-25T22:22:58Z</time>
      </trkpt>
      <trkpt lat="49.2286806" lon="11.9348272">
        <ele>349.6000000</ele>
        <time>2009-11-25T22:23:06Z</time>
      </trkpt>
      <trkpt lat="49.2283916" lon="11.9337860">
        <ele>352.9000000</ele>
        <time>2009-11-25T22:23:29Z</time>
      </trkpt>
      <trkpt lat="49.2282495" lon="11.9328597">
        <ele>356.8000000</ele>
        <time>2009-11-25T22:23:48Z</time>
      </trkpt>
      <trkpt lat="49.2282127" lon="11.9325167">
        <ele>360.2000000</ele>
        <time>2009-11-25T22:23:55Z</time>
      </trkpt>
      <trkpt lat="49.2282060" lon="11.9324629">
        <ele>360.2000000</ele>
        <time>2009-11-25T22:23:56Z</time>
      </trkpt>
      <trkpt lat="49.2281661" lon="11.9319148">
        <ele>364.0000000</ele>
        <time>2009-11-25T22:24:07Z</time>
      </trkpt>
      <trkpt lat="49.2281597" lon="11.9318725">
        <ele>364.5000000</ele>
        <time>2009-11-25T22:24:08Z</time>
      </trkpt>
      <trkpt lat="49.2280753" lon="11.9317865">
        <ele>366.4000000</ele>
        <time>2009-11-25T22:24:11Z</time>
      </trkpt>
      <trkpt lat="49.2277625" lon="11.9318058">
        <ele>366.9000000</ele>
        <time>2009-11-25T22:24:21Z</time>
      </trkpt>
      <trkpt lat="49.2276760" lon="11.9318440">
        <ele>367.4000000</ele>
        <time>2009-11-25T22:24:24Z</time>
      </trkpt>
      <trkpt lat="49.2274212" lon="11.9320587">
        <ele>367.4000000</ele>
        <time>2009-11-25T22:24:33Z</time>
      </trkpt>
      <trkpt lat="49.2268587" lon="11.9328892">
        <ele>364.5000000</ele>
        <time>2009-11-25T22:24:57Z</time>
      </trkpt>
      <trkpt lat="49.2266235" lon="11.9331128">
        <ele>363.0000000</ele>
        <time>2009-11-25T22:25:06Z</time>
      </trkpt>
      <trkpt lat="49.2264580" lon="11.9331969">
        <ele>362.6000000</ele>
        <time>2009-11-25T22:25:11Z</time>
      </trkpt>
      <trkpt lat="49.2260951" lon="11.9337082">
        <ele>361.1000000</ele>
        <time>2009-11-25T22:25:26Z</time>
      </trkpt>
      <trkpt lat="49.2257258" lon="11.9340496">
        <ele>357.3000000</ele>
        <time>2009-11-25T22:25:40Z</time>
      </trkpt>
      <trkpt lat="49.2251617" lon="11.9343775">
        <ele>354.9000000</ele>
        <time>2009-11-25T22:25:58Z</time>
      </trkpt>
      <trkpt lat="49.2246302" lon="11.9345327">
        <ele>354.9000000</ele>
        <time>2009-11-25T22:26:15Z</time>
      </trkpt>
      <trkpt lat="49.2245592" lon="11.9349395">
        <ele>353.4000000</ele>
        <time>2009-11-25T22:26:24Z</time>
      </trkpt>
      <trkpt lat="49.2245875" lon="11.9350558">
        <ele>352.0000000</ele>
        <time>2009-11-25T22:26:26Z</time>
      </trkpt>
      <trkpt lat="49.2246372" lon="11.9352457">
        <ele>350.5000000</ele>
        <time>2009-11-25T22:26:30Z</time>
      </trkpt>
      <trkpt lat="49.2245685" lon="11.9354506">
        <ele>349.1000000</ele>
        <time>2009-11-25T22:26:35Z</time>
      </trkpt>
      <trkpt lat="49.2244596" lon="11.9354248">
        <ele>348.6000000</ele>
        <time>2009-11-25T22:26:38Z</time>
      </trkpt>
      <trkpt lat="49.2235751" lon="11.9350892">
        <ele>351.0000000</ele>
        <time>2009-11-25T22:27:06Z</time>
      </trkpt>
      <trkpt lat="49.2232685" lon="11.9347514">
        <ele>352.9000000</ele>
        <time>2009-11-25T22:27:18Z</time>
      </trkpt>
      <trkpt lat="49.2231715" lon="11.9347495">
        <ele>353.4000000</ele>
        <time>2009-11-25T22:27:21Z</time>
      </trkpt>
      <trkpt lat="49.2230783" lon="11.9348225">
        <ele>353.4000000</ele>
        <time>2009-11-25T22:27:24Z</time>
      </trkpt>
      <trkpt lat="49.2228643" lon="11.9350129">
        <ele>351.5000000</ele>
        <time>2009-11-25T22:27:32Z</time>
      </trkpt>
      <trkpt lat="49.2227383" lon="11.9351488">
        <ele>351.0000000</ele>
        <time>2009-11-25T22:27:37Z</time>
      </trkpt>
      <trkpt lat="49.2223694" lon="11.9352710">
        <ele>349.6000000</ele>
        <time>2009-11-25T22:27:48Z</time>
      </trkpt>
      <trkpt lat="49.2220298" lon="11.9350472">
        <ele>351.5000000</ele>
        <time>2009-11-25T22:28:00Z</time>
      </trkpt>
      <trkpt lat="49.2216949" lon="11.9351197">
        <ele>351.5000000</ele>
        <time>2009-11-25T22:28:10Z</time>
      </trkpt>
      <trkpt lat="49.2214230" lon="11.9351989">
        <ele>352.0000000</ele>
        <time>2009-11-25T22:28:19Z</time>
      </trkpt>
      <trkpt lat="49.2210436" lon="11.9352724">
        <ele>352.0000000</ele>
        <time>2009-11-25T22:28:31Z</time>
      </trkpt>
      <trkpt lat="49.2208217" lon="11.9353504">
        <ele>352.0000000</ele>
        <time>2009-11-25T22:28:38Z</time>
      </trkpt>
      <trkpt lat="49.2202121" lon="11.9358552">
        <ele>351.0000000</ele>
        <time>2009-11-25T22:28:59Z</time>
      </trkpt>
      <trkpt lat="49.2195163" lon="11.9364610">
        <ele>351.0000000</ele>
        <time>2009-11-25T22:29:24Z</time>
      </trkpt>
      <trkpt lat="49.2193984" lon="11.9365660">
        <ele>350.1000000</ele>
        <time>2009-11-25T22:29:28Z</time>
      </trkpt>
      <trkpt lat="49.2191926" lon="11.9369306">
        <ele>351.0000000</ele>
        <time>2009-11-25T22:29:38Z</time>
      </trkpt>
      <trkpt lat="49.2184725" lon="11.9378531">
        <ele>349.6000000</ele>
        <time>2009-11-25T22:30:07Z</time>
      </trkpt>
      <trkpt lat="49.2175588" lon="11.9390546">
        <ele>349.6000000</ele>
        <time>2009-11-25T22:30:44Z</time>
      </trkpt>
      <trkpt lat="49.2169156" lon="11.9400492">
        <ele>350.1000000</ele>
        <time>2009-11-25T22:31:12Z</time>
      </trkpt>
      <trkpt lat="49.2159281" lon="11.9415460">
        <ele>348.1000000</ele>
        <time>2009-11-25T22:31:55Z</time>
      </trkpt>
      <trkpt lat="49.2151292" lon="11.9425178">
        <ele>348.1000000</ele>
        <time>2009-11-25T22:32:27Z</time>
      </trkpt>
      <trkpt lat="49.2142072" lon="11.9428542">
        <ele>347.7000000</ele>
        <time>2009-11-25T22:32:56Z</time>
      </trkpt>
      <trkpt lat="49.2130982" lon="11.9434859">
        <ele>346.7000000</ele>
        <time>2009-11-25T22:33:33Z</time>
      </trkpt>
      <trkpt lat="49.2119896" lon="11.9436876">
        <ele>347.2000000</ele>
        <time>2009-11-25T22:34:07Z</time>
      </trkpt>
      <trkpt lat="49.2110355" lon="11.9436260">
        <ele>347.7000000</ele>
        <time>2009-11-25T22:34:37Z</time>
      </trkpt>
      <trkpt lat="49.2095655" lon="11.9432918">
        <ele>347.2000000</ele>
        <time>2009-11-25T22:35:23Z</time>
      </trkpt>
      <trkpt lat="49.2087967" lon="11.9432800">
        <ele>347.2000000</ele>
        <time>2009-11-25T22:35:47Z</time>
      </trkpt>
      <trkpt lat="49.2084714" lon="11.9434813">
        <ele>347.2000000</ele>
        <time>2009-11-25T22:35:57Z</time>
      </trkpt>
      <trkpt lat="49.2083767" lon="11.9436157">
        <ele>347.7000000</ele>
        <time>2009-11-25T22:36:01Z</time>
      </trkpt>
      <trkpt lat="49.2079744" lon="11.9437330">
        <ele>347.2000000</ele>
        <time>2009-11-25T22:36:14Z</time>
      </trkpt>
      <trkpt lat="49.2067562" lon="11.9435716">
        <ele>346.7000000</ele>
        <time>2009-11-25T22:36:52Z</time>
      </trkpt>
      <trkpt lat="49.2065730" lon="11.9435245">
        <ele>348.1000000</ele>
        <time>2009-11-25T22:36:58Z</time>
      </trkpt>
      <trkpt lat="49.2061031" lon="11.9434592">
        <ele>349.6000000</ele>
        <time>2009-11-25T22:37:12Z</time>
      </trkpt>
      <trkpt lat="49.2059682" lon="11.9434960">
        <ele>351.0000000</ele>
        <time>2009-11-25T22:37:17Z</time>
      </trkpt>
      <trkpt lat="49.2057467" lon="11.9435341">
        <ele>351.0000000</ele>
        <time>2009-11-25T22:37:23Z</time>
      </trkpt>
      <trkpt lat="49.2056093" lon="11.9436515">
        <ele>350.1000000</ele>
        <time>2009-11-25T22:37:28Z</time>
      </trkpt>
      <trkpt lat="49.2053864" lon="11.9438582">
        <ele>348.6000000</ele>
        <time>2009-11-25T22:37:36Z</time>
      </trkpt>
      <trkpt lat="49.2050328" lon="11.9442552">
        <ele>347.7000000</ele>
        <time>2009-11-25T22:37:50Z</time>
      </trkpt>
      <trkpt lat="49.2040238" lon="11.9445175">
        <ele>346.7000000</ele>
        <time>2009-11-25T22:38:22Z</time>
      </trkpt>
      <trkpt lat="49.2036609" lon="11.9446198">
        <ele>346.7000000</ele>
        <time>2009-11-25T22:38:33Z</time>
      </trkpt>
      <trkpt lat="49.2028085" lon="11.9442947">
        <ele>346.7000000</ele>
        <time>2009-11-25T22:39:00Z</time>
      </trkpt>
      <trkpt lat="49.2018651" lon="11.9438553">
        <ele>346.7000000</ele>
        <time>2009-11-25T22:39:31Z</time>
      </trkpt>
      <trkpt lat="49.2016075" lon="11.9436468">
        <ele>346.2000000</ele>
        <time>2009-11-25T22:39:40Z</time>
      </trkpt>
      <trkpt lat="49.2010017" lon="11.9426923">
        <ele>347.2000000</ele>
        <time>2009-11-25T22:40:07Z</time>
      </trkpt>
      <trkpt lat="49.2002329" lon="11.9409409">
        <ele>347.7000000</ele>
        <time>2009-11-25T22:40:49Z</time>
      </trkpt>
      <trkpt lat="49.1996062" lon="11.9394803">
        <ele>348.6000000</ele>
        <time>2009-11-25T22:41:24Z</time>
      </trkpt>
      <trkpt lat="49.1993708" lon="11.9387871">
        <ele>348.6000000</ele>
        <time>2009-11-25T22:41:40Z</time>
      </trkpt>
      <trkpt lat="49.1991762" lon="11.9383743">
        <ele>349.6000000</ele>
        <time>2009-11-25T22:41:51Z</time>
      </trkpt>
      <trkpt lat="49.1990430" lon="11.9381002">
        <ele>351.0000000</ele>
        <time>2009-11-25T22:41:57Z</time>
      </trkpt>
      <trkpt lat="49.1987616" lon="11.9378160">
        <ele>350.1000000</ele>
        <time>2009-11-25T22:42:08Z</time>
      </trkpt>
      <trkpt lat="49.1981904" lon="11.9372957">
        <ele>349.6000000</ele>
        <time>2009-11-25T22:42:28Z</time>
      </trkpt>
      <trkpt lat="49.1980552" lon="11.9372216">
        <ele>349.6000000</ele>
        <time>2009-11-25T22:42:33Z</time>
      </trkpt>
      <trkpt lat="49.1973864" lon="11.9368732">
        <ele>349.1000000</ele>
        <time>2009-11-25T22:42:55Z</time>
      </trkpt>
      <trkpt lat="49.1969540" lon="11.9366826">
        <ele>348.6000000</ele>
        <time>2009-11-25T22:43:09Z</time>
      </trkpt>
      <trkpt lat="49.1960411" lon="11.9365858">
        <ele>347.7000000</ele>
        <time>2009-11-25T22:43:37Z</time>
      </trkpt>
      <trkpt lat="49.1946007" lon="11.9360465">
        <ele>347.7000000</ele>
        <time>2009-11-25T22:44:23Z</time>
      </trkpt>
      <trkpt lat="49.1941494" lon="11.9358644">
        <ele>347.7000000</ele>
        <time>2009-11-25T22:44:37Z</time>
      </trkpt>
      <trkpt lat="49.1931313" lon="11.9358205">
        <ele>347.2000000</ele>
        <time>2009-11-25T22:45:09Z</time>
      </trkpt>
      <trkpt lat="49.1918541" lon="11.9358256">
        <ele>347.7000000</ele>
        <time>2009-11-25T22:45:48Z</time>
      </trkpt>
      <trkpt lat="49.1917073" lon="11.9358294">
        <ele>348.1000000</ele>
        <time>2009-11-25T22:45:53Z</time>
      </trkpt>
      <trkpt lat="49.1913717" lon="11.9359511">
        <ele>349.6000000</ele>
        <time>2009-11-25T22:46:03Z</time>
      </trkpt>
      <trkpt lat="49.1911320" lon="11.9362054">
        <ele>349.6000000</ele>
        <time>2009-11-25T22:46:12Z</time>
      </trkpt>
      <trkpt lat="49.1908418" lon="11.9364855">
        <ele>349.1000000</ele>
        <time>2009-11-25T22:46:23Z</time>
      </trkpt>
      <trkpt lat="49.1905097" lon="11.9366334">
        <ele>348.6000000</ele>
        <time>2009-11-25T22:46:34Z</time>
      </trkpt>
      <trkpt lat="49.1902381" lon="11.9366572">
        <ele>348.6000000</ele>
        <time>2009-11-25T22:46:42Z</time>
      </trkpt>
      <trkpt lat="49.1899777" lon="11.9367448">
        <ele>348.6000000</ele>
        <time>2009-11-25T22:46:50Z</time>
      </trkpt>
      <trkpt lat="49.1898146" lon="11.9367929">
        <ele>347.7000000</ele>
        <time>2009-11-25T22:46:56Z</time>
      </trkpt>
      <trkpt lat="49.1894801" lon="11.9368053">
        <ele>348.6000000</ele>
        <time>2009-11-25T22:47:06Z</time>
      </trkpt>
      <trkpt lat="49.1889988" lon="11.9369308">
        <ele>348.6000000</ele>
        <time>2009-11-25T22:47:21Z</time>
      </trkpt>
      <trkpt lat="49.1880766" lon="11.9368042">
        <ele>350.5000000</ele>
        <time>2009-11-25T22:47:50Z</time>
      </trkpt>
      <trkpt lat="49.1871654" lon="11.9364505">
        <ele>348.6000000</ele>
        <time>2009-11-25T22:48:19Z</time>
      </trkpt>
      <trkpt lat="49.1867322" lon="11.9360559">
        <ele>347.2000000</ele>
        <time>2009-11-25T22:48:34Z</time>
      </trkpt>
      <trkpt lat="49.1861891" lon="11.9359869">
        <ele>346.2000000</ele>
        <time>2009-11-25T22:48:51Z</time>
      </trkpt>
      <trkpt lat="49.1858794" lon="11.9358341">
        <ele>347.2000000</ele>
        <time>2009-11-25T22:49:01Z</time>
      </trkpt>
      <trkpt lat="49.1852683" lon="11.9357191">
        <ele>346.2000000</ele>
        <time>2009-11-25T22:49:20Z</time>
      </trkpt>
      <trkpt lat="49.1849712" lon="11.9355056">
        <ele>346.7000000</ele>
        <time>2009-11-25T22:49:30Z</time>
      </trkpt>
      <trkpt lat="49.1848049" lon="11.9351358">
        <ele>346.2000000</ele>
        <time>2009-11-25T22:49:39Z</time>
      </trkpt>
      <trkpt lat="49.1846800" lon="11.9347255">
        <ele>347.2000000</ele>
        <time>2009-11-25T22:49:49Z</time>
      </trkpt>
      <trkpt lat="49.1844433" lon="11.9345624">
        <ele>351.0000000</ele>
        <time>2009-11-25T22:49:57Z</time>
      </trkpt>
      <trkpt lat="49.1843008" lon="11.9345888">
        <ele>352.0000000</ele>
        <time>2009-11-25T22:50:01Z</time>
      </trkpt>
      <trkpt lat="49.1839103" lon="11.9346233">
        <ele>352.0000000</ele>
        <time>2009-11-25T22:50:13Z</time>
      </trkpt>
      <trkpt lat="49.1835572" lon="11.9345026">
        <ele>350.5000000</ele>
        <time>2009-11-25T22:50:24Z</time>
      </trkpt>
      <trkpt lat="49.1831664" lon="11.9345466">
        <ele>350.5000000</ele>
        <time>2009-11-25T22:50:36Z</time>
      </trkpt>
      <trkpt lat="49.1822518" lon="11.9350167">
        <ele>351.5000000</ele>
        <time>2009-11-25T22:51:06Z</time>
      </trkpt>
      <trkpt lat="49.1812576" lon="11.9354374">
        <ele>351.5000000</ele>
        <time>2009-11-25T22:51:38Z</time>
      </trkpt>
      <trkpt lat="49.1801472" lon="11.9360546">
        <ele>352.5000000</ele>
        <time>2009-11-25T22:52:15Z</time>
      </trkpt>
      <trkpt lat="49.1798268" lon="11.9362096">
        <ele>355.3000000</ele>
        <time>2009-11-25T22:52:25Z</time>
      </trkpt>
      <trkpt lat="49.1797683" lon="11.9362278">
        <ele>355.8000000</ele>
        <time>2009-11-25T22:52:27Z</time>
      </trkpt>
      <trkpt lat="49.1795483" lon="11.9365919">
        <ele>354.9000000</ele>
        <time>2009-11-25T22:52:37Z</time>
      </trkpt>
      <trkpt lat="49.1795088" lon="11.9369850">
        <ele>353.4000000</ele>
        <time>2009-11-25T22:52:45Z</time>
      </trkpt>
      <trkpt lat="49.1791467" lon="11.9385043">
        <ele>351.0000000</ele>
        <time>2009-11-25T22:53:18Z</time>
      </trkpt>
      <trkpt lat="49.1791145" lon="11.9390508">
        <ele>348.1000000</ele>
        <time>2009-11-25T22:53:29Z</time>
      </trkpt>
      <trkpt lat="49.1790120" lon="11.9396668">
        <ele>347.7000000</ele>
        <time>2009-11-25T22:53:42Z</time>
      </trkpt>
      <trkpt lat="49.1787990" lon="11.9411010">
        <ele>348.1000000</ele>
        <time>2009-11-25T22:54:11Z</time>
      </trkpt>
      <trkpt lat="49.1787661" lon="11.9412338">
        <ele>347.7000000</ele>
        <time>2009-11-25T22:54:14Z</time>
      </trkpt>
      <trkpt lat="49.1781886" lon="11.9425685">
        <ele>348.6000000</ele>
        <time>2009-11-25T22:54:47Z</time>
      </trkpt>
      <trkpt lat="49.1780490" lon="11.9429905">
        <ele>347.7000000</ele>
        <time>2009-11-25T22:54:56Z</time>
      </trkpt>
      <trkpt lat="49.1778340" lon="11.9434083">
        <ele>346.7000000</ele>
        <time>2009-11-25T22:55:07Z</time>
      </trkpt>
      <trkpt lat="49.1770415" lon="11.9441712">
        <ele>347.7000000</ele>
        <time>2009-11-25T22:55:36Z</time>
      </trkpt>
      <trkpt lat="49.1758943" lon="11.9446412">
        <ele>349.6000000</ele>
        <time>2009-11-25T22:56:13Z</time>
      </trkpt>
      <trkpt lat="49.1747167" lon="11.9446574">
        <ele>351.0000000</ele>
        <time>2009-11-25T22:56:49Z</time>
      </trkpt>
      <trkpt lat="49.1738555" lon="11.9443165">
        <ele>352.0000000</ele>
        <time>2009-11-25T22:57:17Z</time>
      </trkpt>
      <trkpt lat="49.1733855" lon="11.9441506">
        <ele>351.0000000</ele>
        <time>2009-11-25T22:57:31Z</time>
      </trkpt>
      <trkpt lat="49.1724277" lon="11.9438428">
        <ele>349.1000000</ele>
        <time>2009-11-25T22:58:02Z</time>
      </trkpt>
      <trkpt lat="49.1721921" lon="11.9439302">
        <ele>348.6000000</ele>
        <time>2009-11-25T22:58:09Z</time>
      </trkpt>
      <trkpt lat="49.1721106" lon="11.9440403">
        <ele>348.1000000</ele>
        <time>2009-11-25T22:58:13Z</time>
      </trkpt>
      <trkpt lat="49.1718578" lon="11.9448879">
        <ele>346.7000000</ele>
        <time>2009-11-25T22:58:31Z</time>
      </trkpt>
      <trkpt lat="49.1715330" lon="11.9450082">
        <ele>345.7000000</ele>
        <time>2009-11-25T22:58:42Z</time>
      </trkpt>
      <trkpt lat="49.1714107" lon="11.9447885">
        <ele>344.8000000</ele>
        <time>2009-11-25T22:58:48Z</time>
      </trkpt>
      <trkpt lat="49.1710960" lon="11.9446920">
        <ele>346.7000000</ele>
        <time>2009-11-25T22:58:58Z</time>
      </trkpt>
      <trkpt lat="49.1710717" lon="11.9447147">
        <ele>346.7000000</ele>
        <time>2009-11-25T22:58:58Z</time>
      </trkpt>
      <trkpt lat="49.1709689" lon="11.9448573">
        <ele>346.2000000</ele>
        <time>2009-11-25T22:59:03Z</time>
      </trkpt>
      <trkpt lat="49.1708435" lon="11.9445779">
        <ele>345.7000000</ele>
        <time>2009-11-25T22:59:10Z</time>
      </trkpt>
      <trkpt lat="49.1707956" lon="11.9444221">
        <ele>346.2000000</ele>
        <time>2009-11-25T22:59:13Z</time>
      </trkpt>
      <trkpt lat="49.1704333" lon="11.9432178">
        <ele>343.8000000</ele>
        <time>2009-11-25T22:59:40Z</time>
      </trkpt>
      <trkpt lat="49.1703661" lon="11.9429950">
        <ele>344.3000000</ele>
        <time>2009-11-25T22:59:45Z</time>
      </trkpt>
      <trkpt lat="49.1697964" lon="11.9423815">
        <ele>346.2000000</ele>
        <time>2009-11-25T23:00:06Z</time>
      </trkpt>
      <trkpt lat="49.1689146" lon="11.9414576">
        <ele>347.7000000</ele>
        <time>2009-11-25T23:00:39Z</time>
      </trkpt>
      <trkpt lat="49.1688503" lon="11.9414161">
        <ele>347.7000000</ele>
        <time>2009-11-25T23:00:42Z</time>
      </trkpt>
      <trkpt lat="49.1679272" lon="11.9411592">
        <ele>346.2000000</ele>
        <time>2009-11-25T23:01:11Z</time>
      </trkpt>
      <trkpt lat="49.1668513" lon="11.9411823">
        <ele>343.3000000</ele>
        <time>2009-11-25T23:01:44Z</time>
      </trkpt>
      <trkpt lat="49.1660976" lon="11.9416946">
        <ele>344.3000000</ele>
        <time>2009-11-25T23:02:09Z</time>
      </trkpt>
      <trkpt lat="49.1653259" lon="11.9427126">
        <ele>343.8000000</ele>
        <time>2009-11-25T23:02:41Z</time>
      </trkpt>
      <trkpt lat="49.1645025" lon="11.9442827">
        <ele>342.4000000</ele>
        <time>2009-11-25T23:03:22Z</time>
      </trkpt>
      <trkpt lat="49.1638666" lon="11.9454065">
        <ele>341.9000000</ele>
        <time>2009-11-25T23:03:52Z</time>
      </trkpt>
      <trkpt lat="49.1635273" lon="11.9457037">
        <ele>341.9000000</ele>
        <time>2009-11-25T23:04:04Z</time>
      </trkpt>
      <trkpt lat="49.1634097" lon="11.9462321">
        <ele>341.4000000</ele>
        <time>2009-11-25T23:04:15Z</time>
      </trkpt>
      <trkpt lat="49.1636972" lon="11.9459853">
        <ele>340.9000000</ele>
        <time>2009-11-25T23:04:25Z</time>
      </trkpt>
      <trkpt lat="49.1639375" lon="11.9461842">
        <ele>342.4000000</ele>
        <time>2009-11-25T23:04:34Z</time>
      </trkpt>
      <trkpt lat="49.1638555" lon="11.9464371">
        <ele>342.4000000</ele>
        <time>2009-11-25T23:04:39Z</time>
      </trkpt>
      <trkpt lat="49.1637522" lon="11.9467986">
        <ele>342.8000000</ele>
        <time>2009-11-25T23:04:47Z</time>
      </trkpt>
      <trkpt lat="49.1636588" lon="11.9472737">
        <ele>343.8000000</ele>
        <time>2009-11-25T23:04:57Z</time>
      </trkpt>
      <trkpt lat="49.1631445" lon="11.9484989">
        <ele>344.3000000</ele>
        <time>2009-11-25T23:05:27Z</time>
      </trkpt>
      <trkpt lat="49.1626283" lon="11.9492441">
        <ele>343.3000000</ele>
        <time>2009-11-25T23:05:49Z</time>
      </trkpt>
      <trkpt lat="49.1620712" lon="11.9500988">
        <ele>342.8000000</ele>
        <time>2009-11-25T23:06:13Z</time>
      </trkpt>
      <trkpt lat="49.1620462" lon="11.9501291">
        <ele>342.8000000</ele>
        <time>2009-11-25T23:06:14Z</time>
      </trkpt>
      <trkpt lat="49.1619815" lon="11.9502341">
        <ele>342.8000000</ele>
        <time>2009-11-25T23:06:17Z</time>
      </trkpt>
      <trkpt lat="49.1617982" lon="11.9504295">
        <ele>342.4000000</ele>
        <time>2009-11-25T23:06:24Z</time>
      </trkpt>
      <trkpt lat="49.1613496" lon="11.9507862">
        <ele>340.9000000</ele>
        <time>2009-11-25T23:06:40Z</time>
      </trkpt>
      <trkpt lat="49.1611543" lon="11.9512353">
        <ele>340.4000000</ele>
        <time>2009-11-25T23:06:51Z</time>
      </trkpt>
      <trkpt lat="49.1610663" lon="11.9513685">
        <ele>340.4000000</ele>
        <time>2009-11-25T23:06:54Z</time>
      </trkpt>
      <trkpt lat="49.1609362" lon="11.9517280">
        <ele>341.4000000</ele>
        <time>2009-11-25T23:07:03Z</time>
      </trkpt>
      <trkpt lat="49.1608979" lon="11.9518624">
        <ele>340.9000000</ele>
        <time>2009-11-25T23:07:06Z</time>
      </trkpt>
      <trkpt lat="49.1607792" lon="11.9525091">
        <ele>341.9000000</ele>
        <time>2009-11-25T23:07:19Z</time>
      </trkpt>
      <trkpt lat="49.1607917" lon="11.9528828">
        <ele>341.4000000</ele>
        <time>2009-11-25T23:07:27Z</time>
      </trkpt>
      <trkpt lat="49.1608212" lon="11.9529479">
        <ele>341.9000000</ele>
        <time>2009-11-25T23:07:28Z</time>
      </trkpt>
      <trkpt lat="49.1608246" lon="11.9530356">
        <ele>341.9000000</ele>
        <time>2009-11-25T23:07:30Z</time>
      </trkpt>
      <trkpt lat="49.1610015" lon="11.9533209">
        <ele>341.9000000</ele>
        <time>2009-11-25T23:07:38Z</time>
      </trkpt>
      <trkpt lat="49.1610552" lon="11.9534403">
        <ele>340.9000000</ele>
        <time>2009-11-25T23:07:41Z</time>
      </trkpt>
      <trkpt lat="49.1610930" lon="11.9535309">
        <ele>340.9000000</ele>
        <time>2009-11-25T23:07:43Z</time>
      </trkpt>
      <trkpt lat="49.1610448" lon="11.9536682">
        <ele>341.4000000</ele>
        <time>2009-11-25T23:07:46Z</time>
      </trkpt>
      <trkpt lat="49.1610448" lon="11.9537220">
        <ele>341.4000000</ele>
        <time>2009-11-25T23:07:47Z</time>
      </trkpt>
      <trkpt lat="49.1613002" lon="11.9538079">
        <ele>341.4000000</ele>
        <time>2009-11-25T23:07:56Z</time>
      </trkpt>
      <trkpt lat="49.1614639" lon="11.9541013">
        <ele>343.8000000</ele>
        <time>2009-11-25T23:08:03Z</time>
      </trkpt>
      <trkpt lat="49.1614712" lon="11.9543234">
        <ele>343.8000000</ele>
        <time>2009-11-25T23:08:08Z</time>
      </trkpt>
      <trkpt lat="49.1613574" lon="11.9555584">
        <ele>341.4000000</ele>
        <time>2009-11-25T23:08:33Z</time>
      </trkpt>
      <trkpt lat="49.1613346" lon="11.9556126">
        <ele>341.4000000</ele>
        <time>2009-11-25T23:08:34Z</time>
      </trkpt>
      <trkpt lat="49.1610916" lon="11.9557551">
        <ele>340.9000000</ele>
        <time>2009-11-25T23:08:42Z</time>
      </trkpt>
      <trkpt lat="49.1609543" lon="11.9561337">
        <ele>342.4000000</ele>
        <time>2009-11-25T23:08:51Z</time>
      </trkpt>
      <trkpt lat="49.1608366" lon="11.9561613">
        <ele>341.4000000</ele>
        <time>2009-11-25T23:08:55Z</time>
      </trkpt>
      <trkpt lat="49.1606778" lon="11.9560893">
        <ele>340.4000000</ele>
        <time>2009-11-25T23:09:00Z</time>
      </trkpt>
      <trkpt lat="49.1604674" lon="11.9562105">
        <ele>340.4000000</ele>
        <time>2009-11-25T23:09:07Z</time>
      </trkpt>
      <trkpt lat="49.1602176" lon="11.9565838">
        <ele>340.4000000</ele>
        <time>2009-11-25T23:09:18Z</time>
      </trkpt>
      <trkpt lat="49.1601232" lon="11.9567294">
        <ele>342.4000000</ele>
        <time>2009-11-25T23:09:22Z</time>
      </trkpt>
      <trkpt lat="49.1599976" lon="11.9569348">
        <ele>341.9000000</ele>
        <time>2009-11-25T23:09:28Z</time>
      </trkpt>
      <trkpt lat="49.1599235" lon="11.9574779">
        <ele>341.9000000</ele>
        <time>2009-11-25T23:09:39Z</time>
      </trkpt>
      <trkpt lat="49.1599238" lon="11.9576091">
        <ele>342.8000000</ele>
        <time>2009-11-25T23:09:41Z</time>
      </trkpt>
      <trkpt lat="49.1599340" lon="11.9582141">
        <ele>341.9000000</ele>
        <time>2009-11-25T23:09:54Z</time>
      </trkpt>
      <trkpt lat="49.1597053" lon="11.9584721">
        <ele>341.4000000</ele>
        <time>2009-11-25T23:10:02Z</time>
      </trkpt>
      <trkpt lat="49.1596224" lon="11.9583592">
        <ele>341.9000000</ele>
        <time>2009-11-25T23:10:06Z</time>
      </trkpt>
      <trkpt lat="49.1589844" lon="11.9574743">
        <ele>340.9000000</ele>
        <time>2009-11-25T23:10:33Z</time>
      </trkpt>
      <trkpt lat="49.1587326" lon="11.9571331">
        <ele>340.4000000</ele>
        <time>2009-11-25T23:10:43Z</time>
      </trkpt>
      <trkpt lat="49.1584855" lon="11.9572375">
        <ele>340.0000000</ele>
        <time>2009-11-25T23:10:51Z</time>
      </trkpt>
      <trkpt lat="49.1582374" lon="11.9575429">
        <ele>340.4000000</ele>
        <time>2009-11-25T23:11:01Z</time>
      </trkpt>
      <trkpt lat="49.1581403" lon="11.9576003">
        <ele>340.4000000</ele>
        <time>2009-11-25T23:11:04Z</time>
      </trkpt>
      <trkpt lat="49.1577049" lon="11.9577423">
        <ele>341.4000000</ele>
        <time>2009-11-25T23:11:18Z</time>
      </trkpt>
      <trkpt lat="49.1573536" lon="11.9576165">
        <ele>343.3000000</ele>
        <time>2009-11-25T23:11:29Z</time>
      </trkpt>
      <trkpt lat="49.1570352" lon="11.9574258">
        <ele>345.3000000</ele>
        <time>2009-11-25T23:11:39Z</time>
      </trkpt>
      <trkpt lat="49.1566363" lon="11.9572144">
        <ele>344.3000000</ele>
        <time>2009-11-25T23:11:52Z</time>
      </trkpt>
      <trkpt lat="49.1563912" lon="11.9569394">
        <ele>343.8000000</ele>
        <time>2009-11-25T23:12:02Z</time>
      </trkpt>
      <trkpt lat="49.1560286" lon="11.9565564">
        <ele>344.3000000</ele>
        <time>2009-11-25T23:12:16Z</time>
      </trkpt>
      <trkpt lat="49.1553180" lon="11.9558120">
        <ele>341.9000000</ele>
        <time>2009-11-25T23:12:42Z</time>
      </trkpt>
      <trkpt lat="49.1547853" lon="11.9553038">
        <ele>344.8000000</ele>
        <time>2009-11-25T23:13:02Z</time>
      </trkpt>
      <trkpt lat="49.1544507" lon="11.9550244">
        <ele>341.4000000</ele>
        <time>2009-11-25T23:13:13Z</time>
      </trkpt>
      <trkpt lat="49.1543797" lon="11.9549651">
        <ele>341.4000000</ele>
        <time>2009-11-25T23:13:16Z</time>
      </trkpt>
      <trkpt lat="49.1540258" lon="11.9546234">
        <ele>341.9000000</ele>
        <time>2009-11-25T23:13:29Z</time>
      </trkpt>
      <trkpt lat="49.1528981" lon="11.9542307">
        <ele>342.4000000</ele>
        <time>2009-11-25T23:14:05Z</time>
      </trkpt>
      <trkpt lat="49.1517359" lon="11.9539091">
        <ele>341.9000000</ele>
        <time>2009-11-25T23:14:41Z</time>
      </trkpt>
      <trkpt lat="49.1511808" lon="11.9535490">
        <ele>340.4000000</ele>
        <time>2009-11-25T23:15:00Z</time>
      </trkpt>
      <trkpt lat="49.1496943" lon="11.9532998">
        <ele>340.9000000</ele>
        <time>2009-11-25T23:15:46Z</time>
      </trkpt>
      <trkpt lat="49.1480890" lon="11.9532660">
        <ele>341.9000000</ele>
        <time>2009-11-25T23:16:36Z</time>
      </trkpt>
      <trkpt lat="49.1469732" lon="11.9533740">
        <ele>342.8000000</ele>
        <time>2009-11-25T23:17:10Z</time>
      </trkpt>
      <trkpt lat="49.1469190" lon="11.9533750">
        <ele>342.8000000</ele>
        <time>2009-11-25T23:17:12Z</time>
      </trkpt>
      <trkpt lat="49.1466807" lon="11.9531749">
        <ele>342.4000000</ele>
        <time>2009-11-25T23:17:20Z</time>
      </trkpt>
      <trkpt lat="49.1462582" lon="11.9526557">
        <ele>340.9000000</ele>
        <time>2009-11-25T23:17:37Z</time>
      </trkpt>
      <trkpt lat="49.1459667" lon="11.9524969">
        <ele>340.0000000</ele>
        <time>2009-11-25T23:17:47Z</time>
      </trkpt>
      <trkpt lat="49.1453361" lon="11.9522212">
        <ele>338.5000000</ele>
        <time>2009-11-25T23:18:07Z</time>
      </trkpt>
      <trkpt lat="49.1449472" lon="11.9522285">
        <ele>339.0000000</ele>
        <time>2009-11-25T23:18:19Z</time>
      </trkpt>
      <trkpt lat="49.1447784" lon="11.9522296">
        <ele>339.0000000</ele>
        <time>2009-11-25T23:18:24Z</time>
      </trkpt>
      <trkpt lat="49.1442717" lon="11.9521114">
        <ele>339.5000000</ele>
        <time>2009-11-25T23:18:40Z</time>
      </trkpt>
      <trkpt lat="49.1440480" lon="11.9520785">
        <ele>338.5000000</ele>
        <time>2009-11-25T23:18:47Z</time>
      </trkpt>
      <trkpt lat="49.1436434" lon="11.9520079">
        <ele>339.5000000</ele>
        <time>2009-11-25T23:19:00Z</time>
      </trkpt>
      <trkpt lat="49.1433730" lon="11.9519445">
        <ele>339.5000000</ele>
        <time>2009-11-25T23:19:08Z</time>
      </trkpt>
      <trkpt lat="49.1432316" lon="11.9519547">
        <ele>339.5000000</ele>
        <time>2009-11-25T23:19:12Z</time>
      </trkpt>
      <trkpt lat="49.1427805" lon="11.9518328">
        <ele>338.5000000</ele>
        <time>2009-11-25T23:19:27Z</time>
      </trkpt>
      <trkpt lat="49.1424806" lon="11.9517824">
        <ele>339.0000000</ele>
        <time>2009-11-25T23:19:36Z</time>
      </trkpt>
      <trkpt lat="49.1422070" lon="11.9517827">
        <ele>339.0000000</ele>
        <time>2009-11-25T23:19:44Z</time>
      </trkpt>
      <trkpt lat="49.1418440" lon="11.9517598">
        <ele>339.5000000</ele>
        <time>2009-11-25T23:19:56Z</time>
      </trkpt>
      <trkpt lat="49.1415690" lon="11.9518115">
        <ele>339.0000000</ele>
        <time>2009-11-25T23:20:04Z</time>
      </trkpt>
      <trkpt lat="49.1413575" lon="11.9518425">
        <ele>339.0000000</ele>
        <time>2009-11-25T23:20:11Z</time>
      </trkpt>
      <trkpt lat="49.1408279" lon="11.9517509">
        <ele>339.0000000</ele>
        <time>2009-11-25T23:20:27Z</time>
      </trkpt>
      <trkpt lat="49.1403976" lon="11.9514460">
        <ele>339.0000000</ele>
        <time>2009-11-25T23:20:42Z</time>
      </trkpt>
      <trkpt lat="49.1402773" lon="11.9514156">
        <ele>339.0000000</ele>
        <time>2009-11-25T23:20:46Z</time>
      </trkpt>
      <trkpt lat="49.1401196" lon="11.9513914">
        <ele>339.5000000</ele>
        <time>2009-11-25T23:20:51Z</time>
      </trkpt>
      <trkpt lat="49.1399595" lon="11.9512958">
        <ele>339.5000000</ele>
        <time>2009-11-25T23:20:56Z</time>
      </trkpt>
      <trkpt lat="49.1395819" lon="11.9511309">
        <ele>341.4000000</ele>
        <time>2009-11-25T23:21:08Z</time>
      </trkpt>
      <trkpt lat="49.1394673" lon="11.9510569">
        <ele>340.9000000</ele>
        <time>2009-11-25T23:21:12Z</time>
      </trkpt>
      <trkpt lat="49.1385696" lon="11.9503112">
        <ele>339.0000000</ele>
        <time>2009-11-25T23:21:43Z</time>
      </trkpt>
      <trkpt lat="49.1383867" lon="11.9501400">
        <ele>339.0000000</ele>
        <time>2009-11-25T23:21:50Z</time>
      </trkpt>
      <trkpt lat="49.1381287" lon="11.9500230">
        <ele>339.0000000</ele>
        <time>2009-11-25T23:21:58Z</time>
      </trkpt>
      <trkpt lat="49.1372182" lon="11.9498809">
        <ele>339.5000000</ele>
        <time>2009-11-25T23:22:27Z</time>
      </trkpt>
      <trkpt lat="49.1370311" lon="11.9498649">
        <ele>339.5000000</ele>
        <time>2009-11-25T23:22:32Z</time>
      </trkpt>
      <trkpt lat="49.1367747" lon="11.9497799">
        <ele>339.5000000</ele>
        <time>2009-11-25T23:22:41Z</time>
      </trkpt>
      <trkpt lat="49.1357991" lon="11.9496032">
        <ele>340.0000000</ele>
        <time>2009-11-25T23:23:11Z</time>
      </trkpt>
      <trkpt lat="49.1349590" lon="11.9490879">
        <ele>340.4000000</ele>
        <time>2009-11-25T23:23:39Z</time>
      </trkpt>
      <trkpt lat="49.1339520" lon="11.9485880">
        <ele>340.0000000</ele>
        <time>2009-11-25T23:24:12Z</time>
      </trkpt>
      <trkpt lat="49.1332336" lon="11.9479766">
        <ele>339.5000000</ele>
        <time>2009-11-25T23:24:37Z</time>
      </trkpt>
      <trkpt lat="49.1329714" lon="11.9478607">
        <ele>339.5000000</ele>
        <time>2009-11-25T23:24:46Z</time>
      </trkpt>
      <trkpt lat="49.1328303" lon="11.9477419">
        <ele>340.0000000</ele>
        <time>2009-11-25T23:24:51Z</time>
      </trkpt>
      <trkpt lat="49.1321419" lon="11.9471773">
        <ele>340.4000000</ele>
        <time>2009-11-25T23:25:15Z</time>
      </trkpt>
      <trkpt lat="49.1318765" lon="11.9470754">
        <ele>340.4000000</ele>
        <time>2009-11-25T23:25:23Z</time>
      </trkpt>
      <trkpt lat="49.1314547" lon="11.9468832">
        <ele>340.4000000</ele>
        <time>2009-11-25T23:25:37Z</time>
      </trkpt>
      <trkpt lat="49.1307590" lon="11.9462166">
        <ele>339.5000000</ele>
        <time>2009-11-25T23:26:02Z</time>
      </trkpt>
      <trkpt lat="49.1300524" lon="11.9455960">
        <ele>340.4000000</ele>
        <time>2009-11-25T23:26:27Z</time>
      </trkpt>
      <trkpt lat="49.1293656" lon="11.9449035">
        <ele>340.4000000</ele>
        <time>2009-11-25T23:26:53Z</time>
      </trkpt>
      <trkpt lat="49.1292255" lon="11.9447421">
        <ele>340.0000000</ele>
        <time>2009-11-25T23:26:58Z</time>
      </trkpt>
      <trkpt lat="49.1285847" lon="11.9439224">
        <ele>340.0000000</ele>
        <time>2009-11-25T23:27:24Z</time>
      </trkpt>
      <trkpt lat="49.1284961" lon="11.9437964">
        <ele>340.0000000</ele>
        <time>2009-11-25T23:27:28Z</time>
      </trkpt>
      <trkpt lat="49.1277773" lon="11.9429633">
        <ele>340.4000000</ele>
        <time>2009-11-25T23:27:56Z</time>
      </trkpt>
      <trkpt lat="49.1269556" lon="11.9423306">
        <ele>341.4000000</ele>
        <time>2009-11-25T23:28:24Z</time>
      </trkpt>
      <trkpt lat="49.1269034" lon="11.9422815">
        <ele>340.9000000</ele>
        <time>2009-11-25T23:28:26Z</time>
      </trkpt>
      <trkpt lat="49.1266626" lon="11.9422133">
        <ele>340.9000000</ele>
        <time>2009-11-25T23:28:34Z</time>
      </trkpt>
      <trkpt lat="49.1264351" lon="11.9418089">
        <ele>340.4000000</ele>
        <time>2009-11-25T23:28:44Z</time>
      </trkpt>
      <trkpt lat="49.1263999" lon="11.9417786">
        <ele>340.0000000</ele>
        <time>2009-11-25T23:28:46Z</time>
      </trkpt>
      <trkpt lat="49.1262750" lon="11.9416611">
        <ele>340.0000000</ele>
        <time>2009-11-25T23:28:50Z</time>
      </trkpt>
      <trkpt lat="49.1256290" lon="11.9412090">
        <ele>341.4000000</ele>
        <time>2009-11-25T23:29:12Z</time>
      </trkpt>
      <trkpt lat="49.1247288" lon="11.9405371">
        <ele>340.9000000</ele>
        <time>2009-11-25T23:29:43Z</time>
      </trkpt>
      <trkpt lat="49.1243386" lon="11.9402784">
        <ele>340.9000000</ele>
        <time>2009-11-25T23:29:56Z</time>
      </trkpt>
      <trkpt lat="49.1239607" lon="11.9399063">
        <ele>340.9000000</ele>
        <time>2009-11-25T23:30:10Z</time>
      </trkpt>
      <trkpt lat="49.1238575" lon="11.9398787">
        <ele>340.9000000</ele>
        <time>2009-11-25T23:30:13Z</time>
      </trkpt>
      <trkpt lat="49.1236094" lon="11.9399446">
        <ele>340.0000000</ele>
        <time>2009-11-25T23:30:21Z</time>
      </trkpt>
      <trkpt lat="49.1233393" lon="11.9395445">
        <ele>340.4000000</ele>
        <time>2009-11-25T23:30:33Z</time>
      </trkpt>
      <trkpt lat="49.1232867" lon="11.9393152">
        <ele>340.4000000</ele>
        <time>2009-11-25T23:30:38Z</time>
      </trkpt>
      <trkpt lat="49.1229322" lon="11.9389753">
        <ele>339.5000000</ele>
        <time>2009-11-25T23:30:51Z</time>
      </trkpt>
      <trkpt lat="49.1228951" lon="11.9389551">
        <ele>339.5000000</ele>
        <time>2009-11-25T23:30:52Z</time>
      </trkpt>
      <trkpt lat="49.1226936" lon="11.9387993">
        <ele>339.5000000</ele>
        <time>2009-11-25T23:30:59Z</time>
      </trkpt>
      <trkpt lat="49.1219262" lon="11.9383310">
        <ele>340.4000000</ele>
        <time>2009-11-25T23:31:24Z</time>
      </trkpt>
      <trkpt lat="49.1210639" lon="11.9375995">
        <ele>339.0000000</ele>
        <time>2009-11-25T23:31:55Z</time>
      </trkpt>
      <trkpt lat="49.1202870" lon="11.9370255">
        <ele>338.5000000</ele>
        <time>2009-11-25T23:32:22Z</time>
      </trkpt>
      <trkpt lat="49.1201707" lon="11.9369554">
        <ele>338.0000000</ele>
        <time>2009-11-25T23:32:26Z</time>
      </trkpt>
      <trkpt lat="49.1197789" lon="11.9367049">
        <ele>337.1000000</ele>
        <time>2009-11-25T23:32:39Z</time>
      </trkpt>
      <trkpt lat="49.1193815" lon="11.9366057">
        <ele>337.1000000</ele>
        <time>2009-11-25T23:32:51Z</time>
      </trkpt>
      <trkpt lat="49.1191198" lon="11.9364814">
        <ele>336.6000000</ele>
        <time>2009-11-25T23:33:00Z</time>
      </trkpt>
      <trkpt lat="49.1186510" lon="11.9363322">
        <ele>337.1000000</ele>
        <time>2009-11-25T23:33:14Z</time>
      </trkpt>
      <trkpt lat="49.1178125" lon="11.9362796">
        <ele>337.6000000</ele>
        <time>2009-11-25T23:33:40Z</time>
      </trkpt>
      <trkpt lat="49.1169913" lon="11.9363218">
        <ele>337.6000000</ele>
        <time>2009-11-25T23:34:06Z</time>
      </trkpt>
      <trkpt lat="49.1160297" lon="11.9363473">
        <ele>337.6000000</ele>
        <time>2009-11-25T23:34:35Z</time>
      </trkpt>
      <trkpt lat="49.1150327" lon="11.9362997">
        <ele>338.0000000</ele>
        <time>2009-11-25T23:35:06Z</time>
      </trkpt>
      <trkpt lat="49.1147065" lon="11.9362666">
        <ele>338.0000000</ele>
        <time>2009-11-25T23:35:16Z</time>
      </trkpt>
      <trkpt lat="49.1137283" lon="11.9360012">
        <ele>336.6000000</ele>
        <time>2009-11-25T23:35:47Z</time>
      </trkpt>
      <trkpt lat="49.1133430" lon="11.9359045">
        <ele>336.1000000</ele>
        <time>2009-11-25T23:35:59Z</time>
      </trkpt>
      <trkpt lat="49.1131374" lon="11.9357999">
        <ele>336.1000000</ele>
        <time>2009-11-25T23:36:06Z</time>
      </trkpt>
      <trkpt lat="49.1123646" lon="11.9356305">
        <ele>335.6000000</ele>
        <time>2009-11-25T23:36:30Z</time>
      </trkpt>
      <trkpt lat="49.1122029" lon="11.9355918">
        <ele>337.1000000</ele>
        <time>2009-11-25T23:36:35Z</time>
      </trkpt>
      <trkpt lat="49.1119749" lon="11.9355585">
        <ele>336.1000000</ele>
        <time>2009-11-25T23:36:42Z</time>
      </trkpt>
      <trkpt lat="49.1111513" lon="11.9355244">
        <ele>337.6000000</ele>
        <time>2009-11-25T23:37:08Z</time>
      </trkpt>
      <trkpt lat="49.1108514" lon="11.9355765">
        <ele>337.1000000</ele>
        <time>2009-11-25T23:37:17Z</time>
      </trkpt>
      <trkpt lat="49.1105481" lon="11.9356563">
        <ele>337.6000000</ele>
        <time>2009-11-25T23:37:27Z</time>
      </trkpt>
      <trkpt lat="49.1104334" lon="11.9356643">
        <ele>337.6000000</ele>
        <time>2009-11-25T23:37:30Z</time>
      </trkpt>
      <trkpt lat="49.1096605" lon="11.9358622">
        <ele>338.5000000</ele>
        <time>2009-11-25T23:37:54Z</time>
      </trkpt>
      <trkpt lat="49.1092013" lon="11.9359741">
        <ele>339.0000000</ele>
        <time>2009-11-25T23:38:09Z</time>
      </trkpt>
      <trkpt lat="49.1090866" lon="11.9360267">
        <ele>339.5000000</ele>
        <time>2009-11-25T23:38:12Z</time>
      </trkpt>
      <trkpt lat="49.1086294" lon="11.9363191">
        <ele>339.5000000</ele>
        <time>2009-11-25T23:38:28Z</time>
      </trkpt>
      <trkpt lat="49.1084626" lon="11.9361128">
        <ele>339.0000000</ele>
        <time>2009-11-25T23:38:34Z</time>
      </trkpt>
      <trkpt lat="49.1083455" lon="11.9356703">
        <ele>338.5000000</ele>
        <time>2009-11-25T23:38:44Z</time>
      </trkpt>
      <trkpt lat="49.1080791" lon="11.9355189">
        <ele>337.6000000</ele>
        <time>2009-11-25T23:38:53Z</time>
      </trkpt>
      <trkpt lat="49.1068635" lon="11.9360588">
        <ele>336.6000000</ele>
        <time>2009-11-25T23:39:32Z</time>
      </trkpt>
      <trkpt lat="49.1056719" lon="11.9368934">
        <ele>337.1000000</ele>
        <time>2009-11-25T23:40:13Z</time>
      </trkpt>
      <trkpt lat="49.1048568" lon="11.9378748">
        <ele>338.5000000</ele>
        <time>2009-11-25T23:40:45Z</time>
      </trkpt>
      <trkpt lat="49.1047949" lon="11.9379425">
        <ele>338.5000000</ele>
        <time>2009-11-25T23:40:47Z</time>
      </trkpt>
      <trkpt lat="49.1036544" lon="11.9387488">
        <ele>339.5000000</ele>
        <time>2009-11-25T23:41:26Z</time>
      </trkpt>
      <trkpt lat="49.1023812" lon="11.9393638">
        <ele>339.0000000</ele>
        <time>2009-11-25T23:42:07Z</time>
      </trkpt>
      <trkpt lat="49.1020483" lon="11.9395151">
        <ele>338.0000000</ele>
        <time>2009-11-25T23:42:18Z</time>
      </trkpt>
      <trkpt lat="49.1010842" lon="11.9403755">
        <ele>337.6000000</ele>
        <time>2009-11-25T23:42:52Z</time>
      </trkpt>
      <trkpt lat="49.1004583" lon="11.9410388">
        <ele>338.5000000</ele>
        <time>2009-11-25T23:43:16Z</time>
      </trkpt>
      <trkpt lat="49.0998821" lon="11.9418834">
        <ele>339.5000000</ele>
        <time>2009-11-25T23:43:41Z</time>
      </trkpt>
      <trkpt lat="49.0991908" lon="11.9424339">
        <ele>339.0000000</ele>
        <time>2009-11-25T23:44:05Z</time>
      </trkpt>
      <trkpt lat="49.0985827" lon="11.9428379">
        <ele>338.0000000</ele>
        <time>2009-11-25T23:44:25Z</time>
      </trkpt>
      <trkpt lat="49.0984332" lon="11.9428862">
        <ele>337.1000000</ele>
        <time>2009-11-25T23:44:30Z</time>
      </trkpt>
      <trkpt lat="49.0982951" lon="11.9429605">
        <ele>337.1000000</ele>
        <time>2009-11-25T23:44:35Z</time>
      </trkpt>
      <trkpt lat="49.0978623" lon="11.9431634">
        <ele>336.6000000</ele>
        <time>2009-11-25T23:44:49Z</time>
      </trkpt>
      <trkpt lat="49.0974901" lon="11.9432935">
        <ele>337.1000000</ele>
        <time>2009-11-25T23:45:00Z</time>
      </trkpt>
      <trkpt lat="49.0972786" lon="11.9434357">
        <ele>338.5000000</ele>
        <time>2009-11-25T23:45:07Z</time>
      </trkpt>
      <trkpt lat="49.0969608" lon="11.9436115">
        <ele>339.0000000</ele>
        <time>2009-11-25T23:45:18Z</time>
      </trkpt>
      <trkpt lat="49.0968081" lon="11.9436218">
        <ele>339.5000000</ele>
        <time>2009-11-25T23:45:23Z</time>
      </trkpt>
      <trkpt lat="49.0965388" lon="11.9437022">
        <ele>339.0000000</ele>
        <time>2009-11-25T23:45:31Z</time>
      </trkpt>
      <trkpt lat="49.0959920" lon="11.9438575">
        <ele>339.0000000</ele>
        <time>2009-11-25T23:45:48Z</time>
      </trkpt>
      <trkpt lat="49.0956618" lon="11.9438181">
        <ele>339.0000000</ele>
        <time>2009-11-25T23:45:59Z</time>
      </trkpt>
      <trkpt lat="49.0956177" lon="11.9435715">
        <ele>338.5000000</ele>
        <time>2009-11-25T23:46:04Z</time>
      </trkpt>
      <trkpt lat="49.0954970" lon="11.9435882">
        <ele>339.0000000</ele>
        <time>2009-11-25T23:46:08Z</time>
      </trkpt>
      <trkpt lat="49.0954616" lon="11.9435854">
        <ele>339.0000000</ele>
        <time>2009-11-25T23:46:09Z</time>
      </trkpt>
      <trkpt lat="49.0952810" lon="11.9436538">
        <ele>339.5000000</ele>
        <time>2009-11-25T23:46:14Z</time>
      </trkpt>
      <trkpt lat="49.0949227" lon="11.9436313">
        <ele>339.0000000</ele>
        <time>2009-11-25T23:46:25Z</time>
      </trkpt>
      <trkpt lat="49.0946484" lon="11.9436279">
        <ele>337.6000000</ele>
        <time>2009-11-25T23:46:34Z</time>
      </trkpt>
      <trkpt lat="49.0943705" lon="11.9437151">
        <ele>337.6000000</ele>
        <time>2009-11-25T23:46:43Z</time>
      </trkpt>
      <trkpt lat="49.0941797" lon="11.9437772">
        <ele>337.6000000</ele>
        <time>2009-11-25T23:46:49Z</time>
      </trkpt>
      <trkpt lat="49.0939573" lon="11.9436535">
        <ele>338.0000000</ele>
        <time>2009-11-25T23:46:56Z</time>
      </trkpt>
      <trkpt lat="49.0937815" lon="11.9435877">
        <ele>338.0000000</ele>
        <time>2009-11-25T23:47:02Z</time>
      </trkpt>
      <trkpt lat="49.0936556" lon="11.9435712">
        <ele>337.6000000</ele>
        <time>2009-11-25T23:47:06Z</time>
      </trkpt>
      <trkpt lat="49.0933612" lon="11.9434308">
        <ele>337.6000000</ele>
        <time>2009-11-25T23:47:15Z</time>
      </trkpt>
      <trkpt lat="49.0932240" lon="11.9433235">
        <ele>337.1000000</ele>
        <time>2009-11-25T23:47:20Z</time>
      </trkpt>
      <trkpt lat="49.0928826" lon="11.9433720">
        <ele>338.0000000</ele>
        <time>2009-11-25T23:47:30Z</time>
      </trkpt>
      <trkpt lat="49.0927174" lon="11.9433763">
        <ele>337.6000000</ele>
        <time>2009-11-25T23:47:36Z</time>
      </trkpt>
      <trkpt lat="49.0925424" lon="11.9432468">
        <ele>338.0000000</ele>
        <time>2009-11-25T23:47:42Z</time>
      </trkpt>
      <trkpt lat="49.0922979" lon="11.9432251">
        <ele>337.6000000</ele>
        <time>2009-11-25T23:47:49Z</time>
      </trkpt>
      <trkpt lat="49.0920293" lon="11.9432545">
        <ele>337.6000000</ele>
        <time>2009-11-25T23:47:58Z</time>
      </trkpt>
      <trkpt lat="49.0914460" lon="11.9431420">
        <ele>338.0000000</ele>
        <time>2009-11-25T23:48:16Z</time>
      </trkpt>
      <trkpt lat="49.0910137" lon="11.9428915">
        <ele>336.6000000</ele>
        <time>2009-11-25T23:48:30Z</time>
      </trkpt>
      <trkpt lat="49.0906645" lon="11.9430796">
        <ele>337.6000000</ele>
        <time>2009-11-25T23:48:41Z</time>
      </trkpt>
      <trkpt lat="49.0904749" lon="11.9430945">
        <ele>338.5000000</ele>
        <time>2009-11-25T23:48:47Z</time>
      </trkpt>
      <trkpt lat="49.0902570" lon="11.9429811">
        <ele>337.6000000</ele>
        <time>2009-11-25T23:48:54Z</time>
      </trkpt>
      <trkpt lat="49.0898502" lon="11.9428163">
        <ele>337.1000000</ele>
        <time>2009-11-25T23:49:07Z</time>
      </trkpt>
      <trkpt lat="49.0892010" lon="11.9428136">
        <ele>337.6000000</ele>
        <time>2009-11-25T23:49:28Z</time>
      </trkpt>
      <trkpt lat="49.0882916" lon="11.9427911">
        <ele>337.6000000</ele>
        <time>2009-11-25T23:49:56Z</time>
      </trkpt>
      <trkpt lat="49.0871289" lon="11.9429768">
        <ele>339.0000000</ele>
        <time>2009-11-25T23:50:32Z</time>
      </trkpt>
      <trkpt lat="49.0860562" lon="11.9432261">
        <ele>340.0000000</ele>
        <time>2009-11-25T23:51:05Z</time>
      </trkpt>
      <trkpt lat="49.0847083" lon="11.9436679">
        <ele>338.5000000</ele>
        <time>2009-11-25T23:51:48Z</time>
      </trkpt>
      <trkpt lat="49.0835983" lon="11.9443367">
        <ele>338.0000000</ele>
        <time>2009-11-25T23:52:25Z</time>
      </trkpt>
      <trkpt lat="49.0829135" lon="11.9453059">
        <ele>339.0000000</ele>
        <time>2009-11-25T23:52:54Z</time>
      </trkpt>
      <trkpt lat="49.0826583" lon="11.9456954">
        <ele>339.5000000</ele>
        <time>2009-11-25T23:53:05Z</time>
      </trkpt>
      <trkpt lat="49.0824951" lon="11.9460758">
        <ele>340.4000000</ele>
        <time>2009-11-25T23:53:14Z</time>
      </trkpt>
      <trkpt lat="49.0817392" lon="11.9474411">
        <ele>339.0000000</ele>
        <time>2009-11-25T23:53:50Z</time>
      </trkpt>
      <trkpt lat="49.0808000" lon="11.9491442">
        <ele>338.0000000</ele>
        <time>2009-11-25T23:54:35Z</time>
      </trkpt>
      <trkpt lat="49.0798685" lon="11.9510160">
        <ele>337.6000000</ele>
        <time>2009-11-25T23:55:23Z</time>
      </trkpt>
      <trkpt lat="49.0789544" lon="11.9529135">
        <ele>336.6000000</ele>
        <time>2009-11-25T23:56:11Z</time>
      </trkpt>
      <trkpt lat="49.0781792" lon="11.9546320">
        <ele>336.6000000</ele>
        <time>2009-11-25T23:56:53Z</time>
      </trkpt>
      <trkpt lat="49.0773816" lon="11.9559687">
        <ele>337.1000000</ele>
        <time>2009-11-25T23:57:30Z</time>
      </trkpt>
      <trkpt lat="49.0764333" lon="11.9572662">
        <ele>338.0000000</ele>
        <time>2009-11-25T23:58:09Z</time>
      </trkpt>
      <trkpt lat="49.0754780" lon="11.9582327">
        <ele>338.0000000</ele>
        <time>2009-11-25T23:58:44Z</time>
      </trkpt>
      <trkpt lat="49.0750619" lon="11.9585701">
        <ele>337.6000000</ele>
        <time>2009-11-25T23:58:59Z</time>
      </trkpt>
      <trkpt lat="49.0747989" lon="11.9587085">
        <ele>337.6000000</ele>
        <time>2009-11-25T23:59:08Z</time>
      </trkpt>
      <trkpt lat="49.0739949" lon="11.9589918">
        <ele>337.1000000</ele>
        <time>2009-11-25T23:59:33Z</time>
      </trkpt>
      <trkpt lat="49.0728507" lon="11.9595652">
        <ele>338.0000000</ele>
        <time>2009-11-26T00:00:10Z</time>
      </trkpt>
      <trkpt lat="49.0726382" lon="11.9596625">
        <ele>339.5000000</ele>
        <time>2009-11-26T00:00:17Z</time>
      </trkpt>
      <trkpt lat="49.0723850" lon="11.9593875">
        <ele>340.4000000</ele>
        <time>2009-11-26T00:00:27Z</time>
      </trkpt>
      <trkpt lat="49.0721078" lon="11.9582292">
        <ele>340.0000000</ele>
        <time>2009-11-26T00:00:52Z</time>
      </trkpt>
      <trkpt lat="49.0717604" lon="11.9581402">
        <ele>339.0000000</ele>
        <time>2009-11-26T00:01:03Z</time>
      </trkpt>
      <trkpt lat="49.0716223" lon="11.9581939">
        <ele>339.0000000</ele>
        <time>2009-11-26T00:01:07Z</time>
      </trkpt>
      <trkpt lat="49.0704072" lon="11.9584258">
        <ele>338.0000000</ele>
        <time>2009-11-26T00:01:45Z</time>
      </trkpt>
      <trkpt lat="49.0690385" lon="11.9585079">
        <ele>337.6000000</ele>
        <time>2009-11-26T00:02:27Z</time>
      </trkpt>
      <trkpt lat="49.0678486" lon="11.9583975">
        <ele>336.6000000</ele>
        <time>2009-11-26T00:03:04Z</time>
      </trkpt>
      <trkpt lat="49.0672883" lon="11.9582663">
        <ele>337.6000000</ele>
        <time>2009-11-26T00:03:22Z</time>
      </trkpt>
      <trkpt lat="49.0670757" lon="11.9581633">
        <ele>337.1000000</ele>
        <time>2009-11-26T00:03:29Z</time>
      </trkpt>
      <trkpt lat="49.0669282" lon="11.9579669">
        <ele>338.5000000</ele>
        <time>2009-11-26T00:03:35Z</time>
      </trkpt>
      <trkpt lat="49.0668868" lon="11.9577279">
        <ele>340.4000000</ele>
        <time>2009-11-26T00:03:40Z</time>
      </trkpt>
      <trkpt lat="49.0668470" lon="11.9575123">
        <ele>340.4000000</ele>
        <time>2009-11-26T00:03:44Z</time>
      </trkpt>
      <trkpt lat="49.0666615" lon="11.9574434">
        <ele>340.4000000</ele>
        <time>2009-11-26T00:03:50Z</time>
      </trkpt>
      <trkpt lat="49.0656672" lon="11.9573989">
        <ele>339.5000000</ele>
        <time>2009-11-26T00:04:21Z</time>
      </trkpt>
      <trkpt lat="49.0641175" lon="11.9569803">
        <ele>339.5000000</ele>
        <time>2009-11-26T00:05:10Z</time>
      </trkpt>
      <trkpt lat="49.0628685" lon="11.9567446">
        <ele>339.0000000</ele>
        <time>2009-11-26T00:05:48Z</time>
      </trkpt>
      <trkpt lat="49.0616652" lon="11.9568243">
        <ele>338.5000000</ele>
        <time>2009-11-26T00:06:26Z</time>
      </trkpt>
      <trkpt lat="49.0606458" lon="11.9569043">
        <ele>339.0000000</ele>
        <time>2009-11-26T00:06:57Z</time>
      </trkpt>
      <trkpt lat="49.0600847" lon="11.9568925">
        <ele>338.5000000</ele>
        <time>2009-11-26T00:07:15Z</time>
      </trkpt>
      <trkpt lat="49.0599223" lon="11.9569124">
        <ele>338.0000000</ele>
        <time>2009-11-26T00:07:20Z</time>
      </trkpt>
      <trkpt lat="49.0592357" lon="11.9570243">
        <ele>339.0000000</ele>
        <time>2009-11-26T00:07:41Z</time>
      </trkpt>
      <trkpt lat="49.0583112" lon="11.9572453">
        <ele>338.5000000</ele>
        <time>2009-11-26T00:08:10Z</time>
      </trkpt>
      <trkpt lat="49.0572539" lon="11.9575532">
        <ele>339.0000000</ele>
        <time>2009-11-26T00:08:43Z</time>
      </trkpt>
      <trkpt lat="49.0564369" lon="11.9580503">
        <ele>339.0000000</ele>
        <time>2009-11-26T00:09:10Z</time>
      </trkpt>
      <trkpt lat="49.0555870" lon="11.9588607">
        <ele>339.0000000</ele>
        <time>2009-11-26T00:09:41Z</time>
      </trkpt>
      <trkpt lat="49.0548507" lon="11.9596247">
        <ele>339.0000000</ele>
        <time>2009-11-26T00:10:09Z</time>
      </trkpt>
      <trkpt lat="49.0540935" lon="11.9603599">
        <ele>338.5000000</ele>
        <time>2009-11-26T00:10:37Z</time>
      </trkpt>
      <trkpt lat="49.0531824" lon="11.9610980">
        <ele>338.0000000</ele>
        <time>2009-11-26T00:11:09Z</time>
      </trkpt>
      <trkpt lat="49.0521743" lon="11.9621405">
        <ele>338.0000000</ele>
        <time>2009-11-26T00:11:46Z</time>
      </trkpt>
      <trkpt lat="49.0507648" lon="11.9634901">
        <ele>338.0000000</ele>
        <time>2009-11-26T00:12:38Z</time>
      </trkpt>
      <trkpt lat="49.0490277" lon="11.9644485">
        <ele>338.0000000</ele>
        <time>2009-11-26T00:13:35Z</time>
      </trkpt>
      <trkpt lat="49.0471965" lon="11.9654332">
        <ele>338.5000000</ele>
        <time>2009-11-26T00:14:35Z</time>
      </trkpt>
      <trkpt lat="49.0454825" lon="11.9661926">
        <ele>338.5000000</ele>
        <time>2009-11-26T00:15:30Z</time>
      </trkpt>
      <trkpt lat="49.0443896" lon="11.9670156">
        <ele>338.5000000</ele>
        <time>2009-11-26T00:16:08Z</time>
      </trkpt>
      <trkpt lat="49.0431086" lon="11.9687588">
        <ele>339.5000000</ele>
        <time>2009-11-26T00:17:01Z</time>
      </trkpt>
      <trkpt lat="49.0421998" lon="11.9702097">
        <ele>339.0000000</ele>
        <time>2009-11-26T00:17:42Z</time>
      </trkpt>
      <trkpt lat="49.0413210" lon="11.9720537">
        <ele>338.0000000</ele>
        <time>2009-11-26T00:18:28Z</time>
      </trkpt>
      <trkpt lat="49.0410873" lon="11.9738230">
        <ele>338.5000000</ele>
        <time>2009-11-26T00:19:04Z</time>
      </trkpt>
      <trkpt lat="49.0410765" lon="11.9743430">
        <ele>339.0000000</ele>
        <time>2009-11-26T00:19:15Z</time>
      </trkpt>
      <trkpt lat="49.0410744" lon="11.9745977">
        <ele>338.5000000</ele>
        <time>2009-11-26T00:19:20Z</time>
      </trkpt>
      <trkpt lat="49.0413857" lon="11.9761999">
        <ele>338.0000000</ele>
        <time>2009-11-26T00:19:54Z</time>
      </trkpt>
      <trkpt lat="49.0418873" lon="11.9774052">
        <ele>338.0000000</ele>
        <time>2009-11-26T00:20:23Z</time>
      </trkpt>
      <trkpt lat="49.0419753" lon="11.9776319">
        <ele>338.0000000</ele>
        <time>2009-11-26T00:20:28Z</time>
      </trkpt>
      <trkpt lat="49.0422046" lon="11.9780177">
        <ele>337.6000000</ele>
        <time>2009-11-26T00:20:39Z</time>
      </trkpt>
      <trkpt lat="49.0423386" lon="11.9782855">
        <ele>337.6000000</ele>
        <time>2009-11-26T00:20:46Z</time>
      </trkpt>
      <trkpt lat="49.0425817" lon="11.9789631">
        <ele>337.6000000</ele>
        <time>2009-11-26T00:21:01Z</time>
      </trkpt>
      <trkpt lat="49.0431717" lon="11.9801188">
        <ele>337.6000000</ele>
        <time>2009-11-26T00:21:31Z</time>
      </trkpt>
      <trkpt lat="49.0435034" lon="11.9812428">
        <ele>337.1000000</ele>
        <time>2009-11-26T00:21:56Z</time>
      </trkpt>
      <trkpt lat="49.0435314" lon="11.9823276">
        <ele>339.5000000</ele>
        <time>2009-11-26T00:22:18Z</time>
      </trkpt>
      <trkpt lat="49.0432879" lon="11.9834414">
        <ele>342.8000000</ele>
        <time>2009-11-26T00:22:42Z</time>
      </trkpt>
      <trkpt lat="49.0426373" lon="11.9845348">
        <ele>346.2000000</ele>
        <time>2009-11-26T00:23:12Z</time>
      </trkpt>
      <trkpt lat="49.0418237" lon="11.9852748">
        <ele>349.6000000</ele>
        <time>2009-11-26T00:23:41Z</time>
      </trkpt>
      <trkpt lat="49.0407836" lon="11.9860862">
        <ele>352.5000000</ele>
        <time>2009-11-26T00:24:17Z</time>
      </trkpt>
      <trkpt lat="49.0399710" lon="11.9867243">
        <ele>352.5000000</ele>
        <time>2009-11-26T00:24:45Z</time>
      </trkpt>
      <trkpt lat="49.0384719" lon="11.9877724">
        <ele>352.9000000</ele>
        <time>2009-11-26T00:25:36Z</time>
      </trkpt>
      <trkpt lat="49.0368628" lon="11.9885468">
        <ele>349.6000000</ele>
        <time>2009-11-26T00:26:29Z</time>
      </trkpt>
      <trkpt lat="49.0355263" lon="11.9889770">
        <ele>346.7000000</ele>
        <time>2009-11-26T00:27:11Z</time>
      </trkpt>
      <trkpt lat="49.0342087" lon="11.9895926">
        <ele>343.3000000</ele>
        <time>2009-11-26T00:27:53Z</time>
      </trkpt>
      <trkpt lat="49.0328282" lon="11.9903211">
        <ele>340.4000000</ele>
        <time>2009-11-26T00:28:39Z</time>
      </trkpt>
      <trkpt lat="49.0316166" lon="11.9904444">
        <ele>339.5000000</ele>
        <time>2009-11-26T00:29:16Z</time>
      </trkpt>
      <trkpt lat="49.0306364" lon="11.9899801">
        <ele>340.0000000</ele>
        <time>2009-11-26T00:29:48Z</time>
      </trkpt>
      <trkpt lat="49.0300789" lon="11.9893699">
        <ele>340.0000000</ele>
        <time>2009-11-26T00:30:09Z</time>
      </trkpt>
      <trkpt lat="49.0301230" lon="11.9889579">
        <ele>339.5000000</ele>
        <time>2009-11-26T00:30:18Z</time>
      </trkpt>
      <trkpt lat="49.0306045" lon="11.9874692">
        <ele>340.4000000</ele>
        <time>2009-11-26T00:30:51Z</time>
      </trkpt>
      <trkpt lat="49.0310248" lon="11.9856148">
        <ele>341.9000000</ele>
        <time>2009-11-26T00:31:31Z</time>
      </trkpt>
      <trkpt lat="49.0311580" lon="11.9848368">
        <ele>343.8000000</ele>
        <time>2009-11-26T00:31:47Z</time>
      </trkpt>
      <trkpt lat="49.0310515" lon="11.9845766">
        <ele>346.2000000</ele>
        <time>2009-11-26T00:31:53Z</time>
      </trkpt>
      <trkpt lat="49.0305920" lon="11.9843934">
        <ele>347.7000000</ele>
        <time>2009-11-26T00:32:08Z</time>
      </trkpt>
      <trkpt lat="49.0303879" lon="11.9842752">
        <ele>347.7000000</ele>
        <time>2009-11-26T00:32:15Z</time>
      </trkpt>
      <trkpt lat="49.0302113" lon="11.9845954">
        <ele>347.2000000</ele>
        <time>2009-11-26T00:32:23Z</time>
      </trkpt>
      <trkpt lat="49.0299313" lon="11.9850393">
        <ele>345.7000000</ele>
        <time>2009-11-26T00:32:36Z</time>
      </trkpt>
      <trkpt lat="49.0298087" lon="11.9851148">
        <ele>345.3000000</ele>
        <time>2009-11-26T00:32:40Z</time>
      </trkpt>
      <trkpt lat="49.0291287" lon="11.9856086">
        <ele>342.8000000</ele>
        <time>2009-11-26T00:33:03Z</time>
      </trkpt>
      <trkpt lat="49.0284510" lon="11.9858215">
        <ele>341.9000000</ele>
        <time>2009-11-26T00:33:25Z</time>
      </trkpt>
      <trkpt lat="49.0282283" lon="11.9859781">
        <ele>341.4000000</ele>
        <time>2009-11-26T00:33:32Z</time>
      </trkpt>
      <trkpt lat="49.0279994" lon="11.9862249">
        <ele>340.4000000</ele>
        <time>2009-11-26T00:33:41Z</time>
      </trkpt>
      <trkpt lat="49.0276735" lon="11.9863680">
        <ele>339.5000000</ele>
        <time>2009-11-26T00:33:51Z</time>
      </trkpt>
      <trkpt lat="49.0270933" lon="11.9866965">
        <ele>338.0000000</ele>
        <time>2009-11-26T00:34:11Z</time>
      </trkpt>
      <trkpt lat="49.0267623" lon="11.9868923">
        <ele>337.6000000</ele>
        <time>2009-11-26T00:34:22Z</time>
      </trkpt>
      <trkpt lat="49.0258075" lon="11.9874038">
        <ele>339.0000000</ele>
        <time>2009-11-26T00:34:53Z</time>
      </trkpt>
      <trkpt lat="49.0255081" lon="11.9876281">
        <ele>339.0000000</ele>
        <time>2009-11-26T00:35:03Z</time>
      </trkpt>
      <trkpt lat="49.0250609" lon="11.9882784">
        <ele>338.0000000</ele>
        <time>2009-11-26T00:35:22Z</time>
      </trkpt>
      <trkpt lat="49.0243063" lon="11.9900317">
        <ele>336.6000000</ele>
        <time>2009-11-26T00:36:05Z</time>
      </trkpt>
      <trkpt lat="49.0236872" lon="11.9913689">
        <ele>336.6000000</ele>
        <time>2009-11-26T00:36:38Z</time>
      </trkpt>
      <trkpt lat="49.0233387" lon="11.9925431">
        <ele>336.6000000</ele>
        <time>2009-11-26T00:37:04Z</time>
      </trkpt>
      <trkpt lat="49.0230368" lon="11.9945376">
        <ele>336.1000000</ele>
        <time>2009-11-26T00:37:46Z</time>
      </trkpt>
      <trkpt lat="49.0228209" lon="11.9968137">
        <ele>336.1000000</ele>
        <time>2009-11-26T00:38:32Z</time>
      </trkpt>
      <trkpt lat="49.0222982" lon="11.9989596">
        <ele>335.2000000</ele>
        <time>2009-11-26T00:39:19Z</time>
      </trkpt>
      <trkpt lat="49.0212253" lon="12.0014466">
        <ele>335.2000000</ele>
        <time>2009-11-26T00:40:19Z</time>
      </trkpt>
      <trkpt lat="49.0207399" lon="12.0026093">
        <ele>337.1000000</ele>
        <time>2009-11-26T00:40:47Z</time>
      </trkpt>
      <trkpt lat="49.0201429" lon="12.0045285">
        <ele>337.6000000</ele>
        <time>2009-11-26T00:41:30Z</time>
      </trkpt>
      <trkpt lat="49.0197327" lon="12.0063648">
        <ele>335.2000000</ele>
        <time>2009-11-26T00:42:09Z</time>
      </trkpt>
      <trkpt lat="49.0196672" lon="12.0068487">
        <ele>336.1000000</ele>
        <time>2009-11-26T00:42:19Z</time>
      </trkpt>
      <trkpt lat="49.0190228" lon="12.0088666">
        <ele>335.2000000</ele>
        <time>2009-11-26T00:43:05Z</time>
      </trkpt>
      <trkpt lat="49.0183276" lon="12.0108321">
        <ele>334.7000000</ele>
        <time>2009-11-26T00:43:50Z</time>
      </trkpt>
      <trkpt lat="49.0174893" lon="12.0131181">
        <ele>334.2000000</ele>
        <time>2009-11-26T00:44:43Z</time>
      </trkpt>
      <trkpt lat="49.0165115" lon="12.0156367">
        <ele>335.2000000</ele>
        <time>2009-11-26T00:45:43Z</time>
      </trkpt>
      <trkpt lat="49.0158727" lon="12.0176481">
        <ele>334.2000000</ele>
        <time>2009-11-26T00:46:28Z</time>
      </trkpt>
      <trkpt lat="49.0152599" lon="12.0200382">
        <ele>334.2000000</ele>
        <time>2009-11-26T00:47:20Z</time>
      </trkpt>
      <trkpt lat="49.0146677" lon="12.0226976">
        <ele>333.7000000</ele>
        <time>2009-11-26T00:48:17Z</time>
      </trkpt>
      <trkpt lat="49.0145707" lon="12.0235466">
        <ele>335.6000000</ele>
        <time>2009-11-26T00:48:35Z</time>
      </trkpt>
      <trkpt lat="49.0146714" lon="12.0250120">
        <ele>337.6000000</ele>
        <time>2009-11-26T00:49:04Z</time>
      </trkpt>
      <trkpt lat="49.0146863" lon="12.0252873">
        <ele>337.6000000</ele>
        <time>2009-11-26T00:49:10Z</time>
      </trkpt>
      <trkpt lat="49.0147639" lon="12.0258689">
        <ele>336.6000000</ele>
        <time>2009-11-26T00:49:22Z</time>
      </trkpt>
      <trkpt lat="49.0148209" lon="12.0265339">
        <ele>335.6000000</ele>
        <time>2009-11-26T00:49:36Z</time>
      </trkpt>
      <trkpt lat="49.0148290" lon="12.0269743">
        <ele>334.7000000</ele>
        <time>2009-11-26T00:49:45Z</time>
      </trkpt>
      <trkpt lat="49.0147169" lon="12.0271809">
        <ele>335.2000000</ele>
        <time>2009-11-26T00:49:50Z</time>
      </trkpt>
      <trkpt lat="49.0144259" lon="12.0276965">
        <ele>336.6000000</ele>
        <time>2009-11-26T00:50:04Z</time>
      </trkpt>
      <trkpt lat="49.0141924" lon="12.0284963">
        <ele>337.1000000</ele>
        <time>2009-11-26T00:50:22Z</time>
      </trkpt>
      <trkpt lat="49.0141669" lon="12.0286531">
        <ele>337.1000000</ele>
        <time>2009-11-26T00:50:25Z</time>
      </trkpt>
      <trkpt lat="49.0138804" lon="12.0287282">
        <ele>337.6000000</ele>
        <time>2009-11-26T00:50:34Z</time>
      </trkpt>
      <trkpt lat="49.0137219" lon="12.0286024">
        <ele>337.6000000</ele>
        <time>2009-11-26T00:50:39Z</time>
      </trkpt>
      <trkpt lat="49.0134903" lon="12.0282595">
        <ele>337.6000000</ele>
        <time>2009-11-26T00:50:49Z</time>
      </trkpt>
      <trkpt lat="49.0133475" lon="12.0280503">
        <ele>338.0000000</ele>
        <time>2009-11-26T00:50:55Z</time>
      </trkpt>
      <trkpt lat="49.0130692" lon="12.0277876">
        <ele>337.6000000</ele>
        <time>2009-11-26T00:51:06Z</time>
      </trkpt>
      <trkpt lat="49.0123787" lon="12.0274799">
        <ele>337.6000000</ele>
        <time>2009-11-26T00:51:28Z</time>
      </trkpt>
      <trkpt lat="49.0121631" lon="12.0274219">
        <ele>337.6000000</ele>
        <time>2009-11-26T00:51:35Z</time>
      </trkpt>
      <trkpt lat="49.0118905" lon="12.0271655">
        <ele>335.6000000</ele>
        <time>2009-11-26T00:51:45Z</time>
      </trkpt>
      <trkpt lat="49.0117044" lon="12.0271182">
        <ele>335.6000000</ele>
        <time>2009-11-26T00:51:50Z</time>
      </trkpt>
      <trkpt lat="49.0114445" lon="12.0270241">
        <ele>335.2000000</ele>
        <time>2009-11-26T00:51:59Z</time>
      </trkpt>
      <trkpt lat="49.0112643" lon="12.0268837">
        <ele>335.2000000</ele>
        <time>2009-11-26T00:52:05Z</time>
      </trkpt>
      <trkpt lat="49.0103440" lon="12.0268127">
        <ele>335.2000000</ele>
        <time>2009-11-26T00:52:33Z</time>
      </trkpt>
      <trkpt lat="49.0093665" lon="12.0269453">
        <ele>336.1000000</ele>
        <time>2009-11-26T00:53:04Z</time>
      </trkpt>
      <trkpt lat="49.0088918" lon="12.0270328">
        <ele>336.1000000</ele>
        <time>2009-11-26T00:53:19Z</time>
      </trkpt>
      <trkpt lat="49.0082294" lon="12.0272394">
        <ele>336.1000000</ele>
        <time>2009-11-26T00:53:39Z</time>
      </trkpt>
      <trkpt lat="49.0072642" lon="12.0279004">
        <ele>335.2000000</ele>
        <time>2009-11-26T00:54:12Z</time>
      </trkpt>
      <trkpt lat="49.0061019" lon="12.0289522">
        <ele>336.1000000</ele>
        <time>2009-11-26T00:54:54Z</time>
      </trkpt>
      <trkpt lat="49.0051706" lon="12.0299037">
        <ele>335.6000000</ele>
        <time>2009-11-26T00:55:29Z</time>
      </trkpt>
      <trkpt lat="49.0047385" lon="12.0303438">
        <ele>334.7000000</ele>
        <time>2009-11-26T00:55:45Z</time>
      </trkpt>
      <trkpt lat="49.0046452" lon="12.0306886">
        <ele>334.7000000</ele>
        <time>2009-11-26T00:55:52Z</time>
      </trkpt>
      <trkpt lat="49.0046234" lon="12.0307545">
        <ele>333.7000000</ele>
        <time>2009-11-26T00:55:54Z</time>
      </trkpt>
      <trkpt lat="49.0040503" lon="12.0316821">
        <ele>335.6000000</ele>
        <time>2009-11-26T00:56:20Z</time>
      </trkpt>
      <trkpt lat="49.0040067" lon="12.0317360">
        <ele>335.6000000</ele>
        <time>2009-11-26T00:56:21Z</time>
      </trkpt>
      <trkpt lat="49.0036159" lon="12.0317136">
        <ele>335.6000000</ele>
        <time>2009-11-26T00:56:33Z</time>
      </trkpt>
      <trkpt lat="49.0027213" lon="12.0309204">
        <ele>337.6000000</ele>
        <time>2009-11-26T00:57:05Z</time>
      </trkpt>
      <trkpt lat="49.0022185" lon="12.0306723">
        <ele>340.9000000</ele>
        <time>2009-11-26T00:57:22Z</time>
      </trkpt>
      <trkpt lat="49.0019608" lon="12.0305776">
        <ele>342.4000000</ele>
        <time>2009-11-26T00:57:30Z</time>
      </trkpt>
      <trkpt lat="49.0019176" lon="12.0305631">
        <ele>342.8000000</ele>
        <time>2009-11-26T00:57:31Z</time>
      </trkpt>
      <trkpt lat="49.0016927" lon="12.0305300">
        <ele>344.3000000</ele>
        <time>2009-11-26T00:57:38Z</time>
      </trkpt>
      <trkpt lat="49.0014641" lon="12.0304916">
        <ele>346.2000000</ele>
        <time>2009-11-26T00:57:45Z</time>
      </trkpt>
      <trkpt lat="49.0011862" lon="12.0305402">
        <ele>346.7000000</ele>
        <time>2009-11-26T00:57:54Z</time>
      </trkpt>
      <trkpt lat="49.0006857" lon="12.0306527">
        <ele>347.2000000</ele>
        <time>2009-11-26T00:58:10Z</time>
      </trkpt>
      <trkpt lat="49.0004480" lon="12.0307025">
        <ele>347.7000000</ele>
        <time>2009-11-26T00:58:17Z</time>
      </trkpt>
      <trkpt lat="48.9996909" lon="12.0309075">
        <ele>348.1000000</ele>
        <time>2009-11-26T00:58:41Z</time>
      </trkpt>
      <trkpt lat="48.9989497" lon="12.0316539">
        <ele>348.1000000</ele>
        <time>2009-11-26T00:59:08Z</time>
      </trkpt>
      <trkpt lat="48.9985922" lon="12.0321155">
        <ele>347.7000000</ele>
        <time>2009-11-26T00:59:23Z</time>
      </trkpt>
      <trkpt lat="48.9983325" lon="12.0323180">
        <ele>346.7000000</ele>
        <time>2009-11-26T00:59:32Z</time>
      </trkpt>
      <trkpt lat="48.9981184" lon="12.0324068">
        <ele>347.7000000</ele>
        <time>2009-11-26T00:59:39Z</time>
      </trkpt>
      <trkpt lat="48.9976782" lon="12.0328553">
        <ele>348.1000000</ele>
        <time>2009-11-26T00:59:55Z</time>
      </trkpt>
      <trkpt lat="48.9969923" lon="12.0336614">
        <ele>348.6000000</ele>
        <time>2009-11-26T01:00:22Z</time>
      </trkpt>
      <trkpt lat="48.9964271" lon="12.0342203">
        <ele>348.1000000</ele>
        <time>2009-11-26T01:00:43Z</time>
      </trkpt>
      <trkpt lat="48.9954367" lon="12.0350951">
        <ele>347.7000000</ele>
        <time>2009-11-26T01:01:18Z</time>
      </trkpt>
      <trkpt lat="48.9949799" lon="12.0354048">
        <ele>348.1000000</ele>
        <time>2009-11-26T01:01:34Z</time>
      </trkpt>
      <trkpt lat="48.9945727" lon="12.0356775">
        <ele>346.7000000</ele>
        <time>2009-11-26T01:01:47Z</time>
      </trkpt>
      <trkpt lat="48.9938201" lon="12.0362182">
        <ele>345.3000000</ele>
        <time>2009-11-26T01:02:13Z</time>
      </trkpt>
      <trkpt lat="48.9931911" lon="12.0366402">
        <ele>342.8000000</ele>
        <time>2009-11-26T01:02:34Z</time>
      </trkpt>
      <trkpt lat="48.9930222" lon="12.0367756">
        <ele>342.4000000</ele>
        <time>2009-11-26T01:02:40Z</time>
      </trkpt>
      <trkpt lat="48.9923504" lon="12.0371799">
        <ele>340.9000000</ele>
        <time>2009-11-26T01:03:03Z</time>
      </trkpt>
      <trkpt lat="48.9922127" lon="12.0372578">
        <ele>340.9000000</ele>
        <time>2009-11-26T01:03:07Z</time>
      </trkpt>
      <trkpt lat="48.9920069" lon="12.0369398">
        <ele>340.0000000</ele>
        <time>2009-11-26T01:03:16Z</time>
      </trkpt>
      <trkpt lat="48.9919133" lon="12.0368120">
        <ele>339.0000000</ele>
        <time>2009-11-26T01:03:20Z</time>
      </trkpt>
      <trkpt lat="48.9916633" lon="12.0369101">
        <ele>341.4000000</ele>
        <time>2009-11-26T01:03:28Z</time>
      </trkpt>
      <trkpt lat="48.9914320" lon="12.0366874">
        <ele>341.9000000</ele>
        <time>2009-11-26T01:03:37Z</time>
      </trkpt>
      <trkpt lat="48.9911760" lon="12.0354935">
        <ele>339.0000000</ele>
        <time>2009-11-26T01:04:02Z</time>
      </trkpt>
      <trkpt lat="48.9910150" lon="12.0351356">
        <ele>339.5000000</ele>
        <time>2009-11-26T01:04:11Z</time>
      </trkpt>
      <trkpt lat="48.9907347" lon="12.0347492">
        <ele>340.0000000</ele>
        <time>2009-11-26T01:04:23Z</time>
      </trkpt>
      <trkpt lat="48.9905088" lon="12.0342551">
        <ele>340.4000000</ele>
        <time>2009-11-26T01:04:35Z</time>
      </trkpt>
      <trkpt lat="48.9902479" lon="12.0331156">
        <ele>340.4000000</ele>
        <time>2009-11-26T01:04:59Z</time>
      </trkpt>
      <trkpt lat="48.9902207" lon="12.0322528">
        <ele>342.8000000</ele>
        <time>2009-11-26T01:05:17Z</time>
      </trkpt>
      <trkpt lat="48.9903722" lon="12.0308248">
        <ele>343.3000000</ele>
        <time>2009-11-26T01:05:46Z</time>
      </trkpt>
      <trkpt lat="48.9904926" lon="12.0289763">
        <ele>341.4000000</ele>
        <time>2009-11-26T01:06:24Z</time>
      </trkpt>
      <trkpt lat="48.9905760" lon="12.0282959">
        <ele>340.4000000</ele>
        <time>2009-11-26T01:06:38Z</time>
      </trkpt>
      <trkpt lat="48.9907239" lon="12.0277623">
        <ele>340.4000000</ele>
        <time>2009-11-26T01:06:50Z</time>
      </trkpt>
      <trkpt lat="48.9906269" lon="12.0273219">
        <ele>340.9000000</ele>
        <time>2009-11-26T01:06:59Z</time>
      </trkpt>
      <trkpt lat="48.9906150" lon="12.0271038">
        <ele>340.0000000</ele>
        <time>2009-11-26T01:07:03Z</time>
      </trkpt>
      <trkpt lat="48.9906126" lon="12.0269871">
        <ele>340.4000000</ele>
        <time>2009-11-26T01:07:06Z</time>
      </trkpt>
      <trkpt lat="48.9905860" lon="12.0269601">
        <ele>339.0000000</ele>
        <time>2009-11-26T01:07:07Z</time>
      </trkpt>
      <trkpt lat="48.9905461" lon="12.0271467">
        <ele>340.0000000</ele>
        <time>2009-11-26T01:07:11Z</time>
      </trkpt>
      <trkpt lat="48.9905539" lon="12.0272678">
        <ele>339.5000000</ele>
        <time>2009-11-26T01:07:13Z</time>
      </trkpt>
      <trkpt lat="48.9905698" lon="12.0276996">
        <ele>340.0000000</ele>
        <time>2009-11-26T01:07:22Z</time>
      </trkpt>
      <trkpt lat="48.9904239" lon="12.0291204">
        <ele>340.4000000</ele>
        <time>2009-11-26T01:07:51Z</time>
      </trkpt>
      <trkpt lat="48.9903586" lon="12.0298581">
        <ele>340.9000000</ele>
        <time>2009-11-26T01:08:06Z</time>
      </trkpt>
      <trkpt lat="48.9902400" lon="12.0315633">
        <ele>342.8000000</ele>
        <time>2009-11-26T01:08:41Z</time>
      </trkpt>
      <trkpt lat="48.9901701" lon="12.0322444">
        <ele>341.9000000</ele>
        <time>2009-11-26T01:08:55Z</time>
      </trkpt>
      <trkpt lat="48.9902399" lon="12.0333483">
        <ele>340.4000000</ele>
        <time>2009-11-26T01:09:18Z</time>
      </trkpt>
      <trkpt lat="48.9902528" lon="12.0334515">
        <ele>340.9000000</ele>
        <time>2009-11-26T01:09:20Z</time>
      </trkpt>
      <trkpt lat="48.9903435" lon="12.0338473">
        <ele>340.0000000</ele>
        <time>2009-11-26T01:09:28Z</time>
      </trkpt>
      <trkpt lat="48.9904533" lon="12.0341274">
        <ele>339.0000000</ele>
        <time>2009-11-26T01:09:35Z</time>
      </trkpt>
      <trkpt lat="48.9905185" lon="12.0343305">
        <ele>338.5000000</ele>
        <time>2009-11-26T01:09:39Z</time>
      </trkpt>
      <trkpt lat="48.9909332" lon="12.0351286">
        <ele>339.0000000</ele>
        <time>2009-11-26T01:10:00Z</time>
      </trkpt>
      <trkpt lat="48.9911095" lon="12.0354508">
        <ele>338.0000000</ele>
        <time>2009-11-26T01:10:09Z</time>
      </trkpt>
      <trkpt lat="48.9910186" lon="12.0356288">
        <ele>339.0000000</ele>
        <time>2009-11-26T01:10:13Z</time>
      </trkpt>
      <trkpt lat="48.9907705" lon="12.0357881">
        <ele>341.9000000</ele>
        <time>2009-11-26T01:10:22Z</time>
      </trkpt>
      <trkpt lat="48.9903251" lon="12.0361084">
        <ele>344.8000000</ele>
        <time>2009-11-26T01:10:37Z</time>
      </trkpt>
      <trkpt lat="48.9894717" lon="12.0366861">
        <ele>347.2000000</ele>
        <time>2009-11-26T01:11:06Z</time>
      </trkpt>
      <trkpt lat="48.9886617" lon="12.0369059">
        <ele>350.1000000</ele>
        <time>2009-11-26T01:11:31Z</time>
      </trkpt>
      <trkpt lat="48.9884384" lon="12.0369196">
        <ele>349.6000000</ele>
        <time>2009-11-26T01:11:38Z</time>
      </trkpt>
      <trkpt lat="48.9875924" lon="12.0368389">
        <ele>350.1000000</ele>
        <time>2009-11-26T01:12:04Z</time>
      </trkpt>
      <trkpt lat="48.9864621" lon="12.0367396">
        <ele>349.1000000</ele>
        <time>2009-11-26T01:12:39Z</time>
      </trkpt>
      <trkpt lat="48.9850856" lon="12.0367376">
        <ele>348.1000000</ele>
        <time>2009-11-26T01:13:22Z</time>
      </trkpt>
      <trkpt lat="48.9847942" lon="12.0367433">
        <ele>348.1000000</ele>
        <time>2009-11-26T01:13:31Z</time>
      </trkpt>
      <trkpt lat="48.9836891" lon="12.0366233">
        <ele>347.2000000</ele>
        <time>2009-11-26T01:14:05Z</time>
      </trkpt>
      <trkpt lat="48.9828387" lon="12.0359728">
        <ele>347.7000000</ele>
        <time>2009-11-26T01:14:34Z</time>
      </trkpt>
      <trkpt lat="48.9816803" lon="12.0345787">
        <ele>348.6000000</ele>
        <time>2009-11-26T01:15:20Z</time>
      </trkpt>
      <trkpt lat="48.9804921" lon="12.0331263">
        <ele>349.6000000</ele>
        <time>2009-11-26T01:16:07Z</time>
      </trkpt>
      <trkpt lat="48.9795579" lon="12.0323189">
        <ele>349.6000000</ele>
        <time>2009-11-26T01:16:40Z</time>
      </trkpt>
      <trkpt lat="48.9783169" lon="12.0314471">
        <ele>349.1000000</ele>
        <time>2009-11-26T01:17:23Z</time>
      </trkpt>
      <trkpt lat="48.9775011" lon="12.0308718">
        <ele>349.6000000</ele>
        <time>2009-11-26T01:17:51Z</time>
      </trkpt>
      <trkpt lat="48.9765639" lon="12.0299077">
        <ele>347.7000000</ele>
        <time>2009-11-26T01:18:25Z</time>
      </trkpt>
      <trkpt lat="48.9754969" lon="12.0286097">
        <ele>347.2000000</ele>
        <time>2009-11-26T01:19:08Z</time>
      </trkpt>
      <trkpt lat="48.9747373" lon="12.0277900">
        <ele>344.8000000</ele>
        <time>2009-11-26T01:19:36Z</time>
      </trkpt>
      <trkpt lat="48.9745140" lon="12.0276239">
        <ele>344.8000000</ele>
        <time>2009-11-26T01:19:44Z</time>
      </trkpt>
      <trkpt lat="48.9742380" lon="12.0272882">
        <ele>343.3000000</ele>
        <time>2009-11-26T01:19:55Z</time>
      </trkpt>
      <trkpt lat="48.9741718" lon="12.0271899">
        <ele>342.8000000</ele>
        <time>2009-11-26T01:19:58Z</time>
      </trkpt>
      <trkpt lat="48.9737985" lon="12.0267095">
        <ele>340.4000000</ele>
        <time>2009-11-26T01:20:13Z</time>
      </trkpt>
      <trkpt lat="48.9737453" lon="12.0266463">
        <ele>340.0000000</ele>
        <time>2009-11-26T01:20:15Z</time>
      </trkpt>
      <trkpt lat="48.9735487" lon="12.0263335">
        <ele>339.0000000</ele>
        <time>2009-11-26T01:20:24Z</time>
      </trkpt>
      <trkpt lat="48.9733699" lon="12.0257782">
        <ele>339.0000000</ele>
        <time>2009-11-26T01:20:36Z</time>
      </trkpt>
      <trkpt lat="48.9732480" lon="12.0252835">
        <ele>338.5000000</ele>
        <time>2009-11-26T01:20:47Z</time>
      </trkpt>
      <trkpt lat="48.9731170" lon="12.0245608">
        <ele>338.0000000</ele>
        <time>2009-11-26T01:21:02Z</time>
      </trkpt>
      <trkpt lat="48.9728452" lon="12.0241924">
        <ele>337.1000000</ele>
        <time>2009-11-26T01:21:14Z</time>
      </trkpt>
      <trkpt lat="48.9725531" lon="12.0232328">
        <ele>337.6000000</ele>
        <time>2009-11-26T01:21:35Z</time>
      </trkpt>
      <trkpt lat="48.9725005" lon="12.0231212">
        <ele>337.1000000</ele>
        <time>2009-11-26T01:21:38Z</time>
      </trkpt>
      <trkpt lat="48.9722692" lon="12.0224811">
        <ele>337.6000000</ele>
        <time>2009-11-26T01:21:53Z</time>
      </trkpt>
      <trkpt lat="48.9721828" lon="12.0222245">
        <ele>337.1000000</ele>
        <time>2009-11-26T01:21:59Z</time>
      </trkpt>
      <trkpt lat="48.9719471" lon="12.0214850">
        <ele>338.0000000</ele>
        <time>2009-11-26T01:22:15Z</time>
      </trkpt>
      <trkpt lat="48.9717295" lon="12.0209206">
        <ele>339.0000000</ele>
        <time>2009-11-26T01:22:29Z</time>
      </trkpt>
      <trkpt lat="48.9715326" lon="12.0201930">
        <ele>340.0000000</ele>
        <time>2009-11-26T01:22:45Z</time>
      </trkpt>
      <trkpt lat="48.9715081" lon="12.0201237">
        <ele>340.0000000</ele>
        <time>2009-11-26T01:22:46Z</time>
      </trkpt>
      <trkpt lat="48.9713863" lon="12.0198221">
        <ele>340.4000000</ele>
        <time>2009-11-26T01:22:53Z</time>
      </trkpt>
      <trkpt lat="48.9712720" lon="12.0195010">
        <ele>341.4000000</ele>
        <time>2009-11-26T01:23:01Z</time>
      </trkpt>
      <trkpt lat="48.9711320" lon="12.0191850">
        <ele>341.4000000</ele>
        <time>2009-11-26T01:23:09Z</time>
      </trkpt>
      <trkpt lat="48.9709857" lon="12.0184418">
        <ele>339.0000000</ele>
        <time>2009-11-26T01:23:24Z</time>
      </trkpt>
      <trkpt lat="48.9708001" lon="12.0177326">
        <ele>337.1000000</ele>
        <time>2009-11-26T01:23:40Z</time>
      </trkpt>
      <trkpt lat="48.9707583" lon="12.0175505">
        <ele>337.1000000</ele>
        <time>2009-11-26T01:23:44Z</time>
      </trkpt>
      <trkpt lat="48.9706730" lon="12.0172749">
        <ele>336.6000000</ele>
        <time>2009-11-26T01:23:50Z</time>
      </trkpt>
      <trkpt lat="48.9705946" lon="12.0169368">
        <ele>337.1000000</ele>
        <time>2009-11-26T01:23:57Z</time>
      </trkpt>
      <trkpt lat="48.9704521" lon="12.0164426">
        <ele>337.6000000</ele>
        <time>2009-11-26T01:24:08Z</time>
      </trkpt>
      <trkpt lat="48.9702672" lon="12.0158859">
        <ele>337.6000000</ele>
        <time>2009-11-26T01:24:21Z</time>
      </trkpt>
      <trkpt lat="48.9700937" lon="12.0151083">
        <ele>339.5000000</ele>
        <time>2009-11-26T01:24:37Z</time>
      </trkpt>
      <trkpt lat="48.9699553" lon="12.0143431">
        <ele>340.9000000</ele>
        <time>2009-11-26T01:24:54Z</time>
      </trkpt>
      <trkpt lat="48.9699152" lon="12.0140736">
        <ele>340.0000000</ele>
        <time>2009-11-26T01:24:59Z</time>
      </trkpt>
      <trkpt lat="48.9698546" lon="12.0135012">
        <ele>340.0000000</ele>
        <time>2009-11-26T01:25:11Z</time>
      </trkpt>
      <trkpt lat="48.9697111" lon="12.0128674">
        <ele>340.0000000</ele>
        <time>2009-11-26T01:25:25Z</time>
      </trkpt>
      <trkpt lat="48.9696216" lon="12.0125393">
        <ele>340.4000000</ele>
        <time>2009-11-26T01:25:32Z</time>
      </trkpt>
      <trkpt lat="48.9695449" lon="12.0121733">
        <ele>340.4000000</ele>
        <time>2009-11-26T01:25:40Z</time>
      </trkpt>
      <trkpt lat="48.9694734" lon="12.0118268">
        <ele>340.4000000</ele>
        <time>2009-11-26T01:25:47Z</time>
      </trkpt>
      <trkpt lat="48.9694802" lon="12.0116939">
        <ele>340.4000000</ele>
        <time>2009-11-26T01:25:50Z</time>
      </trkpt>
      <trkpt lat="48.9694615" lon="12.0114344">
        <ele>340.4000000</ele>
        <time>2009-11-26T01:25:55Z</time>
      </trkpt>
      <trkpt lat="48.9693067" lon="12.0103256">
        <ele>337.1000000</ele>
        <time>2009-11-26T01:26:18Z</time>
      </trkpt>
      <trkpt lat="48.9692642" lon="12.0098050">
        <ele>337.1000000</ele>
        <time>2009-11-26T01:26:29Z</time>
      </trkpt>
      <trkpt lat="48.9692351" lon="12.0094723">
        <ele>337.1000000</ele>
        <time>2009-11-26T01:26:35Z</time>
      </trkpt>
      <trkpt lat="48.9689002" lon="12.0078603">
        <ele>338.0000000</ele>
        <time>2009-11-26T01:27:10Z</time>
      </trkpt>
      <trkpt lat="48.9687674" lon="12.0072453">
        <ele>339.5000000</ele>
        <time>2009-11-26T01:27:23Z</time>
      </trkpt>
      <trkpt lat="48.9686230" lon="12.0066617">
        <ele>338.5000000</ele>
        <time>2009-11-26T01:27:36Z</time>
      </trkpt>
      <trkpt lat="48.9685010" lon="12.0061348">
        <ele>339.0000000</ele>
        <time>2009-11-26T01:27:47Z</time>
      </trkpt>
      <trkpt lat="48.9684984" lon="12.0060198">
        <ele>339.5000000</ele>
        <time>2009-11-26T01:27:49Z</time>
      </trkpt>
      <trkpt lat="48.9684057" lon="12.0056753">
        <ele>339.5000000</ele>
        <time>2009-11-26T01:27:57Z</time>
      </trkpt>
      <trkpt lat="48.9681697" lon="12.0049222">
        <ele>339.0000000</ele>
        <time>2009-11-26T01:28:14Z</time>
      </trkpt>
      <trkpt lat="48.9678402" lon="12.0038709">
        <ele>340.9000000</ele>
        <time>2009-11-26T01:28:37Z</time>
      </trkpt>
      <trkpt lat="48.9676347" lon="12.0037017">
        <ele>340.4000000</ele>
        <time>2009-11-26T01:28:45Z</time>
      </trkpt>
      <trkpt lat="48.9676232" lon="12.0036404">
        <ele>340.4000000</ele>
        <time>2009-11-26T01:28:46Z</time>
      </trkpt>
      <trkpt lat="48.9673981" lon="12.0029454">
        <ele>337.1000000</ele>
        <time>2009-11-26T01:29:02Z</time>
      </trkpt>
      <trkpt lat="48.9671409" lon="12.0029571">
        <ele>336.6000000</ele>
        <time>2009-11-26T01:29:10Z</time>
      </trkpt>
      <trkpt lat="48.9670326" lon="12.0030717">
        <ele>336.1000000</ele>
        <time>2009-11-26T01:29:14Z</time>
      </trkpt>
      <trkpt lat="48.9669859" lon="12.0031356">
        <ele>336.1000000</ele>
        <time>2009-11-26T01:29:16Z</time>
      </trkpt>
      <trkpt lat="48.9667199" lon="12.0033991">
        <ele>336.1000000</ele>
        <time>2009-11-26T01:29:25Z</time>
      </trkpt>
      <trkpt lat="48.9666374" lon="12.0034598">
        <ele>335.6000000</ele>
        <time>2009-11-26T01:29:28Z</time>
      </trkpt>
      <trkpt lat="48.9666875" lon="12.0034166">
        <ele>336.1000000</ele>
        <time>2009-11-26T01:29:30Z</time>
      </trkpt>
      <trkpt lat="48.9668757" lon="12.0032177">
        <ele>336.1000000</ele>
        <time>2009-11-26T01:29:37Z</time>
      </trkpt>
      <trkpt lat="48.9670747" lon="12.0028155">
        <ele>336.6000000</ele>
        <time>2009-11-26T01:29:47Z</time>
      </trkpt>
      <trkpt lat="48.9669850" lon="12.0018691">
        <ele>337.1000000</ele>
        <time>2009-11-26T01:30:07Z</time>
      </trkpt>
      <trkpt lat="48.9665214" lon="12.0005920">
        <ele>337.6000000</ele>
        <time>2009-11-26T01:30:36Z</time>
      </trkpt>
      <trkpt lat="48.9658845" lon="11.9986065">
        <ele>337.6000000</ele>
        <time>2009-11-26T01:31:21Z</time>
      </trkpt>
      <trkpt lat="48.9652176" lon="11.9968261">
        <ele>337.6000000</ele>
        <time>2009-11-26T01:32:03Z</time>
      </trkpt>
      <trkpt lat="48.9644944" lon="11.9948763">
        <ele>337.6000000</ele>
        <time>2009-11-26T01:32:48Z</time>
      </trkpt>
      <trkpt lat="48.9639106" lon="11.9935844">
        <ele>337.6000000</ele>
        <time>2009-11-26T01:33:20Z</time>
      </trkpt>
      <trkpt lat="48.9628274" lon="11.9917490">
        <ele>337.1000000</ele>
        <time>2009-11-26T01:34:10Z</time>
      </trkpt>
      <trkpt lat="48.9618960" lon="11.9906016">
        <ele>337.6000000</ele>
        <time>2009-11-26T01:34:47Z</time>
      </trkpt>
      <trkpt lat="48.9613262" lon="11.9898844">
        <ele>338.0000000</ele>
        <time>2009-11-26T01:35:10Z</time>
      </trkpt>
      <trkpt lat="48.9603803" lon="11.9890641">
        <ele>338.0000000</ele>
        <time>2009-11-26T01:35:44Z</time>
      </trkpt>
      <trkpt lat="48.9596379" lon="11.9884352">
        <ele>339.0000000</ele>
        <time>2009-11-26T01:36:10Z</time>
      </trkpt>
      <trkpt lat="48.9588253" lon="11.9878910">
        <ele>338.5000000</ele>
        <time>2009-11-26T01:36:38Z</time>
      </trkpt>
      <trkpt lat="48.9577836" lon="11.9874072">
        <ele>339.0000000</ele>
        <time>2009-11-26T01:37:11Z</time>
      </trkpt>
      <trkpt lat="48.9566505" lon="11.9870368">
        <ele>339.5000000</ele>
        <time>2009-11-26T01:37:47Z</time>
      </trkpt>
      <trkpt lat="48.9557183" lon="11.9867767">
        <ele>339.5000000</ele>
        <time>2009-11-26T01:38:16Z</time>
      </trkpt>
      <trkpt lat="48.9545590" lon="11.9864089">
        <ele>339.0000000</ele>
        <time>2009-11-26T01:38:53Z</time>
      </trkpt>
      <trkpt lat="48.9536305" lon="11.9862604">
        <ele>339.5000000</ele>
        <time>2009-11-26T01:39:22Z</time>
      </trkpt>
      <trkpt lat="48.9526029" lon="11.9868565">
        <ele>338.5000000</ele>
        <time>2009-11-26T01:39:56Z</time>
      </trkpt>
      <trkpt lat="48.9520455" lon="11.9870881">
        <ele>339.0000000</ele>
        <time>2009-11-26T01:40:14Z</time>
      </trkpt>
      <trkpt lat="48.9510976" lon="11.9871679">
        <ele>338.5000000</ele>
        <time>2009-11-26T01:40:43Z</time>
      </trkpt>
      <trkpt lat="48.9502901" lon="11.9873583">
        <ele>339.5000000</ele>
        <time>2009-11-26T01:41:08Z</time>
      </trkpt>
      <trkpt lat="48.9494465" lon="11.9877190">
        <ele>340.9000000</ele>
        <time>2009-11-26T01:41:35Z</time>
      </trkpt>
      <trkpt lat="48.9487752" lon="11.9882990">
        <ele>344.3000000</ele>
        <time>2009-11-26T01:41:59Z</time>
      </trkpt>
      <trkpt lat="48.9481253" lon="11.9891476">
        <ele>346.7000000</ele>
        <time>2009-11-26T01:42:26Z</time>
      </trkpt>
      <trkpt lat="48.9476879" lon="11.9904446">
        <ele>347.7000000</ele>
        <time>2009-11-26T01:42:55Z</time>
      </trkpt>
      <trkpt lat="48.9473993" lon="11.9920475">
        <ele>346.2000000</ele>
        <time>2009-11-26T01:43:29Z</time>
      </trkpt>
      <trkpt lat="48.9469753" lon="11.9933171">
        <ele>345.7000000</ele>
        <time>2009-11-26T01:43:58Z</time>
      </trkpt>
      <trkpt lat="48.9468606" lon="11.9935659">
        <ele>346.7000000</ele>
        <time>2009-11-26T01:44:04Z</time>
      </trkpt>
      <trkpt lat="48.9465692" lon="11.9936844">
        <ele>346.2000000</ele>
        <time>2009-11-26T01:44:14Z</time>
      </trkpt>
      <trkpt lat="48.9460091" lon="11.9935003">
        <ele>346.2000000</ele>
        <time>2009-11-26T01:44:31Z</time>
      </trkpt>
      <trkpt lat="48.9457342" lon="11.9934428">
        <ele>347.7000000</ele>
        <time>2009-11-26T01:44:40Z</time>
      </trkpt>
      <trkpt lat="48.9457381" lon="11.9934350">
        <ele>347.7000000</ele>
        <time>2009-11-26T01:44:40Z</time>
      </trkpt>
      <trkpt lat="48.9457865" lon="11.9934969">
        <ele>347.2000000</ele>
        <time>2009-11-26T01:44:42Z</time>
      </trkpt>
      <trkpt lat="48.9460532" lon="11.9935351">
        <ele>346.2000000</ele>
        <time>2009-11-26T01:44:50Z</time>
      </trkpt>
      <trkpt lat="48.9464548" lon="11.9936875">
        <ele>345.7000000</ele>
        <time>2009-11-26T01:45:03Z</time>
      </trkpt>
      <trkpt lat="48.9467111" lon="11.9941183">
        <ele>347.2000000</ele>
        <time>2009-11-26T01:45:15Z</time>
      </trkpt>
      <trkpt lat="48.9464474" lon="11.9953307">
        <ele>346.7000000</ele>
        <time>2009-11-26T01:45:41Z</time>
      </trkpt>
      <trkpt lat="48.9463491" lon="11.9955910">
        <ele>346.7000000</ele>
        <time>2009-11-26T01:45:47Z</time>
      </trkpt>
      <trkpt lat="48.9462172" lon="11.9958720">
        <ele>346.2000000</ele>
        <time>2009-11-26T01:45:54Z</time>
      </trkpt>
      <trkpt lat="48.9459874" lon="11.9962961">
        <ele>345.7000000</ele>
        <time>2009-11-26T01:46:05Z</time>
      </trkpt>
      <trkpt lat="48.9458718" lon="11.9968031">
        <ele>345.3000000</ele>
        <time>2009-11-26T01:46:16Z</time>
      </trkpt>
      <trkpt lat="48.9456557" lon="11.9985220">
        <ele>346.7000000</ele>
        <time>2009-11-26T01:46:52Z</time>
      </trkpt>
      <trkpt lat="48.9456207" lon="12.0000523">
        <ele>348.6000000</ele>
        <time>2009-11-26T01:47:23Z</time>
      </trkpt>
      <trkpt lat="48.9454844" lon="12.0013648">
        <ele>350.1000000</ele>
        <time>2009-11-26T01:47:50Z</time>
      </trkpt>
      <trkpt lat="48.9452700" lon="12.0029675">
        <ele>350.5000000</ele>
        <time>2009-11-26T01:48:23Z</time>
      </trkpt>
      <trkpt lat="48.9450079" lon="12.0045088">
        <ele>351.0000000</ele>
        <time>2009-11-26T01:48:55Z</time>
      </trkpt>
      <trkpt lat="48.9445392" lon="12.0065807">
        <ele>352.5000000</ele>
        <time>2009-11-26T01:49:40Z</time>
      </trkpt>
      <trkpt lat="48.9439294" lon="12.0085482">
        <ele>352.5000000</ele>
        <time>2009-11-26T01:50:24Z</time>
      </trkpt>
      <trkpt lat="48.9430287" lon="12.0105907">
        <ele>351.5000000</ele>
        <time>2009-11-26T01:51:14Z</time>
      </trkpt>
      <trkpt lat="48.9427127" lon="12.0111372">
        <ele>350.5000000</ele>
        <time>2009-11-26T01:51:29Z</time>
      </trkpt>
      <trkpt lat="48.9416943" lon="12.0125862">
        <ele>350.1000000</ele>
        <time>2009-11-26T01:52:12Z</time>
      </trkpt>
      <trkpt lat="48.9405338" lon="12.0138187">
        <ele>350.5000000</ele>
        <time>2009-11-26T01:52:56Z</time>
      </trkpt>
      <trkpt lat="48.9393665" lon="12.0147301">
        <ele>352.5000000</ele>
        <time>2009-11-26T01:53:36Z</time>
      </trkpt>
      <trkpt lat="48.9386974" lon="12.0151736">
        <ele>355.3000000</ele>
        <time>2009-11-26T01:53:59Z</time>
      </trkpt>
      <trkpt lat="48.9372956" lon="12.0156988">
        <ele>354.9000000</ele>
        <time>2009-11-26T01:54:43Z</time>
      </trkpt>
      <trkpt lat="48.9364186" lon="12.0161135">
        <ele>354.4000000</ele>
        <time>2009-11-26T01:55:12Z</time>
      </trkpt>
      <trkpt lat="48.9361861" lon="12.0158820">
        <ele>353.9000000</ele>
        <time>2009-11-26T01:55:20Z</time>
      </trkpt>
      <trkpt lat="48.9360369" lon="12.0157971">
        <ele>352.9000000</ele>
        <time>2009-11-26T01:55:25Z</time>
      </trkpt>
      <trkpt lat="48.9346470" lon="12.0157200">
        <ele>353.9000000</ele>
        <time>2009-11-26T01:56:08Z</time>
      </trkpt>
      <trkpt lat="48.9331404" lon="12.0157024">
        <ele>351.5000000</ele>
        <time>2009-11-26T01:56:55Z</time>
      </trkpt>
      <trkpt lat="48.9329979" lon="12.0157194">
        <ele>350.5000000</ele>
        <time>2009-11-26T01:56:59Z</time>
      </trkpt>
      <trkpt lat="48.9318074" lon="12.0155153">
        <ele>347.7000000</ele>
        <time>2009-11-26T01:57:36Z</time>
      </trkpt>
      <trkpt lat="48.9309925" lon="12.0153978">
        <ele>345.7000000</ele>
        <time>2009-11-26T01:58:02Z</time>
      </trkpt>
      <trkpt lat="48.9307050" lon="12.0154196">
        <ele>343.3000000</ele>
        <time>2009-11-26T01:58:11Z</time>
      </trkpt>
      <trkpt lat="48.9304913" lon="12.0154035">
        <ele>342.8000000</ele>
        <time>2009-11-26T01:58:17Z</time>
      </trkpt>
      <trkpt lat="48.9302134" lon="12.0153823">
        <ele>342.8000000</ele>
        <time>2009-11-26T01:58:26Z</time>
      </trkpt>
      <trkpt lat="48.9294428" lon="12.0156475">
        <ele>340.0000000</ele>
        <time>2009-11-26T01:58:50Z</time>
      </trkpt>
      <trkpt lat="48.9293042" lon="12.0154398">
        <ele>338.5000000</ele>
        <time>2009-11-26T01:58:56Z</time>
      </trkpt>
      <trkpt lat="48.9292942" lon="12.0152852">
        <ele>339.0000000</ele>
        <time>2009-11-26T01:58:59Z</time>
      </trkpt>
      <trkpt lat="48.9295223" lon="12.0147408">
        <ele>340.4000000</ele>
        <time>2009-11-26T01:59:12Z</time>
      </trkpt>
      <trkpt lat="48.9295329" lon="12.0146536">
        <ele>340.4000000</ele>
        <time>2009-11-26T01:59:14Z</time>
      </trkpt>
      <trkpt lat="48.9296324" lon="12.0138252">
        <ele>341.9000000</ele>
        <time>2009-11-26T01:59:31Z</time>
      </trkpt>
      <trkpt lat="48.9299467" lon="12.0132170">
        <ele>344.3000000</ele>
        <time>2009-11-26T01:59:47Z</time>
      </trkpt>
      <trkpt lat="48.9301042" lon="12.0127814">
        <ele>345.3000000</ele>
        <time>2009-11-26T01:59:57Z</time>
      </trkpt>
      <trkpt lat="48.9302177" lon="12.0124054">
        <ele>345.3000000</ele>
        <time>2009-11-26T02:00:06Z</time>
      </trkpt>
      <trkpt lat="48.9300931" lon="12.0120725">
        <ele>346.2000000</ele>
        <time>2009-11-26T02:00:13Z</time>
      </trkpt>
      <trkpt lat="48.9292350" lon="12.0114764">
        <ele>342.4000000</ele>
        <time>2009-11-26T02:00:43Z</time>
      </trkpt>
      <trkpt lat="48.9290897" lon="12.0113364">
        <ele>341.4000000</ele>
        <time>2009-11-26T02:00:48Z</time>
      </trkpt>
      <trkpt lat="48.9290194" lon="12.0112599">
        <ele>340.4000000</ele>
        <time>2009-11-26T02:00:51Z</time>
      </trkpt>
      <trkpt lat="48.9286993" lon="12.0102063">
        <ele>340.9000000</ele>
        <time>2009-11-26T02:01:14Z</time>
      </trkpt>
      <trkpt lat="48.9287238" lon="12.0099534">
        <ele>340.4000000</ele>
        <time>2009-11-26T02:01:19Z</time>
      </trkpt>
      <trkpt lat="48.9289017" lon="12.0091216">
        <ele>340.4000000</ele>
        <time>2009-11-26T02:01:37Z</time>
      </trkpt>
      <trkpt lat="48.9294301" lon="12.0071561">
        <ele>340.4000000</ele>
        <time>2009-11-26T02:02:20Z</time>
      </trkpt>
      <trkpt lat="48.9297592" lon="12.0056964">
        <ele>340.4000000</ele>
        <time>2009-11-26T02:02:52Z</time>
      </trkpt>
      <trkpt lat="48.9301136" lon="12.0043574">
        <ele>340.0000000</ele>
        <time>2009-11-26T02:03:21Z</time>
      </trkpt>
      <trkpt lat="48.9306293" lon="12.0029116">
        <ele>339.5000000</ele>
        <time>2009-11-26T02:03:54Z</time>
      </trkpt>
      <trkpt lat="48.9311354" lon="12.0018151">
        <ele>340.0000000</ele>
        <time>2009-11-26T02:04:22Z</time>
      </trkpt>
      <trkpt lat="48.9312210" lon="12.0016379">
        <ele>340.0000000</ele>
        <time>2009-11-26T02:04:26Z</time>
      </trkpt>
      <trkpt lat="48.9315501" lon="12.0007160">
        <ele>339.5000000</ele>
        <time>2009-11-26T02:04:47Z</time>
      </trkpt>
      <trkpt lat="48.9318738" lon="11.9992355">
        <ele>339.5000000</ele>
        <time>2009-11-26T02:05:19Z</time>
      </trkpt>
      <trkpt lat="48.9320975" lon="11.9973975">
        <ele>340.0000000</ele>
        <time>2009-11-26T02:05:57Z</time>
      </trkpt>
      <trkpt lat="48.9321560" lon="11.9953503">
        <ele>340.4000000</ele>
        <time>2009-11-26T02:06:39Z</time>
      </trkpt>
      <trkpt lat="48.9320178" lon="11.9934744">
        <ele>339.0000000</ele>
        <time>2009-11-26T02:07:17Z</time>
      </trkpt>
      <trkpt lat="48.9316883" lon="11.9914057">
        <ele>340.0000000</ele>
        <time>2009-11-26T02:08:00Z</time>
      </trkpt>
      <trkpt lat="48.9311889" lon="11.9890744">
        <ele>340.9000000</ele>
        <time>2009-11-26T02:08:50Z</time>
      </trkpt>
      <trkpt lat="48.9305467" lon="11.9872078">
        <ele>339.5000000</ele>
        <time>2009-11-26T02:09:33Z</time>
      </trkpt>
      <trkpt lat="48.9296946" lon="11.9851989">
        <ele>340.0000000</ele>
        <time>2009-11-26T02:10:21Z</time>
      </trkpt>
      <trkpt lat="48.9291866" lon="11.9830279">
        <ele>340.4000000</ele>
        <time>2009-11-26T02:11:08Z</time>
      </trkpt>
      <trkpt lat="48.9288511" lon="11.9812919">
        <ele>340.4000000</ele>
        <time>2009-11-26T02:11:45Z</time>
      </trkpt>
      <trkpt lat="48.9288206" lon="11.9807322">
        <ele>340.0000000</ele>
        <time>2009-11-26T02:11:56Z</time>
      </trkpt>
      <trkpt lat="48.9287751" lon="11.9806777">
        <ele>340.0000000</ele>
        <time>2009-11-26T02:11:58Z</time>
      </trkpt>
      <trkpt lat="48.9277157" lon="11.9796039">
        <ele>341.4000000</ele>
        <time>2009-11-26T02:12:38Z</time>
      </trkpt>
      <trkpt lat="48.9266404" lon="11.9784807">
        <ele>341.4000000</ele>
        <time>2009-11-26T02:13:18Z</time>
      </trkpt>
      <trkpt lat="48.9255214" lon="11.9770878">
        <ele>341.4000000</ele>
        <time>2009-11-26T02:14:03Z</time>
      </trkpt>
      <trkpt lat="48.9245958" lon="11.9757975">
        <ele>340.9000000</ele>
        <time>2009-11-26T02:14:41Z</time>
      </trkpt>
      <trkpt lat="48.9238872" lon="11.9749133">
        <ele>341.4000000</ele>
        <time>2009-11-26T02:15:10Z</time>
      </trkpt>
      <trkpt lat="48.9230710" lon="11.9735663">
        <ele>340.4000000</ele>
        <time>2009-11-26T02:15:47Z</time>
      </trkpt>
      <trkpt lat="48.9221326" lon="11.9721808">
        <ele>341.4000000</ele>
        <time>2009-11-26T02:16:27Z</time>
      </trkpt>
      <trkpt lat="48.9212435" lon="11.9710686">
        <ele>341.9000000</ele>
        <time>2009-11-26T02:17:03Z</time>
      </trkpt>
      <trkpt lat="48.9201442" lon="11.9700724">
        <ele>344.8000000</ele>
        <time>2009-11-26T02:17:43Z</time>
      </trkpt>
      <trkpt lat="48.9193991" lon="11.9687004">
        <ele>347.7000000</ele>
        <time>2009-11-26T02:18:19Z</time>
      </trkpt>
      <trkpt lat="48.9186052" lon="11.9668536">
        <ele>349.1000000</ele>
        <time>2009-11-26T02:19:04Z</time>
      </trkpt>
      <trkpt lat="48.9178360" lon="11.9651852">
        <ele>350.1000000</ele>
        <time>2009-11-26T02:19:45Z</time>
      </trkpt>
      <trkpt lat="48.9171187" lon="11.9633963">
        <ele>349.1000000</ele>
        <time>2009-11-26T02:20:28Z</time>
      </trkpt>
      <trkpt lat="48.9165815" lon="11.9611617">
        <ele>346.7000000</ele>
        <time>2009-11-26T02:21:16Z</time>
      </trkpt>
      <trkpt lat="48.9161652" lon="11.9593051">
        <ele>347.7000000</ele>
        <time>2009-11-26T02:21:56Z</time>
      </trkpt>
      <trkpt lat="48.9156256" lon="11.9573220">
        <ele>350.5000000</ele>
        <time>2009-11-26T02:22:39Z</time>
      </trkpt>
      <trkpt lat="48.9150990" lon="11.9557427">
        <ele>353.9000000</ele>
        <time>2009-11-26T02:23:15Z</time>
      </trkpt>
      <trkpt lat="48.9145713" lon="11.9538558">
        <ele>355.8000000</ele>
        <time>2009-11-26T02:23:57Z</time>
      </trkpt>
      <trkpt lat="48.9142899" lon="11.9523911">
        <ele>359.2000000</ele>
        <time>2009-11-26T02:24:28Z</time>
      </trkpt>
      <trkpt lat="48.9139677" lon="11.9507061">
        <ele>362.1000000</ele>
        <time>2009-11-26T02:25:04Z</time>
      </trkpt>
      <trkpt lat="48.9139392" lon="11.9505435">
        <ele>363.0000000</ele>
        <time>2009-11-26T02:25:07Z</time>
      </trkpt>
      <trkpt lat="48.9136621" lon="11.9490532">
        <ele>366.4000000</ele>
        <time>2009-11-26T02:25:39Z</time>
      </trkpt>
      <trkpt lat="48.9133429" lon="11.9468930">
        <ele>366.4000000</ele>
        <time>2009-11-26T02:26:24Z</time>
      </trkpt>
      <trkpt lat="48.9130818" lon="11.9447288">
        <ele>367.4000000</ele>
        <time>2009-11-26T02:27:08Z</time>
      </trkpt>
      <trkpt lat="48.9127809" lon="11.9429635">
        <ele>367.8000000</ele>
        <time>2009-11-26T02:27:45Z</time>
      </trkpt>
      <trkpt lat="48.9123850" lon="11.9407256">
        <ele>368.8000000</ele>
        <time>2009-11-26T02:28:33Z</time>
      </trkpt>
      <trkpt lat="48.9122899" lon="11.9387819">
        <ele>370.2000000</ele>
        <time>2009-11-26T02:29:12Z</time>
      </trkpt>
      <trkpt lat="48.9125438" lon="11.9368157">
        <ele>370.2000000</ele>
        <time>2009-11-26T02:29:53Z</time>
      </trkpt>
      <trkpt lat="48.9126234" lon="11.9349778">
        <ele>366.4000000</ele>
        <time>2009-11-26T02:30:30Z</time>
      </trkpt>
      <trkpt lat="48.9126193" lon="11.9343578">
        <ele>365.4000000</ele>
        <time>2009-11-26T02:30:43Z</time>
      </trkpt>
      <trkpt lat="48.9126421" lon="11.9336880">
        <ele>362.1000000</ele>
        <time>2009-11-26T02:30:57Z</time>
      </trkpt>
      <trkpt lat="48.9127000" lon="11.9331767">
        <ele>359.2000000</ele>
        <time>2009-11-26T02:31:07Z</time>
      </trkpt>
      <trkpt lat="48.9129713" lon="11.9319581">
        <ele>354.4000000</ele>
        <time>2009-11-26T02:31:33Z</time>
      </trkpt>
      <trkpt lat="48.9130102" lon="11.9317594">
        <ele>353.9000000</ele>
        <time>2009-11-26T02:31:37Z</time>
      </trkpt>
      <trkpt lat="48.9133347" lon="11.9299304">
        <ele>352.0000000</ele>
        <time>2009-11-26T02:32:16Z</time>
      </trkpt>
      <trkpt lat="48.9137459" lon="11.9277475">
        <ele>348.6000000</ele>
        <time>2009-11-26T02:33:02Z</time>
      </trkpt>
      <trkpt lat="48.9143676" lon="11.9245524">
        <ele>346.7000000</ele>
        <time>2009-11-26T02:34:10Z</time>
      </trkpt>
      <trkpt lat="48.9147767" lon="11.9217963">
        <ele>343.8000000</ele>
        <time>2009-11-26T02:35:07Z</time>
      </trkpt>
      <trkpt lat="48.9145844" lon="11.9201249">
        <ele>342.4000000</ele>
        <time>2009-11-26T02:35:42Z</time>
      </trkpt>
      <trkpt lat="48.9145006" lon="11.9193795">
        <ele>342.4000000</ele>
        <time>2009-11-26T02:35:57Z</time>
      </trkpt>
      <trkpt lat="48.9145695" lon="11.9190185">
        <ele>340.9000000</ele>
        <time>2009-11-26T02:36:05Z</time>
      </trkpt>
      <trkpt lat="48.9145587" lon="11.9190054">
        <ele>341.4000000</ele>
        <time>2009-11-26T02:36:05Z</time>
      </trkpt>
      <trkpt lat="48.9145063" lon="11.9189449">
        <ele>341.4000000</ele>
        <time>2009-11-26T02:36:07Z</time>
      </trkpt>
      <trkpt lat="48.9144806" lon="11.9189237">
        <ele>342.4000000</ele>
        <time>2009-11-26T02:36:08Z</time>
      </trkpt>
      <trkpt lat="48.9144088" lon="11.9187597">
        <ele>341.4000000</ele>
        <time>2009-11-26T02:36:12Z</time>
      </trkpt>
      <trkpt lat="48.9143146" lon="11.9178594">
        <ele>342.8000000</ele>
        <time>2009-11-26T02:36:31Z</time>
      </trkpt>
      <trkpt lat="48.9141151" lon="11.9176866">
        <ele>344.3000000</ele>
        <time>2009-11-26T02:36:38Z</time>
      </trkpt>
      <trkpt lat="48.9139756" lon="11.9177001">
        <ele>343.8000000</ele>
        <time>2009-11-26T02:36:42Z</time>
      </trkpt>
      <trkpt lat="48.9136499" lon="11.9173032">
        <ele>341.9000000</ele>
        <time>2009-11-26T02:36:55Z</time>
      </trkpt>
      <trkpt lat="48.9134523" lon="11.9162425">
        <ele>342.8000000</ele>
        <time>2009-11-26T02:37:17Z</time>
      </trkpt>
      <trkpt lat="48.9133356" lon="11.9161010">
        <ele>340.9000000</ele>
        <time>2009-11-26T02:37:22Z</time>
      </trkpt>
      <trkpt lat="48.9130120" lon="11.9162502">
        <ele>340.4000000</ele>
        <time>2009-11-26T02:37:32Z</time>
      </trkpt>
      <trkpt lat="48.9124269" lon="11.9163749">
        <ele>338.5000000</ele>
        <time>2009-11-26T02:37:51Z</time>
      </trkpt>
      <trkpt lat="48.9122840" lon="11.9163959">
        <ele>340.0000000</ele>
        <time>2009-11-26T02:37:55Z</time>
      </trkpt>
      <trkpt lat="48.9121277" lon="11.9161088">
        <ele>343.8000000</ele>
        <time>2009-11-26T02:38:03Z</time>
      </trkpt>
      <trkpt lat="48.9121097" lon="11.9160679">
        <ele>344.3000000</ele>
        <time>2009-11-26T02:38:04Z</time>
      </trkpt>
      <trkpt lat="48.9119180" lon="11.9156519">
        <ele>340.9000000</ele>
        <time>2009-11-26T02:38:14Z</time>
      </trkpt>
      <trkpt lat="48.9119065" lon="11.9153218">
        <ele>340.0000000</ele>
        <time>2009-11-26T02:38:21Z</time>
      </trkpt>
      <trkpt lat="48.9119341" lon="11.9149666">
        <ele>339.5000000</ele>
        <time>2009-11-26T02:38:28Z</time>
      </trkpt>
      <trkpt lat="48.9119190" lon="11.9147791">
        <ele>340.0000000</ele>
        <time>2009-11-26T02:38:32Z</time>
      </trkpt>
      <trkpt lat="48.9117009" lon="11.9133077">
        <ele>340.4000000</ele>
        <time>2009-11-26T02:39:02Z</time>
      </trkpt>
      <trkpt lat="48.9116849" lon="11.9121328">
        <ele>343.3000000</ele>
        <time>2009-11-26T02:39:26Z</time>
      </trkpt>
      <trkpt lat="48.9116883" lon="11.9120705">
        <ele>343.3000000</ele>
        <time>2009-11-26T02:39:28Z</time>
      </trkpt>
      <trkpt lat="48.9115521" lon="11.9106671">
        <ele>344.3000000</ele>
        <time>2009-11-26T02:39:56Z</time>
      </trkpt>
      <trkpt lat="48.9115129" lon="11.9090540">
        <ele>343.8000000</ele>
        <time>2009-11-26T02:40:29Z</time>
      </trkpt>
      <trkpt lat="48.9115569" lon="11.9085924">
        <ele>344.3000000</ele>
        <time>2009-11-26T02:40:39Z</time>
      </trkpt>
      <trkpt lat="48.9115345" lon="11.9082315">
        <ele>344.3000000</ele>
        <time>2009-11-26T02:40:46Z</time>
      </trkpt>
      <trkpt lat="48.9114448" lon="11.9069902">
        <ele>343.8000000</ele>
        <time>2009-11-26T02:41:11Z</time>
      </trkpt>
      <trkpt lat="48.9111845" lon="11.9065919">
        <ele>343.8000000</ele>
        <time>2009-11-26T02:41:23Z</time>
      </trkpt>
      <trkpt lat="48.9111522" lon="11.9065582">
        <ele>343.8000000</ele>
        <time>2009-11-26T02:41:24Z</time>
      </trkpt>
      <trkpt lat="48.9109594" lon="11.9060623">
        <ele>343.8000000</ele>
        <time>2009-11-26T02:41:36Z</time>
      </trkpt>
      <trkpt lat="48.9108470" lon="11.9042779">
        <ele>343.8000000</ele>
        <time>2009-11-26T02:42:12Z</time>
      </trkpt>
      <trkpt lat="48.9107705" lon="11.9031518">
        <ele>343.8000000</ele>
        <time>2009-11-26T02:42:35Z</time>
      </trkpt>
      <trkpt lat="48.9106297" lon="11.9008145">
        <ele>345.3000000</ele>
        <time>2009-11-26T02:43:23Z</time>
      </trkpt>
      <trkpt lat="48.9105866" lon="11.8999784">
        <ele>344.3000000</ele>
        <time>2009-11-26T02:43:40Z</time>
      </trkpt>
      <trkpt lat="48.9106551" lon="11.8996136">
        <ele>344.8000000</ele>
        <time>2009-11-26T02:43:48Z</time>
      </trkpt>
      <trkpt lat="48.9109112" lon="11.8983411">
        <ele>344.3000000</ele>
        <time>2009-11-26T02:44:15Z</time>
      </trkpt>
      <trkpt lat="48.9110114" lon="11.8971833">
        <ele>343.3000000</ele>
        <time>2009-11-26T02:44:39Z</time>
      </trkpt>
      <trkpt lat="48.9110812" lon="11.8957946">
        <ele>343.8000000</ele>
        <time>2009-11-26T02:45:07Z</time>
      </trkpt>
      <trkpt lat="48.9111210" lon="11.8938208">
        <ele>343.8000000</ele>
        <time>2009-11-26T02:45:47Z</time>
      </trkpt>
      <trkpt lat="48.9109898" lon="11.8934013">
        <ele>344.3000000</ele>
        <time>2009-11-26T02:45:56Z</time>
      </trkpt>
      <trkpt lat="48.9108452" lon="11.8931147">
        <ele>343.8000000</ele>
        <time>2009-11-26T02:46:04Z</time>
      </trkpt>
      <trkpt lat="48.9107664" lon="11.8926661">
        <ele>343.8000000</ele>
        <time>2009-11-26T02:46:13Z</time>
      </trkpt>
      <trkpt lat="48.9106888" lon="11.8923868">
        <ele>343.3000000</ele>
        <time>2009-11-26T02:46:19Z</time>
      </trkpt>
      <trkpt lat="48.9106996" lon="11.8918859">
        <ele>342.4000000</ele>
        <time>2009-11-26T02:46:30Z</time>
      </trkpt>
      <trkpt lat="48.9107908" lon="11.8906538">
        <ele>344.3000000</ele>
        <time>2009-11-26T02:46:55Z</time>
      </trkpt>
      <trkpt lat="48.9111096" lon="11.8890019">
        <ele>343.3000000</ele>
        <time>2009-11-26T02:47:30Z</time>
      </trkpt>
      <trkpt lat="48.9117779" lon="11.8869258">
        <ele>343.8000000</ele>
        <time>2009-11-26T02:48:17Z</time>
      </trkpt>
      <trkpt lat="48.9125245" lon="11.8852580">
        <ele>343.8000000</ele>
        <time>2009-11-26T02:48:58Z</time>
      </trkpt>
      <trkpt lat="48.9134486" lon="11.8836658">
        <ele>343.8000000</ele>
        <time>2009-11-26T02:49:41Z</time>
      </trkpt>
      <trkpt lat="48.9138546" lon="11.8830945">
        <ele>343.8000000</ele>
        <time>2009-11-26T02:49:58Z</time>
      </trkpt>
      <trkpt lat="48.9143641" lon="11.8824703">
        <ele>343.8000000</ele>
        <time>2009-11-26T02:50:18Z</time>
      </trkpt>
      <trkpt lat="48.9153294" lon="11.8814648">
        <ele>344.3000000</ele>
        <time>2009-11-26T02:50:54Z</time>
      </trkpt>
      <trkpt lat="48.9156916" lon="11.8811470">
        <ele>343.3000000</ele>
        <time>2009-11-26T02:51:07Z</time>
      </trkpt>
      <trkpt lat="48.9158231" lon="11.8810522">
        <ele>343.3000000</ele>
        <time>2009-11-26T02:51:12Z</time>
      </trkpt>
      <trkpt lat="48.9159474" lon="11.8807530">
        <ele>342.4000000</ele>
        <time>2009-11-26T02:51:19Z</time>
      </trkpt>
      <trkpt lat="48.9161152" lon="11.8805182">
        <ele>343.8000000</ele>
        <time>2009-11-26T02:51:26Z</time>
      </trkpt>
      <trkpt lat="48.9166954" lon="11.8800261">
        <ele>343.3000000</ele>
        <time>2009-11-26T02:51:47Z</time>
      </trkpt>
      <trkpt lat="48.9167754" lon="11.8799573">
        <ele>342.8000000</ele>
        <time>2009-11-26T02:51:49Z</time>
      </trkpt>
      <trkpt lat="48.9169997" lon="11.8799059">
        <ele>342.8000000</ele>
        <time>2009-11-26T02:51:56Z</time>
      </trkpt>
      <trkpt lat="48.9175625" lon="11.8798920">
        <ele>343.3000000</ele>
        <time>2009-11-26T02:52:14Z</time>
      </trkpt>
      <trkpt lat="48.9178972" lon="11.8796414">
        <ele>342.8000000</ele>
        <time>2009-11-26T02:52:25Z</time>
      </trkpt>
      <trkpt lat="48.9180189" lon="11.8795079">
        <ele>341.9000000</ele>
        <time>2009-11-26T02:52:30Z</time>
      </trkpt>
      <trkpt lat="48.9181608" lon="11.8793967">
        <ele>342.4000000</ele>
        <time>2009-11-26T02:52:35Z</time>
      </trkpt>
      <trkpt lat="48.9183041" lon="11.8792721">
        <ele>341.4000000</ele>
        <time>2009-11-26T02:52:40Z</time>
      </trkpt>
      <trkpt lat="48.9184621" lon="11.8792052">
        <ele>340.9000000</ele>
        <time>2009-11-26T02:52:45Z</time>
      </trkpt>
      <trkpt lat="48.9187629" lon="11.8790001">
        <ele>341.4000000</ele>
        <time>2009-11-26T02:52:55Z</time>
      </trkpt>
      <trkpt lat="48.9189974" lon="11.8787877">
        <ele>340.4000000</ele>
        <time>2009-11-26T02:53:04Z</time>
      </trkpt>
      <trkpt lat="48.9193712" lon="11.8784259">
        <ele>340.9000000</ele>
        <time>2009-11-26T02:53:17Z</time>
      </trkpt>
      <trkpt lat="48.9195071" lon="11.8780314">
        <ele>340.9000000</ele>
        <time>2009-11-26T02:53:27Z</time>
      </trkpt>
      <trkpt lat="48.9195115" lon="11.8777591">
        <ele>340.4000000</ele>
        <time>2009-11-26T02:53:32Z</time>
      </trkpt>
      <trkpt lat="48.9195731" lon="11.8774646">
        <ele>340.4000000</ele>
        <time>2009-11-26T02:53:38Z</time>
      </trkpt>
      <trkpt lat="48.9200331" lon="11.8763385">
        <ele>340.9000000</ele>
        <time>2009-11-26T02:54:05Z</time>
      </trkpt>
      <trkpt lat="48.9206143" lon="11.8750564">
        <ele>341.4000000</ele>
        <time>2009-11-26T02:54:37Z</time>
      </trkpt>
      <trkpt lat="48.9206910" lon="11.8748742">
        <ele>340.9000000</ele>
        <time>2009-11-26T02:54:41Z</time>
      </trkpt>
      <trkpt lat="48.9208882" lon="11.8742992">
        <ele>340.9000000</ele>
        <time>2009-11-26T02:54:54Z</time>
      </trkpt>
      <trkpt lat="48.9210093" lon="11.8737288">
        <ele>340.9000000</ele>
        <time>2009-11-26T02:55:07Z</time>
      </trkpt>
      <trkpt lat="48.9211945" lon="11.8733760">
        <ele>340.9000000</ele>
        <time>2009-11-26T02:55:16Z</time>
      </trkpt>
      <trkpt lat="48.9214104" lon="11.8726747">
        <ele>340.9000000</ele>
        <time>2009-11-26T02:55:32Z</time>
      </trkpt>
      <trkpt lat="48.9217897" lon="11.8716968">
        <ele>340.9000000</ele>
        <time>2009-11-26T02:55:55Z</time>
      </trkpt>
      <trkpt lat="48.9218299" lon="11.8716190">
        <ele>340.9000000</ele>
        <time>2009-11-26T02:55:57Z</time>
      </trkpt>
      <trkpt lat="48.9217133" lon="11.8715442">
        <ele>341.9000000</ele>
        <time>2009-11-26T02:56:01Z</time>
      </trkpt>
      <trkpt lat="48.9217105" lon="11.8714960">
        <ele>342.4000000</ele>
        <time>2009-11-26T02:56:02Z</time>
      </trkpt>
      <trkpt lat="48.9217921" lon="11.8713344">
        <ele>342.8000000</ele>
        <time>2009-11-26T02:56:06Z</time>
      </trkpt>
      <trkpt lat="48.9218706" lon="11.8710279">
        <ele>340.9000000</ele>
        <time>2009-11-26T02:56:12Z</time>
      </trkpt>
      <trkpt lat="48.9220212" lon="11.8707170">
        <ele>340.9000000</ele>
        <time>2009-11-26T02:56:20Z</time>
      </trkpt>
      <trkpt lat="48.9223210" lon="11.8696210">
        <ele>340.4000000</ele>
        <time>2009-11-26T02:56:44Z</time>
      </trkpt>
      <trkpt lat="48.9225690" lon="11.8686238">
        <ele>340.9000000</ele>
        <time>2009-11-26T02:57:06Z</time>
      </trkpt>
      <trkpt lat="48.9226930" lon="11.8683486">
        <ele>340.9000000</ele>
        <time>2009-11-26T02:57:13Z</time>
      </trkpt>
      <trkpt lat="48.9227765" lon="11.8682866">
        <ele>341.4000000</ele>
        <time>2009-11-26T02:57:16Z</time>
      </trkpt>
      <trkpt lat="48.9231738" lon="11.8681643">
        <ele>343.3000000</ele>
        <time>2009-11-26T02:57:28Z</time>
      </trkpt>
      <trkpt lat="48.9232634" lon="11.8681462">
        <ele>343.8000000</ele>
        <time>2009-11-26T02:57:31Z</time>
      </trkpt>
      <trkpt lat="48.9232825" lon="11.8681424">
        <ele>343.3000000</ele>
        <time>2009-11-26T02:57:32Z</time>
      </trkpt>
      <trkpt lat="48.9232826" lon="11.8680849">
        <ele>343.3000000</ele>
        <time>2009-11-26T02:57:33Z</time>
      </trkpt>
      <trkpt lat="48.9234156" lon="11.8675976">
        <ele>343.3000000</ele>
        <time>2009-11-26T02:57:43Z</time>
      </trkpt>
      <trkpt lat="48.9234316" lon="11.8675298">
        <ele>342.8000000</ele>
        <time>2009-11-26T02:57:45Z</time>
      </trkpt>
      <trkpt lat="48.9235817" lon="11.8664252">
        <ele>342.4000000</ele>
        <time>2009-11-26T02:58:08Z</time>
      </trkpt>
      <trkpt lat="48.9235949" lon="11.8663408">
        <ele>342.4000000</ele>
        <time>2009-11-26T02:58:10Z</time>
      </trkpt>
      <trkpt lat="48.9238063" lon="11.8649232">
        <ele>342.4000000</ele>
        <time>2009-11-26T02:58:39Z</time>
      </trkpt>
      <trkpt lat="48.9240539" lon="11.8633858">
        <ele>342.4000000</ele>
        <time>2009-11-26T02:59:11Z</time>
      </trkpt>
      <trkpt lat="48.9240990" lon="11.8631107">
        <ele>342.8000000</ele>
        <time>2009-11-26T02:59:17Z</time>
      </trkpt>
      <trkpt lat="48.9241343" lon="11.8629411">
        <ele>343.3000000</ele>
        <time>2009-11-26T02:59:21Z</time>
      </trkpt>
      <trkpt lat="48.9242435" lon="11.8626018">
        <ele>342.8000000</ele>
        <time>2009-11-26T02:59:28Z</time>
      </trkpt>
      <trkpt lat="48.9243636" lon="11.8613551">
        <ele>342.8000000</ele>
        <time>2009-11-26T02:59:54Z</time>
      </trkpt>
      <trkpt lat="48.9244867" lon="11.8606952">
        <ele>343.3000000</ele>
        <time>2009-11-26T03:00:08Z</time>
      </trkpt>
      <trkpt lat="48.9247432" lon="11.8594507">
        <ele>344.8000000</ele>
        <time>2009-11-26T03:00:34Z</time>
      </trkpt>
      <trkpt lat="48.9251261" lon="11.8574870">
        <ele>347.7000000</ele>
        <time>2009-11-26T03:01:16Z</time>
      </trkpt>
      <trkpt lat="48.9252546" lon="11.8570259">
        <ele>349.6000000</ele>
        <time>2009-11-26T03:01:26Z</time>
      </trkpt>
      <trkpt lat="48.9255262" lon="11.8559849">
        <ele>350.1000000</ele>
        <time>2009-11-26T03:01:49Z</time>
      </trkpt>
      <trkpt lat="48.9256561" lon="11.8556239">
        <ele>351.5000000</ele>
        <time>2009-11-26T03:01:57Z</time>
      </trkpt>
      <trkpt lat="48.9256869" lon="11.8554260">
        <ele>352.5000000</ele>
        <time>2009-11-26T03:02:01Z</time>
      </trkpt>
      <trkpt lat="48.9257715" lon="11.8547551">
        <ele>353.4000000</ele>
        <time>2009-11-26T03:02:15Z</time>
      </trkpt>
      <trkpt lat="48.9258569" lon="11.8540591">
        <ele>353.4000000</ele>
        <time>2009-11-26T03:02:30Z</time>
      </trkpt>
      <trkpt lat="48.9259342" lon="11.8536978">
        <ele>353.4000000</ele>
        <time>2009-11-26T03:02:37Z</time>
      </trkpt>
      <trkpt lat="48.9259827" lon="11.8532135">
        <ele>352.5000000</ele>
        <time>2009-11-26T03:02:47Z</time>
      </trkpt>
      <trkpt lat="48.9260129" lon="11.8528173">
        <ele>352.9000000</ele>
        <time>2009-11-26T03:02:55Z</time>
      </trkpt>
      <trkpt lat="48.9261025" lon="11.8514325">
        <ele>353.9000000</ele>
        <time>2009-11-26T03:03:24Z</time>
      </trkpt>
      <trkpt lat="48.9261341" lon="11.8498180">
        <ele>354.4000000</ele>
        <time>2009-11-26T03:03:57Z</time>
      </trkpt>
      <trkpt lat="48.9261337" lon="11.8496192">
        <ele>354.9000000</ele>
        <time>2009-11-26T03:04:01Z</time>
      </trkpt>
      <trkpt lat="48.9261485" lon="11.8491146">
        <ele>354.4000000</ele>
        <time>2009-11-26T03:04:11Z</time>
      </trkpt>
      <trkpt lat="48.9261078" lon="11.8469450">
        <ele>354.4000000</ele>
        <time>2009-11-26T03:04:55Z</time>
      </trkpt>
      <trkpt lat="48.9261342" lon="11.8448279">
        <ele>355.3000000</ele>
        <time>2009-11-26T03:05:38Z</time>
      </trkpt>
      <trkpt lat="48.9261283" lon="11.8435755">
        <ele>356.8000000</ele>
        <time>2009-11-26T03:06:03Z</time>
      </trkpt>
      <trkpt lat="48.9261200" lon="11.8434962">
        <ele>356.8000000</ele>
        <time>2009-11-26T03:06:05Z</time>
      </trkpt>
      <trkpt lat="48.9261060" lon="11.8432259">
        <ele>356.3000000</ele>
        <time>2009-11-26T03:06:11Z</time>
      </trkpt>
      <trkpt lat="48.9260511" lon="11.8426990">
        <ele>355.8000000</ele>
        <time>2009-11-26T03:06:21Z</time>
      </trkpt>
      <trkpt lat="48.9260279" lon="11.8425027">
        <ele>354.9000000</ele>
        <time>2009-11-26T03:06:25Z</time>
      </trkpt>
      <trkpt lat="48.9260705" lon="11.8419081">
        <ele>353.9000000</ele>
        <time>2009-11-26T03:06:38Z</time>
      </trkpt>
      <trkpt lat="48.9259879" lon="11.8396271">
        <ele>351.0000000</ele>
        <time>2009-11-26T03:07:24Z</time>
      </trkpt>
      <trkpt lat="48.9259933" lon="11.8392630">
        <ele>352.5000000</ele>
        <time>2009-11-26T03:07:31Z</time>
      </trkpt>
      <trkpt lat="48.9259916" lon="11.8387813">
        <ele>353.4000000</ele>
        <time>2009-11-26T03:07:41Z</time>
      </trkpt>
      <trkpt lat="48.9260195" lon="11.8383797">
        <ele>353.4000000</ele>
        <time>2009-11-26T03:07:49Z</time>
      </trkpt>
      <trkpt lat="48.9260715" lon="11.8379065">
        <ele>353.9000000</ele>
        <time>2009-11-26T03:07:59Z</time>
      </trkpt>
      <trkpt lat="48.9261243" lon="11.8376256">
        <ele>353.4000000</ele>
        <time>2009-11-26T03:08:05Z</time>
      </trkpt>
      <trkpt lat="48.9260860" lon="11.8365110">
        <ele>353.4000000</ele>
        <time>2009-11-26T03:08:28Z</time>
      </trkpt>
      <trkpt lat="48.9262130" lon="11.8353843">
        <ele>353.9000000</ele>
        <time>2009-11-26T03:08:51Z</time>
      </trkpt>
      <trkpt lat="48.9262222" lon="11.8340637">
        <ele>352.5000000</ele>
        <time>2009-11-26T03:09:18Z</time>
      </trkpt>
      <trkpt lat="48.9262372" lon="11.8330755">
        <ele>349.6000000</ele>
        <time>2009-11-26T03:09:38Z</time>
      </trkpt>
      <trkpt lat="48.9262559" lon="11.8321358">
        <ele>350.1000000</ele>
        <time>2009-11-26T03:09:57Z</time>
      </trkpt>
      <trkpt lat="48.9264827" lon="11.8308452">
        <ele>352.0000000</ele>
        <time>2009-11-26T03:10:24Z</time>
      </trkpt>
      <trkpt lat="48.9266863" lon="11.8299534">
        <ele>355.8000000</ele>
        <time>2009-11-26T03:10:43Z</time>
      </trkpt>
      <trkpt lat="48.9267518" lon="11.8296150">
        <ele>355.8000000</ele>
        <time>2009-11-26T03:10:51Z</time>
      </trkpt>
      <trkpt lat="48.9268351" lon="11.8285366">
        <ele>352.0000000</ele>
        <time>2009-11-26T03:11:13Z</time>
      </trkpt>
      <trkpt lat="48.9268918" lon="11.8268824">
        <ele>350.1000000</ele>
        <time>2009-11-26T03:11:46Z</time>
      </trkpt>
      <trkpt lat="48.9268623" lon="11.8263703">
        <ele>348.6000000</ele>
        <time>2009-11-26T03:11:57Z</time>
      </trkpt>
      <trkpt lat="48.9267993" lon="11.8234724">
        <ele>347.2000000</ele>
        <time>2009-11-26T03:12:56Z</time>
      </trkpt>
      <trkpt lat="48.9271184" lon="11.8213487">
        <ele>347.7000000</ele>
        <time>2009-11-26T03:13:40Z</time>
      </trkpt>
      <trkpt lat="48.9274871" lon="11.8192087">
        <ele>347.7000000</ele>
        <time>2009-11-26T03:14:25Z</time>
      </trkpt>
      <trkpt lat="48.9275193" lon="11.8170119">
        <ele>347.7000000</ele>
        <time>2009-11-26T03:15:09Z</time>
      </trkpt>
      <trkpt lat="48.9273645" lon="11.8149299">
        <ele>347.7000000</ele>
        <time>2009-11-26T03:15:52Z</time>
      </trkpt>
      <trkpt lat="48.9272560" lon="11.8125775">
        <ele>347.7000000</ele>
        <time>2009-11-26T03:16:40Z</time>
      </trkpt>
      <trkpt lat="48.9273546" lon="11.8112734">
        <ele>346.7000000</ele>
        <time>2009-11-26T03:17:07Z</time>
      </trkpt>
      <trkpt lat="48.9270872" lon="11.8109849">
        <ele>346.2000000</ele>
        <time>2009-11-26T03:17:17Z</time>
      </trkpt>
      <trkpt lat="48.9269665" lon="11.8107025">
        <ele>347.2000000</ele>
        <time>2009-11-26T03:17:24Z</time>
      </trkpt>
      <trkpt lat="48.9265140" lon="11.8083662">
        <ele>347.7000000</ele>
        <time>2009-11-26T03:18:13Z</time>
      </trkpt>
      <trkpt lat="48.9260979" lon="11.8068668">
        <ele>348.1000000</ele>
        <time>2009-11-26T03:18:46Z</time>
      </trkpt>
      <trkpt lat="48.9258141" lon="11.8057020">
        <ele>347.2000000</ele>
        <time>2009-11-26T03:19:11Z</time>
      </trkpt>
      <trkpt lat="48.9257766" lon="11.8053629">
        <ele>347.2000000</ele>
        <time>2009-11-26T03:19:18Z</time>
      </trkpt>
      <trkpt lat="48.9258178" lon="11.8040446">
        <ele>347.7000000</ele>
        <time>2009-11-26T03:19:45Z</time>
      </trkpt>
      <trkpt lat="48.9258123" lon="11.8030728">
        <ele>347.2000000</ele>
        <time>2009-11-26T03:20:05Z</time>
      </trkpt>
      <trkpt lat="48.9258441" lon="11.8021326">
        <ele>348.1000000</ele>
        <time>2009-11-26T03:20:24Z</time>
      </trkpt>
      <trkpt lat="48.9258991" lon="11.8017565">
        <ele>347.2000000</ele>
        <time>2009-11-26T03:20:32Z</time>
      </trkpt>
      <trkpt lat="48.9258774" lon="11.8012141">
        <ele>347.2000000</ele>
        <time>2009-11-26T03:20:43Z</time>
      </trkpt>
      <trkpt lat="48.9259177" lon="11.8007049">
        <ele>347.2000000</ele>
        <time>2009-11-26T03:20:53Z</time>
      </trkpt>
      <trkpt lat="48.9260016" lon="11.8004465">
        <ele>347.2000000</ele>
        <time>2009-11-26T03:20:59Z</time>
      </trkpt>
      <trkpt lat="48.9266473" lon="11.7995120">
        <ele>347.7000000</ele>
        <time>2009-11-26T03:21:27Z</time>
      </trkpt>
      <trkpt lat="48.9275074" lon="11.7983992">
        <ele>347.7000000</ele>
        <time>2009-11-26T03:22:02Z</time>
      </trkpt>
      <trkpt lat="48.9279239" lon="11.7977878">
        <ele>347.2000000</ele>
        <time>2009-11-26T03:22:20Z</time>
      </trkpt>
      <trkpt lat="48.9287878" lon="11.7963483">
        <ele>346.7000000</ele>
        <time>2009-11-26T03:22:59Z</time>
      </trkpt>
      <trkpt lat="48.9296779" lon="11.7948818">
        <ele>345.7000000</ele>
        <time>2009-11-26T03:23:40Z</time>
      </trkpt>
      <trkpt lat="48.9299473" lon="11.7945064">
        <ele>345.7000000</ele>
        <time>2009-11-26T03:23:51Z</time>
      </trkpt>
      <trkpt lat="48.9301664" lon="11.7942583">
        <ele>346.2000000</ele>
        <time>2009-11-26T03:23:59Z</time>
      </trkpt>
      <trkpt lat="48.9308051" lon="11.7932451">
        <ele>346.7000000</ele>
        <time>2009-11-26T03:24:28Z</time>
      </trkpt>
      <trkpt lat="48.9318766" lon="11.7921665">
        <ele>348.1000000</ele>
        <time>2009-11-26T03:25:08Z</time>
      </trkpt>
      <trkpt lat="48.9322134" lon="11.7918927">
        <ele>347.7000000</ele>
        <time>2009-11-26T03:25:20Z</time>
      </trkpt>
      <trkpt lat="48.9323327" lon="11.7917820">
        <ele>348.6000000</ele>
        <time>2009-11-26T03:25:24Z</time>
      </trkpt>
      <trkpt lat="48.9330807" lon="11.7908954">
        <ele>347.2000000</ele>
        <time>2009-11-26T03:25:53Z</time>
      </trkpt>
      <trkpt lat="48.9337551" lon="11.7903577">
        <ele>347.7000000</ele>
        <time>2009-11-26T03:26:17Z</time>
      </trkpt>
      <trkpt lat="48.9342212" lon="11.7899621">
        <ele>348.1000000</ele>
        <time>2009-11-26T03:26:33Z</time>
      </trkpt>
      <trkpt lat="48.9343457" lon="11.7898240">
        <ele>347.7000000</ele>
        <time>2009-11-26T03:26:38Z</time>
      </trkpt>
      <trkpt lat="48.9344804" lon="11.7896512">
        <ele>348.6000000</ele>
        <time>2009-11-26T03:26:43Z</time>
      </trkpt>
      <trkpt lat="48.9346216" lon="11.7895269">
        <ele>349.1000000</ele>
        <time>2009-11-26T03:26:48Z</time>
      </trkpt>
      <trkpt lat="48.9349834" lon="11.7892453">
        <ele>348.6000000</ele>
        <time>2009-11-26T03:27:01Z</time>
      </trkpt>
      <trkpt lat="48.9351404" lon="11.7891008">
        <ele>348.1000000</ele>
        <time>2009-11-26T03:27:07Z</time>
      </trkpt>
      <trkpt lat="48.9352683" lon="11.7890036">
        <ele>347.7000000</ele>
        <time>2009-11-26T03:27:11Z</time>
      </trkpt>
      <trkpt lat="48.9354812" lon="11.7889097">
        <ele>346.7000000</ele>
        <time>2009-11-26T03:27:18Z</time>
      </trkpt>
      <trkpt lat="48.9356262" lon="11.7888358">
        <ele>346.7000000</ele>
        <time>2009-11-26T03:27:23Z</time>
      </trkpt>
      <trkpt lat="48.9359593" lon="11.7885631">
        <ele>346.7000000</ele>
        <time>2009-11-26T03:27:34Z</time>
      </trkpt>
      <trkpt lat="48.9361427" lon="11.7883671">
        <ele>345.7000000</ele>
        <time>2009-11-26T03:27:41Z</time>
      </trkpt>
      <trkpt lat="48.9361602" lon="11.7882845">
        <ele>346.2000000</ele>
        <time>2009-11-26T03:27:43Z</time>
      </trkpt>
      <trkpt lat="48.9360977" lon="11.7882753">
        <ele>347.2000000</ele>
        <time>2009-11-26T03:27:45Z</time>
      </trkpt>
      <trkpt lat="48.9361229" lon="11.7882669">
        <ele>345.7000000</ele>
        <time>2009-11-26T03:27:46Z</time>
      </trkpt>
      <trkpt lat="48.9363618" lon="11.7879966">
        <ele>345.3000000</ele>
        <time>2009-11-26T03:27:55Z</time>
      </trkpt>
      <trkpt lat="48.9363623" lon="11.7879478">
        <ele>345.3000000</ele>
        <time>2009-11-26T03:27:56Z</time>
      </trkpt>
      <trkpt lat="48.9363811" lon="11.7879282">
        <ele>346.2000000</ele>
        <time>2009-11-26T03:27:57Z</time>
      </trkpt>
      <trkpt lat="48.9363958" lon="11.7879268">
        <ele>346.2000000</ele>
        <time>2009-11-26T03:27:57Z</time>
      </trkpt>
      <trkpt lat="48.9365673" lon="11.7877563">
        <ele>346.2000000</ele>
        <time>2009-11-26T03:28:04Z</time>
      </trkpt>
      <trkpt lat="48.9370021" lon="11.7872702">
        <ele>345.7000000</ele>
        <time>2009-11-26T03:28:20Z</time>
      </trkpt>
      <trkpt lat="48.9373045" lon="11.7870102">
        <ele>345.7000000</ele>
        <time>2009-11-26T03:28:31Z</time>
      </trkpt>
      <trkpt lat="48.9376768" lon="11.7867793">
        <ele>345.7000000</ele>
        <time>2009-11-26T03:28:43Z</time>
      </trkpt>
      <trkpt lat="48.9380469" lon="11.7864329">
        <ele>346.7000000</ele>
        <time>2009-11-26T03:28:57Z</time>
      </trkpt>
      <trkpt lat="48.9385222" lon="11.7855348">
        <ele>347.7000000</ele>
        <time>2009-11-26T03:29:20Z</time>
      </trkpt>
      <trkpt lat="48.9388980" lon="11.7844218">
        <ele>348.6000000</ele>
        <time>2009-11-26T03:29:46Z</time>
      </trkpt>
      <trkpt lat="48.9390792" lon="11.7836439">
        <ele>349.6000000</ele>
        <time>2009-11-26T03:30:02Z</time>
      </trkpt>
      <trkpt lat="48.9390547" lon="11.7829505">
        <ele>347.7000000</ele>
        <time>2009-11-26T03:30:17Z</time>
      </trkpt>
      <trkpt lat="48.9392340" lon="11.7815682">
        <ele>347.2000000</ele>
        <time>2009-11-26T03:30:45Z</time>
      </trkpt>
      <trkpt lat="48.9394211" lon="11.7798655">
        <ele>348.1000000</ele>
        <time>2009-11-26T03:31:20Z</time>
      </trkpt>
      <trkpt lat="48.9397055" lon="11.7783171">
        <ele>346.2000000</ele>
        <time>2009-11-26T03:31:53Z</time>
      </trkpt>
      <trkpt lat="48.9397924" lon="11.7770904">
        <ele>346.7000000</ele>
        <time>2009-11-26T03:32:18Z</time>
      </trkpt>
      <trkpt lat="48.9398098" lon="11.7761462">
        <ele>347.2000000</ele>
        <time>2009-11-26T03:32:37Z</time>
      </trkpt>
      <trkpt lat="48.9398250" lon="11.7758222">
        <ele>347.7000000</ele>
        <time>2009-11-26T03:32:44Z</time>
      </trkpt>
      <trkpt lat="48.9398102" lon="11.7754225">
        <ele>347.7000000</ele>
        <time>2009-11-26T03:32:52Z</time>
      </trkpt>
      <trkpt lat="48.9398712" lon="11.7743325">
        <ele>347.7000000</ele>
        <time>2009-11-26T03:33:14Z</time>
      </trkpt>
      <trkpt lat="48.9398889" lon="11.7738998">
        <ele>348.1000000</ele>
        <time>2009-11-26T03:33:23Z</time>
      </trkpt>
      <trkpt lat="48.9399480" lon="11.7735396">
        <ele>348.6000000</ele>
        <time>2009-11-26T03:33:30Z</time>
      </trkpt>
      <trkpt lat="48.9400946" lon="11.7726801">
        <ele>349.6000000</ele>
        <time>2009-11-26T03:33:48Z</time>
      </trkpt>
      <trkpt lat="48.9401406" lon="11.7724323">
        <ele>349.6000000</ele>
        <time>2009-11-26T03:33:54Z</time>
      </trkpt>
      <trkpt lat="48.9403349" lon="11.7712333">
        <ele>350.5000000</ele>
        <time>2009-11-26T03:34:19Z</time>
      </trkpt>
      <trkpt lat="48.9405025" lon="11.7704434">
        <ele>350.1000000</ele>
        <time>2009-11-26T03:34:36Z</time>
      </trkpt>
      <trkpt lat="48.9408477" lon="11.7692928">
        <ele>350.1000000</ele>
        <time>2009-11-26T03:35:01Z</time>
      </trkpt>
      <trkpt lat="48.9414264" lon="11.7674156">
        <ele>351.5000000</ele>
        <time>2009-11-26T03:35:43Z</time>
      </trkpt>
      <trkpt lat="48.9414757" lon="11.7670631">
        <ele>351.0000000</ele>
        <time>2009-11-26T03:35:51Z</time>
      </trkpt>
      <trkpt lat="48.9415615" lon="11.7661449">
        <ele>351.5000000</ele>
        <time>2009-11-26T03:36:10Z</time>
      </trkpt>
      <trkpt lat="48.9415945" lon="11.7658397">
        <ele>352.9000000</ele>
        <time>2009-11-26T03:36:16Z</time>
      </trkpt>
      <trkpt lat="48.9417227" lon="11.7642069">
        <ele>355.8000000</ele>
        <time>2009-11-26T03:36:49Z</time>
      </trkpt>
      <trkpt lat="48.9418143" lon="11.7633182">
        <ele>359.2000000</ele>
        <time>2009-11-26T03:37:08Z</time>
      </trkpt>
      <trkpt lat="48.9418579" lon="11.7622291">
        <ele>362.1000000</ele>
        <time>2009-11-26T03:37:30Z</time>
      </trkpt>
      <trkpt lat="48.9417776" lon="11.7609472">
        <ele>363.0000000</ele>
        <time>2009-11-26T03:37:56Z</time>
      </trkpt>
      <trkpt lat="48.9416051" lon="11.7593160">
        <ele>361.6000000</ele>
        <time>2009-11-26T03:38:29Z</time>
      </trkpt>
      <trkpt lat="48.9415630" lon="11.7588670">
        <ele>360.6000000</ele>
        <time>2009-11-26T03:38:39Z</time>
      </trkpt>
      <trkpt lat="48.9414752" lon="11.7571611">
        <ele>357.7000000</ele>
        <time>2009-11-26T03:39:13Z</time>
      </trkpt>
      <trkpt lat="48.9415505" lon="11.7553059">
        <ele>357.3000000</ele>
        <time>2009-11-26T03:39:51Z</time>
      </trkpt>
      <trkpt lat="48.9418594" lon="11.7537775">
        <ele>356.8000000</ele>
        <time>2009-11-26T03:40:24Z</time>
      </trkpt>
      <trkpt lat="48.9419157" lon="11.7536011">
        <ele>357.3000000</ele>
        <time>2009-11-26T03:40:28Z</time>
      </trkpt>
      <trkpt lat="48.9421975" lon="11.7526148">
        <ele>356.8000000</ele>
        <time>2009-11-26T03:40:49Z</time>
      </trkpt>
      <trkpt lat="48.9423301" lon="11.7518148">
        <ele>356.3000000</ele>
        <time>2009-11-26T03:41:06Z</time>
      </trkpt>
      <trkpt lat="48.9425474" lon="11.7506867">
        <ele>355.8000000</ele>
        <time>2009-11-26T03:41:30Z</time>
      </trkpt>
      <trkpt lat="48.9425608" lon="11.7505999">
        <ele>355.3000000</ele>
        <time>2009-11-26T03:41:32Z</time>
      </trkpt>
      <trkpt lat="48.9428698" lon="11.7496559">
        <ele>355.3000000</ele>
        <time>2009-11-26T03:41:53Z</time>
      </trkpt>
      <trkpt lat="48.9433216" lon="11.7484019">
        <ele>355.8000000</ele>
        <time>2009-11-26T03:42:22Z</time>
      </trkpt>
      <trkpt lat="48.9435202" lon="11.7479529">
        <ele>356.8000000</ele>
        <time>2009-11-26T03:42:33Z</time>
      </trkpt>
      <trkpt lat="48.9436600" lon="11.7477005">
        <ele>356.8000000</ele>
        <time>2009-11-26T03:42:40Z</time>
      </trkpt>
      <trkpt lat="48.9437382" lon="11.7475775">
        <ele>358.2000000</ele>
        <time>2009-11-26T03:42:44Z</time>
      </trkpt>
      <trkpt lat="48.9444588" lon="11.7459684">
        <ele>355.8000000</ele>
        <time>2009-11-26T03:43:23Z</time>
      </trkpt>
      <trkpt lat="48.9448634" lon="11.7453375">
        <ele>352.5000000</ele>
        <time>2009-11-26T03:43:41Z</time>
      </trkpt>
      <trkpt lat="48.9453543" lon="11.7447243">
        <ele>354.9000000</ele>
        <time>2009-11-26T03:44:01Z</time>
      </trkpt>
      <trkpt lat="48.9453990" lon="11.7446745">
        <ele>354.9000000</ele>
        <time>2009-11-26T03:44:02Z</time>
      </trkpt>
      <trkpt lat="48.9455257" lon="11.7445421">
        <ele>355.8000000</ele>
        <time>2009-11-26T03:44:07Z</time>
      </trkpt>
      <trkpt lat="48.9458714" lon="11.7442367">
        <ele>357.3000000</ele>
        <time>2009-11-26T03:44:19Z</time>
      </trkpt>
      <trkpt lat="48.9463516" lon="11.7434010">
        <ele>357.7000000</ele>
        <time>2009-11-26T03:44:42Z</time>
      </trkpt>
      <trkpt lat="48.9467493" lon="11.7426811">
        <ele>356.8000000</ele>
        <time>2009-11-26T03:45:01Z</time>
      </trkpt>
      <trkpt lat="48.9468888" lon="11.7424286">
        <ele>355.8000000</ele>
        <time>2009-11-26T03:45:08Z</time>
      </trkpt>
      <trkpt lat="48.9474306" lon="11.7414037">
        <ele>352.9000000</ele>
        <time>2009-11-26T03:45:35Z</time>
      </trkpt>
      <trkpt lat="48.9481440" lon="11.7404515">
        <ele>350.5000000</ele>
        <time>2009-11-26T03:46:04Z</time>
      </trkpt>
      <trkpt lat="48.9489863" lon="11.7394223">
        <ele>349.6000000</ele>
        <time>2009-11-26T03:46:37Z</time>
      </trkpt>
      <trkpt lat="48.9496213" lon="11.7386531">
        <ele>348.6000000</ele>
        <time>2009-11-26T03:47:02Z</time>
      </trkpt>
      <trkpt lat="48.9499151" lon="11.7383106">
        <ele>349.1000000</ele>
        <time>2009-11-26T03:47:14Z</time>
      </trkpt>
      <trkpt lat="48.9500244" lon="11.7382152">
        <ele>349.6000000</ele>
        <time>2009-11-26T03:47:18Z</time>
      </trkpt>
      <trkpt lat="48.9501323" lon="11.7381271">
        <ele>349.1000000</ele>
        <time>2009-11-26T03:47:22Z</time>
      </trkpt>
      <trkpt lat="48.9502216" lon="11.7379927">
        <ele>349.1000000</ele>
        <time>2009-11-26T03:47:25Z</time>
      </trkpt>
      <trkpt lat="48.9504178" lon="11.7375994">
        <ele>349.6000000</ele>
        <time>2009-11-26T03:47:35Z</time>
      </trkpt>
      <trkpt lat="48.9505863" lon="11.7373269">
        <ele>350.1000000</ele>
        <time>2009-11-26T03:47:43Z</time>
      </trkpt>
      <trkpt lat="48.9506758" lon="11.7371458">
        <ele>349.6000000</ele>
        <time>2009-11-26T03:47:48Z</time>
      </trkpt>
      <trkpt lat="48.9508469" lon="11.7369310">
        <ele>350.1000000</ele>
        <time>2009-11-26T03:47:54Z</time>
      </trkpt>
      <trkpt lat="48.9510554" lon="11.7367495">
        <ele>350.1000000</ele>
        <time>2009-11-26T03:48:02Z</time>
      </trkpt>
      <trkpt lat="48.9513917" lon="11.7358437">
        <ele>350.5000000</ele>
        <time>2009-11-26T03:48:23Z</time>
      </trkpt>
      <trkpt lat="48.9521279" lon="11.7346090">
        <ele>350.5000000</ele>
        <time>2009-11-26T03:48:57Z</time>
      </trkpt>
      <trkpt lat="48.9527160" lon="11.7337092">
        <ele>352.9000000</ele>
        <time>2009-11-26T03:49:23Z</time>
      </trkpt>
      <trkpt lat="48.9531151" lon="11.7325701">
        <ele>351.5000000</ele>
        <time>2009-11-26T03:49:49Z</time>
      </trkpt>
      <trkpt lat="48.9534078" lon="11.7311361">
        <ele>349.6000000</ele>
        <time>2009-11-26T03:50:19Z</time>
      </trkpt>
      <trkpt lat="48.9536504" lon="11.7298692">
        <ele>350.1000000</ele>
        <time>2009-11-26T03:50:46Z</time>
      </trkpt>
      <trkpt lat="48.9538696" lon="11.7289781">
        <ele>350.5000000</ele>
        <time>2009-11-26T03:51:06Z</time>
      </trkpt>
      <trkpt lat="48.9539958" lon="11.7286929">
        <ele>351.5000000</ele>
        <time>2009-11-26T03:51:13Z</time>
      </trkpt>
      <trkpt lat="48.9541647" lon="11.7282017">
        <ele>350.5000000</ele>
        <time>2009-11-26T03:51:24Z</time>
      </trkpt>
      <trkpt lat="48.9541798" lon="11.7279181">
        <ele>350.1000000</ele>
        <time>2009-11-26T03:51:30Z</time>
      </trkpt>
      <trkpt lat="48.9541056" lon="11.7274657">
        <ele>349.6000000</ele>
        <time>2009-11-26T03:51:39Z</time>
      </trkpt>
      <trkpt lat="48.9541611" lon="11.7261507">
        <ele>350.5000000</ele>
        <time>2009-11-26T03:52:06Z</time>
      </trkpt>
      <trkpt lat="48.9542594" lon="11.7250238">
        <ele>349.6000000</ele>
        <time>2009-11-26T03:52:29Z</time>
      </trkpt>
      <trkpt lat="48.9544340" lon="11.7232961">
        <ele>350.1000000</ele>
        <time>2009-11-26T03:53:04Z</time>
      </trkpt>
      <trkpt lat="48.9548763" lon="11.7214731">
        <ele>350.1000000</ele>
        <time>2009-11-26T03:53:44Z</time>
      </trkpt>
      <trkpt lat="48.9554045" lon="11.7200731">
        <ele>351.5000000</ele>
        <time>2009-11-26T03:54:17Z</time>
      </trkpt>
      <trkpt lat="48.9554271" lon="11.7199783">
        <ele>351.5000000</ele>
        <time>2009-11-26T03:54:19Z</time>
      </trkpt>
      <trkpt lat="48.9556654" lon="11.7183533">
        <ele>352.9000000</ele>
        <time>2009-11-26T03:54:52Z</time>
      </trkpt>
      <trkpt lat="48.9562638" lon="11.7165594">
        <ele>353.9000000</ele>
        <time>2009-11-26T03:55:33Z</time>
      </trkpt>
      <trkpt lat="48.9563875" lon="11.7162108">
        <ele>353.4000000</ele>
        <time>2009-11-26T03:55:41Z</time>
      </trkpt>
      <trkpt lat="48.9567613" lon="11.7158855">
        <ele>354.9000000</ele>
        <time>2009-11-26T03:55:55Z</time>
      </trkpt>
      <trkpt lat="48.9566492" lon="11.7154560">
        <ele>354.4000000</ele>
        <time>2009-11-26T03:56:04Z</time>
      </trkpt>
      <trkpt lat="48.9566818" lon="11.7152963">
        <ele>353.4000000</ele>
        <time>2009-11-26T03:56:07Z</time>
      </trkpt>
      <trkpt lat="48.9568781" lon="11.7146619">
        <ele>355.3000000</ele>
        <time>2009-11-26T03:56:22Z</time>
      </trkpt>
      <trkpt lat="48.9569579" lon="11.7143919">
        <ele>353.9000000</ele>
        <time>2009-11-26T03:56:28Z</time>
      </trkpt>
      <trkpt lat="48.9570128" lon="11.7143749">
        <ele>353.9000000</ele>
        <time>2009-11-26T03:56:29Z</time>
      </trkpt>
      <trkpt lat="48.9570335" lon="11.7144209">
        <ele>353.9000000</ele>
        <time>2009-11-26T03:56:31Z</time>
      </trkpt>
      <trkpt lat="48.9570039" lon="11.7146084">
        <ele>354.4000000</ele>
        <time>2009-11-26T03:56:34Z</time>
      </trkpt>
      <trkpt lat="48.9569722" lon="11.7146610">
        <ele>353.9000000</ele>
        <time>2009-11-26T03:56:36Z</time>
      </trkpt>
      <trkpt lat="48.9569592" lon="11.7146890">
        <ele>353.9000000</ele>
        <time>2009-11-26T03:56:37Z</time>
      </trkpt>
      <trkpt lat="48.9568749" lon="11.7147443">
        <ele>354.4000000</ele>
        <time>2009-11-26T03:56:39Z</time>
      </trkpt>
      <trkpt lat="48.9569330" lon="11.7146505">
        <ele>354.9000000</ele>
        <time>2009-11-26T03:56:42Z</time>
      </trkpt>
      <trkpt lat="48.9570754" lon="11.7142594">
        <ele>354.4000000</ele>
        <time>2009-11-26T03:56:51Z</time>
      </trkpt>
      <trkpt lat="48.9573189" lon="11.7132623">
        <ele>355.3000000</ele>
        <time>2009-11-26T03:57:13Z</time>
      </trkpt>
      <trkpt lat="48.9575813" lon="11.7118889">
        <ele>358.2000000</ele>
        <time>2009-11-26T03:57:42Z</time>
      </trkpt>
      <trkpt lat="48.9577684" lon="11.7103127">
        <ele>359.7000000</ele>
        <time>2009-11-26T03:58:14Z</time>
      </trkpt>
      <trkpt lat="48.9579186" lon="11.7084747">
        <ele>357.7000000</ele>
        <time>2009-11-26T03:58:52Z</time>
      </trkpt>
      <trkpt lat="48.9582125" lon="11.7065167">
        <ele>356.8000000</ele>
        <time>2009-11-26T03:59:33Z</time>
      </trkpt>
      <trkpt lat="48.9582379" lon="11.7063400">
        <ele>355.8000000</ele>
        <time>2009-11-26T03:59:36Z</time>
      </trkpt>
      <trkpt lat="48.9582471" lon="11.7061996">
        <ele>355.8000000</ele>
        <time>2009-11-26T03:59:39Z</time>
      </trkpt>
      <trkpt lat="48.9582891" lon="11.7059921">
        <ele>355.3000000</ele>
        <time>2009-11-26T03:59:44Z</time>
      </trkpt>
      <trkpt lat="48.9582793" lon="11.7059169">
        <ele>355.8000000</ele>
        <time>2009-11-26T03:59:45Z</time>
      </trkpt>
      <trkpt lat="48.9582430" lon="11.7060353">
        <ele>355.3000000</ele>
        <time>2009-11-26T03:59:48Z</time>
      </trkpt>
      <trkpt lat="48.9580463" lon="11.7062816">
        <ele>354.9000000</ele>
        <time>2009-11-26T03:59:56Z</time>
      </trkpt>
      <trkpt lat="48.9578728" lon="11.7061510">
        <ele>352.9000000</ele>
        <time>2009-11-26T04:00:02Z</time>
      </trkpt>
      <trkpt lat="48.9578637" lon="11.7059060">
        <ele>350.5000000</ele>
        <time>2009-11-26T04:00:07Z</time>
      </trkpt>
      <trkpt lat="48.9578684" lon="11.7056965">
        <ele>348.6000000</ele>
        <time>2009-11-26T04:00:11Z</time>
      </trkpt>
      <trkpt lat="48.9577347" lon="11.7055506">
        <ele>347.2000000</ele>
        <time>2009-11-26T04:00:16Z</time>
      </trkpt>
      <trkpt lat="48.9575581" lon="11.7055469">
        <ele>347.2000000</ele>
        <time>2009-11-26T04:00:22Z</time>
      </trkpt>
      <trkpt lat="48.9572070" lon="11.7056256">
        <ele>348.1000000</ele>
        <time>2009-11-26T04:00:33Z</time>
      </trkpt>
      <trkpt lat="48.9570381" lon="11.7053694">
        <ele>348.6000000</ele>
        <time>2009-11-26T04:00:40Z</time>
      </trkpt>
      <trkpt lat="48.9570390" lon="11.7052959">
        <ele>348.1000000</ele>
        <time>2009-11-26T04:00:41Z</time>
      </trkpt>
      <trkpt lat="48.9570028" lon="11.7049410">
        <ele>348.6000000</ele>
        <time>2009-11-26T04:00:49Z</time>
      </trkpt>
      <trkpt lat="48.9568860" lon="11.7045622">
        <ele>348.1000000</ele>
        <time>2009-11-26T04:00:57Z</time>
      </trkpt>
      <trkpt lat="48.9566029" lon="11.7039483">
        <ele>348.1000000</ele>
        <time>2009-11-26T04:01:12Z</time>
      </trkpt>
      <trkpt lat="48.9565663" lon="11.7034491">
        <ele>347.7000000</ele>
        <time>2009-11-26T04:01:23Z</time>
      </trkpt>
      <trkpt lat="48.9569579" lon="11.7018472">
        <ele>348.6000000</ele>
        <time>2009-11-26T04:01:57Z</time>
      </trkpt>
      <trkpt lat="48.9571478" lon="11.7006535">
        <ele>349.1000000</ele>
        <time>2009-11-26T04:02:22Z</time>
      </trkpt>
      <trkpt lat="48.9575865" lon="11.6996443">
        <ele>348.6000000</ele>
        <time>2009-11-26T04:02:47Z</time>
      </trkpt>
      <trkpt lat="48.9577390" lon="11.6982301">
        <ele>348.6000000</ele>
        <time>2009-11-26T04:03:16Z</time>
      </trkpt>
      <trkpt lat="48.9579783" lon="11.6969341">
        <ele>348.1000000</ele>
        <time>2009-11-26T04:03:43Z</time>
      </trkpt>
      <trkpt lat="48.9584424" lon="11.6952590">
        <ele>347.7000000</ele>
        <time>2009-11-26T04:04:20Z</time>
      </trkpt>
      <trkpt lat="48.9587850" lon="11.6941581">
        <ele>348.6000000</ele>
        <time>2009-11-26T04:04:45Z</time>
      </trkpt>
      <trkpt lat="48.9592293" lon="11.6927649">
        <ele>348.1000000</ele>
        <time>2009-11-26T04:05:16Z</time>
      </trkpt>
      <trkpt lat="48.9593837" lon="11.6924922">
        <ele>348.1000000</ele>
        <time>2009-11-26T04:05:24Z</time>
      </trkpt>
      <trkpt lat="48.9595902" lon="11.6922554">
        <ele>347.7000000</ele>
        <time>2009-11-26T04:05:32Z</time>
      </trkpt>
      <trkpt lat="48.9602471" lon="11.6914064">
        <ele>348.6000000</ele>
        <time>2009-11-26T04:05:58Z</time>
      </trkpt>
      <trkpt lat="48.9603392" lon="11.6913101">
        <ele>348.1000000</ele>
        <time>2009-11-26T04:06:02Z</time>
      </trkpt>
      <trkpt lat="48.9607073" lon="11.6909340">
        <ele>350.5000000</ele>
        <time>2009-11-26T04:06:15Z</time>
      </trkpt>
      <trkpt lat="48.9608284" lon="11.6908206">
        <ele>352.0000000</ele>
        <time>2009-11-26T04:06:20Z</time>
      </trkpt>
      <trkpt lat="48.9608334" lon="11.6905833">
        <ele>352.9000000</ele>
        <time>2009-11-26T04:06:25Z</time>
      </trkpt>
      <trkpt lat="48.9609077" lon="11.6905604">
        <ele>352.9000000</ele>
        <time>2009-11-26T04:06:27Z</time>
      </trkpt>
      <trkpt lat="48.9610305" lon="11.6906647">
        <ele>353.4000000</ele>
        <time>2009-11-26T04:06:31Z</time>
      </trkpt>
      <trkpt lat="48.9612222" lon="11.6904232">
        <ele>353.4000000</ele>
        <time>2009-11-26T04:06:39Z</time>
      </trkpt>
      <trkpt lat="48.9617768" lon="11.6887354">
        <ele>352.9000000</ele>
        <time>2009-11-26T04:07:17Z</time>
      </trkpt>
      <trkpt lat="48.9625708" lon="11.6868594">
        <ele>350.1000000</ele>
        <time>2009-11-26T04:08:03Z</time>
      </trkpt>
      <trkpt lat="48.9636992" lon="11.6853489">
        <ele>349.1000000</ele>
        <time>2009-11-26T04:08:49Z</time>
      </trkpt>
      <trkpt lat="48.9646549" lon="11.6845500">
        <ele>349.6000000</ele>
        <time>2009-11-26T04:09:23Z</time>
      </trkpt>
      <trkpt lat="48.9659330" lon="11.6838642">
        <ele>350.5000000</ele>
        <time>2009-11-26T04:10:05Z</time>
      </trkpt>
      <trkpt lat="48.9673962" lon="11.6835125">
        <ele>351.0000000</ele>
        <time>2009-11-26T04:10:51Z</time>
      </trkpt>
      <trkpt lat="48.9686523" lon="11.6834946">
        <ele>351.0000000</ele>
        <time>2009-11-26T04:11:29Z</time>
      </trkpt>
      <trkpt lat="48.9696736" lon="11.6838999">
        <ele>351.0000000</ele>
        <time>2009-11-26T04:12:02Z</time>
      </trkpt>
      <trkpt lat="48.9708561" lon="11.6849467">
        <ele>352.9000000</ele>
        <time>2009-11-26T04:12:44Z</time>
      </trkpt>
      <trkpt lat="48.9717906" lon="11.6860798">
        <ele>356.3000000</ele>
        <time>2009-11-26T04:13:21Z</time>
      </trkpt>
      <trkpt lat="48.9726984" lon="11.6873426">
        <ele>357.3000000</ele>
        <time>2009-11-26T04:13:59Z</time>
      </trkpt>
      <trkpt lat="48.9735133" lon="11.6885738">
        <ele>357.3000000</ele>
        <time>2009-11-26T04:14:35Z</time>
      </trkpt>
      <trkpt lat="48.9743406" lon="11.6901311">
        <ele>356.3000000</ele>
        <time>2009-11-26T04:15:15Z</time>
      </trkpt>
      <trkpt lat="48.9752909" lon="11.6921046">
        <ele>354.9000000</ele>
        <time>2009-11-26T04:16:05Z</time>
      </trkpt>
      <trkpt lat="48.9756000" lon="11.6926221">
        <ele>354.9000000</ele>
        <time>2009-11-26T04:16:19Z</time>
      </trkpt>
      <trkpt lat="48.9760054" lon="11.6932814">
        <ele>355.8000000</ele>
        <time>2009-11-26T04:16:38Z</time>
      </trkpt>
      <trkpt lat="48.9767720" lon="11.6941836">
        <ele>356.3000000</ele>
        <time>2009-11-26T04:17:08Z</time>
      </trkpt>
      <trkpt lat="48.9775058" lon="11.6949461">
        <ele>359.2000000</ele>
        <time>2009-11-26T04:17:35Z</time>
      </trkpt>
      <trkpt lat="48.9785708" lon="11.6956858">
        <ele>362.1000000</ele>
        <time>2009-11-26T04:18:11Z</time>
      </trkpt>
      <trkpt lat="48.9790185" lon="11.6959251">
        <ele>363.5000000</ele>
        <time>2009-11-26T04:18:26Z</time>
      </trkpt>
      <trkpt lat="48.9792095" lon="11.6960074">
        <ele>364.5000000</ele>
        <time>2009-11-26T04:18:32Z</time>
      </trkpt>
      <trkpt lat="48.9793152" lon="11.6960607">
        <ele>364.5000000</ele>
        <time>2009-11-26T04:18:36Z</time>
      </trkpt>
      <trkpt lat="48.9796998" lon="11.6961817">
        <ele>365.0000000</ele>
        <time>2009-11-26T04:18:48Z</time>
      </trkpt>
      <trkpt lat="48.9798832" lon="11.6962344">
        <ele>366.4000000</ele>
        <time>2009-11-26T04:18:53Z</time>
      </trkpt>
      <trkpt lat="48.9806081" lon="11.6963845">
        <ele>366.9000000</ele>
        <time>2009-11-26T04:19:16Z</time>
      </trkpt>
      <trkpt lat="48.9812095" lon="11.6964021">
        <ele>367.4000000</ele>
        <time>2009-11-26T04:19:35Z</time>
      </trkpt>
      <trkpt lat="48.9818832" lon="11.6964223">
        <ele>367.8000000</ele>
        <time>2009-11-26T04:19:55Z</time>
      </trkpt>
      <trkpt lat="48.9820011" lon="11.6964354">
        <ele>367.8000000</ele>
        <time>2009-11-26T04:19:59Z</time>
      </trkpt>
      <trkpt lat="48.9825844" lon="11.6962834">
        <ele>367.8000000</ele>
        <time>2009-11-26T04:20:17Z</time>
      </trkpt>
      <trkpt lat="48.9828806" lon="11.6962834">
        <ele>368.8000000</ele>
        <time>2009-11-26T04:20:27Z</time>
      </trkpt>
      <trkpt lat="48.9830904" lon="11.6962805">
        <ele>368.3000000</ele>
        <time>2009-11-26T04:20:33Z</time>
      </trkpt>
      <trkpt lat="48.9839533" lon="11.6961194">
        <ele>368.8000000</ele>
        <time>2009-11-26T04:21:00Z</time>
      </trkpt>
      <trkpt lat="48.9849309" lon="11.6957685">
        <ele>368.8000000</ele>
        <time>2009-11-26T04:21:31Z</time>
      </trkpt>
      <trkpt lat="48.9860890" lon="11.6950931">
        <ele>367.8000000</ele>
        <time>2009-11-26T04:22:09Z</time>
      </trkpt>
      <trkpt lat="48.9869618" lon="11.6945526">
        <ele>365.0000000</ele>
        <time>2009-11-26T04:22:39Z</time>
      </trkpt>
      <trkpt lat="48.9880859" lon="11.6936002">
        <ele>361.6000000</ele>
        <time>2009-11-26T04:23:18Z</time>
      </trkpt>
      <trkpt lat="48.9887223" lon="11.6929584">
        <ele>358.7000000</ele>
        <time>2009-11-26T04:23:42Z</time>
      </trkpt>
      <trkpt lat="48.9902540" lon="11.6910894">
        <ele>357.3000000</ele>
        <time>2009-11-26T04:24:43Z</time>
      </trkpt>
      <trkpt lat="48.9914775" lon="11.6891712">
        <ele>357.3000000</ele>
        <time>2009-11-26T04:25:37Z</time>
      </trkpt>
      <trkpt lat="48.9923421" lon="11.6872064">
        <ele>355.8000000</ele>
        <time>2009-11-26T04:26:25Z</time>
      </trkpt>
      <trkpt lat="48.9928342" lon="11.6850839">
        <ele>355.8000000</ele>
        <time>2009-11-26T04:27:11Z</time>
      </trkpt>
      <trkpt lat="48.9929601" lon="11.6830297">
        <ele>355.8000000</ele>
        <time>2009-11-26T04:27:52Z</time>
      </trkpt>
      <trkpt lat="48.9927679" lon="11.6809653">
        <ele>355.8000000</ele>
        <time>2009-11-26T04:28:35Z</time>
      </trkpt>
      <trkpt lat="48.9921825" lon="11.6783209">
        <ele>354.9000000</ele>
        <time>2009-11-26T04:29:31Z</time>
      </trkpt>
      <trkpt lat="48.9919174" lon="11.6761018">
        <ele>357.3000000</ele>
        <time>2009-11-26T04:30:17Z</time>
      </trkpt>
      <trkpt lat="48.9915293" lon="11.6739384">
        <ele>359.2000000</ele>
        <time>2009-11-26T04:31:03Z</time>
      </trkpt>
      <trkpt lat="48.9907719" lon="11.6724032">
        <ele>358.2000000</ele>
        <time>2009-11-26T04:31:42Z</time>
      </trkpt>
      <trkpt lat="48.9896433" lon="11.6712300">
        <ele>358.2000000</ele>
        <time>2009-11-26T04:32:24Z</time>
      </trkpt>
      <trkpt lat="48.9886143" lon="11.6703038">
        <ele>357.7000000</ele>
        <time>2009-11-26T04:33:01Z</time>
      </trkpt>
      <trkpt lat="48.9871428" lon="11.6692334">
        <ele>358.7000000</ele>
        <time>2009-11-26T04:33:51Z</time>
      </trkpt>
      <trkpt lat="48.9852643" lon="11.6681845">
        <ele>359.2000000</ele>
        <time>2009-11-26T04:34:53Z</time>
      </trkpt>
      <trkpt lat="48.9837551" lon="11.6672051">
        <ele>359.2000000</ele>
        <time>2009-11-26T04:35:44Z</time>
      </trkpt>
      <trkpt lat="48.9826998" lon="11.6661809">
        <ele>359.7000000</ele>
        <time>2009-11-26T04:36:23Z</time>
      </trkpt>
      <trkpt lat="48.9818558" lon="11.6652893">
        <ele>360.2000000</ele>
        <time>2009-11-26T04:36:54Z</time>
      </trkpt>
      <trkpt lat="48.9810505" lon="11.6647919">
        <ele>362.6000000</ele>
        <time>2009-11-26T04:37:21Z</time>
      </trkpt>
      <trkpt lat="48.9802653" lon="11.6639396">
        <ele>365.4000000</ele>
        <time>2009-11-26T04:37:51Z</time>
      </trkpt>
      <trkpt lat="48.9797946" lon="11.6630686">
        <ele>368.3000000</ele>
        <time>2009-11-26T04:38:14Z</time>
      </trkpt>
      <trkpt lat="48.9789945" lon="11.6615395">
        <ele>368.3000000</ele>
        <time>2009-11-26T04:38:54Z</time>
      </trkpt>
      <trkpt lat="48.9783391" lon="11.6602966">
        <ele>365.0000000</ele>
        <time>2009-11-26T04:39:26Z</time>
      </trkpt>
      <trkpt lat="48.9782987" lon="11.6601946">
        <ele>365.0000000</ele>
        <time>2009-11-26T04:39:28Z</time>
      </trkpt>
      <trkpt lat="48.9775173" lon="11.6578192">
        <ele>363.0000000</ele>
        <time>2009-11-26T04:40:22Z</time>
      </trkpt>
      <trkpt lat="48.9770549" lon="11.6553817">
        <ele>360.6000000</ele>
        <time>2009-11-26T04:41:14Z</time>
      </trkpt>
      <trkpt lat="48.9769081" lon="11.6528882">
        <ele>359.2000000</ele>
        <time>2009-11-26T04:42:05Z</time>
      </trkpt>
      <trkpt lat="48.9772530" lon="11.6505133">
        <ele>357.7000000</ele>
        <time>2009-11-26T04:42:54Z</time>
      </trkpt>
      <trkpt lat="48.9778099" lon="11.6480203">
        <ele>355.8000000</ele>
        <time>2009-11-26T04:43:47Z</time>
      </trkpt>
      <trkpt lat="48.9782584" lon="11.6468522">
        <ele>358.7000000</ele>
        <time>2009-11-26T04:44:15Z</time>
      </trkpt>
      <trkpt lat="48.9791587" lon="11.6450558">
        <ele>361.6000000</ele>
        <time>2009-11-26T04:45:01Z</time>
      </trkpt>
      <trkpt lat="48.9800089" lon="11.6439536">
        <ele>364.0000000</ele>
        <time>2009-11-26T04:45:35Z</time>
      </trkpt>
      <trkpt lat="48.9807906" lon="11.6429351">
        <ele>366.9000000</ele>
        <time>2009-11-26T04:46:07Z</time>
      </trkpt>
      <trkpt lat="48.9819379" lon="11.6412957">
        <ele>369.3000000</ele>
        <time>2009-11-26T04:46:56Z</time>
      </trkpt>
      <trkpt lat="48.9826956" lon="11.6405153">
        <ele>372.6000000</ele>
        <time>2009-11-26T04:47:24Z</time>
      </trkpt>
      <trkpt lat="48.9838945" lon="11.6395301">
        <ele>374.6000000</ele>
        <time>2009-11-26T04:48:06Z</time>
      </trkpt>
      <trkpt lat="48.9852710" lon="11.6383266">
        <ele>375.1000000</ele>
        <time>2009-11-26T04:48:55Z</time>
      </trkpt>
      <trkpt lat="48.9868508" lon="11.6374474">
        <ele>375.1000000</ele>
        <time>2009-11-26T04:49:47Z</time>
      </trkpt>
      <trkpt lat="48.9880362" lon="11.6367775">
        <ele>373.6000000</ele>
        <time>2009-11-26T04:50:26Z</time>
      </trkpt>
      <trkpt lat="48.9888512" lon="11.6361527">
        <ele>370.2000000</ele>
        <time>2009-11-26T04:50:54Z</time>
      </trkpt>
      <trkpt lat="48.9896576" lon="11.6354218">
        <ele>367.4000000</ele>
        <time>2009-11-26T04:51:23Z</time>
      </trkpt>
      <trkpt lat="48.9901280" lon="11.6350085">
        <ele>363.5000000</ele>
        <time>2009-11-26T04:51:40Z</time>
      </trkpt>
      <trkpt lat="48.9902224" lon="11.6349250">
        <ele>363.0000000</ele>
        <time>2009-11-26T04:51:44Z</time>
      </trkpt>
      <trkpt lat="48.9916406" lon="11.6337468">
        <ele>361.1000000</ele>
        <time>2009-11-26T04:52:34Z</time>
      </trkpt>
      <trkpt lat="48.9932582" lon="11.6327999">
        <ele>359.2000000</ele>
        <time>2009-11-26T04:53:27Z</time>
      </trkpt>
      <trkpt lat="48.9945085" lon="11.6322681">
        <ele>358.7000000</ele>
        <time>2009-11-26T04:54:07Z</time>
      </trkpt>
      <trkpt lat="48.9961757" lon="11.6316088">
        <ele>358.2000000</ele>
        <time>2009-11-26T04:55:01Z</time>
      </trkpt>
      <trkpt lat="48.9973957" lon="11.6312339">
        <ele>358.7000000</ele>
        <time>2009-11-26T04:55:39Z</time>
      </trkpt>
      <trkpt lat="48.9988820" lon="11.6311213">
        <ele>358.2000000</ele>
        <time>2009-11-26T04:56:25Z</time>
      </trkpt>
      <trkpt lat="49.0002448" lon="11.6310894">
        <ele>360.2000000</ele>
        <time>2009-11-26T04:57:07Z</time>
      </trkpt>
      <trkpt lat="49.0013017" lon="11.6307050">
        <ele>360.6000000</ele>
        <time>2009-11-26T04:57:41Z</time>
      </trkpt>
      <trkpt lat="49.0026924" lon="11.6300334">
        <ele>362.1000000</ele>
        <time>2009-11-26T04:58:26Z</time>
      </trkpt>
      <trkpt lat="49.0038410" lon="11.6294312">
        <ele>360.2000000</ele>
        <time>2009-11-26T04:59:04Z</time>
      </trkpt>
      <trkpt lat="49.0047204" lon="11.6288192">
        <ele>360.2000000</ele>
        <time>2009-11-26T04:59:33Z</time>
      </trkpt>
      <trkpt lat="49.0056296" lon="11.6279741">
        <ele>360.2000000</ele>
        <time>2009-11-26T05:00:06Z</time>
      </trkpt>
      <trkpt lat="49.0059284" lon="11.6277109">
        <ele>360.2000000</ele>
        <time>2009-11-26T05:00:17Z</time>
      </trkpt>
      <trkpt lat="49.0063999" lon="11.6272472">
        <ele>360.2000000</ele>
        <time>2009-11-26T05:00:34Z</time>
      </trkpt>
      <trkpt lat="49.0070079" lon="11.6265465">
        <ele>360.2000000</ele>
        <time>2009-11-26T05:00:58Z</time>
      </trkpt>
      <trkpt lat="49.0077722" lon="11.6251913">
        <ele>360.6000000</ele>
        <time>2009-11-26T05:01:34Z</time>
      </trkpt>
      <trkpt lat="49.0079837" lon="11.6247572">
        <ele>360.6000000</ele>
        <time>2009-11-26T05:01:45Z</time>
      </trkpt>
      <trkpt lat="49.0085833" lon="11.6231406">
        <ele>360.6000000</ele>
        <time>2009-11-26T05:02:23Z</time>
      </trkpt>
      <trkpt lat="49.0089120" lon="11.6216701">
        <ele>361.1000000</ele>
        <time>2009-11-26T05:02:54Z</time>
      </trkpt>
      <trkpt lat="49.0093772" lon="11.6201396">
        <ele>360.2000000</ele>
        <time>2009-11-26T05:03:29Z</time>
      </trkpt>
      <trkpt lat="49.0101393" lon="11.6189299">
        <ele>359.7000000</ele>
        <time>2009-11-26T05:04:03Z</time>
      </trkpt>
      <trkpt lat="49.0114225" lon="11.6175056">
        <ele>361.6000000</ele>
        <time>2009-11-26T05:04:52Z</time>
      </trkpt>
      <trkpt lat="49.0122259" lon="11.6165473">
        <ele>361.6000000</ele>
        <time>2009-11-26T05:05:23Z</time>
      </trkpt>
      <trkpt lat="49.0133335" lon="11.6151715">
        <ele>362.1000000</ele>
        <time>2009-11-26T05:06:07Z</time>
      </trkpt>
      <trkpt lat="49.0140714" lon="11.6146482">
        <ele>362.1000000</ele>
        <time>2009-11-26T05:06:33Z</time>
      </trkpt>
      <trkpt lat="49.0149148" lon="11.6145765">
        <ele>362.1000000</ele>
        <time>2009-11-26T05:06:59Z</time>
      </trkpt>
      <trkpt lat="49.0162270" lon="11.6147186">
        <ele>361.6000000</ele>
        <time>2009-11-26T05:07:39Z</time>
      </trkpt>
      <trkpt lat="49.0174178" lon="11.6150942">
        <ele>361.1000000</ele>
        <time>2009-11-26T05:08:17Z</time>
      </trkpt>
      <trkpt lat="49.0188600" lon="11.6161099">
        <ele>361.6000000</ele>
        <time>2009-11-26T05:09:06Z</time>
      </trkpt>
      <trkpt lat="49.0191556" lon="11.6162790">
        <ele>361.6000000</ele>
        <time>2009-11-26T05:09:16Z</time>
      </trkpt>
      <trkpt lat="49.0199194" lon="11.6164123">
        <ele>363.5000000</ele>
        <time>2009-11-26T05:09:40Z</time>
      </trkpt>
      <trkpt lat="49.0201628" lon="11.6164421">
        <ele>363.5000000</ele>
        <time>2009-11-26T05:09:47Z</time>
      </trkpt>
      <trkpt lat="49.0211300" lon="11.6166389">
        <ele>365.4000000</ele>
        <time>2009-11-26T05:10:17Z</time>
      </trkpt>
      <trkpt lat="49.0212444" lon="11.6166959">
        <ele>365.4000000</ele>
        <time>2009-11-26T05:10:21Z</time>
      </trkpt>
      <trkpt lat="49.0217058" lon="11.6164783">
        <ele>364.5000000</ele>
        <time>2009-11-26T05:10:36Z</time>
      </trkpt>
      <trkpt lat="49.0224450" lon="11.6156779">
        <ele>365.0000000</ele>
        <time>2009-11-26T05:11:04Z</time>
      </trkpt>
      <trkpt lat="49.0226194" lon="11.6152328">
        <ele>366.4000000</ele>
        <time>2009-11-26T05:11:15Z</time>
      </trkpt>
      <trkpt lat="49.0227388" lon="11.6151573">
        <ele>367.8000000</ele>
        <time>2009-11-26T05:11:19Z</time>
      </trkpt>
      <trkpt lat="49.0228663" lon="11.6150300">
        <ele>368.8000000</ele>
        <time>2009-11-26T05:11:23Z</time>
      </trkpt>
      <trkpt lat="49.0233613" lon="11.6146017">
        <ele>371.7000000</ele>
        <time>2009-11-26T05:11:41Z</time>
      </trkpt>
      <trkpt lat="49.0233961" lon="11.6145725">
        <ele>371.7000000</ele>
        <time>2009-11-26T05:11:42Z</time>
      </trkpt>
      <trkpt lat="49.0241961" lon="11.6139778">
        <ele>374.6000000</ele>
        <time>2009-11-26T05:12:10Z</time>
      </trkpt>
      <trkpt lat="49.0244862" lon="11.6137800">
        <ele>375.1000000</ele>
        <time>2009-11-26T05:12:19Z</time>
      </trkpt>
      <trkpt lat="49.0248595" lon="11.6135267">
        <ele>377.0000000</ele>
        <time>2009-11-26T05:12:32Z</time>
      </trkpt>
      <trkpt lat="49.0254388" lon="11.6131122">
        <ele>378.9000000</ele>
        <time>2009-11-26T05:12:52Z</time>
      </trkpt>
      <trkpt lat="49.0255490" lon="11.6130282">
        <ele>379.4000000</ele>
        <time>2009-11-26T05:12:56Z</time>
      </trkpt>
      <trkpt lat="49.0257127" lon="11.6129368">
        <ele>379.9000000</ele>
        <time>2009-11-26T05:13:01Z</time>
      </trkpt>
      <trkpt lat="49.0258756" lon="11.6128181">
        <ele>379.9000000</ele>
        <time>2009-11-26T05:13:07Z</time>
      </trkpt>
      <trkpt lat="49.0261250" lon="11.6126714">
        <ele>380.8000000</ele>
        <time>2009-11-26T05:13:15Z</time>
      </trkpt>
      <trkpt lat="49.0262464" lon="11.6125801">
        <ele>381.8000000</ele>
        <time>2009-11-26T05:13:19Z</time>
      </trkpt>
      <trkpt lat="49.0264007" lon="11.6124687">
        <ele>382.7000000</ele>
        <time>2009-11-26T05:13:24Z</time>
      </trkpt>
      <trkpt lat="49.0264368" lon="11.6124311">
        <ele>382.7000000</ele>
        <time>2009-11-26T05:13:26Z</time>
      </trkpt>
      <trkpt lat="49.0268358" lon="11.6120240">
        <ele>384.7000000</ele>
        <time>2009-11-26T05:13:41Z</time>
      </trkpt>
      <trkpt lat="49.0272631" lon="11.6115716">
        <ele>387.1000000</ele>
        <time>2009-11-26T05:13:57Z</time>
      </trkpt>
      <trkpt lat="49.0276978" lon="11.6111004">
        <ele>390.4000000</ele>
        <time>2009-11-26T05:14:13Z</time>
      </trkpt>
      <trkpt lat="49.0277310" lon="11.6110746">
        <ele>390.9000000</ele>
        <time>2009-11-26T05:14:14Z</time>
      </trkpt>
      <trkpt lat="49.0280723" lon="11.6106853">
        <ele>392.4000000</ele>
        <time>2009-11-26T05:14:27Z</time>
      </trkpt>
      <trkpt lat="49.0285541" lon="11.6101905">
        <ele>394.3000000</ele>
        <time>2009-11-26T05:14:45Z</time>
      </trkpt>
      <trkpt lat="49.0287721" lon="11.6099726">
        <ele>395.7000000</ele>
        <time>2009-11-26T05:14:53Z</time>
      </trkpt>
      <trkpt lat="49.0296802" lon="11.6087899">
        <ele>396.2000000</ele>
        <time>2009-11-26T05:15:30Z</time>
      </trkpt>
      <trkpt lat="49.0301055" lon="11.6081155">
        <ele>393.3000000</ele>
        <time>2009-11-26T05:15:49Z</time>
      </trkpt>
      <trkpt lat="49.0305946" lon="11.6072297">
        <ele>390.0000000</ele>
        <time>2009-11-26T05:16:13Z</time>
      </trkpt>
      <trkpt lat="49.0306510" lon="11.6071242">
        <ele>390.0000000</ele>
        <time>2009-11-26T05:16:16Z</time>
      </trkpt>
      <trkpt lat="49.0312281" lon="11.6060103">
        <ele>386.6000000</ele>
        <time>2009-11-26T05:16:44Z</time>
      </trkpt>
      <trkpt lat="49.0313546" lon="11.6056146">
        <ele>385.1000000</ele>
        <time>2009-11-26T05:16:53Z</time>
      </trkpt>
      <trkpt lat="49.0316341" lon="11.6040671">
        <ele>381.8000000</ele>
        <time>2009-11-26T05:17:26Z</time>
      </trkpt>
      <trkpt lat="49.0317527" lon="11.6027780">
        <ele>378.4000000</ele>
        <time>2009-11-26T05:17:52Z</time>
      </trkpt>
      <trkpt lat="49.0318238" lon="11.6020319">
        <ele>375.1000000</ele>
        <time>2009-11-26T05:18:08Z</time>
      </trkpt>
      <trkpt lat="49.0318657" lon="11.6013883">
        <ele>373.6000000</ele>
        <time>2009-11-26T05:18:21Z</time>
      </trkpt>
      <trkpt lat="49.0318948" lon="11.6009207">
        <ele>372.2000000</ele>
        <time>2009-11-26T05:18:30Z</time>
      </trkpt>
      <trkpt lat="49.0318531" lon="11.5996086">
        <ele>369.3000000</ele>
        <time>2009-11-26T05:18:57Z</time>
      </trkpt>
      <trkpt lat="49.0315083" lon="11.5981926">
        <ele>366.4000000</ele>
        <time>2009-11-26T05:19:27Z</time>
      </trkpt>
      <trkpt lat="49.0312432" lon="11.5978287">
        <ele>365.4000000</ele>
        <time>2009-11-26T05:19:38Z</time>
      </trkpt>
      <trkpt lat="49.0312576" lon="11.5975187">
        <ele>365.4000000</ele>
        <time>2009-11-26T05:19:45Z</time>
      </trkpt>
      <trkpt lat="49.0312859" lon="11.5975093">
        <ele>365.9000000</ele>
        <time>2009-11-26T05:19:46Z</time>
      </trkpt>
      <trkpt lat="49.0317404" lon="11.5971230">
        <ele>366.9000000</ele>
        <time>2009-11-26T05:20:02Z</time>
      </trkpt>
      <trkpt lat="49.0322040" lon="11.5966612">
        <ele>365.9000000</ele>
        <time>2009-11-26T05:20:19Z</time>
      </trkpt>
      <trkpt lat="49.0322636" lon="11.5963023">
        <ele>365.9000000</ele>
        <time>2009-11-26T05:20:26Z</time>
      </trkpt>
      <trkpt lat="49.0322963" lon="11.5955166">
        <ele>366.4000000</ele>
        <time>2009-11-26T05:20:42Z</time>
      </trkpt>
      <trkpt lat="49.0331370" lon="11.5934683">
        <ele>365.4000000</ele>
        <time>2009-11-26T05:21:31Z</time>
      </trkpt>
      <trkpt lat="49.0337849" lon="11.5917043">
        <ele>365.0000000</ele>
        <time>2009-11-26T05:22:12Z</time>
      </trkpt>
      <trkpt lat="49.0339590" lon="11.5911316">
        <ele>365.4000000</ele>
        <time>2009-11-26T05:22:25Z</time>
      </trkpt>
      <trkpt lat="49.0340749" lon="11.5906479">
        <ele>364.5000000</ele>
        <time>2009-11-26T05:22:36Z</time>
      </trkpt>
      <trkpt lat="49.0341647" lon="11.5904008">
        <ele>364.5000000</ele>
        <time>2009-11-26T05:22:41Z</time>
      </trkpt>
      <trkpt lat="49.0343242" lon="11.5895660">
        <ele>365.4000000</ele>
        <time>2009-11-26T05:22:59Z</time>
      </trkpt>
      <trkpt lat="49.0345654" lon="11.5890331">
        <ele>365.0000000</ele>
        <time>2009-11-26T05:23:12Z</time>
      </trkpt>
      <trkpt lat="49.0347056" lon="11.5886439">
        <ele>365.4000000</ele>
        <time>2009-11-26T05:23:21Z</time>
      </trkpt>
      <trkpt lat="49.0347987" lon="11.5880870">
        <ele>364.5000000</ele>
        <time>2009-11-26T05:23:33Z</time>
      </trkpt>
      <trkpt lat="49.0348011" lon="11.5878675">
        <ele>365.0000000</ele>
        <time>2009-11-26T05:23:37Z</time>
      </trkpt>
      <trkpt lat="49.0349365" lon="11.5873294">
        <ele>365.0000000</ele>
        <time>2009-11-26T05:23:49Z</time>
      </trkpt>
      <trkpt lat="49.0350488" lon="11.5872359">
        <ele>364.5000000</ele>
        <time>2009-11-26T05:23:53Z</time>
      </trkpt>
      <trkpt lat="49.0351454" lon="11.5873516">
        <ele>364.5000000</ele>
        <time>2009-11-26T05:23:57Z</time>
      </trkpt>
      <trkpt lat="49.0351992" lon="11.5874198">
        <ele>364.5000000</ele>
        <time>2009-11-26T05:23:59Z</time>
      </trkpt>
      <trkpt lat="49.0351290" lon="11.5875683">
        <ele>364.0000000</ele>
        <time>2009-11-26T05:24:02Z</time>
      </trkpt>
      <trkpt lat="49.0351391" lon="11.5875888">
        <ele>365.4000000</ele>
        <time>2009-11-26T05:24:03Z</time>
      </trkpt>
      <trkpt lat="49.0350768" lon="11.5877175">
        <ele>365.9000000</ele>
        <time>2009-11-26T05:24:06Z</time>
      </trkpt>
      <trkpt lat="49.0350743" lon="11.5877185">
        <ele>365.4000000</ele>
        <time>2009-11-26T05:24:06Z</time>
      </trkpt>
      <trkpt lat="49.0350601" lon="11.5876868">
        <ele>366.4000000</ele>
        <time>2009-11-26T05:24:07Z</time>
      </trkpt>
      <trkpt lat="49.0350696" lon="11.5877094">
        <ele>366.4000000</ele>
        <time>2009-11-26T05:24:08Z</time>
      </trkpt>
      <trkpt lat="49.0350800" lon="11.5876552">
        <ele>367.4000000</ele>
        <time>2009-11-26T05:24:09Z</time>
      </trkpt>
      <trkpt lat="49.0350349" lon="11.5874230">
        <ele>367.4000000</ele>
        <time>2009-11-26T05:24:14Z</time>
      </trkpt>
      <trkpt lat="49.0350661" lon="11.5872195">
        <ele>367.8000000</ele>
        <time>2009-11-26T05:24:18Z</time>
      </trkpt>
      <trkpt lat="49.0355286" lon="11.5864247">
        <ele>368.8000000</ele>
        <time>2009-11-26T05:24:39Z</time>
      </trkpt>
      <trkpt lat="49.0356431" lon="11.5857945">
        <ele>368.3000000</ele>
        <time>2009-11-26T05:24:53Z</time>
      </trkpt>
      <trkpt lat="49.0356905" lon="11.5855609">
        <ele>368.3000000</ele>
        <time>2009-11-26T05:24:58Z</time>
      </trkpt>
      <trkpt lat="49.0356755" lon="11.5853579">
        <ele>368.3000000</ele>
        <time>2009-11-26T05:25:02Z</time>
      </trkpt>
      <trkpt lat="49.0356385" lon="11.5843794">
        <ele>368.3000000</ele>
        <time>2009-11-26T05:25:22Z</time>
      </trkpt>
      <trkpt lat="49.0357040" lon="11.5832528">
        <ele>370.2000000</ele>
        <time>2009-11-26T05:25:45Z</time>
      </trkpt>
      <trkpt lat="49.0355883" lon="11.5825798">
        <ele>369.3000000</ele>
        <time>2009-11-26T05:25:59Z</time>
      </trkpt>
      <trkpt lat="49.0351251" lon="11.5817625">
        <ele>369.3000000</ele>
        <time>2009-11-26T05:26:21Z</time>
      </trkpt>
      <trkpt lat="49.0345915" lon="11.5805611">
        <ele>368.8000000</ele>
        <time>2009-11-26T05:26:50Z</time>
      </trkpt>
      <trkpt lat="49.0340551" lon="11.5790374">
        <ele>367.4000000</ele>
        <time>2009-11-26T05:27:25Z</time>
      </trkpt>
      <trkpt lat="49.0338275" lon="11.5781283">
        <ele>366.9000000</ele>
        <time>2009-11-26T05:27:45Z</time>
      </trkpt>
      <trkpt lat="49.0337700" lon="11.5777679">
        <ele>367.8000000</ele>
        <time>2009-11-26T05:27:52Z</time>
      </trkpt>
      <trkpt lat="49.0333209" lon="11.5763574">
        <ele>367.4000000</ele>
        <time>2009-11-26T05:28:24Z</time>
      </trkpt>
      <trkpt lat="49.0326790" lon="11.5744962">
        <ele>366.9000000</ele>
        <time>2009-11-26T05:29:07Z</time>
      </trkpt>
      <trkpt lat="49.0325235" lon="11.5739485">
        <ele>365.9000000</ele>
        <time>2009-11-26T05:29:19Z</time>
      </trkpt>
      <trkpt lat="49.0325096" lon="11.5739141">
        <ele>365.4000000</ele>
        <time>2009-11-26T05:29:20Z</time>
      </trkpt>
      <trkpt lat="49.0321942" lon="11.5736590">
        <ele>365.4000000</ele>
        <time>2009-11-26T05:29:31Z</time>
      </trkpt>
      <trkpt lat="49.0319812" lon="11.5735273">
        <ele>365.0000000</ele>
        <time>2009-11-26T05:29:38Z</time>
      </trkpt>
      <trkpt lat="49.0318418" lon="11.5731774">
        <ele>364.5000000</ele>
        <time>2009-11-26T05:29:46Z</time>
      </trkpt>
      <trkpt lat="49.0317580" lon="11.5715779">
        <ele>366.4000000</ele>
        <time>2009-11-26T05:30:19Z</time>
      </trkpt>
      <trkpt lat="49.0313928" lon="11.5700448">
        <ele>368.3000000</ele>
        <time>2009-11-26T05:30:52Z</time>
      </trkpt>
      <trkpt lat="49.0308893" lon="11.5687791">
        <ele>369.3000000</ele>
        <time>2009-11-26T05:31:22Z</time>
      </trkpt>
      <trkpt lat="49.0301639" lon="11.5675938">
        <ele>369.3000000</ele>
        <time>2009-11-26T05:31:55Z</time>
      </trkpt>
      <trkpt lat="49.0295796" lon="11.5669419">
        <ele>367.8000000</ele>
        <time>2009-11-26T05:32:17Z</time>
      </trkpt>
      <trkpt lat="49.0294672" lon="11.5666941">
        <ele>367.4000000</ele>
        <time>2009-11-26T05:32:23Z</time>
      </trkpt>
      <trkpt lat="49.0293806" lon="11.5663624">
        <ele>367.4000000</ele>
        <time>2009-11-26T05:32:30Z</time>
      </trkpt>
      <trkpt lat="49.0293694" lon="11.5663780">
        <ele>367.4000000</ele>
        <time>2009-11-26T05:32:31Z</time>
      </trkpt>
      <trkpt lat="49.0294475" lon="11.5666038">
        <ele>366.4000000</ele>
        <time>2009-11-26T05:32:36Z</time>
      </trkpt>
      <trkpt lat="49.0295689" lon="11.5665124">
        <ele>366.9000000</ele>
        <time>2009-11-26T05:32:40Z</time>
      </trkpt>
      <trkpt lat="49.0299246" lon="11.5653278">
        <ele>366.9000000</ele>
        <time>2009-11-26T05:33:07Z</time>
      </trkpt>
      <trkpt lat="49.0305167" lon="11.5638361">
        <ele>367.4000000</ele>
        <time>2009-11-26T05:33:42Z</time>
      </trkpt>
      <trkpt lat="49.0309782" lon="11.5632413">
        <ele>368.3000000</ele>
        <time>2009-11-26T05:34:01Z</time>
      </trkpt>
      <trkpt lat="49.0314889" lon="11.5624033">
        <ele>368.3000000</ele>
        <time>2009-11-26T05:34:24Z</time>
      </trkpt>
      <trkpt lat="49.0316250" lon="11.5621634">
        <ele>368.8000000</ele>
        <time>2009-11-26T05:34:30Z</time>
      </trkpt>
      <trkpt lat="49.0317339" lon="11.5618296">
        <ele>368.8000000</ele>
        <time>2009-11-26T05:34:38Z</time>
      </trkpt>
      <trkpt lat="49.0317728" lon="11.5611627">
        <ele>369.8000000</ele>
        <time>2009-11-26T05:34:51Z</time>
      </trkpt>
      <trkpt lat="49.0317072" lon="11.5607682">
        <ele>371.2000000</ele>
        <time>2009-11-26T05:35:00Z</time>
      </trkpt>
      <trkpt lat="49.0317267" lon="11.5606508">
        <ele>371.2000000</ele>
        <time>2009-11-26T05:35:02Z</time>
      </trkpt>
      <trkpt lat="49.0320211" lon="11.5596945">
        <ele>372.6000000</ele>
        <time>2009-11-26T05:35:24Z</time>
      </trkpt>
      <trkpt lat="49.0324578" lon="11.5583873">
        <ele>373.6000000</ele>
        <time>2009-11-26T05:35:53Z</time>
      </trkpt>
      <trkpt lat="49.0326605" lon="11.5580805">
        <ele>374.1000000</ele>
        <time>2009-11-26T05:36:02Z</time>
      </trkpt>
      <trkpt lat="49.0333346" lon="11.5576418">
        <ele>376.5000000</ele>
        <time>2009-11-26T05:36:25Z</time>
      </trkpt>
      <trkpt lat="49.0334618" lon="11.5573972">
        <ele>377.0000000</ele>
        <time>2009-11-26T05:36:31Z</time>
      </trkpt>
      <trkpt lat="49.0338966" lon="11.5555593">
        <ele>377.5000000</ele>
        <time>2009-11-26T05:37:11Z</time>
      </trkpt>
      <trkpt lat="49.0340087" lon="11.5549679">
        <ele>377.9000000</ele>
        <time>2009-11-26T05:37:23Z</time>
      </trkpt>
      <trkpt lat="49.0339350" lon="11.5547006">
        <ele>377.0000000</ele>
        <time>2009-11-26T05:37:29Z</time>
      </trkpt>
      <trkpt lat="49.0338822" lon="11.5547150">
        <ele>377.5000000</ele>
        <time>2009-11-26T05:37:31Z</time>
      </trkpt>
      <trkpt lat="49.0338479" lon="11.5547652">
        <ele>377.5000000</ele>
        <time>2009-11-26T05:37:32Z</time>
      </trkpt>
      <trkpt lat="49.0338278" lon="11.5546363">
        <ele>378.9000000</ele>
        <time>2009-11-26T05:37:35Z</time>
      </trkpt>
      <trkpt lat="49.0340831" lon="11.5533004">
        <ele>380.8000000</ele>
        <time>2009-11-26T05:38:03Z</time>
      </trkpt>
      <trkpt lat="49.0342994" lon="11.5517215">
        <ele>381.8000000</ele>
        <time>2009-11-26T05:38:36Z</time>
      </trkpt>
      <trkpt lat="49.0344686" lon="11.5496975">
        <ele>383.7000000</ele>
        <time>2009-11-26T05:39:17Z</time>
      </trkpt>
      <trkpt lat="49.0345035" lon="11.5472668">
        <ele>384.2000000</ele>
        <time>2009-11-26T05:40:06Z</time>
      </trkpt>
      <trkpt lat="49.0344027" lon="11.5448246">
        <ele>383.7000000</ele>
        <time>2009-11-26T05:40:56Z</time>
      </trkpt>
      <trkpt lat="49.0343118" lon="11.5431090">
        <ele>383.2000000</ele>
        <time>2009-11-26T05:41:31Z</time>
      </trkpt>
      <trkpt lat="49.0341895" lon="11.5407499">
        <ele>384.7000000</ele>
        <time>2009-11-26T05:42:19Z</time>
      </trkpt>
      <trkpt lat="49.0340351" lon="11.5381304">
        <ele>383.2000000</ele>
        <time>2009-11-26T05:43:12Z</time>
      </trkpt>
      <trkpt lat="49.0338003" lon="11.5358050">
        <ele>382.7000000</ele>
        <time>2009-11-26T05:44:00Z</time>
      </trkpt>
      <trkpt lat="49.0335247" lon="11.5339650">
        <ele>385.6000000</ele>
        <time>2009-11-26T05:44:38Z</time>
      </trkpt>
      <trkpt lat="49.0332453" lon="11.5324778">
        <ele>389.0000000</ele>
        <time>2009-11-26T05:45:10Z</time>
      </trkpt>
      <trkpt lat="49.0329305" lon="11.5310973">
        <ele>392.4000000</ele>
        <time>2009-11-26T05:45:39Z</time>
      </trkpt>
      <trkpt lat="49.0325029" lon="11.5294403">
        <ele>394.8000000</ele>
        <time>2009-11-26T05:46:15Z</time>
      </trkpt>
      <trkpt lat="49.0321216" lon="11.5279655">
        <ele>398.1000000</ele>
        <time>2009-11-26T05:46:47Z</time>
      </trkpt>
      <trkpt lat="49.0321054" lon="11.5278966">
        <ele>398.1000000</ele>
        <time>2009-11-26T05:46:49Z</time>
      </trkpt>
      <trkpt lat="49.0318259" lon="11.5262793">
        <ele>400.5000000</ele>
        <time>2009-11-26T05:47:23Z</time>
      </trkpt>
      <trkpt lat="49.0318463" lon="11.5246366">
        <ele>402.4000000</ele>
        <time>2009-11-26T05:47:56Z</time>
      </trkpt>
      <trkpt lat="49.0322646" lon="11.5230217">
        <ele>402.0000000</ele>
        <time>2009-11-26T05:48:31Z</time>
      </trkpt>
      <trkpt lat="49.0331141" lon="11.5216499">
        <ele>401.5000000</ele>
        <time>2009-11-26T05:49:10Z</time>
      </trkpt>
      <trkpt lat="49.0346025" lon="11.5200874">
        <ele>398.6000000</ele>
        <time>2009-11-26T05:50:05Z</time>
      </trkpt>
      <trkpt lat="49.0356470" lon="11.5187076">
        <ele>395.2000000</ele>
        <time>2009-11-26T05:50:48Z</time>
      </trkpt>
      <trkpt lat="49.0367937" lon="11.5163640">
        <ele>392.4000000</ele>
        <time>2009-11-26T05:51:47Z</time>
      </trkpt>
      <trkpt lat="49.0376939" lon="11.5135896">
        <ele>391.4000000</ele>
        <time>2009-11-26T05:52:50Z</time>
      </trkpt>
      <trkpt lat="49.0382731" lon="11.5113456">
        <ele>391.9000000</ele>
        <time>2009-11-26T05:53:39Z</time>
      </trkpt>
      <trkpt lat="49.0387889" lon="11.5090344">
        <ele>392.4000000</ele>
        <time>2009-11-26T05:54:29Z</time>
      </trkpt>
      <trkpt lat="49.0392549" lon="11.5065742">
        <ele>392.8000000</ele>
        <time>2009-11-26T05:55:21Z</time>
      </trkpt>
      <trkpt lat="49.0393581" lon="11.5045670">
        <ele>393.3000000</ele>
        <time>2009-11-26T05:56:01Z</time>
      </trkpt>
      <trkpt lat="49.0393846" lon="11.5019992">
        <ele>394.3000000</ele>
        <time>2009-11-26T05:56:53Z</time>
      </trkpt>
      <trkpt lat="49.0394628" lon="11.4998808">
        <ele>395.2000000</ele>
        <time>2009-11-26T05:57:36Z</time>
      </trkpt>
      <trkpt lat="49.0394676" lon="11.4977029">
        <ele>394.3000000</ele>
        <time>2009-11-26T05:58:21Z</time>
      </trkpt>
      <trkpt lat="49.0397302" lon="11.4953806">
        <ele>393.8000000</ele>
        <time>2009-11-26T05:59:08Z</time>
      </trkpt>
      <trkpt lat="49.0400506" lon="11.4926863">
        <ele>392.8000000</ele>
        <time>2009-11-26T06:00:04Z</time>
      </trkpt>
      <trkpt lat="49.0400760" lon="11.4902491">
        <ele>391.4000000</ele>
        <time>2009-11-26T06:00:53Z</time>
      </trkpt>
      <trkpt lat="49.0399139" lon="11.4881911">
        <ele>390.0000000</ele>
        <time>2009-11-26T06:01:35Z</time>
      </trkpt>
      <trkpt lat="49.0401855" lon="11.4867449">
        <ele>386.6000000</ele>
        <time>2009-11-26T06:02:06Z</time>
      </trkpt>
      <trkpt lat="49.0402175" lon="11.4852949">
        <ele>385.6000000</ele>
        <time>2009-11-26T06:02:35Z</time>
      </trkpt>
      <trkpt lat="49.0400084" lon="11.4833237">
        <ele>383.7000000</ele>
        <time>2009-11-26T06:03:16Z</time>
      </trkpt>
      <trkpt lat="49.0399750" lon="11.4815160">
        <ele>381.8000000</ele>
        <time>2009-11-26T06:03:52Z</time>
      </trkpt>
      <trkpt lat="49.0399664" lon="11.4813789">
        <ele>381.3000000</ele>
        <time>2009-11-26T06:03:55Z</time>
      </trkpt>
      <trkpt lat="49.0398265" lon="11.4792167">
        <ele>378.4000000</ele>
        <time>2009-11-26T06:04:39Z</time>
      </trkpt>
      <trkpt lat="49.0394603" lon="11.4779348">
        <ele>377.9000000</ele>
        <time>2009-11-26T06:05:08Z</time>
      </trkpt>
      <trkpt lat="49.0391205" lon="11.4768004">
        <ele>376.5000000</ele>
        <time>2009-11-26T06:05:33Z</time>
      </trkpt>
      <trkpt lat="49.0391361" lon="11.4762017">
        <ele>376.5000000</ele>
        <time>2009-11-26T06:05:45Z</time>
      </trkpt>
      <trkpt lat="49.0395305" lon="11.4750101">
        <ele>375.1000000</ele>
        <time>2009-11-26T06:06:12Z</time>
      </trkpt>
      <trkpt lat="49.0396165" lon="11.4746854">
        <ele>374.6000000</ele>
        <time>2009-11-26T06:06:19Z</time>
      </trkpt>
      <trkpt lat="49.0397004" lon="11.4743644">
        <ele>373.1000000</ele>
        <time>2009-11-26T06:06:26Z</time>
      </trkpt>
      <trkpt lat="49.0395561" lon="11.4742860">
        <ele>373.1000000</ele>
        <time>2009-11-26T06:06:31Z</time>
      </trkpt>
      <trkpt lat="49.0393430" lon="11.4739504">
        <ele>374.6000000</ele>
        <time>2009-11-26T06:06:40Z</time>
      </trkpt>
      <trkpt lat="49.0392425" lon="11.4737076">
        <ele>374.6000000</ele>
        <time>2009-11-26T06:06:46Z</time>
      </trkpt>
      <trkpt lat="49.0392836" lon="11.4735861">
        <ele>374.6000000</ele>
        <time>2009-11-26T06:06:49Z</time>
      </trkpt>
      <trkpt lat="49.0395985" lon="11.4733786">
        <ele>375.1000000</ele>
        <time>2009-11-26T06:07:00Z</time>
      </trkpt>
      <trkpt lat="49.0397111" lon="11.4732952">
        <ele>375.1000000</ele>
        <time>2009-11-26T06:07:03Z</time>
      </trkpt>
      <trkpt lat="49.0398627" lon="11.4730661">
        <ele>375.5000000</ele>
        <time>2009-11-26T06:07:10Z</time>
      </trkpt>
      <trkpt lat="49.0400006" lon="11.4727913">
        <ele>376.5000000</ele>
        <time>2009-11-26T06:07:17Z</time>
      </trkpt>
      <trkpt lat="49.0397870" lon="11.4724745">
        <ele>374.6000000</ele>
        <time>2009-11-26T06:07:26Z</time>
      </trkpt>
      <trkpt lat="49.0398208" lon="11.4721214">
        <ele>374.1000000</ele>
        <time>2009-11-26T06:07:33Z</time>
      </trkpt>
      <trkpt lat="49.0399638" lon="11.4720421">
        <ele>374.1000000</ele>
        <time>2009-11-26T06:07:38Z</time>
      </trkpt>
      <trkpt lat="49.0406085" lon="11.4717096">
        <ele>375.5000000</ele>
        <time>2009-11-26T06:07:59Z</time>
      </trkpt>
      <trkpt lat="49.0412883" lon="11.4714480">
        <ele>377.0000000</ele>
        <time>2009-11-26T06:08:21Z</time>
      </trkpt>
      <trkpt lat="49.0416297" lon="11.4707114">
        <ele>377.0000000</ele>
        <time>2009-11-26T06:08:39Z</time>
      </trkpt>
      <trkpt lat="49.0420903" lon="11.4696456">
        <ele>377.5000000</ele>
        <time>2009-11-26T06:09:05Z</time>
      </trkpt>
      <trkpt lat="49.0420999" lon="11.4691180">
        <ele>376.5000000</ele>
        <time>2009-11-26T06:09:16Z</time>
      </trkpt>
      <trkpt lat="49.0423253" lon="11.4684627">
        <ele>376.5000000</ele>
        <time>2009-11-26T06:09:31Z</time>
      </trkpt>
      <trkpt lat="49.0431499" lon="11.4676761">
        <ele>377.0000000</ele>
        <time>2009-11-26T06:10:01Z</time>
      </trkpt>
      <trkpt lat="49.0433583" lon="11.4674650">
        <ele>376.5000000</ele>
        <time>2009-11-26T06:10:09Z</time>
      </trkpt>
      <trkpt lat="49.0435930" lon="11.4673784">
        <ele>377.0000000</ele>
        <time>2009-11-26T06:10:16Z</time>
      </trkpt>
      <trkpt lat="49.0439517" lon="11.4673578">
        <ele>377.0000000</ele>
        <time>2009-11-26T06:10:27Z</time>
      </trkpt>
      <trkpt lat="49.0441571" lon="11.4672008">
        <ele>377.0000000</ele>
        <time>2009-11-26T06:10:34Z</time>
      </trkpt>
      <trkpt lat="49.0448982" lon="11.4664690">
        <ele>377.0000000</ele>
        <time>2009-11-26T06:11:02Z</time>
      </trkpt>
      <trkpt lat="49.0450510" lon="11.4662969">
        <ele>376.5000000</ele>
        <time>2009-11-26T06:11:07Z</time>
      </trkpt>
      <trkpt lat="49.0457240" lon="11.4657820">
        <ele>377.0000000</ele>
        <time>2009-11-26T06:11:31Z</time>
      </trkpt>
      <trkpt lat="49.0458445" lon="11.4653604">
        <ele>376.5000000</ele>
        <time>2009-11-26T06:11:40Z</time>
      </trkpt>
      <trkpt lat="49.0460754" lon="11.4649439">
        <ele>377.0000000</ele>
        <time>2009-11-26T06:11:51Z</time>
      </trkpt>
      <trkpt lat="49.0462016" lon="11.4649432">
        <ele>376.5000000</ele>
        <time>2009-11-26T06:11:55Z</time>
      </trkpt>
      <trkpt lat="49.0465250" lon="11.4649897">
        <ele>376.5000000</ele>
        <time>2009-11-26T06:12:05Z</time>
      </trkpt>
      <trkpt lat="49.0470697" lon="11.4649568">
        <ele>376.5000000</ele>
        <time>2009-11-26T06:12:22Z</time>
      </trkpt>
      <trkpt lat="49.0483447" lon="11.4645035">
        <ele>376.0000000</ele>
        <time>2009-11-26T06:13:02Z</time>
      </trkpt>
      <trkpt lat="49.0493847" lon="11.4641041">
        <ele>376.5000000</ele>
        <time>2009-11-26T06:13:35Z</time>
      </trkpt>
      <trkpt lat="49.0502861" lon="11.4639564">
        <ele>376.5000000</ele>
        <time>2009-11-26T06:14:04Z</time>
      </trkpt>
      <trkpt lat="49.0506124" lon="11.4639182">
        <ele>376.5000000</ele>
        <time>2009-11-26T06:14:14Z</time>
      </trkpt>
      <trkpt lat="49.0510124" lon="11.4637439">
        <ele>376.5000000</ele>
        <time>2009-11-26T06:14:27Z</time>
      </trkpt>
      <trkpt lat="49.0519863" lon="11.4634318">
        <ele>377.9000000</ele>
        <time>2009-11-26T06:14:57Z</time>
      </trkpt>
      <trkpt lat="49.0527007" lon="11.4630312">
        <ele>377.9000000</ele>
        <time>2009-11-26T06:15:21Z</time>
      </trkpt>
      <trkpt lat="49.0535397" lon="11.4627230">
        <ele>377.5000000</ele>
        <time>2009-11-26T06:15:48Z</time>
      </trkpt>
      <trkpt lat="49.0535968" lon="11.4626946">
        <ele>378.4000000</ele>
        <time>2009-11-26T06:15:49Z</time>
      </trkpt>
      <trkpt lat="49.0538356" lon="11.4624444">
        <ele>377.9000000</ele>
        <time>2009-11-26T06:15:58Z</time>
      </trkpt>
      <trkpt lat="49.0542135" lon="11.4618585">
        <ele>378.4000000</ele>
        <time>2009-11-26T06:16:15Z</time>
      </trkpt>
      <trkpt lat="49.0544751" lon="11.4612020">
        <ele>379.4000000</ele>
        <time>2009-11-26T06:16:31Z</time>
      </trkpt>
      <trkpt lat="49.0547379" lon="11.4610464">
        <ele>379.4000000</ele>
        <time>2009-11-26T06:16:39Z</time>
      </trkpt>
      <trkpt lat="49.0555921" lon="11.4608494">
        <ele>378.9000000</ele>
        <time>2009-11-26T06:17:06Z</time>
      </trkpt>
      <trkpt lat="49.0560669" lon="11.4606326">
        <ele>378.9000000</ele>
        <time>2009-11-26T06:17:21Z</time>
      </trkpt>
      <trkpt lat="49.0562172" lon="11.4606354">
        <ele>377.0000000</ele>
        <time>2009-11-26T06:17:26Z</time>
      </trkpt>
      <trkpt lat="49.0564941" lon="11.4607817">
        <ele>376.0000000</ele>
        <time>2009-11-26T06:17:35Z</time>
      </trkpt>
      <trkpt lat="49.0566712" lon="11.4609417">
        <ele>378.4000000</ele>
        <time>2009-11-26T06:17:41Z</time>
      </trkpt>
      <trkpt lat="49.0567281" lon="11.4609913">
        <ele>378.4000000</ele>
        <time>2009-11-26T06:17:43Z</time>
      </trkpt>
      <trkpt lat="49.0569973" lon="11.4610474">
        <ele>377.5000000</ele>
        <time>2009-11-26T06:17:52Z</time>
      </trkpt>
      <trkpt lat="49.0580864" lon="11.4605694">
        <ele>378.4000000</ele>
        <time>2009-11-26T06:18:27Z</time>
      </trkpt>
      <trkpt lat="49.0588737" lon="11.4602480">
        <ele>377.5000000</ele>
        <time>2009-11-26T06:18:52Z</time>
      </trkpt>
      <trkpt lat="49.0591572" lon="11.4601179">
        <ele>377.5000000</ele>
        <time>2009-11-26T06:19:01Z</time>
      </trkpt>
      <trkpt lat="49.0594654" lon="11.4600870">
        <ele>377.0000000</ele>
        <time>2009-11-26T06:19:11Z</time>
      </trkpt>
      <trkpt lat="49.0601929" lon="11.4599077">
        <ele>376.0000000</ele>
        <time>2009-11-26T06:19:34Z</time>
      </trkpt>
      <trkpt lat="49.0613113" lon="11.4596426">
        <ele>375.5000000</ele>
        <time>2009-11-26T06:20:09Z</time>
      </trkpt>
      <trkpt lat="49.0628945" lon="11.4593621">
        <ele>375.5000000</ele>
        <time>2009-11-26T06:20:58Z</time>
      </trkpt>
      <trkpt lat="49.0643128" lon="11.4592043">
        <ele>375.5000000</ele>
        <time>2009-11-26T06:21:42Z</time>
      </trkpt>
      <trkpt lat="49.0652652" lon="11.4590832">
        <ele>375.5000000</ele>
        <time>2009-11-26T06:22:11Z</time>
      </trkpt>
      <trkpt lat="49.0657841" lon="11.4586431">
        <ele>376.5000000</ele>
        <time>2009-11-26T06:22:30Z</time>
      </trkpt>
      <trkpt lat="49.0665337" lon="11.4583548">
        <ele>378.4000000</ele>
        <time>2009-11-26T06:22:54Z</time>
      </trkpt>
      <trkpt lat="49.0672337" lon="11.4582459">
        <ele>381.3000000</ele>
        <time>2009-11-26T06:23:15Z</time>
      </trkpt>
      <trkpt lat="49.0672897" lon="11.4582268">
        <ele>381.3000000</ele>
        <time>2009-11-26T06:23:17Z</time>
      </trkpt>
      <trkpt lat="49.0677053" lon="11.4580641">
        <ele>380.3000000</ele>
        <time>2009-11-26T06:23:30Z</time>
      </trkpt>
      <trkpt lat="49.0686077" lon="11.4582725">
        <ele>377.9000000</ele>
        <time>2009-11-26T06:23:59Z</time>
      </trkpt>
      <trkpt lat="49.0690711" lon="11.4583500">
        <ele>377.0000000</ele>
        <time>2009-11-26T06:24:13Z</time>
      </trkpt>
      <trkpt lat="49.0701682" lon="11.4578633">
        <ele>376.0000000</ele>
        <time>2009-11-26T06:24:48Z</time>
      </trkpt>
      <trkpt lat="49.0705992" lon="11.4576557">
        <ele>376.0000000</ele>
        <time>2009-11-26T06:25:02Z</time>
      </trkpt>
      <trkpt lat="49.0708670" lon="11.4574846">
        <ele>375.5000000</ele>
        <time>2009-11-26T06:25:11Z</time>
      </trkpt>
      <trkpt lat="49.0717127" lon="11.4568365">
        <ele>376.0000000</ele>
        <time>2009-11-26T06:25:41Z</time>
      </trkpt>
      <trkpt lat="49.0722596" lon="11.4563437">
        <ele>376.5000000</ele>
        <time>2009-11-26T06:26:00Z</time>
      </trkpt>
      <trkpt lat="49.0728864" lon="11.4558006">
        <ele>376.0000000</ele>
        <time>2009-11-26T06:26:23Z</time>
      </trkpt>
      <trkpt lat="49.0737567" lon="11.4546303">
        <ele>377.5000000</ele>
        <time>2009-11-26T06:26:58Z</time>
      </trkpt>
      <trkpt lat="49.0745223" lon="11.4538915">
        <ele>377.9000000</ele>
        <time>2009-11-26T06:27:26Z</time>
      </trkpt>
      <trkpt lat="49.0747997" lon="11.4536306">
        <ele>377.9000000</ele>
        <time>2009-11-26T06:27:36Z</time>
      </trkpt>
      <trkpt lat="49.0754384" lon="11.4528680">
        <ele>378.9000000</ele>
        <time>2009-11-26T06:28:02Z</time>
      </trkpt>
      <trkpt lat="49.0765561" lon="11.4525482">
        <ele>376.0000000</ele>
        <time>2009-11-26T06:28:37Z</time>
      </trkpt>
      <trkpt lat="49.0781732" lon="11.4516170">
        <ele>376.0000000</ele>
        <time>2009-11-26T06:29:30Z</time>
      </trkpt>
      <trkpt lat="49.0789355" lon="11.4513301">
        <ele>376.0000000</ele>
        <time>2009-11-26T06:29:54Z</time>
      </trkpt>
      <trkpt lat="49.0797459" lon="11.4509736">
        <ele>376.0000000</ele>
        <time>2009-11-26T06:30:21Z</time>
      </trkpt>
      <trkpt lat="49.0799220" lon="11.4508876">
        <ele>376.0000000</ele>
        <time>2009-11-26T06:30:26Z</time>
      </trkpt>
      <trkpt lat="49.0804959" lon="11.4508240">
        <ele>375.5000000</ele>
        <time>2009-11-26T06:30:44Z</time>
      </trkpt>
      <trkpt lat="49.0816963" lon="11.4505063">
        <ele>375.5000000</ele>
        <time>2009-11-26T06:31:22Z</time>
      </trkpt>
      <trkpt lat="49.0832575" lon="11.4500256">
        <ele>376.5000000</ele>
        <time>2009-11-26T06:32:11Z</time>
      </trkpt>
      <trkpt lat="49.0847679" lon="11.4493073">
        <ele>376.0000000</ele>
        <time>2009-11-26T06:33:00Z</time>
      </trkpt>
      <trkpt lat="49.0862386" lon="11.4482805">
        <ele>376.0000000</ele>
        <time>2009-11-26T06:33:50Z</time>
      </trkpt>
      <trkpt lat="49.0865216" lon="11.4480313">
        <ele>376.0000000</ele>
        <time>2009-11-26T06:34:00Z</time>
      </trkpt>
      <trkpt lat="49.0867658" lon="11.4475981">
        <ele>376.0000000</ele>
        <time>2009-11-26T06:34:12Z</time>
      </trkpt>
      <trkpt lat="49.0869660" lon="11.4474222">
        <ele>376.0000000</ele>
        <time>2009-11-26T06:34:19Z</time>
      </trkpt>
      <trkpt lat="49.0872005" lon="11.4473648">
        <ele>376.0000000</ele>
        <time>2009-11-26T06:34:26Z</time>
      </trkpt>
      <trkpt lat="49.0880111" lon="11.4465906">
        <ele>376.0000000</ele>
        <time>2009-11-26T06:34:56Z</time>
      </trkpt>
      <trkpt lat="49.0884541" lon="11.4460428">
        <ele>376.0000000</ele>
        <time>2009-11-26T06:35:13Z</time>
      </trkpt>
      <trkpt lat="49.0886777" lon="11.4459327">
        <ele>376.0000000</ele>
        <time>2009-11-26T06:35:21Z</time>
      </trkpt>
      <trkpt lat="49.0889022" lon="11.4457692">
        <ele>376.0000000</ele>
        <time>2009-11-26T06:35:28Z</time>
      </trkpt>
      <trkpt lat="49.0900966" lon="11.4444482">
        <ele>375.5000000</ele>
        <time>2009-11-26T06:36:14Z</time>
      </trkpt>
      <trkpt lat="49.0901365" lon="11.4443797">
        <ele>375.5000000</ele>
        <time>2009-11-26T06:36:16Z</time>
      </trkpt>
      <trkpt lat="49.0902107" lon="11.4440023">
        <ele>376.5000000</ele>
        <time>2009-11-26T06:36:24Z</time>
      </trkpt>
      <trkpt lat="49.0901539" lon="11.4434858">
        <ele>378.4000000</ele>
        <time>2009-11-26T06:36:34Z</time>
      </trkpt>
      <trkpt lat="49.0900149" lon="11.4430868">
        <ele>380.8000000</ele>
        <time>2009-11-26T06:36:43Z</time>
      </trkpt>
      <trkpt lat="49.0898243" lon="11.4426765">
        <ele>382.7000000</ele>
        <time>2009-11-26T06:36:54Z</time>
      </trkpt>
      <trkpt lat="49.0899586" lon="11.4423800">
        <ele>384.2000000</ele>
        <time>2009-11-26T06:37:01Z</time>
      </trkpt>
      <trkpt lat="49.0901839" lon="11.4423166">
        <ele>384.7000000</ele>
        <time>2009-11-26T06:37:08Z</time>
      </trkpt>
      <trkpt lat="49.0903630" lon="11.4425513">
        <ele>384.7000000</ele>
        <time>2009-11-26T06:37:15Z</time>
      </trkpt>
      <trkpt lat="49.0903853" lon="11.4427891">
        <ele>384.7000000</ele>
        <time>2009-11-26T06:37:20Z</time>
      </trkpt>
      <trkpt lat="49.0907760" lon="11.4437961">
        <ele>383.2000000</ele>
        <time>2009-11-26T06:37:44Z</time>
      </trkpt>
      <trkpt lat="49.0911709" lon="11.4446452">
        <ele>384.2000000</ele>
        <time>2009-11-26T06:38:05Z</time>
      </trkpt>
      <trkpt lat="49.0914703" lon="11.4453014">
        <ele>384.7000000</ele>
        <time>2009-11-26T06:38:21Z</time>
      </trkpt>
      <trkpt lat="49.0917051" lon="11.4453896">
        <ele>385.6000000</ele>
        <time>2009-11-26T06:38:29Z</time>
      </trkpt>
      <trkpt lat="49.0917875" lon="11.4453157">
        <ele>385.6000000</ele>
        <time>2009-11-26T06:38:32Z</time>
      </trkpt>
      <trkpt lat="49.0919560" lon="11.4445634">
        <ele>386.6000000</ele>
        <time>2009-11-26T06:38:48Z</time>
      </trkpt>
      <trkpt lat="49.0923351" lon="11.4435472">
        <ele>390.0000000</ele>
        <time>2009-11-26T06:39:11Z</time>
      </trkpt>
      <trkpt lat="49.0931480" lon="11.4422890">
        <ele>392.4000000</ele>
        <time>2009-11-26T06:39:47Z</time>
      </trkpt>
      <trkpt lat="49.0943040" lon="11.4411061">
        <ele>392.4000000</ele>
        <time>2009-11-26T06:40:30Z</time>
      </trkpt>
      <trkpt lat="49.0956355" lon="11.4399456">
        <ele>393.3000000</ele>
        <time>2009-11-26T06:41:18Z</time>
      </trkpt>
      <trkpt lat="49.0968764" lon="11.4391454">
        <ele>392.8000000</ele>
        <time>2009-11-26T06:41:59Z</time>
      </trkpt>
      <trkpt lat="49.0985304" lon="11.4383987">
        <ele>392.8000000</ele>
        <time>2009-11-26T06:42:53Z</time>
      </trkpt>
      <trkpt lat="49.0999461" lon="11.4380270">
        <ele>392.4000000</ele>
        <time>2009-11-26T06:43:37Z</time>
      </trkpt>
      <trkpt lat="49.1006762" lon="11.4379486">
        <ele>392.4000000</ele>
        <time>2009-11-26T06:44:00Z</time>
      </trkpt>
      <trkpt lat="49.1021271" lon="11.4378777">
        <ele>392.4000000</ele>
        <time>2009-11-26T06:44:45Z</time>
      </trkpt>
      <trkpt lat="49.1037000" lon="11.4378393">
        <ele>392.4000000</ele>
        <time>2009-11-26T06:45:33Z</time>
      </trkpt>
      <trkpt lat="49.1039443" lon="11.4378404">
        <ele>392.8000000</ele>
        <time>2009-11-26T06:45:41Z</time>
      </trkpt>
      <trkpt lat="49.1046817" lon="11.4380446">
        <ele>392.4000000</ele>
        <time>2009-11-26T06:46:04Z</time>
      </trkpt>
      <trkpt lat="49.1049726" lon="11.4380126">
        <ele>392.4000000</ele>
        <time>2009-11-26T06:46:13Z</time>
      </trkpt>
      <trkpt lat="49.1054243" lon="11.4379803">
        <ele>394.3000000</ele>
        <time>2009-11-26T06:46:27Z</time>
      </trkpt>
      <trkpt lat="49.1056339" lon="11.4377996">
        <ele>396.2000000</ele>
        <time>2009-11-26T06:46:34Z</time>
      </trkpt>
      <trkpt lat="49.1056853" lon="11.4370211">
        <ele>397.6000000</ele>
        <time>2009-11-26T06:46:50Z</time>
      </trkpt>
      <trkpt lat="49.1056950" lon="11.4366717">
        <ele>396.2000000</ele>
        <time>2009-11-26T06:46:57Z</time>
      </trkpt>
      <trkpt lat="49.1058085" lon="11.4366025">
        <ele>396.7000000</ele>
        <time>2009-11-26T06:47:01Z</time>
      </trkpt>
      <trkpt lat="49.1061995" lon="11.4366936">
        <ele>396.7000000</ele>
        <time>2009-11-26T06:47:13Z</time>
      </trkpt>
      <trkpt lat="49.1071531" lon="11.4366744">
        <ele>396.2000000</ele>
        <time>2009-11-26T06:47:43Z</time>
      </trkpt>
      <trkpt lat="49.1075491" lon="11.4362217">
        <ele>395.7000000</ele>
        <time>2009-11-26T06:47:58Z</time>
      </trkpt>
      <trkpt lat="49.1080541" lon="11.4345232">
        <ele>397.2000000</ele>
        <time>2009-11-26T06:48:36Z</time>
      </trkpt>
      <trkpt lat="49.1084794" lon="11.4341937">
        <ele>396.7000000</ele>
        <time>2009-11-26T06:48:51Z</time>
      </trkpt>
      <trkpt lat="49.1085835" lon="11.4343707">
        <ele>396.7000000</ele>
        <time>2009-11-26T06:48:55Z</time>
      </trkpt>
      <trkpt lat="49.1091772" lon="11.4355472">
        <ele>394.8000000</ele>
        <time>2009-11-26T06:49:25Z</time>
      </trkpt>
      <trkpt lat="49.1092213" lon="11.4355949">
        <ele>394.8000000</ele>
        <time>2009-11-26T06:49:27Z</time>
      </trkpt>
      <trkpt lat="49.1095992" lon="11.4356400">
        <ele>394.8000000</ele>
        <time>2009-11-26T06:49:39Z</time>
      </trkpt>
      <trkpt lat="49.1109052" lon="11.4356759">
        <ele>393.8000000</ele>
        <time>2009-11-26T06:50:19Z</time>
      </trkpt>
      <trkpt lat="49.1120424" lon="11.4355882">
        <ele>393.3000000</ele>
        <time>2009-11-26T06:50:54Z</time>
      </trkpt>
      <trkpt lat="49.1131845" lon="11.4353950">
        <ele>395.2000000</ele>
        <time>2009-11-26T06:51:30Z</time>
      </trkpt>
      <trkpt lat="49.1142386" lon="11.4351786">
        <ele>395.7000000</ele>
        <time>2009-11-26T06:52:03Z</time>
      </trkpt>
      <trkpt lat="49.1155443" lon="11.4349364">
        <ele>396.7000000</ele>
        <time>2009-11-26T06:52:44Z</time>
      </trkpt>
      <trkpt lat="49.1158175" lon="11.4349366">
        <ele>396.2000000</ele>
        <time>2009-11-26T06:52:52Z</time>
      </trkpt>
      <trkpt lat="49.1162558" lon="11.4349494">
        <ele>396.2000000</ele>
        <time>2009-11-26T06:53:06Z</time>
      </trkpt>
      <trkpt lat="49.1172731" lon="11.4353058">
        <ele>395.7000000</ele>
        <time>2009-11-26T06:53:38Z</time>
      </trkpt>
      <trkpt lat="49.1179993" lon="11.4356259">
        <ele>393.8000000</ele>
        <time>2009-11-26T06:54:01Z</time>
      </trkpt>
      <trkpt lat="49.1183584" lon="11.4355494">
        <ele>394.8000000</ele>
        <time>2009-11-26T06:54:12Z</time>
      </trkpt>
      <trkpt lat="49.1186943" lon="11.4354827">
        <ele>394.8000000</ele>
        <time>2009-11-26T06:54:23Z</time>
      </trkpt>
      <trkpt lat="49.1189178" lon="11.4354716">
        <ele>394.8000000</ele>
        <time>2009-11-26T06:54:30Z</time>
      </trkpt>
      <trkpt lat="49.1191690" lon="11.4353601">
        <ele>395.7000000</ele>
        <time>2009-11-26T06:54:38Z</time>
      </trkpt>
      <trkpt lat="49.1192715" lon="11.4353209">
        <ele>395.2000000</ele>
        <time>2009-11-26T06:54:41Z</time>
      </trkpt>
      <trkpt lat="49.1195337" lon="11.4352560">
        <ele>396.2000000</ele>
        <time>2009-11-26T06:54:49Z</time>
      </trkpt>
      <trkpt lat="49.1197181" lon="11.4351836">
        <ele>396.2000000</ele>
        <time>2009-11-26T06:54:55Z</time>
      </trkpt>
      <trkpt lat="49.1200559" lon="11.4348293">
        <ele>396.7000000</ele>
        <time>2009-11-26T06:55:08Z</time>
      </trkpt>
      <trkpt lat="49.1202853" lon="11.4344175">
        <ele>397.6000000</ele>
        <time>2009-11-26T06:55:19Z</time>
      </trkpt>
      <trkpt lat="49.1204796" lon="11.4342557">
        <ele>398.1000000</ele>
        <time>2009-11-26T06:55:26Z</time>
      </trkpt>
      <trkpt lat="49.1205817" lon="11.4342329">
        <ele>398.6000000</ele>
        <time>2009-11-26T06:55:29Z</time>
      </trkpt>
      <trkpt lat="49.1208014" lon="11.4340956">
        <ele>399.1000000</ele>
        <time>2009-11-26T06:55:36Z</time>
      </trkpt>
      <trkpt lat="49.1208026" lon="11.4340839">
        <ele>399.1000000</ele>
        <time>2009-11-26T06:55:36Z</time>
      </trkpt>
      <trkpt lat="49.1208058" lon="11.4340923">
        <ele>399.1000000</ele>
        <time>2009-11-26T06:55:37Z</time>
      </trkpt>
      <trkpt lat="49.1209148" lon="11.4342797">
        <ele>399.6000000</ele>
        <time>2009-11-26T06:55:42Z</time>
      </trkpt>
      <trkpt lat="49.1216175" lon="11.4345494">
        <ele>400.0000000</ele>
        <time>2009-11-26T06:56:04Z</time>
      </trkpt>
      <trkpt lat="49.1225808" lon="11.4351250">
        <ele>399.1000000</ele>
        <time>2009-11-26T06:56:36Z</time>
      </trkpt>
      <trkpt lat="49.1241206" lon="11.4355083">
        <ele>400.0000000</ele>
        <time>2009-11-26T06:57:24Z</time>
      </trkpt>
      <trkpt lat="49.1257408" lon="11.4353732">
        <ele>401.0000000</ele>
        <time>2009-11-26T06:58:15Z</time>
      </trkpt>
      <trkpt lat="49.1263075" lon="11.4353260">
        <ele>401.5000000</ele>
        <time>2009-11-26T06:58:32Z</time>
      </trkpt>
      <trkpt lat="49.1274349" lon="11.4358691">
        <ele>402.4000000</ele>
        <time>2009-11-26T06:59:09Z</time>
      </trkpt>
      <trkpt lat="49.1287481" lon="11.4363464">
        <ele>402.9000000</ele>
        <time>2009-11-26T06:59:50Z</time>
      </trkpt>
      <trkpt lat="49.1289905" lon="11.4365315">
        <ele>402.9000000</ele>
        <time>2009-11-26T06:59:59Z</time>
      </trkpt>
      <trkpt lat="49.1299803" lon="11.4376943">
        <ele>402.4000000</ele>
        <time>2009-11-26T07:00:37Z</time>
      </trkpt>
      <trkpt lat="49.1308735" lon="11.4385676">
        <ele>401.0000000</ele>
        <time>2009-11-26T07:01:10Z</time>
      </trkpt>
      <trkpt lat="49.1319088" lon="11.4391291">
        <ele>398.1000000</ele>
        <time>2009-11-26T07:01:44Z</time>
      </trkpt>
      <trkpt lat="49.1331225" lon="11.4393324">
        <ele>398.6000000</ele>
        <time>2009-11-26T07:02:22Z</time>
      </trkpt>
      <trkpt lat="49.1349386" lon="11.4394857">
        <ele>399.1000000</ele>
        <time>2009-11-26T07:03:18Z</time>
      </trkpt>
      <trkpt lat="49.1361028" lon="11.4398841">
        <ele>398.6000000</ele>
        <time>2009-11-26T07:03:55Z</time>
      </trkpt>
      <trkpt lat="49.1368212" lon="11.4401369">
        <ele>397.2000000</ele>
        <time>2009-11-26T07:04:18Z</time>
      </trkpt>
      <trkpt lat="49.1380061" lon="11.4404373">
        <ele>397.2000000</ele>
        <time>2009-11-26T07:04:55Z</time>
      </trkpt>
      <trkpt lat="49.1385354" lon="11.4404938">
        <ele>399.1000000</ele>
        <time>2009-11-26T07:05:11Z</time>
      </trkpt>
      <trkpt lat="49.1388268" lon="11.4404827">
        <ele>400.5000000</ele>
        <time>2009-11-26T07:05:20Z</time>
      </trkpt>
      <trkpt lat="49.1392472" lon="11.4404394">
        <ele>402.9000000</ele>
        <time>2009-11-26T07:05:33Z</time>
      </trkpt>
      <trkpt lat="49.1392912" lon="11.4404440">
        <ele>403.4000000</ele>
        <time>2009-11-26T07:05:35Z</time>
      </trkpt>
      <trkpt lat="49.1396841" lon="11.4403528">
        <ele>404.9000000</ele>
        <time>2009-11-26T07:05:47Z</time>
      </trkpt>
      <trkpt lat="49.1398732" lon="11.4402533">
        <ele>405.3000000</ele>
        <time>2009-11-26T07:05:53Z</time>
      </trkpt>
      <trkpt lat="49.1400506" lon="11.4401603">
        <ele>404.9000000</ele>
        <time>2009-11-26T07:05:59Z</time>
      </trkpt>
      <trkpt lat="49.1402954" lon="11.4399191">
        <ele>404.9000000</ele>
        <time>2009-11-26T07:06:08Z</time>
      </trkpt>
      <trkpt lat="49.1405572" lon="11.4397108">
        <ele>405.3000000</ele>
        <time>2009-11-26T07:06:17Z</time>
      </trkpt>
      <trkpt lat="49.1408228" lon="11.4394857">
        <ele>404.9000000</ele>
        <time>2009-11-26T07:06:27Z</time>
      </trkpt>
      <trkpt lat="49.1412435" lon="11.4387351">
        <ele>407.3000000</ele>
        <time>2009-11-26T07:06:47Z</time>
      </trkpt>
      <trkpt lat="49.1419602" lon="11.4374318">
        <ele>406.8000000</ele>
        <time>2009-11-26T07:07:21Z</time>
      </trkpt>
      <trkpt lat="49.1426251" lon="11.4361648">
        <ele>406.3000000</ele>
        <time>2009-11-26T07:07:54Z</time>
      </trkpt>
      <trkpt lat="49.1427300" lon="11.4360792">
        <ele>406.3000000</ele>
        <time>2009-11-26T07:07:58Z</time>
      </trkpt>
      <trkpt lat="49.1431206" lon="11.4353440">
        <ele>405.8000000</ele>
        <time>2009-11-26T07:08:17Z</time>
      </trkpt>
      <trkpt lat="49.1439771" lon="11.4335504">
        <ele>404.4000000</ele>
        <time>2009-11-26T07:09:02Z</time>
      </trkpt>
      <trkpt lat="49.1444542" lon="11.4323732">
        <ele>403.4000000</ele>
        <time>2009-11-26T07:09:30Z</time>
      </trkpt>
      <trkpt lat="49.1448670" lon="11.4310137">
        <ele>402.9000000</ele>
        <time>2009-11-26T07:10:00Z</time>
      </trkpt>
      <trkpt lat="49.1449977" lon="11.4306367">
        <ele>402.9000000</ele>
        <time>2009-11-26T07:10:09Z</time>
      </trkpt>
      <trkpt lat="49.1450375" lon="11.4304899">
        <ele>402.4000000</ele>
        <time>2009-11-26T07:10:12Z</time>
      </trkpt>
      <trkpt lat="49.1450489" lon="11.4302464">
        <ele>401.5000000</ele>
        <time>2009-11-26T07:10:17Z</time>
      </trkpt>
      <trkpt lat="49.1452668" lon="11.4292431">
        <ele>402.0000000</ele>
        <time>2009-11-26T07:10:38Z</time>
      </trkpt>
      <trkpt lat="49.1457483" lon="11.4272667">
        <ele>402.4000000</ele>
        <time>2009-11-26T07:11:21Z</time>
      </trkpt>
      <trkpt lat="49.1458050" lon="11.4270134">
        <ele>402.9000000</ele>
        <time>2009-11-26T07:11:26Z</time>
      </trkpt>
      <trkpt lat="49.1460175" lon="11.4266136">
        <ele>402.4000000</ele>
        <time>2009-11-26T07:11:37Z</time>
      </trkpt>
      <trkpt lat="49.1463499" lon="11.4251116">
        <ele>404.4000000</ele>
        <time>2009-11-26T07:12:09Z</time>
      </trkpt>
      <trkpt lat="49.1465535" lon="11.4251248">
        <ele>403.9000000</ele>
        <time>2009-11-26T07:12:15Z</time>
      </trkpt>
      <trkpt lat="49.1468329" lon="11.4249434">
        <ele>403.4000000</ele>
        <time>2009-11-26T07:12:24Z</time>
      </trkpt>
      <trkpt lat="49.1476118" lon="11.4231275">
        <ele>404.4000000</ele>
        <time>2009-11-26T07:13:08Z</time>
      </trkpt>
      <trkpt lat="49.1483513" lon="11.4209052">
        <ele>404.9000000</ele>
        <time>2009-11-26T07:13:59Z</time>
      </trkpt>
      <trkpt lat="49.1485954" lon="11.4200364">
        <ele>405.3000000</ele>
        <time>2009-11-26T07:14:18Z</time>
      </trkpt>
      <trkpt lat="49.1488174" lon="11.4199837">
        <ele>404.4000000</ele>
        <time>2009-11-26T07:14:25Z</time>
      </trkpt>
      <trkpt lat="49.1498830" lon="11.4208472">
        <ele>403.4000000</ele>
        <time>2009-11-26T07:15:02Z</time>
      </trkpt>
      <trkpt lat="49.1509490" lon="11.4209203">
        <ele>402.4000000</ele>
        <time>2009-11-26T07:15:35Z</time>
      </trkpt>
      <trkpt lat="49.1524166" lon="11.4208317">
        <ele>400.5000000</ele>
        <time>2009-11-26T07:16:21Z</time>
      </trkpt>
      <trkpt lat="49.1534608" lon="11.4207591">
        <ele>401.0000000</ele>
        <time>2009-11-26T07:16:53Z</time>
      </trkpt>
      <trkpt lat="49.1547564" lon="11.4198473">
        <ele>401.0000000</ele>
        <time>2009-11-26T07:17:37Z</time>
      </trkpt>
      <trkpt lat="49.1557996" lon="11.4190778">
        <ele>399.6000000</ele>
        <time>2009-11-26T07:18:13Z</time>
      </trkpt>
      <trkpt lat="49.1559240" lon="11.4189832">
        <ele>400.0000000</ele>
        <time>2009-11-26T07:18:17Z</time>
      </trkpt>
      <trkpt lat="49.1564834" lon="11.4185664">
        <ele>400.0000000</ele>
        <time>2009-11-26T07:18:36Z</time>
      </trkpt>
      <trkpt lat="49.1570356" lon="11.4181986">
        <ele>401.0000000</ele>
        <time>2009-11-26T07:18:55Z</time>
      </trkpt>
      <trkpt lat="49.1571427" lon="11.4181157">
        <ele>400.5000000</ele>
        <time>2009-11-26T07:18:59Z</time>
      </trkpt>
      <trkpt lat="49.1573935" lon="11.4177467">
        <ele>401.0000000</ele>
        <time>2009-11-26T07:19:09Z</time>
      </trkpt>
      <trkpt lat="49.1574858" lon="11.4172534">
        <ele>401.0000000</ele>
        <time>2009-11-26T07:19:20Z</time>
      </trkpt>
      <trkpt lat="49.1574498" lon="11.4159702">
        <ele>400.5000000</ele>
        <time>2009-11-26T07:19:46Z</time>
      </trkpt>
      <trkpt lat="49.1574365" lon="11.4160432">
        <ele>401.0000000</ele>
        <time>2009-11-26T07:19:47Z</time>
      </trkpt>
      <trkpt lat="49.1574686" lon="11.4168737">
        <ele>400.5000000</ele>
        <time>2009-11-26T07:20:04Z</time>
      </trkpt>
      <trkpt lat="49.1574296" lon="11.4176662">
        <ele>400.0000000</ele>
        <time>2009-11-26T07:20:20Z</time>
      </trkpt>
      <trkpt lat="49.1574650" lon="11.4180670">
        <ele>400.0000000</ele>
        <time>2009-11-26T07:20:28Z</time>
      </trkpt>
      <trkpt lat="49.1577690" lon="11.4182815">
        <ele>401.0000000</ele>
        <time>2009-11-26T07:20:39Z</time>
      </trkpt>
      <trkpt lat="49.1580726" lon="11.4182569">
        <ele>400.0000000</ele>
        <time>2009-11-26T07:20:48Z</time>
      </trkpt>
      <trkpt lat="49.1583939" lon="11.4179644">
        <ele>400.5000000</ele>
        <time>2009-11-26T07:21:00Z</time>
      </trkpt>
      <trkpt lat="49.1585969" lon="11.4173905">
        <ele>400.5000000</ele>
        <time>2009-11-26T07:21:13Z</time>
      </trkpt>
      <trkpt lat="49.1588683" lon="11.4153237">
        <ele>401.0000000</ele>
        <time>2009-11-26T07:21:55Z</time>
      </trkpt>
      <trkpt lat="49.1588807" lon="11.4152320">
        <ele>401.0000000</ele>
        <time>2009-11-26T07:21:57Z</time>
      </trkpt>
      <trkpt lat="49.1592146" lon="11.4147891">
        <ele>401.5000000</ele>
        <time>2009-11-26T07:22:11Z</time>
      </trkpt>
      <trkpt lat="49.1600145" lon="11.4147109">
        <ele>404.4000000</ele>
        <time>2009-11-26T07:22:36Z</time>
      </trkpt>
      <trkpt lat="49.1604819" lon="11.4146633">
        <ele>407.7000000</ele>
        <time>2009-11-26T07:22:50Z</time>
      </trkpt>
      <trkpt lat="49.1609616" lon="11.4146244">
        <ele>410.6000000</ele>
        <time>2009-11-26T07:23:05Z</time>
      </trkpt>
      <trkpt lat="49.1613045" lon="11.4145974">
        <ele>412.1000000</ele>
        <time>2009-11-26T07:23:16Z</time>
      </trkpt>
      <trkpt lat="49.1614846" lon="11.4145952">
        <ele>413.5000000</ele>
        <time>2009-11-26T07:23:21Z</time>
      </trkpt>
      <trkpt lat="49.1625238" lon="11.4147227">
        <ele>416.9000000</ele>
        <time>2009-11-26T07:23:54Z</time>
      </trkpt>
      <trkpt lat="49.1634624" lon="11.4148672">
        <ele>415.4000000</ele>
        <time>2009-11-26T07:24:23Z</time>
      </trkpt>
      <trkpt lat="49.1647874" lon="11.4150640">
        <ele>412.5000000</ele>
        <time>2009-11-26T07:25:04Z</time>
      </trkpt>
      <trkpt lat="49.1649694" lon="11.4151074">
        <ele>412.1000000</ele>
        <time>2009-11-26T07:25:10Z</time>
      </trkpt>
      <trkpt lat="49.1650782" lon="11.4151579">
        <ele>411.6000000</ele>
        <time>2009-11-26T07:25:13Z</time>
      </trkpt>
      <trkpt lat="49.1652410" lon="11.4150197">
        <ele>411.6000000</ele>
        <time>2009-11-26T07:25:19Z</time>
      </trkpt>
      <trkpt lat="49.1657322" lon="11.4132593">
        <ele>412.5000000</ele>
        <time>2009-11-26T07:25:58Z</time>
      </trkpt>
      <trkpt lat="49.1665022" lon="11.4114377">
        <ele>413.0000000</ele>
        <time>2009-11-26T07:26:41Z</time>
      </trkpt>
      <trkpt lat="49.1672058" lon="11.4101088">
        <ele>415.4000000</ele>
        <time>2009-11-26T07:27:16Z</time>
      </trkpt>
      <trkpt lat="49.1680707" lon="11.4083429">
        <ele>417.3000000</ele>
        <time>2009-11-26T07:28:01Z</time>
      </trkpt>
      <trkpt lat="49.1686886" lon="11.4066740">
        <ele>418.8000000</ele>
        <time>2009-11-26T07:28:39Z</time>
      </trkpt>
      <trkpt lat="49.1692302" lon="11.4045744">
        <ele>420.2000000</ele>
        <time>2009-11-26T07:29:25Z</time>
      </trkpt>
      <trkpt lat="49.1696154" lon="11.4024944">
        <ele>422.2000000</ele>
        <time>2009-11-26T07:30:09Z</time>
      </trkpt>
      <trkpt lat="49.1699776" lon="11.4005184">
        <ele>424.6000000</ele>
        <time>2009-11-26T07:30:50Z</time>
      </trkpt>
      <trkpt lat="49.1701645" lon="11.3994658">
        <ele>426.0000000</ele>
        <time>2009-11-26T07:31:12Z</time>
      </trkpt>
      <trkpt lat="49.1705128" lon="11.3976269">
        <ele>427.0000000</ele>
        <time>2009-11-26T07:31:51Z</time>
      </trkpt>
      <trkpt lat="49.1706721" lon="11.3964463">
        <ele>426.5000000</ele>
        <time>2009-11-26T07:32:15Z</time>
      </trkpt>
      <trkpt lat="49.1708502" lon="11.3949294">
        <ele>429.8000000</ele>
        <time>2009-11-26T07:32:47Z</time>
      </trkpt>
      <trkpt lat="49.1709773" lon="11.3935558">
        <ele>429.8000000</ele>
        <time>2009-11-26T07:33:15Z</time>
      </trkpt>
      <trkpt lat="49.1710706" lon="11.3919942">
        <ele>430.8000000</ele>
        <time>2009-11-26T07:33:46Z</time>
      </trkpt>
      <trkpt lat="49.1710168" lon="11.3899272">
        <ele>430.8000000</ele>
        <time>2009-11-26T07:34:28Z</time>
      </trkpt>
      <trkpt lat="49.1709477" lon="11.3877395">
        <ele>430.3000000</ele>
        <time>2009-11-26T07:35:12Z</time>
      </trkpt>
      <trkpt lat="49.1710626" lon="11.3854566">
        <ele>429.4000000</ele>
        <time>2009-11-26T07:35:59Z</time>
      </trkpt>
      <trkpt lat="49.1714763" lon="11.3833899">
        <ele>428.9000000</ele>
        <time>2009-11-26T07:36:42Z</time>
      </trkpt>
      <trkpt lat="49.1721849" lon="11.3814557">
        <ele>430.3000000</ele>
        <time>2009-11-26T07:37:27Z</time>
      </trkpt>
      <trkpt lat="49.1733545" lon="11.3788449">
        <ele>431.8000000</ele>
        <time>2009-11-26T07:38:31Z</time>
      </trkpt>
      <trkpt lat="49.1745169" lon="11.3766963">
        <ele>434.2000000</ele>
        <time>2009-11-26T07:39:28Z</time>
      </trkpt>
      <trkpt lat="49.1756288" lon="11.3750643">
        <ele>434.7000000</ele>
        <time>2009-11-26T07:40:15Z</time>
      </trkpt>
      <trkpt lat="49.1758605" lon="11.3748857">
        <ele>435.1000000</ele>
        <time>2009-11-26T07:40:23Z</time>
      </trkpt>
      <trkpt lat="49.1763349" lon="11.3746983">
        <ele>434.7000000</ele>
        <time>2009-11-26T07:40:38Z</time>
      </trkpt>
      <trkpt lat="49.1767262" lon="11.3745589">
        <ele>435.1000000</ele>
        <time>2009-11-26T07:40:51Z</time>
      </trkpt>
      <trkpt lat="49.1767467" lon="11.3744888">
        <ele>435.6000000</ele>
        <time>2009-11-26T07:40:52Z</time>
      </trkpt>
      <trkpt lat="49.1771050" lon="11.3741040">
        <ele>434.7000000</ele>
        <time>2009-11-26T07:41:06Z</time>
      </trkpt>
      <trkpt lat="49.1783046" lon="11.3736617">
        <ele>435.1000000</ele>
        <time>2009-11-26T07:41:44Z</time>
      </trkpt>
      <trkpt lat="49.1791772" lon="11.3726997">
        <ele>436.1000000</ele>
        <time>2009-11-26T07:42:17Z</time>
      </trkpt>
      <trkpt lat="49.1796444" lon="11.3717137">
        <ele>436.1000000</ele>
        <time>2009-11-26T07:42:42Z</time>
      </trkpt>
      <trkpt lat="49.1803378" lon="11.3701760">
        <ele>437.1000000</ele>
        <time>2009-11-26T07:43:20Z</time>
      </trkpt>
      <trkpt lat="49.1808669" lon="11.3690021">
        <ele>438.5000000</ele>
        <time>2009-11-26T07:43:49Z</time>
      </trkpt>
      <trkpt lat="49.1816815" lon="11.3672162">
        <ele>439.9000000</ele>
        <time>2009-11-26T07:44:33Z</time>
      </trkpt>
      <trkpt lat="49.1828562" lon="11.3646452">
        <ele>441.9000000</ele>
        <time>2009-11-26T07:45:36Z</time>
      </trkpt>
      <trkpt lat="49.1840197" lon="11.3620944">
        <ele>442.3000000</ele>
        <time>2009-11-26T07:46:39Z</time>
      </trkpt>
      <trkpt lat="49.1850583" lon="11.3598075">
        <ele>441.4000000</ele>
        <time>2009-11-26T07:47:35Z</time>
      </trkpt>
      <trkpt lat="49.1854640" lon="11.3589217">
        <ele>439.5000000</ele>
        <time>2009-11-26T07:47:57Z</time>
      </trkpt>
      <trkpt lat="49.1858336" lon="11.3580982">
        <ele>435.6000000</ele>
        <time>2009-11-26T07:48:17Z</time>
      </trkpt>
      <trkpt lat="49.1860847" lon="11.3575640">
        <ele>433.7000000</ele>
        <time>2009-11-26T07:48:30Z</time>
      </trkpt>
      <trkpt lat="49.1864378" lon="11.3568863">
        <ele>430.3000000</ele>
        <time>2009-11-26T07:48:48Z</time>
      </trkpt>
      <trkpt lat="49.1865975" lon="11.3566420">
        <ele>429.4000000</ele>
        <time>2009-11-26T07:48:55Z</time>
      </trkpt>
      <trkpt lat="49.1877306" lon="11.3553468">
        <ele>427.4000000</ele>
        <time>2009-11-26T07:49:39Z</time>
      </trkpt>
      <trkpt lat="49.1883295" lon="11.3543436">
        <ele>427.0000000</ele>
        <time>2009-11-26T07:50:06Z</time>
      </trkpt>
      <trkpt lat="49.1885840" lon="11.3533087">
        <ele>427.0000000</ele>
        <time>2009-11-26T07:50:29Z</time>
      </trkpt>
      <trkpt lat="49.1886890" lon="11.3531540">
        <ele>427.0000000</ele>
        <time>2009-11-26T07:50:33Z</time>
      </trkpt>
      <trkpt lat="49.1886150" lon="11.3524927">
        <ele>426.0000000</ele>
        <time>2009-11-26T07:50:47Z</time>
      </trkpt>
      <trkpt lat="49.1887295" lon="11.3518823">
        <ele>426.0000000</ele>
        <time>2009-11-26T07:50:59Z</time>
      </trkpt>
      <trkpt lat="49.1889422" lon="11.3514256">
        <ele>425.5000000</ele>
        <time>2009-11-26T07:51:11Z</time>
      </trkpt>
      <trkpt lat="49.1890439" lon="11.3507143">
        <ele>425.5000000</ele>
        <time>2009-11-26T07:51:25Z</time>
      </trkpt>
      <trkpt lat="49.1890004" lon="11.3503982">
        <ele>424.6000000</ele>
        <time>2009-11-26T07:51:32Z</time>
      </trkpt>
      <trkpt lat="49.1886202" lon="11.3486961">
        <ele>422.6000000</ele>
        <time>2009-11-26T07:52:08Z</time>
      </trkpt>
      <trkpt lat="49.1886047" lon="11.3467645">
        <ele>420.7000000</ele>
        <time>2009-11-26T07:52:47Z</time>
      </trkpt>
      <trkpt lat="49.1888448" lon="11.3450697">
        <ele>418.3000000</ele>
        <time>2009-11-26T07:53:22Z</time>
      </trkpt>
      <trkpt lat="49.1896659" lon="11.3438316">
        <ele>416.9000000</ele>
        <time>2009-11-26T07:53:58Z</time>
      </trkpt>
      <trkpt lat="49.1908621" lon="11.3424443">
        <ele>414.9000000</ele>
        <time>2009-11-26T07:54:45Z</time>
      </trkpt>
      <trkpt lat="49.1921055" lon="11.3407770">
        <ele>411.6000000</ele>
        <time>2009-11-26T07:55:36Z</time>
      </trkpt>
      <trkpt lat="49.1924084" lon="11.3398077">
        <ele>409.2000000</ele>
        <time>2009-11-26T07:55:57Z</time>
      </trkpt>
      <trkpt lat="49.1925417" lon="11.3381563">
        <ele>407.7000000</ele>
        <time>2009-11-26T07:56:31Z</time>
      </trkpt>
      <trkpt lat="49.1925695" lon="11.3375667">
        <ele>407.3000000</ele>
        <time>2009-11-26T07:56:43Z</time>
      </trkpt>
      <trkpt lat="49.1924452" lon="11.3359376">
        <ele>407.3000000</ele>
        <time>2009-11-26T07:57:16Z</time>
      </trkpt>
      <trkpt lat="49.1926633" lon="11.3353749">
        <ele>406.3000000</ele>
        <time>2009-11-26T07:57:29Z</time>
      </trkpt>
      <trkpt lat="49.1932472" lon="11.3350358">
        <ele>406.8000000</ele>
        <time>2009-11-26T07:57:49Z</time>
      </trkpt>
      <trkpt lat="49.1934362" lon="11.3349683">
        <ele>405.8000000</ele>
        <time>2009-11-26T07:57:55Z</time>
      </trkpt>
      <trkpt lat="49.1937102" lon="11.3347434">
        <ele>405.8000000</ele>
        <time>2009-11-26T07:58:04Z</time>
      </trkpt>
      <trkpt lat="49.1948482" lon="11.3340809">
        <ele>406.3000000</ele>
        <time>2009-11-26T07:58:42Z</time>
      </trkpt>
      <trkpt lat="49.1961853" lon="11.3330450">
        <ele>406.3000000</ele>
        <time>2009-11-26T07:59:28Z</time>
      </trkpt>
      <trkpt lat="49.1971735" lon="11.3322676">
        <ele>405.8000000</ele>
        <time>2009-11-26T08:00:03Z</time>
      </trkpt>
      <trkpt lat="49.1977931" lon="11.3312271">
        <ele>406.8000000</ele>
        <time>2009-11-26T08:00:31Z</time>
      </trkpt>
      <trkpt lat="49.1978616" lon="11.3309681">
        <ele>406.3000000</ele>
        <time>2009-11-26T08:00:37Z</time>
      </trkpt>
      <trkpt lat="49.1979408" lon="11.3306363">
        <ele>406.8000000</ele>
        <time>2009-11-26T08:00:44Z</time>
      </trkpt>
      <trkpt lat="49.1982272" lon="11.3298872">
        <ele>406.8000000</ele>
        <time>2009-11-26T08:01:01Z</time>
      </trkpt>
      <trkpt lat="49.1987676" lon="11.3287720">
        <ele>408.7000000</ele>
        <time>2009-11-26T08:01:29Z</time>
      </trkpt>
      <trkpt lat="49.1989629" lon="11.3283760">
        <ele>409.2000000</ele>
        <time>2009-11-26T08:01:39Z</time>
      </trkpt>
      <trkpt lat="49.1991259" lon="11.3280759">
        <ele>408.7000000</ele>
        <time>2009-11-26T08:01:47Z</time>
      </trkpt>
      <trkpt lat="49.1992938" lon="11.3278466">
        <ele>408.7000000</ele>
        <time>2009-11-26T08:01:54Z</time>
      </trkpt>
      <trkpt lat="49.1994321" lon="11.3277844">
        <ele>407.7000000</ele>
        <time>2009-11-26T08:01:59Z</time>
      </trkpt>
      <trkpt lat="49.1995286" lon="11.3278735">
        <ele>407.7000000</ele>
        <time>2009-11-26T08:02:02Z</time>
      </trkpt>
      <trkpt lat="49.1995497" lon="11.3278391">
        <ele>407.3000000</ele>
        <time>2009-11-26T08:02:03Z</time>
      </trkpt>
      <trkpt lat="49.1995585" lon="11.3278271">
        <ele>407.3000000</ele>
        <time>2009-11-26T08:02:04Z</time>
      </trkpt>
      <trkpt lat="49.1996684" lon="11.3274291">
        <ele>407.3000000</ele>
        <time>2009-11-26T08:02:12Z</time>
      </trkpt>
      <trkpt lat="49.1996605" lon="11.3273299">
        <ele>406.8000000</ele>
        <time>2009-11-26T08:02:14Z</time>
      </trkpt>
      <trkpt lat="49.1998979" lon="11.3268537">
        <ele>406.8000000</ele>
        <time>2009-11-26T08:02:26Z</time>
      </trkpt>
      <trkpt lat="49.2000277" lon="11.3268212">
        <ele>406.8000000</ele>
        <time>2009-11-26T08:02:30Z</time>
      </trkpt>
      <trkpt lat="49.2000792" lon="11.3267265">
        <ele>406.8000000</ele>
        <time>2009-11-26T08:02:33Z</time>
      </trkpt>
      <trkpt lat="49.2002568" lon="11.3266196">
        <ele>406.8000000</ele>
        <time>2009-11-26T08:02:39Z</time>
      </trkpt>
      <trkpt lat="49.2004845" lon="11.3265926">
        <ele>406.8000000</ele>
        <time>2009-11-26T08:02:46Z</time>
      </trkpt>
      <trkpt lat="49.2007800" lon="11.3266357">
        <ele>406.3000000</ele>
        <time>2009-11-26T08:02:55Z</time>
      </trkpt>
      <trkpt lat="49.2013922" lon="11.3267201">
        <ele>406.3000000</ele>
        <time>2009-11-26T08:03:14Z</time>
      </trkpt>
      <trkpt lat="49.2023827" lon="11.3268210">
        <ele>406.3000000</ele>
        <time>2009-11-26T08:03:45Z</time>
      </trkpt>
      <trkpt lat="49.2034861" lon="11.3271986">
        <ele>406.3000000</ele>
        <time>2009-11-26T08:04:20Z</time>
      </trkpt>
      <trkpt lat="49.2047448" lon="11.3279405">
        <ele>407.3000000</ele>
        <time>2009-11-26T08:05:01Z</time>
      </trkpt>
      <trkpt lat="49.2056192" lon="11.3282954">
        <ele>409.2000000</ele>
        <time>2009-11-26T08:05:29Z</time>
      </trkpt>
      <trkpt lat="49.2066613" lon="11.3281322">
        <ele>410.1000000</ele>
        <time>2009-11-26T08:06:02Z</time>
      </trkpt>
      <trkpt lat="49.2070504" lon="11.3279384">
        <ele>409.7000000</ele>
        <time>2009-11-26T08:06:14Z</time>
      </trkpt>
      <trkpt lat="49.2072815" lon="11.3280618">
        <ele>410.1000000</ele>
        <time>2009-11-26T08:06:22Z</time>
      </trkpt>
      <trkpt lat="49.2081300" lon="11.3292564">
        <ele>410.6000000</ele>
        <time>2009-11-26T08:06:58Z</time>
      </trkpt>
      <trkpt lat="49.2085145" lon="11.3297292">
        <ele>411.1000000</ele>
        <time>2009-11-26T08:07:13Z</time>
      </trkpt>
      <trkpt lat="49.2094825" lon="11.3305941">
        <ele>411.1000000</ele>
        <time>2009-11-26T08:07:48Z</time>
      </trkpt>
      <trkpt lat="49.2095141" lon="11.3306025">
        <ele>411.6000000</ele>
        <time>2009-11-26T08:07:49Z</time>
      </trkpt>
      <trkpt lat="49.2097566" lon="11.3305509">
        <ele>411.1000000</ele>
        <time>2009-11-26T08:07:56Z</time>
      </trkpt>
      <trkpt lat="49.2097943" lon="11.3305792">
        <ele>411.1000000</ele>
        <time>2009-11-26T08:07:57Z</time>
      </trkpt>
      <trkpt lat="49.2098769" lon="11.3306331">
        <ele>412.5000000</ele>
        <time>2009-11-26T08:08:00Z</time>
      </trkpt>
      <trkpt lat="49.2099209" lon="11.3306587">
        <ele>412.5000000</ele>
        <time>2009-11-26T08:08:02Z</time>
      </trkpt>
      <trkpt lat="49.2107620" lon="11.3310408">
        <ele>415.4000000</ele>
        <time>2009-11-26T08:08:29Z</time>
      </trkpt>
      <trkpt lat="49.2117815" lon="11.3313760">
        <ele>417.8000000</ele>
        <time>2009-11-26T08:09:01Z</time>
      </trkpt>
      <trkpt lat="49.2131015" lon="11.3316531">
        <ele>418.3000000</ele>
        <time>2009-11-26T08:09:42Z</time>
      </trkpt>
      <trkpt lat="49.2141694" lon="11.3318256">
        <ele>417.3000000</ele>
        <time>2009-11-26T08:10:16Z</time>
      </trkpt>
      <trkpt lat="49.2155765" lon="11.3321208">
        <ele>417.8000000</ele>
        <time>2009-11-26T08:10:59Z</time>
      </trkpt>
      <trkpt lat="49.2161223" lon="11.3322790">
        <ele>418.3000000</ele>
        <time>2009-11-26T08:11:17Z</time>
      </trkpt>
      <trkpt lat="49.2167430" lon="11.3324908">
        <ele>419.8000000</ele>
        <time>2009-11-26T08:11:36Z</time>
      </trkpt>
      <trkpt lat="49.2177470" lon="11.3329637">
        <ele>421.7000000</ele>
        <time>2009-11-26T08:12:09Z</time>
      </trkpt>
      <trkpt lat="49.2181876" lon="11.3332222">
        <ele>425.0000000</ele>
        <time>2009-11-26T08:12:23Z</time>
      </trkpt>
      <trkpt lat="49.2188113" lon="11.3336760">
        <ele>427.9000000</ele>
        <time>2009-11-26T08:12:45Z</time>
      </trkpt>
      <trkpt lat="49.2194920" lon="11.3342971">
        <ele>431.8000000</ele>
        <time>2009-11-26T08:13:09Z</time>
      </trkpt>
      <trkpt lat="49.2201886" lon="11.3350243">
        <ele>434.7000000</ele>
        <time>2009-11-26T08:13:35Z</time>
      </trkpt>
      <trkpt lat="49.2207489" lon="11.3356382">
        <ele>435.6000000</ele>
        <time>2009-11-26T08:13:57Z</time>
      </trkpt>
      <trkpt lat="49.2216273" lon="11.3366146">
        <ele>436.6000000</ele>
        <time>2009-11-26T08:14:30Z</time>
      </trkpt>
      <trkpt lat="49.2222337" lon="11.3372031">
        <ele>436.1000000</ele>
        <time>2009-11-26T08:14:52Z</time>
      </trkpt>
      <trkpt lat="49.2223234" lon="11.3372943">
        <ele>436.1000000</ele>
        <time>2009-11-26T08:14:56Z</time>
      </trkpt>
      <trkpt lat="49.2225696" lon="11.3374761">
        <ele>436.1000000</ele>
        <time>2009-11-26T08:15:04Z</time>
      </trkpt>
      <trkpt lat="49.2234643" lon="11.3379605">
        <ele>434.2000000</ele>
        <time>2009-11-26T08:15:33Z</time>
      </trkpt>
      <trkpt lat="49.2246847" lon="11.3382281">
        <ele>434.7000000</ele>
        <time>2009-11-26T08:16:12Z</time>
      </trkpt>
      <trkpt lat="49.2260820" lon="11.3382904">
        <ele>437.1000000</ele>
        <time>2009-11-26T08:16:55Z</time>
      </trkpt>
      <trkpt lat="49.2269145" lon="11.3385766">
        <ele>439.5000000</ele>
        <time>2009-11-26T08:17:21Z</time>
      </trkpt>
      <trkpt lat="49.2274989" lon="11.3390286">
        <ele>440.4000000</ele>
        <time>2009-11-26T08:17:41Z</time>
      </trkpt>
      <trkpt lat="49.2280542" lon="11.3397272">
        <ele>442.8000000</ele>
        <time>2009-11-26T08:18:04Z</time>
      </trkpt>
      <trkpt lat="49.2281992" lon="11.3399268">
        <ele>443.3000000</ele>
        <time>2009-11-26T08:18:10Z</time>
      </trkpt>
      <trkpt lat="49.2284224" lon="11.3402894">
        <ele>443.8000000</ele>
        <time>2009-11-26T08:18:20Z</time>
      </trkpt>
      <trkpt lat="49.2287821" lon="11.3409781">
        <ele>447.2000000</ele>
        <time>2009-11-26T08:18:38Z</time>
      </trkpt>
      <trkpt lat="49.2290342" lon="11.3415238">
        <ele>451.0000000</ele>
        <time>2009-11-26T08:18:51Z</time>
      </trkpt>
      <trkpt lat="49.2293094" lon="11.3421527">
        <ele>453.9000000</ele>
        <time>2009-11-26T08:19:06Z</time>
      </trkpt>
      <trkpt lat="49.2295540" lon="11.3426506">
        <ele>456.8000000</ele>
        <time>2009-11-26T08:19:19Z</time>
      </trkpt>
      <trkpt lat="49.2299665" lon="11.3435516">
        <ele>459.6000000</ele>
        <time>2009-11-26T08:19:41Z</time>
      </trkpt>
      <trkpt lat="49.2303486" lon="11.3443149">
        <ele>459.6000000</ele>
        <time>2009-11-26T08:20:01Z</time>
      </trkpt>
      <trkpt lat="49.2304724" lon="11.3447071">
        <ele>459.2000000</ele>
        <time>2009-11-26T08:20:09Z</time>
      </trkpt>
      <trkpt lat="49.2304700" lon="11.3447087">
        <ele>458.7000000</ele>
        <time>2009-11-26T08:20:09Z</time>
      </trkpt>
      <trkpt lat="49.2303794" lon="11.3447939">
        <ele>459.2000000</ele>
        <time>2009-11-26T08:20:13Z</time>
      </trkpt>
      <trkpt lat="49.2304065" lon="11.3449701">
        <ele>459.6000000</ele>
        <time>2009-11-26T08:20:16Z</time>
      </trkpt>
      <trkpt lat="49.2309870" lon="11.3459533">
        <ele>460.1000000</ele>
        <time>2009-11-26T08:20:43Z</time>
      </trkpt>
      <trkpt lat="49.2320682" lon="11.3477508">
        <ele>459.2000000</ele>
        <time>2009-11-26T08:21:33Z</time>
      </trkpt>
      <trkpt lat="49.2331970" lon="11.3496465">
        <ele>459.6000000</ele>
        <time>2009-11-26T08:22:24Z</time>
      </trkpt>
      <trkpt lat="49.2343178" lon="11.3513722">
        <ele>459.2000000</ele>
        <time>2009-11-26T08:23:13Z</time>
      </trkpt>
      <trkpt lat="49.2344641" lon="11.3516158">
        <ele>457.7000000</ele>
        <time>2009-11-26T08:23:20Z</time>
      </trkpt>
      <trkpt lat="49.2348692" lon="11.3530298">
        <ele>455.3000000</ele>
        <time>2009-11-26T08:23:51Z</time>
      </trkpt>
      <trkpt lat="49.2350257" lon="11.3536246">
        <ele>454.4000000</ele>
        <time>2009-11-26T08:24:04Z</time>
      </trkpt>
      <trkpt lat="49.2352794" lon="11.3555277">
        <ele>452.9000000</ele>
        <time>2009-11-26T08:24:44Z</time>
      </trkpt>
      <trkpt lat="49.2354047" lon="11.3563890">
        <ele>451.0000000</ele>
        <time>2009-11-26T08:25:01Z</time>
      </trkpt>
      <trkpt lat="49.2354799" lon="11.3569667">
        <ele>449.1000000</ele>
        <time>2009-11-26T08:25:13Z</time>
      </trkpt>
      <trkpt lat="49.2358456" lon="11.3580689">
        <ele>444.7000000</ele>
        <time>2009-11-26T08:25:38Z</time>
      </trkpt>
      <trkpt lat="49.2359843" lon="11.3585549">
        <ele>442.8000000</ele>
        <time>2009-11-26T08:25:49Z</time>
      </trkpt>
      <trkpt lat="49.2360741" lon="11.3589070">
        <ele>439.5000000</ele>
        <time>2009-11-26T08:25:57Z</time>
      </trkpt>
      <trkpt lat="49.2362315" lon="11.3596660">
        <ele>435.1000000</ele>
        <time>2009-11-26T08:26:13Z</time>
      </trkpt>
      <trkpt lat="49.2363056" lon="11.3602623">
        <ele>433.7000000</ele>
        <time>2009-11-26T08:26:25Z</time>
      </trkpt>
      <trkpt lat="49.2364575" lon="11.3613881">
        <ele>430.8000000</ele>
        <time>2009-11-26T08:26:48Z</time>
      </trkpt>
      <trkpt lat="49.2365749" lon="11.3633565">
        <ele>427.4000000</ele>
        <time>2009-11-26T08:27:28Z</time>
      </trkpt>
      <trkpt lat="49.2365895" lon="11.3636701">
        <ele>427.0000000</ele>
        <time>2009-11-26T08:27:34Z</time>
      </trkpt>
      <trkpt lat="49.2369360" lon="11.3649776">
        <ele>427.4000000</ele>
        <time>2009-11-26T08:28:03Z</time>
      </trkpt>
      <trkpt lat="49.2371421" lon="11.3657335">
        <ele>427.4000000</ele>
        <time>2009-11-26T08:28:19Z</time>
      </trkpt>
      <trkpt lat="49.2373169" lon="11.3660044">
        <ele>427.9000000</ele>
        <time>2009-11-26T08:28:27Z</time>
      </trkpt>
      <trkpt lat="49.2379757" lon="11.3664635">
        <ele>432.3000000</ele>
        <time>2009-11-26T08:28:49Z</time>
      </trkpt>
      <trkpt lat="49.2384387" lon="11.3666194">
        <ele>436.6000000</ele>
        <time>2009-11-26T08:29:04Z</time>
      </trkpt>
      <trkpt lat="49.2384707" lon="11.3666271">
        <ele>436.6000000</ele>
        <time>2009-11-26T08:29:05Z</time>
      </trkpt>
      <trkpt lat="49.2385632" lon="11.3666510">
        <ele>438.5000000</ele>
        <time>2009-11-26T08:29:08Z</time>
      </trkpt>
      <trkpt lat="49.2389178" lon="11.3667841">
        <ele>442.3000000</ele>
        <time>2009-11-26T08:29:19Z</time>
      </trkpt>
      <trkpt lat="49.2389393" lon="11.3668088">
        <ele>442.3000000</ele>
        <time>2009-11-26T08:29:20Z</time>
      </trkpt>
      <trkpt lat="49.2389512" lon="11.3669795">
        <ele>442.8000000</ele>
        <time>2009-11-26T08:29:24Z</time>
      </trkpt>
      <trkpt lat="49.2389361" lon="11.3670767">
        <ele>443.8000000</ele>
        <time>2009-11-26T08:29:26Z</time>
      </trkpt>
      <trkpt lat="49.2390538" lon="11.3672374">
        <ele>443.8000000</ele>
        <time>2009-11-26T08:29:30Z</time>
      </trkpt>
      <trkpt lat="49.2394231" lon="11.3673269">
        <ele>445.2000000</ele>
        <time>2009-11-26T08:29:42Z</time>
      </trkpt>
      <trkpt lat="49.2394876" lon="11.3675076">
        <ele>446.7000000</ele>
        <time>2009-11-26T08:29:46Z</time>
      </trkpt>
      <trkpt lat="49.2396037" lon="11.3687233">
        <ele>447.2000000</ele>
        <time>2009-11-26T08:30:11Z</time>
      </trkpt>
      <trkpt lat="49.2396426" lon="11.3703754">
        <ele>445.7000000</ele>
        <time>2009-11-26T08:30:44Z</time>
      </trkpt>
      <trkpt lat="49.2395261" lon="11.3724802">
        <ele>444.7000000</ele>
        <time>2009-11-26T08:31:27Z</time>
      </trkpt>
      <trkpt lat="49.2394506" lon="11.3736299">
        <ele>442.8000000</ele>
        <time>2009-11-26T08:31:50Z</time>
      </trkpt>
      <trkpt lat="49.2394707" lon="11.3740751">
        <ele>443.3000000</ele>
        <time>2009-11-26T08:31:59Z</time>
      </trkpt>
      <trkpt lat="49.2394707" lon="11.3756815">
        <ele>443.8000000</ele>
        <time>2009-11-26T08:32:32Z</time>
      </trkpt>
      <trkpt lat="49.2396244" lon="11.3780223">
        <ele>444.7000000</ele>
        <time>2009-11-26T08:33:19Z</time>
      </trkpt>
      <trkpt lat="49.2398070" lon="11.3790664">
        <ele>441.9000000</ele>
        <time>2009-11-26T08:33:41Z</time>
      </trkpt>
      <trkpt lat="49.2398540" lon="11.3794313">
        <ele>441.4000000</ele>
        <time>2009-11-26T08:33:49Z</time>
      </trkpt>
      <trkpt lat="49.2401490" lon="11.3805033">
        <ele>438.5000000</ele>
        <time>2009-11-26T08:34:12Z</time>
      </trkpt>
      <trkpt lat="49.2404269" lon="11.3813156">
        <ele>435.1000000</ele>
        <time>2009-11-26T08:34:31Z</time>
      </trkpt>
      <trkpt lat="49.2407393" lon="11.3821177">
        <ele>431.8000000</ele>
        <time>2009-11-26T08:34:50Z</time>
      </trkpt>
      <trkpt lat="49.2409589" lon="11.3826104">
        <ele>429.8000000</ele>
        <time>2009-11-26T08:35:02Z</time>
      </trkpt>
      <trkpt lat="49.2414666" lon="11.3835402">
        <ele>427.0000000</ele>
        <time>2009-11-26T08:35:26Z</time>
      </trkpt>
      <trkpt lat="49.2417414" lon="11.3839789">
        <ele>425.0000000</ele>
        <time>2009-11-26T08:35:38Z</time>
      </trkpt>
      <trkpt lat="49.2426906" lon="11.3852148">
        <ele>423.6000000</ele>
        <time>2009-11-26T08:36:17Z</time>
      </trkpt>
      <trkpt lat="49.2428570" lon="11.3854423">
        <ele>423.6000000</ele>
        <time>2009-11-26T08:36:24Z</time>
      </trkpt>
      <trkpt lat="49.2435586" lon="11.3860793">
        <ele>424.1000000</ele>
        <time>2009-11-26T08:36:49Z</time>
      </trkpt>
      <trkpt lat="49.2449040" lon="11.3872164">
        <ele>421.7000000</ele>
        <time>2009-11-26T08:37:36Z</time>
      </trkpt>
      <trkpt lat="49.2459094" lon="11.3880291">
        <ele>422.2000000</ele>
        <time>2009-11-26T08:38:12Z</time>
      </trkpt>
      <trkpt lat="49.2467057" lon="11.3887845">
        <ele>425.0000000</ele>
        <time>2009-11-26T08:38:41Z</time>
      </trkpt>
      <trkpt lat="49.2469918" lon="11.3890821">
        <ele>426.5000000</ele>
        <time>2009-11-26T08:38:51Z</time>
      </trkpt>
      <trkpt lat="49.2470687" lon="11.3891968">
        <ele>427.4000000</ele>
        <time>2009-11-26T08:38:55Z</time>
      </trkpt>
      <trkpt lat="49.2471211" lon="11.3893404">
        <ele>427.4000000</ele>
        <time>2009-11-26T08:38:58Z</time>
      </trkpt>
      <trkpt lat="49.2473444" lon="11.3897143">
        <ele>428.9000000</ele>
        <time>2009-11-26T08:39:08Z</time>
      </trkpt>
      <trkpt lat="49.2479637" lon="11.3907850">
        <ele>430.3000000</ele>
        <time>2009-11-26T08:39:37Z</time>
      </trkpt>
      <trkpt lat="49.2485279" lon="11.3923545">
        <ele>430.8000000</ele>
        <time>2009-11-26T08:40:13Z</time>
      </trkpt>
      <trkpt lat="49.2487719" lon="11.3939122">
        <ele>430.3000000</ele>
        <time>2009-11-26T08:40:46Z</time>
      </trkpt>
      <trkpt lat="49.2488155" lon="11.3955572">
        <ele>427.9000000</ele>
        <time>2009-11-26T08:41:19Z</time>
      </trkpt>
      <trkpt lat="49.2488948" lon="11.3961355">
        <ele>427.0000000</ele>
        <time>2009-11-26T08:41:31Z</time>
      </trkpt>
      <trkpt lat="49.2491177" lon="11.3961516">
        <ele>426.5000000</ele>
        <time>2009-11-26T08:41:38Z</time>
      </trkpt>
      <trkpt lat="49.2492802" lon="11.3964364">
        <ele>426.5000000</ele>
        <time>2009-11-26T08:41:45Z</time>
      </trkpt>
      <trkpt lat="49.2492724" lon="11.3970159">
        <ele>426.0000000</ele>
        <time>2009-11-26T08:41:57Z</time>
      </trkpt>
      <trkpt lat="49.2494272" lon="11.3976909">
        <ele>425.0000000</ele>
        <time>2009-11-26T08:42:11Z</time>
      </trkpt>
      <trkpt lat="49.2500531" lon="11.3977450">
        <ele>425.0000000</ele>
        <time>2009-11-26T08:42:31Z</time>
      </trkpt>
      <trkpt lat="49.2501059" lon="11.3977440">
        <ele>425.0000000</ele>
        <time>2009-11-26T08:42:32Z</time>
      </trkpt>
      <trkpt lat="49.2503053" lon="11.3976172">
        <ele>425.5000000</ele>
        <time>2009-11-26T08:42:39Z</time>
      </trkpt>
      <trkpt lat="49.2508929" lon="11.3969105">
        <ele>427.0000000</ele>
        <time>2009-11-26T08:43:02Z</time>
      </trkpt>
      <trkpt lat="49.2511425" lon="11.3965991">
        <ele>427.0000000</ele>
        <time>2009-11-26T08:43:12Z</time>
      </trkpt>
      <trkpt lat="49.2513748" lon="11.3963013">
        <ele>428.4000000</ele>
        <time>2009-11-26T08:43:21Z</time>
      </trkpt>
      <trkpt lat="49.2517084" lon="11.3962770">
        <ele>429.4000000</ele>
        <time>2009-11-26T08:43:32Z</time>
      </trkpt>
      <trkpt lat="49.2518728" lon="11.3963686">
        <ele>429.4000000</ele>
        <time>2009-11-26T08:43:37Z</time>
      </trkpt>
      <trkpt lat="49.2519072" lon="11.3968762">
        <ele>429.8000000</ele>
        <time>2009-11-26T08:43:48Z</time>
      </trkpt>
      <trkpt lat="49.2519400" lon="11.3970301">
        <ele>430.8000000</ele>
        <time>2009-11-26T08:43:51Z</time>
      </trkpt>
      <trkpt lat="49.2518387" lon="11.3971010">
        <ele>430.3000000</ele>
        <time>2009-11-26T08:43:54Z</time>
      </trkpt>
      <trkpt lat="49.2516629" lon="11.3969517">
        <ele>430.3000000</ele>
        <time>2009-11-26T08:44:00Z</time>
      </trkpt>
      <trkpt lat="49.2517097" lon="11.3969015">
        <ele>430.3000000</ele>
        <time>2009-11-26T08:44:02Z</time>
      </trkpt>
      <trkpt lat="49.2519182" lon="11.3972233">
        <ele>431.3000000</ele>
        <time>2009-11-26T08:44:11Z</time>
      </trkpt>
      <trkpt lat="49.2520339" lon="11.3982894">
        <ele>430.8000000</ele>
        <time>2009-11-26T08:44:33Z</time>
      </trkpt>
      <trkpt lat="49.2516718" lon="11.3997482">
        <ele>430.8000000</ele>
        <time>2009-11-26T08:45:05Z</time>
      </trkpt>
      <trkpt lat="49.2513450" lon="11.4018476">
        <ele>430.3000000</ele>
        <time>2009-11-26T08:45:48Z</time>
      </trkpt>
      <trkpt lat="49.2514156" lon="11.4036361">
        <ele>430.3000000</ele>
        <time>2009-11-26T08:46:24Z</time>
      </trkpt>
      <trkpt lat="49.2519412" lon="11.4051836">
        <ele>430.3000000</ele>
        <time>2009-11-26T08:47:00Z</time>
      </trkpt>
      <trkpt lat="49.2526978" lon="11.4067340">
        <ele>430.8000000</ele>
        <time>2009-11-26T08:47:39Z</time>
      </trkpt>
      <trkpt lat="49.2528938" lon="11.4070908">
        <ele>430.3000000</ele>
        <time>2009-11-26T08:47:48Z</time>
      </trkpt>
      <trkpt lat="49.2536503" lon="11.4082829">
        <ele>429.4000000</ele>
        <time>2009-11-26T08:48:22Z</time>
      </trkpt>
      <trkpt lat="49.2546887" lon="11.4097995">
        <ele>427.4000000</ele>
        <time>2009-11-26T08:49:06Z</time>
      </trkpt>
      <trkpt lat="49.2553750" lon="11.4106833">
        <ele>427.9000000</ele>
        <time>2009-11-26T08:49:34Z</time>
      </trkpt>
      <trkpt lat="49.2555637" lon="11.4109131">
        <ele>427.9000000</ele>
        <time>2009-11-26T08:49:41Z</time>
      </trkpt>
      <trkpt lat="49.2557465" lon="11.4113091">
        <ele>427.9000000</ele>
        <time>2009-11-26T08:49:51Z</time>
      </trkpt>
      <trkpt lat="49.2559162" lon="11.4129890">
        <ele>428.4000000</ele>
        <time>2009-11-26T08:50:25Z</time>
      </trkpt>
      <trkpt lat="49.2558349" lon="11.4146879">
        <ele>428.9000000</ele>
        <time>2009-11-26T08:51:00Z</time>
      </trkpt>
      <trkpt lat="49.2564111" lon="11.4162240">
        <ele>429.8000000</ele>
        <time>2009-11-26T08:51:35Z</time>
      </trkpt>
      <trkpt lat="49.2571970" lon="11.4173991">
        <ele>432.3000000</ele>
        <time>2009-11-26T08:52:09Z</time>
      </trkpt>
      <trkpt lat="49.2578792" lon="11.4185674">
        <ele>433.2000000</ele>
        <time>2009-11-26T08:52:41Z</time>
      </trkpt>
      <trkpt lat="49.2583647" lon="11.4202782">
        <ele>432.7000000</ele>
        <time>2009-11-26T08:53:19Z</time>
      </trkpt>
      <trkpt lat="49.2589033" lon="11.4217195">
        <ele>435.1000000</ele>
        <time>2009-11-26T08:53:52Z</time>
      </trkpt>
      <trkpt lat="49.2594254" lon="11.4224402">
        <ele>438.0000000</ele>
        <time>2009-11-26T08:54:14Z</time>
      </trkpt>
      <trkpt lat="49.2597459" lon="11.4228792">
        <ele>441.4000000</ele>
        <time>2009-11-26T08:54:27Z</time>
      </trkpt>
      <trkpt lat="49.2598404" lon="11.4230146">
        <ele>442.3000000</ele>
        <time>2009-11-26T08:54:31Z</time>
      </trkpt>
      <trkpt lat="49.2602414" lon="11.4238989">
        <ele>445.7000000</ele>
        <time>2009-11-26T08:54:53Z</time>
      </trkpt>
      <trkpt lat="49.2602486" lon="11.4246493">
        <ele>449.1000000</ele>
        <time>2009-11-26T08:55:08Z</time>
      </trkpt>
      <trkpt lat="49.2602170" lon="11.4258827">
        <ele>452.0000000</ele>
        <time>2009-11-26T08:55:33Z</time>
      </trkpt>
      <trkpt lat="49.2602303" lon="11.4263298">
        <ele>452.9000000</ele>
        <time>2009-11-26T08:55:42Z</time>
      </trkpt>
      <trkpt lat="49.2603625" lon="11.4280102">
        <ele>453.9000000</ele>
        <time>2009-11-26T08:56:16Z</time>
      </trkpt>
      <trkpt lat="49.2604134" lon="11.4285634">
        <ele>454.4000000</ele>
        <time>2009-11-26T08:56:27Z</time>
      </trkpt>
      <trkpt lat="49.2605044" lon="11.4291690">
        <ele>452.9000000</ele>
        <time>2009-11-26T08:56:40Z</time>
      </trkpt>
      <trkpt lat="49.2606669" lon="11.4295550">
        <ele>452.0000000</ele>
        <time>2009-11-26T08:56:49Z</time>
      </trkpt>
      <trkpt lat="49.2610547" lon="11.4303339">
        <ele>447.2000000</ele>
        <time>2009-11-26T08:57:09Z</time>
      </trkpt>
      <trkpt lat="49.2611002" lon="11.4304718">
        <ele>447.6000000</ele>
        <time>2009-11-26T08:57:12Z</time>
      </trkpt>
      <trkpt lat="49.2612437" lon="11.4309024">
        <ele>445.2000000</ele>
        <time>2009-11-26T08:57:22Z</time>
      </trkpt>
      <trkpt lat="49.2619567" lon="11.4324051">
        <ele>442.8000000</ele>
        <time>2009-11-26T08:57:59Z</time>
      </trkpt>
      <trkpt lat="49.2627552" lon="11.4334104">
        <ele>439.9000000</ele>
        <time>2009-11-26T08:58:31Z</time>
      </trkpt>
      <trkpt lat="49.2631787" lon="11.4339726">
        <ele>438.0000000</ele>
        <time>2009-11-26T08:58:49Z</time>
      </trkpt>
      <trkpt lat="49.2638103" lon="11.4344989">
        <ele>434.2000000</ele>
        <time>2009-11-26T08:59:11Z</time>
      </trkpt>
      <trkpt lat="49.2650659" lon="11.4349676">
        <ele>431.8000000</ele>
        <time>2009-11-26T08:59:51Z</time>
      </trkpt>
      <trkpt lat="49.2656644" lon="11.4349842">
        <ele>430.8000000</ele>
        <time>2009-11-26T09:00:09Z</time>
      </trkpt>
      <trkpt lat="49.2657452" lon="11.4349820">
        <ele>430.3000000</ele>
        <time>2009-11-26T09:00:12Z</time>
      </trkpt>
      <trkpt lat="49.2669257" lon="11.4350750">
        <ele>429.8000000</ele>
        <time>2009-11-26T09:00:48Z</time>
      </trkpt>
      <trkpt lat="49.2677587" lon="11.4352360">
        <ele>431.3000000</ele>
        <time>2009-11-26T09:01:14Z</time>
      </trkpt>
      <trkpt lat="49.2682794" lon="11.4356400">
        <ele>434.7000000</ele>
        <time>2009-11-26T09:01:32Z</time>
      </trkpt>
      <trkpt lat="49.2690387" lon="11.4364305">
        <ele>434.7000000</ele>
        <time>2009-11-26T09:02:01Z</time>
      </trkpt>
      <trkpt lat="49.2695278" lon="11.4371599">
        <ele>433.2000000</ele>
        <time>2009-11-26T09:02:22Z</time>
      </trkpt>
      <trkpt lat="49.2698087" lon="11.4375813">
        <ele>431.8000000</ele>
        <time>2009-11-26T09:02:34Z</time>
      </trkpt>
      <trkpt lat="49.2701952" lon="11.4380926">
        <ele>430.8000000</ele>
        <time>2009-11-26T09:02:50Z</time>
      </trkpt>
      <trkpt lat="49.2704055" lon="11.4385203">
        <ele>430.8000000</ele>
        <time>2009-11-26T09:03:01Z</time>
      </trkpt>
      <trkpt lat="49.2705801" lon="11.4387310">
        <ele>430.3000000</ele>
        <time>2009-11-26T09:03:08Z</time>
      </trkpt>
      <trkpt lat="49.2713349" lon="11.4401389">
        <ele>430.8000000</ele>
        <time>2009-11-26T09:03:44Z</time>
      </trkpt>
      <trkpt lat="49.2720292" lon="11.4414555">
        <ele>430.8000000</ele>
        <time>2009-11-26T09:04:19Z</time>
      </trkpt>
      <trkpt lat="49.2722517" lon="11.4419603">
        <ele>430.3000000</ele>
        <time>2009-11-26T09:04:31Z</time>
      </trkpt>
      <trkpt lat="49.2726539" lon="11.4432097">
        <ele>429.4000000</ele>
        <time>2009-11-26T09:04:59Z</time>
      </trkpt>
      <trkpt lat="49.2733001" lon="11.4452368">
        <ele>426.0000000</ele>
        <time>2009-11-26T09:05:44Z</time>
      </trkpt>
      <trkpt lat="49.2739416" lon="11.4469026">
        <ele>423.1000000</ele>
        <time>2009-11-26T09:06:23Z</time>
      </trkpt>
      <trkpt lat="49.2739809" lon="11.4469905">
        <ele>422.6000000</ele>
        <time>2009-11-26T09:06:26Z</time>
      </trkpt>
      <trkpt lat="49.2740435" lon="11.4471373">
        <ele>422.2000000</ele>
        <time>2009-11-26T09:06:29Z</time>
      </trkpt>
      <trkpt lat="49.2741075" lon="11.4475924">
        <ele>422.2000000</ele>
        <time>2009-11-26T09:06:39Z</time>
      </trkpt>
      <trkpt lat="49.2742131" lon="11.4476698">
        <ele>421.7000000</ele>
        <time>2009-11-26T09:06:42Z</time>
      </trkpt>
      <trkpt lat="49.2742997" lon="11.4476989">
        <ele>422.2000000</ele>
        <time>2009-11-26T09:06:45Z</time>
      </trkpt>
      <trkpt lat="49.2746293" lon="11.4483193">
        <ele>421.2000000</ele>
        <time>2009-11-26T09:07:01Z</time>
      </trkpt>
      <trkpt lat="49.2746591" lon="11.4483867">
        <ele>420.7000000</ele>
        <time>2009-11-26T09:07:03Z</time>
      </trkpt>
      <trkpt lat="49.2748730" lon="11.4490423">
        <ele>418.8000000</ele>
        <time>2009-11-26T09:07:17Z</time>
      </trkpt>
      <trkpt lat="49.2748647" lon="11.4491301">
        <ele>419.3000000</ele>
        <time>2009-11-26T09:07:19Z</time>
      </trkpt>
      <trkpt lat="49.2748487" lon="11.4492781">
        <ele>419.3000000</ele>
        <time>2009-11-26T09:07:22Z</time>
      </trkpt>
      <trkpt lat="49.2748628" lon="11.4493728">
        <ele>419.8000000</ele>
        <time>2009-11-26T09:07:24Z</time>
      </trkpt>
      <trkpt lat="49.2750418" lon="11.4497574">
        <ele>419.3000000</ele>
        <time>2009-11-26T09:07:34Z</time>
      </trkpt>
      <trkpt lat="49.2751662" lon="11.4501519">
        <ele>419.3000000</ele>
        <time>2009-11-26T09:07:43Z</time>
      </trkpt>
      <trkpt lat="49.2753019" lon="11.4506116">
        <ele>419.8000000</ele>
        <time>2009-11-26T09:07:53Z</time>
      </trkpt>
      <trkpt lat="49.2754266" lon="11.4510523">
        <ele>419.3000000</ele>
        <time>2009-11-26T09:08:02Z</time>
      </trkpt>
      <trkpt lat="49.2754587" lon="11.4510675">
        <ele>419.8000000</ele>
        <time>2009-11-26T09:08:04Z</time>
      </trkpt>
      <trkpt lat="49.2758105" lon="11.4511466">
        <ele>418.8000000</ele>
        <time>2009-11-26T09:08:15Z</time>
      </trkpt>
      <trkpt lat="49.2761562" lon="11.4511870">
        <ele>419.3000000</ele>
        <time>2009-11-26T09:08:25Z</time>
      </trkpt>
      <trkpt lat="49.2762557" lon="11.4511579">
        <ele>418.8000000</ele>
        <time>2009-11-26T09:08:28Z</time>
      </trkpt>
      <trkpt lat="49.2765276" lon="11.4511519">
        <ele>419.3000000</ele>
        <time>2009-11-26T09:08:37Z</time>
      </trkpt>
      <trkpt lat="49.2768451" lon="11.4511751">
        <ele>419.3000000</ele>
        <time>2009-11-26T09:08:47Z</time>
      </trkpt>
      <trkpt lat="49.2775671" lon="11.4512527">
        <ele>420.7000000</ele>
        <time>2009-11-26T09:09:09Z</time>
      </trkpt>
      <trkpt lat="49.2778867" lon="11.4512839">
        <ele>420.2000000</ele>
        <time>2009-11-26T09:09:19Z</time>
      </trkpt>
      <trkpt lat="49.2787686" lon="11.4513933">
        <ele>419.3000000</ele>
        <time>2009-11-26T09:09:46Z</time>
      </trkpt>
      <trkpt lat="49.2789735" lon="11.4514226">
        <ele>420.2000000</ele>
        <time>2009-11-26T09:09:53Z</time>
      </trkpt>
      <trkpt lat="49.2791707" lon="11.4514078">
        <ele>420.7000000</ele>
        <time>2009-11-26T09:09:59Z</time>
      </trkpt>
      <trkpt lat="49.2794244" lon="11.4512773">
        <ele>423.6000000</ele>
        <time>2009-11-26T09:10:07Z</time>
      </trkpt>
      <trkpt lat="49.2795080" lon="11.4508653">
        <ele>424.6000000</ele>
        <time>2009-11-26T09:10:16Z</time>
      </trkpt>
      <trkpt lat="49.2796278" lon="11.4504659">
        <ele>424.6000000</ele>
        <time>2009-11-26T09:10:25Z</time>
      </trkpt>
      <trkpt lat="49.2795709" lon="11.4498573">
        <ele>420.7000000</ele>
        <time>2009-11-26T09:10:37Z</time>
      </trkpt>
      <trkpt lat="49.2795289" lon="11.4497879">
        <ele>419.8000000</ele>
        <time>2009-11-26T09:10:39Z</time>
      </trkpt>
      <trkpt lat="49.2793662" lon="11.4495309">
        <ele>418.8000000</ele>
        <time>2009-11-26T09:10:46Z</time>
      </trkpt>
      <trkpt lat="49.2794449" lon="11.4494929">
        <ele>417.8000000</ele>
        <time>2009-11-26T09:10:49Z</time>
      </trkpt>
      <trkpt lat="49.2798219" lon="11.4501551">
        <ele>418.3000000</ele>
        <time>2009-11-26T09:11:06Z</time>
      </trkpt>
      <trkpt lat="49.2798968" lon="11.4502722">
        <ele>418.8000000</ele>
        <time>2009-11-26T09:11:10Z</time>
      </trkpt>
      <trkpt lat="49.2801930" lon="11.4506772">
        <ele>418.8000000</ele>
        <time>2009-11-26T09:11:22Z</time>
      </trkpt>
      <trkpt lat="49.2803992" lon="11.4507611">
        <ele>418.3000000</ele>
        <time>2009-11-26T09:11:29Z</time>
      </trkpt>
      <trkpt lat="49.2808388" lon="11.4509157">
        <ele>418.3000000</ele>
        <time>2009-11-26T09:11:43Z</time>
      </trkpt>
      <trkpt lat="49.2809854" lon="11.4509452">
        <ele>418.3000000</ele>
        <time>2009-11-26T09:11:47Z</time>
      </trkpt>
      <trkpt lat="49.2811374" lon="11.4509974">
        <ele>417.3000000</ele>
        <time>2009-11-26T09:11:52Z</time>
      </trkpt>
      <trkpt lat="49.2815197" lon="11.4512206">
        <ele>418.3000000</ele>
        <time>2009-11-26T09:12:05Z</time>
      </trkpt>
      <trkpt lat="49.2815309" lon="11.4512279">
        <ele>418.3000000</ele>
        <time>2009-11-26T09:12:05Z</time>
      </trkpt>
      <trkpt lat="49.2816019" lon="11.4511548">
        <ele>418.3000000</ele>
        <time>2009-11-26T09:12:08Z</time>
      </trkpt>
      <trkpt lat="49.2816034" lon="11.4511570">
        <ele>418.3000000</ele>
        <time>2009-11-26T09:12:08Z</time>
      </trkpt>
      <trkpt lat="49.2819013" lon="11.4513140">
        <ele>417.3000000</ele>
        <time>2009-11-26T09:12:17Z</time>
      </trkpt>
      <trkpt lat="49.2828614" lon="11.4515182">
        <ele>416.9000000</ele>
        <time>2009-11-26T09:12:47Z</time>
      </trkpt>
      <trkpt lat="49.2834361" lon="11.4520118">
        <ele>417.3000000</ele>
        <time>2009-11-26T09:13:08Z</time>
      </trkpt>
      <trkpt lat="49.2835864" lon="11.4520951">
        <ele>417.3000000</ele>
        <time>2009-11-26T09:13:13Z</time>
      </trkpt>
      <trkpt lat="49.2841350" lon="11.4526587">
        <ele>417.3000000</ele>
        <time>2009-11-26T09:13:33Z</time>
      </trkpt>
      <trkpt lat="49.2842516" lon="11.4527913">
        <ele>417.3000000</ele>
        <time>2009-11-26T09:13:38Z</time>
      </trkpt>
      <trkpt lat="49.2841592" lon="11.4530840">
        <ele>417.3000000</ele>
        <time>2009-11-26T09:13:44Z</time>
      </trkpt>
      <trkpt lat="49.2842994" lon="11.4532944">
        <ele>417.8000000</ele>
        <time>2009-11-26T09:13:50Z</time>
      </trkpt>
      <trkpt lat="49.2845663" lon="11.4536863">
        <ele>418.3000000</ele>
        <time>2009-11-26T09:14:02Z</time>
      </trkpt>
      <trkpt lat="49.2854718" lon="11.4542647">
        <ele>418.3000000</ele>
        <time>2009-11-26T09:14:32Z</time>
      </trkpt>
      <trkpt lat="49.2865333" lon="11.4544638">
        <ele>417.8000000</ele>
        <time>2009-11-26T09:15:05Z</time>
      </trkpt>
      <trkpt lat="49.2865935" lon="11.4544697">
        <ele>417.8000000</ele>
        <time>2009-11-26T09:15:07Z</time>
      </trkpt>
      <trkpt lat="49.2873569" lon="11.4545396">
        <ele>417.8000000</ele>
        <time>2009-11-26T09:15:31Z</time>
      </trkpt>
      <trkpt lat="49.2877860" lon="11.4545897">
        <ele>416.4000000</ele>
        <time>2009-11-26T09:15:44Z</time>
      </trkpt>
      <trkpt lat="49.2887605" lon="11.4546899">
        <ele>415.4000000</ele>
        <time>2009-11-26T09:16:14Z</time>
      </trkpt>
      <trkpt lat="49.2893724" lon="11.4547441">
        <ele>414.9000000</ele>
        <time>2009-11-26T09:16:33Z</time>
      </trkpt>
      <trkpt lat="49.2895565" lon="11.4547644">
        <ele>415.4000000</ele>
        <time>2009-11-26T09:16:39Z</time>
      </trkpt>
      <trkpt lat="49.2895855" lon="11.4548395">
        <ele>414.0000000</ele>
        <time>2009-11-26T09:16:40Z</time>
      </trkpt>
      <trkpt lat="49.2895823" lon="11.4549882">
        <ele>411.1000000</ele>
        <time>2009-11-26T09:16:43Z</time>
      </trkpt>
      <trkpt lat="49.2895680" lon="11.4550043">
        <ele>412.1000000</ele>
        <time>2009-11-26T09:16:44Z</time>
      </trkpt>
      <trkpt lat="49.2894950" lon="11.4551037">
        <ele>412.5000000</ele>
        <time>2009-11-26T09:16:47Z</time>
      </trkpt>
      <trkpt lat="49.2896167" lon="11.4549504">
        <ele>409.7000000</ele>
        <time>2009-11-26T09:16:52Z</time>
      </trkpt>
      <trkpt lat="49.2896064" lon="11.4549623">
        <ele>411.6000000</ele>
        <time>2009-11-26T09:16:52Z</time>
      </trkpt>
      <trkpt lat="49.2896016" lon="11.4547785">
        <ele>414.0000000</ele>
        <time>2009-11-26T09:16:56Z</time>
      </trkpt>
      <trkpt lat="49.2896048" lon="11.4547461">
        <ele>413.5000000</ele>
        <time>2009-11-26T09:16:57Z</time>
      </trkpt>
      <trkpt lat="49.2899077" lon="11.4547778">
        <ele>414.5000000</ele>
        <time>2009-11-26T09:17:06Z</time>
      </trkpt>
      <trkpt lat="49.2904081" lon="11.4548411">
        <ele>415.4000000</ele>
        <time>2009-11-26T09:17:22Z</time>
      </trkpt>
      <trkpt lat="49.2906362" lon="11.4548556">
        <ele>416.4000000</ele>
        <time>2009-11-26T09:17:29Z</time>
      </trkpt>
      <trkpt lat="49.2908399" lon="11.4548715">
        <ele>417.3000000</ele>
        <time>2009-11-26T09:17:35Z</time>
      </trkpt>
      <trkpt lat="49.2909770" lon="11.4548328">
        <ele>417.3000000</ele>
        <time>2009-11-26T09:17:39Z</time>
      </trkpt>
      <trkpt lat="49.2916076" lon="11.4548585">
        <ele>416.9000000</ele>
        <time>2009-11-26T09:17:59Z</time>
      </trkpt>
      <trkpt lat="49.2918062" lon="11.4548841">
        <ele>416.9000000</ele>
        <time>2009-11-26T09:18:05Z</time>
      </trkpt>
      <trkpt lat="49.2920326" lon="11.4548093">
        <ele>416.4000000</ele>
        <time>2009-11-26T09:18:12Z</time>
      </trkpt>
      <trkpt lat="49.2922569" lon="11.4549370">
        <ele>415.9000000</ele>
        <time>2009-11-26T09:18:20Z</time>
      </trkpt>
      <trkpt lat="49.2930066" lon="11.4550099">
        <ele>416.4000000</ele>
        <time>2009-11-26T09:18:43Z</time>
      </trkpt>
      <trkpt lat="49.2932846" lon="11.4551261">
        <ele>416.9000000</ele>
        <time>2009-11-26T09:18:52Z</time>
      </trkpt>
      <trkpt lat="49.2944645" lon="11.4552265">
        <ele>415.9000000</ele>
        <time>2009-11-26T09:19:28Z</time>
      </trkpt>
      <trkpt lat="49.2952293" lon="11.4552805">
        <ele>415.9000000</ele>
        <time>2009-11-26T09:19:52Z</time>
      </trkpt>
      <trkpt lat="49.2959100" lon="11.4554007">
        <ele>416.4000000</ele>
        <time>2009-11-26T09:20:13Z</time>
      </trkpt>
      <trkpt lat="49.2962426" lon="11.4555291">
        <ele>415.9000000</ele>
        <time>2009-11-26T09:20:24Z</time>
      </trkpt>
      <trkpt lat="49.2963428" lon="11.4555726">
        <ele>415.4000000</ele>
        <time>2009-11-26T09:20:27Z</time>
      </trkpt>
      <trkpt lat="49.2965859" lon="11.4555880">
        <ele>415.9000000</ele>
        <time>2009-11-26T09:20:34Z</time>
      </trkpt>
      <trkpt lat="49.2971419" lon="11.4559448">
        <ele>415.9000000</ele>
        <time>2009-11-26T09:20:53Z</time>
      </trkpt>
      <trkpt lat="49.2971618" lon="11.4559619">
        <ele>417.3000000</ele>
        <time>2009-11-26T09:20:54Z</time>
      </trkpt>
      <trkpt lat="49.2975106" lon="11.4561630">
        <ele>416.4000000</ele>
        <time>2009-11-26T09:21:05Z</time>
      </trkpt>
      <trkpt lat="49.2985360" lon="11.4568106">
        <ele>415.9000000</ele>
        <time>2009-11-26T09:21:40Z</time>
      </trkpt>
      <trkpt lat="49.3003814" lon="11.4579783">
        <ele>415.9000000</ele>
        <time>2009-11-26T09:22:41Z</time>
      </trkpt>
      <trkpt lat="49.3015842" lon="11.4585206">
        <ele>415.4000000</ele>
        <time>2009-11-26T09:23:20Z</time>
      </trkpt>
      <trkpt lat="49.3024002" lon="11.4586744">
        <ele>416.4000000</ele>
        <time>2009-11-26T09:23:46Z</time>
      </trkpt>
      <trkpt lat="49.3031236" lon="11.4586656">
        <ele>417.3000000</ele>
        <time>2009-11-26T09:24:08Z</time>
      </trkpt>
      <trkpt lat="49.3036439" lon="11.4585076">
        <ele>416.9000000</ele>
        <time>2009-11-26T09:24:24Z</time>
      </trkpt>
      <trkpt lat="49.3041946" lon="11.4581718">
        <ele>417.3000000</ele>
        <time>2009-11-26T09:24:43Z</time>
      </trkpt>
      <trkpt lat="49.3046050" lon="11.4579433">
        <ele>416.4000000</ele>
        <time>2009-11-26T09:24:56Z</time>
      </trkpt>
      <trkpt lat="49.3048180" lon="11.4577917">
        <ele>416.9000000</ele>
        <time>2009-11-26T09:25:03Z</time>
      </trkpt>
      <trkpt lat="49.3053527" lon="11.4572488">
        <ele>417.3000000</ele>
        <time>2009-11-26T09:25:23Z</time>
      </trkpt>
      <trkpt lat="49.3055620" lon="11.4570197">
        <ele>416.9000000</ele>
        <time>2009-11-26T09:25:31Z</time>
      </trkpt>
      <trkpt lat="49.3057862" lon="11.4566765">
        <ele>416.4000000</ele>
        <time>2009-11-26T09:25:41Z</time>
      </trkpt>
      <trkpt lat="49.3058656" lon="11.4565557">
        <ele>416.9000000</ele>
        <time>2009-11-26T09:25:44Z</time>
      </trkpt>
      <trkpt lat="49.3059477" lon="11.4563444">
        <ele>416.9000000</ele>
        <time>2009-11-26T09:25:49Z</time>
      </trkpt>
      <trkpt lat="49.3060237" lon="11.4562071">
        <ele>416.9000000</ele>
        <time>2009-11-26T09:25:53Z</time>
      </trkpt>
      <trkpt lat="49.3062484" lon="11.4557669">
        <ele>415.9000000</ele>
        <time>2009-11-26T09:26:04Z</time>
      </trkpt>
      <trkpt lat="49.3065463" lon="11.4554346">
        <ele>415.9000000</ele>
        <time>2009-11-26T09:26:16Z</time>
      </trkpt>
      <trkpt lat="49.3069031" lon="11.4551134">
        <ele>417.3000000</ele>
        <time>2009-11-26T09:26:28Z</time>
      </trkpt>
      <trkpt lat="49.3071604" lon="11.4549419">
        <ele>416.9000000</ele>
        <time>2009-11-26T09:26:37Z</time>
      </trkpt>
      <trkpt lat="49.3075342" lon="11.4547155">
        <ele>416.9000000</ele>
        <time>2009-11-26T09:26:50Z</time>
      </trkpt>
      <trkpt lat="49.3085540" lon="11.4540319">
        <ele>416.9000000</ele>
        <time>2009-11-26T09:27:24Z</time>
      </trkpt>
      <trkpt lat="49.3092536" lon="11.4533247">
        <ele>415.9000000</ele>
        <time>2009-11-26T09:27:50Z</time>
      </trkpt>
      <trkpt lat="49.3093191" lon="11.4532217">
        <ele>414.9000000</ele>
        <time>2009-11-26T09:27:53Z</time>
      </trkpt>
      <trkpt lat="49.3095292" lon="11.4530032">
        <ele>414.5000000</ele>
        <time>2009-11-26T09:28:01Z</time>
      </trkpt>
      <trkpt lat="49.3095784" lon="11.4529742">
        <ele>414.9000000</ele>
        <time>2009-11-26T09:28:02Z</time>
      </trkpt>
      <trkpt lat="49.3097727" lon="11.4527886">
        <ele>415.9000000</ele>
        <time>2009-11-26T09:28:09Z</time>
      </trkpt>
      <trkpt lat="49.3098677" lon="11.4526971">
        <ele>415.4000000</ele>
        <time>2009-11-26T09:28:13Z</time>
      </trkpt>
      <trkpt lat="49.3099635" lon="11.4526271">
        <ele>415.4000000</ele>
        <time>2009-11-26T09:28:16Z</time>
      </trkpt>
      <trkpt lat="49.3100671" lon="11.4525152">
        <ele>415.4000000</ele>
        <time>2009-11-26T09:28:20Z</time>
      </trkpt>
      <trkpt lat="49.3101718" lon="11.4524173">
        <ele>415.4000000</ele>
        <time>2009-11-26T09:28:24Z</time>
      </trkpt>
      <trkpt lat="49.3102910" lon="11.4522987">
        <ele>415.4000000</ele>
        <time>2009-11-26T09:28:28Z</time>
      </trkpt>
      <trkpt lat="49.3104954" lon="11.4520929">
        <ele>415.4000000</ele>
        <time>2009-11-26T09:28:36Z</time>
      </trkpt>
      <trkpt lat="49.3107007" lon="11.4518859">
        <ele>414.9000000</ele>
        <time>2009-11-26T09:28:43Z</time>
      </trkpt>
      <trkpt lat="49.3109721" lon="11.4516422">
        <ele>414.9000000</ele>
        <time>2009-11-26T09:28:53Z</time>
      </trkpt>
      <trkpt lat="49.3110998" lon="11.4515464">
        <ele>414.9000000</ele>
        <time>2009-11-26T09:28:57Z</time>
      </trkpt>
      <trkpt lat="49.3112276" lon="11.4514565">
        <ele>415.4000000</ele>
        <time>2009-11-26T09:29:02Z</time>
      </trkpt>
      <trkpt lat="49.3113425" lon="11.4513816">
        <ele>415.4000000</ele>
        <time>2009-11-26T09:29:06Z</time>
      </trkpt>
      <trkpt lat="49.3116185" lon="11.4511372">
        <ele>415.4000000</ele>
        <time>2009-11-26T09:29:16Z</time>
      </trkpt>
      <trkpt lat="49.3117988" lon="11.4509830">
        <ele>415.9000000</ele>
        <time>2009-11-26T09:29:22Z</time>
      </trkpt>
      <trkpt lat="49.3120400" lon="11.4508068">
        <ele>416.4000000</ele>
        <time>2009-11-26T09:29:30Z</time>
      </trkpt>
      <trkpt lat="49.3122804" lon="11.4504804">
        <ele>416.4000000</ele>
        <time>2009-11-26T09:29:40Z</time>
      </trkpt>
      <trkpt lat="49.3123928" lon="11.4503539">
        <ele>416.9000000</ele>
        <time>2009-11-26T09:29:44Z</time>
      </trkpt>
      <trkpt lat="49.3127800" lon="11.4499819">
        <ele>417.8000000</ele>
        <time>2009-11-26T09:29:59Z</time>
      </trkpt>
      <trkpt lat="49.3134964" lon="11.4492487">
        <ele>417.3000000</ele>
        <time>2009-11-26T09:30:25Z</time>
      </trkpt>
      <trkpt lat="49.3137738" lon="11.4489410">
        <ele>417.3000000</ele>
        <time>2009-11-26T09:30:36Z</time>
      </trkpt>
      <trkpt lat="49.3143757" lon="11.4483313">
        <ele>416.9000000</ele>
        <time>2009-11-26T09:30:58Z</time>
      </trkpt>
      <trkpt lat="49.3152886" lon="11.4474049">
        <ele>416.4000000</ele>
        <time>2009-11-26T09:31:32Z</time>
      </trkpt>
      <trkpt lat="49.3154506" lon="11.4472543">
        <ele>417.3000000</ele>
        <time>2009-11-26T09:31:38Z</time>
      </trkpt>
      <trkpt lat="49.3156970" lon="11.4470659">
        <ele>416.9000000</ele>
        <time>2009-11-26T09:31:46Z</time>
      </trkpt>
      <trkpt lat="49.3157855" lon="11.4469699">
        <ele>417.8000000</ele>
        <time>2009-11-26T09:31:50Z</time>
      </trkpt>
      <trkpt lat="49.3158780" lon="11.4468885">
        <ele>416.9000000</ele>
        <time>2009-11-26T09:31:53Z</time>
      </trkpt>
      <trkpt lat="49.3159671" lon="11.4467967">
        <ele>416.9000000</ele>
        <time>2009-11-26T09:31:56Z</time>
      </trkpt>
      <trkpt lat="49.3161380" lon="11.4465959">
        <ele>417.3000000</ele>
        <time>2009-11-26T09:32:03Z</time>
      </trkpt>
      <trkpt lat="49.3170108" lon="11.4456911">
        <ele>416.9000000</ele>
        <time>2009-11-26T09:32:35Z</time>
      </trkpt>
      <trkpt lat="49.3180246" lon="11.4447003">
        <ele>416.4000000</ele>
        <time>2009-11-26T09:33:13Z</time>
      </trkpt>
      <trkpt lat="49.3192640" lon="11.4434639">
        <ele>416.4000000</ele>
        <time>2009-11-26T09:33:58Z</time>
      </trkpt>
      <trkpt lat="49.3204349" lon="11.4417627">
        <ele>415.4000000</ele>
        <time>2009-11-26T09:34:48Z</time>
      </trkpt>
      <trkpt lat="49.3213593" lon="11.4397818">
        <ele>416.9000000</ele>
        <time>2009-11-26T09:35:37Z</time>
      </trkpt>
      <trkpt lat="49.3220343" lon="11.4385695">
        <ele>417.3000000</ele>
        <time>2009-11-26T09:36:09Z</time>
      </trkpt>
      <trkpt lat="49.3226943" lon="11.4376546">
        <ele>416.9000000</ele>
        <time>2009-11-26T09:36:37Z</time>
      </trkpt>
      <trkpt lat="49.3230298" lon="11.4372853">
        <ele>416.9000000</ele>
        <time>2009-11-26T09:36:50Z</time>
      </trkpt>
      <trkpt lat="49.3232464" lon="11.4370274">
        <ele>415.9000000</ele>
        <time>2009-11-26T09:36:58Z</time>
      </trkpt>
      <trkpt lat="49.3238356" lon="11.4366463">
        <ele>416.9000000</ele>
        <time>2009-11-26T09:37:18Z</time>
      </trkpt>
      <trkpt lat="49.3252302" lon="11.4357202">
        <ele>416.4000000</ele>
        <time>2009-11-26T09:38:05Z</time>
      </trkpt>
      <trkpt lat="49.3263050" lon="11.4350350">
        <ele>416.9000000</ele>
        <time>2009-11-26T09:38:41Z</time>
      </trkpt>
      <trkpt lat="49.3275459" lon="11.4342061">
        <ele>416.9000000</ele>
        <time>2009-11-26T09:39:23Z</time>
      </trkpt>
      <trkpt lat="49.3286668" lon="11.4334721">
        <ele>416.9000000</ele>
        <time>2009-11-26T09:40:01Z</time>
      </trkpt>
      <trkpt lat="49.3290733" lon="11.4332623">
        <ele>416.4000000</ele>
        <time>2009-11-26T09:40:14Z</time>
      </trkpt>
      <trkpt lat="49.3292470" lon="11.4331625">
        <ele>416.9000000</ele>
        <time>2009-11-26T09:40:20Z</time>
      </trkpt>
      <trkpt lat="49.3298257" lon="11.4327561">
        <ele>417.8000000</ele>
        <time>2009-11-26T09:40:39Z</time>
      </trkpt>
      <trkpt lat="49.3298879" lon="11.4326981">
        <ele>416.9000000</ele>
        <time>2009-11-26T09:40:41Z</time>
      </trkpt>
      <trkpt lat="49.3299675" lon="11.4326287">
        <ele>416.9000000</ele>
        <time>2009-11-26T09:40:44Z</time>
      </trkpt>
      <trkpt lat="49.3301284" lon="11.4324891">
        <ele>416.4000000</ele>
        <time>2009-11-26T09:40:50Z</time>
      </trkpt>
      <trkpt lat="49.3304338" lon="11.4323176">
        <ele>416.9000000</ele>
        <time>2009-11-26T09:41:00Z</time>
      </trkpt>
      <trkpt lat="49.3306321" lon="11.4321818">
        <ele>416.4000000</ele>
        <time>2009-11-26T09:41:07Z</time>
      </trkpt>
      <trkpt lat="49.3312178" lon="11.4317704">
        <ele>416.9000000</ele>
        <time>2009-11-26T09:41:27Z</time>
      </trkpt>
      <trkpt lat="49.3314436" lon="11.4316394">
        <ele>417.3000000</ele>
        <time>2009-11-26T09:41:34Z</time>
      </trkpt>
      <trkpt lat="49.3325750" lon="11.4309006">
        <ele>417.3000000</ele>
        <time>2009-11-26T09:42:12Z</time>
      </trkpt>
      <trkpt lat="49.3335920" lon="11.4302252">
        <ele>415.9000000</ele>
        <time>2009-11-26T09:42:46Z</time>
      </trkpt>
      <trkpt lat="49.3337158" lon="11.4301639">
        <ele>416.9000000</ele>
        <time>2009-11-26T09:42:50Z</time>
      </trkpt>
      <trkpt lat="49.3339759" lon="11.4300999">
        <ele>416.9000000</ele>
        <time>2009-11-26T09:42:59Z</time>
      </trkpt>
      <trkpt lat="49.3349807" lon="11.4295970">
        <ele>417.8000000</ele>
        <time>2009-11-26T09:43:31Z</time>
      </trkpt>
      <trkpt lat="49.3356853" lon="11.4293155">
        <ele>418.3000000</ele>
        <time>2009-11-26T09:43:54Z</time>
      </trkpt>
      <trkpt lat="49.3367600" lon="11.4288974">
        <ele>418.8000000</ele>
        <time>2009-11-26T09:44:28Z</time>
      </trkpt>
      <trkpt lat="49.3368273" lon="11.4288681">
        <ele>419.8000000</ele>
        <time>2009-11-26T09:44:30Z</time>
      </trkpt>
      <trkpt lat="49.3375781" lon="11.4285332">
        <ele>416.9000000</ele>
        <time>2009-11-26T09:44:54Z</time>
      </trkpt>
      <trkpt lat="49.3385794" lon="11.4281004">
        <ele>419.3000000</ele>
        <time>2009-11-26T09:45:27Z</time>
      </trkpt>
      <trkpt lat="49.3393995" lon="11.4277430">
        <ele>416.4000000</ele>
        <time>2009-11-26T09:45:53Z</time>
      </trkpt>
      <trkpt lat="49.3399554" lon="11.4275124">
        <ele>415.9000000</ele>
        <time>2009-11-26T09:46:11Z</time>
      </trkpt>
      <trkpt lat="49.3401168" lon="11.4273762">
        <ele>415.9000000</ele>
        <time>2009-11-26T09:46:16Z</time>
      </trkpt>
      <trkpt lat="49.3404469" lon="11.4271680">
        <ele>415.9000000</ele>
        <time>2009-11-26T09:46:28Z</time>
      </trkpt>
      <trkpt lat="49.3415122" lon="11.4266632">
        <ele>416.4000000</ele>
        <time>2009-11-26T09:47:02Z</time>
      </trkpt>
      <trkpt lat="49.3429938" lon="11.4260501">
        <ele>416.4000000</ele>
        <time>2009-11-26T09:47:49Z</time>
      </trkpt>
      <trkpt lat="49.3433259" lon="11.4259755">
        <ele>416.9000000</ele>
        <time>2009-11-26T09:48:00Z</time>
      </trkpt>
      <trkpt lat="49.3440288" lon="11.4259561">
        <ele>416.4000000</ele>
        <time>2009-11-26T09:48:22Z</time>
      </trkpt>
      <trkpt lat="49.3455140" lon="11.4259764">
        <ele>415.9000000</ele>
        <time>2009-11-26T09:49:08Z</time>
      </trkpt>
      <trkpt lat="49.3471572" lon="11.4260261">
        <ele>416.9000000</ele>
        <time>2009-11-26T09:49:58Z</time>
      </trkpt>
      <trkpt lat="49.3486237" lon="11.4260651">
        <ele>415.4000000</ele>
        <time>2009-11-26T09:50:44Z</time>
      </trkpt>
      <trkpt lat="49.3495141" lon="11.4260861">
        <ele>416.9000000</ele>
        <time>2009-11-26T09:51:11Z</time>
      </trkpt>
      <trkpt lat="49.3504102" lon="11.4256056">
        <ele>415.9000000</ele>
        <time>2009-11-26T09:51:41Z</time>
      </trkpt>
      <trkpt lat="49.3507815" lon="11.4251477">
        <ele>416.4000000</ele>
        <time>2009-11-26T09:51:55Z</time>
      </trkpt>
      <trkpt lat="49.3508868" lon="11.4250420">
        <ele>415.9000000</ele>
        <time>2009-11-26T09:51:59Z</time>
      </trkpt>
      <trkpt lat="49.3511914" lon="11.4246463">
        <ele>416.4000000</ele>
        <time>2009-11-26T09:52:12Z</time>
      </trkpt>
      <trkpt lat="49.3513650" lon="11.4244865">
        <ele>415.9000000</ele>
        <time>2009-11-26T09:52:18Z</time>
      </trkpt>
      <trkpt lat="49.3524767" lon="11.4232275">
        <ele>415.9000000</ele>
        <time>2009-11-26T09:53:01Z</time>
      </trkpt>
      <trkpt lat="49.3534334" lon="11.4219087">
        <ele>416.4000000</ele>
        <time>2009-11-26T09:53:40Z</time>
      </trkpt>
      <trkpt lat="49.3535963" lon="11.4216169">
        <ele>416.9000000</ele>
        <time>2009-11-26T09:53:48Z</time>
      </trkpt>
      <trkpt lat="49.3537811" lon="11.4213451">
        <ele>417.3000000</ele>
        <time>2009-11-26T09:53:56Z</time>
      </trkpt>
      <trkpt lat="49.3540116" lon="11.4209827">
        <ele>417.3000000</ele>
        <time>2009-11-26T09:54:06Z</time>
      </trkpt>
      <trkpt lat="49.3541395" lon="11.4207793">
        <ele>416.9000000</ele>
        <time>2009-11-26T09:54:12Z</time>
      </trkpt>
      <trkpt lat="49.3543014" lon="11.4204830">
        <ele>416.9000000</ele>
        <time>2009-11-26T09:54:20Z</time>
      </trkpt>
      <trkpt lat="49.3544847" lon="11.4200515">
        <ele>416.4000000</ele>
        <time>2009-11-26T09:54:30Z</time>
      </trkpt>
      <trkpt lat="49.3545834" lon="11.4199175">
        <ele>416.9000000</ele>
        <time>2009-11-26T09:54:34Z</time>
      </trkpt>
      <trkpt lat="49.3547896" lon="11.4196968">
        <ele>416.4000000</ele>
        <time>2009-11-26T09:54:42Z</time>
      </trkpt>
      <trkpt lat="49.3548908" lon="11.4196160">
        <ele>416.4000000</ele>
        <time>2009-11-26T09:54:45Z</time>
      </trkpt>
      <trkpt lat="49.3555013" lon="11.4194336">
        <ele>416.4000000</ele>
        <time>2009-11-26T09:55:05Z</time>
      </trkpt>
      <trkpt lat="49.3565682" lon="11.4193070">
        <ele>415.9000000</ele>
        <time>2009-11-26T09:55:38Z</time>
      </trkpt>
      <trkpt lat="49.3572944" lon="11.4186724">
        <ele>416.4000000</ele>
        <time>2009-11-26T09:56:04Z</time>
      </trkpt>
      <trkpt lat="49.3576109" lon="11.4179161">
        <ele>416.4000000</ele>
        <time>2009-11-26T09:56:22Z</time>
      </trkpt>
      <trkpt lat="49.3578663" lon="11.4166716">
        <ele>415.9000000</ele>
        <time>2009-11-26T09:56:48Z</time>
      </trkpt>
      <trkpt lat="49.3580518" lon="11.4150740">
        <ele>416.9000000</ele>
        <time>2009-11-26T09:57:21Z</time>
      </trkpt>
      <trkpt lat="49.3580609" lon="11.4140866">
        <ele>415.9000000</ele>
        <time>2009-11-26T09:57:40Z</time>
      </trkpt>
      <trkpt lat="49.3578965" lon="11.4132789">
        <ele>415.9000000</ele>
        <time>2009-11-26T09:57:58Z</time>
      </trkpt>
      <trkpt lat="49.3579162" lon="11.4130170">
        <ele>416.4000000</ele>
        <time>2009-11-26T09:58:03Z</time>
      </trkpt>
      <trkpt lat="49.3578495" lon="11.4121592">
        <ele>416.4000000</ele>
        <time>2009-11-26T09:58:20Z</time>
      </trkpt>
      <trkpt lat="49.3577295" lon="11.4116666">
        <ele>416.4000000</ele>
        <time>2009-11-26T09:58:31Z</time>
      </trkpt>
      <trkpt lat="49.3576950" lon="11.4112310">
        <ele>416.4000000</ele>
        <time>2009-11-26T09:58:40Z</time>
      </trkpt>
      <trkpt lat="49.3577577" lon="11.4103325">
        <ele>416.4000000</ele>
        <time>2009-11-26T09:58:58Z</time>
      </trkpt>
      <trkpt lat="49.3577665" lon="11.4102498">
        <ele>416.4000000</ele>
        <time>2009-11-26T09:59:00Z</time>
      </trkpt>
      <trkpt lat="49.3577987" lon="11.4100446">
        <ele>416.9000000</ele>
        <time>2009-11-26T09:59:04Z</time>
      </trkpt>
      <trkpt lat="49.3578426" lon="11.4098605">
        <ele>416.4000000</ele>
        <time>2009-11-26T09:59:08Z</time>
      </trkpt>
      <trkpt lat="49.3581736" lon="11.4084787">
        <ele>416.4000000</ele>
        <time>2009-11-26T09:59:37Z</time>
      </trkpt>
      <trkpt lat="49.3584253" lon="11.4075386">
        <ele>416.4000000</ele>
        <time>2009-11-26T09:59:58Z</time>
      </trkpt>
      <trkpt lat="49.3587875" lon="11.4065057">
        <ele>415.4000000</ele>
        <time>2009-11-26T10:00:22Z</time>
      </trkpt>
      <trkpt lat="49.3590398" lon="11.4058357">
        <ele>415.9000000</ele>
        <time>2009-11-26T10:00:37Z</time>
      </trkpt>
      <trkpt lat="49.3595935" lon="11.4046087">
        <ele>415.4000000</ele>
        <time>2009-11-26T10:01:07Z</time>
      </trkpt>
      <trkpt lat="49.3597940" lon="11.4041728">
        <ele>415.4000000</ele>
        <time>2009-11-26T10:01:18Z</time>
      </trkpt>
      <trkpt lat="49.3600063" lon="11.4036447">
        <ele>415.9000000</ele>
        <time>2009-11-26T10:01:30Z</time>
      </trkpt>
      <trkpt lat="49.3601968" lon="11.4032257">
        <ele>415.9000000</ele>
        <time>2009-11-26T10:01:41Z</time>
      </trkpt>
      <trkpt lat="49.3603473" lon="11.4028769">
        <ele>416.4000000</ele>
        <time>2009-11-26T10:01:49Z</time>
      </trkpt>
      <trkpt lat="49.3604244" lon="11.4027189">
        <ele>416.9000000</ele>
        <time>2009-11-26T10:01:53Z</time>
      </trkpt>
      <trkpt lat="49.3606140" lon="11.4022000">
        <ele>416.9000000</ele>
        <time>2009-11-26T10:02:05Z</time>
      </trkpt>
      <trkpt lat="49.3607015" lon="11.4018223">
        <ele>417.3000000</ele>
        <time>2009-11-26T10:02:13Z</time>
      </trkpt>
      <trkpt lat="49.3607576" lon="11.4015843">
        <ele>417.3000000</ele>
        <time>2009-11-26T10:02:18Z</time>
      </trkpt>
      <trkpt lat="49.3610108" lon="11.4009162">
        <ele>416.4000000</ele>
        <time>2009-11-26T10:02:34Z</time>
      </trkpt>
      <trkpt lat="49.3611083" lon="11.4007469">
        <ele>417.3000000</ele>
        <time>2009-11-26T10:02:38Z</time>
      </trkpt>
      <trkpt lat="49.3614481" lon="11.3998260">
        <ele>416.9000000</ele>
        <time>2009-11-26T10:03:00Z</time>
      </trkpt>
      <trkpt lat="49.3615154" lon="11.3996901">
        <ele>416.4000000</ele>
        <time>2009-11-26T10:03:03Z</time>
      </trkpt>
      <trkpt lat="49.3617091" lon="11.3993397">
        <ele>416.4000000</ele>
        <time>2009-11-26T10:03:12Z</time>
      </trkpt>
      <trkpt lat="49.3618376" lon="11.3991160">
        <ele>416.4000000</ele>
        <time>2009-11-26T10:03:18Z</time>
      </trkpt>
      <trkpt lat="49.3620047" lon="11.3988549">
        <ele>415.9000000</ele>
        <time>2009-11-26T10:03:26Z</time>
      </trkpt>
      <trkpt lat="49.3621106" lon="11.3983333">
        <ele>416.4000000</ele>
        <time>2009-11-26T10:03:37Z</time>
      </trkpt>
      <trkpt lat="49.3620920" lon="11.3981516">
        <ele>416.4000000</ele>
        <time>2009-11-26T10:03:40Z</time>
      </trkpt>
      <trkpt lat="49.3620008" lon="11.3977848">
        <ele>416.4000000</ele>
        <time>2009-11-26T10:03:48Z</time>
      </trkpt>
      <trkpt lat="49.3613991" lon="11.3964899">
        <ele>415.9000000</ele>
        <time>2009-11-26T10:04:20Z</time>
      </trkpt>
      <trkpt lat="49.3610065" lon="11.3957123">
        <ele>415.9000000</ele>
        <time>2009-11-26T10:04:40Z</time>
      </trkpt>
      <trkpt lat="49.3608124" lon="11.3951860">
        <ele>416.4000000</ele>
        <time>2009-11-26T10:04:52Z</time>
      </trkpt>
      <trkpt lat="49.3603265" lon="11.3941163">
        <ele>416.4000000</ele>
        <time>2009-11-26T10:05:19Z</time>
      </trkpt>
      <trkpt lat="49.3602763" lon="11.3939536">
        <ele>416.4000000</ele>
        <time>2009-11-26T10:05:22Z</time>
      </trkpt>
      <trkpt lat="49.3601333" lon="11.3935460">
        <ele>416.4000000</ele>
        <time>2009-11-26T10:05:32Z</time>
      </trkpt>
      <trkpt lat="49.3600722" lon="11.3934125">
        <ele>415.9000000</ele>
        <time>2009-11-26T10:05:35Z</time>
      </trkpt>
      <trkpt lat="49.3600270" lon="11.3932420">
        <ele>415.9000000</ele>
        <time>2009-11-26T10:05:39Z</time>
      </trkpt>
      <trkpt lat="49.3599361" lon="11.3926627">
        <ele>416.9000000</ele>
        <time>2009-11-26T10:05:51Z</time>
      </trkpt>
      <trkpt lat="49.3599727" lon="11.3924367">
        <ele>416.9000000</ele>
        <time>2009-11-26T10:05:55Z</time>
      </trkpt>
      <trkpt lat="49.3602400" lon="11.3916771">
        <ele>415.9000000</ele>
        <time>2009-11-26T10:06:13Z</time>
      </trkpt>
      <trkpt lat="49.3604613" lon="11.3910025">
        <ele>416.4000000</ele>
        <time>2009-11-26T10:06:28Z</time>
      </trkpt>
      <trkpt lat="49.3606829" lon="11.3899070">
        <ele>416.4000000</ele>
        <time>2009-11-26T10:06:51Z</time>
      </trkpt>
      <trkpt lat="49.3607126" lon="11.3895122">
        <ele>416.4000000</ele>
        <time>2009-11-26T10:06:59Z</time>
      </trkpt>
      <trkpt lat="49.3607855" lon="11.3892898">
        <ele>416.4000000</ele>
        <time>2009-11-26T10:07:04Z</time>
      </trkpt>
      <trkpt lat="49.3608974" lon="11.3885239">
        <ele>415.9000000</ele>
        <time>2009-11-26T10:07:20Z</time>
      </trkpt>
      <trkpt lat="49.3609434" lon="11.3883349">
        <ele>415.9000000</ele>
        <time>2009-11-26T10:07:24Z</time>
      </trkpt>
      <trkpt lat="49.3609880" lon="11.3881549">
        <ele>415.9000000</ele>
        <time>2009-11-26T10:07:28Z</time>
      </trkpt>
      <trkpt lat="49.3610702" lon="11.3870045">
        <ele>415.9000000</ele>
        <time>2009-11-26T10:07:51Z</time>
      </trkpt>
      <trkpt lat="49.3611231" lon="11.3865207">
        <ele>415.9000000</ele>
        <time>2009-11-26T10:08:01Z</time>
      </trkpt>
      <trkpt lat="49.3611274" lon="11.3855141">
        <ele>416.4000000</ele>
        <time>2009-11-26T10:08:21Z</time>
      </trkpt>
      <trkpt lat="49.3610852" lon="11.3850528">
        <ele>416.4000000</ele>
        <time>2009-11-26T10:08:31Z</time>
      </trkpt>
      <trkpt lat="49.3609374" lon="11.3844636">
        <ele>416.9000000</ele>
        <time>2009-11-26T10:08:43Z</time>
      </trkpt>
      <trkpt lat="49.3605596" lon="11.3837103">
        <ele>416.4000000</ele>
        <time>2009-11-26T10:09:03Z</time>
      </trkpt>
      <trkpt lat="49.3603778" lon="11.3836138">
        <ele>415.9000000</ele>
        <time>2009-11-26T10:09:08Z</time>
      </trkpt>
      <trkpt lat="49.3603321" lon="11.3835592">
        <ele>415.4000000</ele>
        <time>2009-11-26T10:09:10Z</time>
      </trkpt>
      <trkpt lat="49.3597526" lon="11.3829513">
        <ele>415.4000000</ele>
        <time>2009-11-26T10:09:32Z</time>
      </trkpt>
      <trkpt lat="49.3596136" lon="11.3827872">
        <ele>415.9000000</ele>
        <time>2009-11-26T10:09:37Z</time>
      </trkpt>
      <trkpt lat="49.3594370" lon="11.3825569">
        <ele>416.4000000</ele>
        <time>2009-11-26T10:09:45Z</time>
      </trkpt>
      <trkpt lat="49.3592851" lon="11.3823801">
        <ele>415.4000000</ele>
        <time>2009-11-26T10:09:50Z</time>
      </trkpt>
      <trkpt lat="49.3590973" lon="11.3821651">
        <ele>415.9000000</ele>
        <time>2009-11-26T10:09:58Z</time>
      </trkpt>
      <trkpt lat="49.3586735" lon="11.3816929">
        <ele>416.4000000</ele>
        <time>2009-11-26T10:10:14Z</time>
      </trkpt>
      <trkpt lat="49.3585285" lon="11.3815195">
        <ele>416.4000000</ele>
        <time>2009-11-26T10:10:20Z</time>
      </trkpt>
      <trkpt lat="49.3579823" lon="11.3804906">
        <ele>415.9000000</ele>
        <time>2009-11-26T10:10:46Z</time>
      </trkpt>
      <trkpt lat="49.3577777" lon="11.3798015">
        <ele>415.9000000</ele>
        <time>2009-11-26T10:11:02Z</time>
      </trkpt>
      <trkpt lat="49.3576522" lon="11.3791052">
        <ele>415.9000000</ele>
        <time>2009-11-26T10:11:16Z</time>
      </trkpt>
      <trkpt lat="49.3573940" lon="11.3784632">
        <ele>415.4000000</ele>
        <time>2009-11-26T10:11:31Z</time>
      </trkpt>
      <trkpt lat="49.3573309" lon="11.3779081">
        <ele>415.4000000</ele>
        <time>2009-11-26T10:11:43Z</time>
      </trkpt>
      <trkpt lat="49.3572405" lon="11.3776248">
        <ele>415.4000000</ele>
        <time>2009-11-26T10:11:49Z</time>
      </trkpt>
      <trkpt lat="49.3568228" lon="11.3758290">
        <ele>415.4000000</ele>
        <time>2009-11-26T10:12:27Z</time>
      </trkpt>
      <trkpt lat="49.3564280" lon="11.3741841">
        <ele>415.4000000</ele>
        <time>2009-11-26T10:13:03Z</time>
      </trkpt>
      <trkpt lat="49.3562103" lon="11.3736285">
        <ele>415.9000000</ele>
        <time>2009-11-26T10:13:16Z</time>
      </trkpt>
      <trkpt lat="49.3560115" lon="11.3733224">
        <ele>415.9000000</ele>
        <time>2009-11-26T10:13:24Z</time>
      </trkpt>
      <trkpt lat="49.3557933" lon="11.3730774">
        <ele>415.9000000</ele>
        <time>2009-11-26T10:13:33Z</time>
      </trkpt>
      <trkpt lat="49.3552401" lon="11.3726711">
        <ele>415.4000000</ele>
        <time>2009-11-26T10:13:52Z</time>
      </trkpt>
      <trkpt lat="49.3550737" lon="11.3725434">
        <ele>416.4000000</ele>
        <time>2009-11-26T10:13:58Z</time>
      </trkpt>
      <trkpt lat="49.3545522" lon="11.3719449">
        <ele>416.9000000</ele>
        <time>2009-11-26T10:14:18Z</time>
      </trkpt>
      <trkpt lat="49.3542772" lon="11.3712975">
        <ele>416.9000000</ele>
        <time>2009-11-26T10:14:33Z</time>
      </trkpt>
      <trkpt lat="49.3542306" lon="11.3711364">
        <ele>416.9000000</ele>
        <time>2009-11-26T10:14:37Z</time>
      </trkpt>
      <trkpt lat="49.3542174" lon="11.3706728">
        <ele>420.2000000</ele>
        <time>2009-11-26T10:14:46Z</time>
      </trkpt>
      <trkpt lat="49.3541223" lon="11.3701554">
        <ele>421.2000000</ele>
        <time>2009-11-26T10:14:57Z</time>
      </trkpt>
      <trkpt lat="49.3541290" lon="11.3695399">
        <ele>423.6000000</ele>
        <time>2009-11-26T10:15:09Z</time>
      </trkpt>
      <trkpt lat="49.3542240" lon="11.3683158">
        <ele>426.5000000</ele>
        <time>2009-11-26T10:15:34Z</time>
      </trkpt>
      <trkpt lat="49.3543145" lon="11.3673698">
        <ele>425.5000000</ele>
        <time>2009-11-26T10:15:53Z</time>
      </trkpt>
      <trkpt lat="49.3543155" lon="11.3673409">
        <ele>426.5000000</ele>
        <time>2009-11-26T10:15:54Z</time>
      </trkpt>
      <trkpt lat="49.3541478" lon="11.3672565">
        <ele>426.0000000</ele>
        <time>2009-11-26T10:15:59Z</time>
      </trkpt>
      <trkpt lat="49.3537768" lon="11.3672440">
        <ele>427.0000000</ele>
        <time>2009-11-26T10:16:11Z</time>
      </trkpt>
      <trkpt lat="49.3528314" lon="11.3670216">
        <ele>427.9000000</ele>
        <time>2009-11-26T10:16:41Z</time>
      </trkpt>
      <trkpt lat="49.3521801" lon="11.3667579">
        <ele>431.3000000</ele>
        <time>2009-11-26T10:17:01Z</time>
      </trkpt>
      <trkpt lat="49.3516571" lon="11.3661195">
        <ele>434.7000000</ele>
        <time>2009-11-26T10:17:22Z</time>
      </trkpt>
      <trkpt lat="49.3509153" lon="11.3654191">
        <ele>435.6000000</ele>
        <time>2009-11-26T10:17:49Z</time>
      </trkpt>
      <trkpt lat="49.3504458" lon="11.3644452">
        <ele>433.7000000</ele>
        <time>2009-11-26T10:18:13Z</time>
      </trkpt>
      <trkpt lat="49.3503598" lon="11.3639567">
        <ele>432.7000000</ele>
        <time>2009-11-26T10:18:24Z</time>
      </trkpt>
      <trkpt lat="49.3503574" lon="11.3632947">
        <ele>431.8000000</ele>
        <time>2009-11-26T10:18:37Z</time>
      </trkpt>
      <trkpt lat="49.3502469" lon="11.3627708">
        <ele>429.8000000</ele>
        <time>2009-11-26T10:18:48Z</time>
      </trkpt>
      <trkpt lat="49.3497719" lon="11.3613366">
        <ele>432.3000000</ele>
        <time>2009-11-26T10:19:20Z</time>
      </trkpt>
      <trkpt lat="49.3496305" lon="11.3602624">
        <ele>435.6000000</ele>
        <time>2009-11-26T10:19:42Z</time>
      </trkpt>
      <trkpt lat="49.3495890" lon="11.3597277">
        <ele>437.1000000</ele>
        <time>2009-11-26T10:19:53Z</time>
      </trkpt>
      <trkpt lat="49.3493816" lon="11.3587692">
        <ele>437.1000000</ele>
        <time>2009-11-26T10:20:14Z</time>
      </trkpt>
      <trkpt lat="49.3487578" lon="11.3578938">
        <ele>436.6000000</ele>
        <time>2009-11-26T10:20:40Z</time>
      </trkpt>
      <trkpt lat="49.3486314" lon="11.3570508">
        <ele>436.1000000</ele>
        <time>2009-11-26T10:20:57Z</time>
      </trkpt>
      <trkpt lat="49.3486813" lon="11.3566854">
        <ele>435.1000000</ele>
        <time>2009-11-26T10:21:05Z</time>
      </trkpt>
      <trkpt lat="49.3489075" lon="11.3561095">
        <ele>434.2000000</ele>
        <time>2009-11-26T10:21:18Z</time>
      </trkpt>
      <trkpt lat="49.3489900" lon="11.3553900">
        <ele>434.2000000</ele>
        <time>2009-11-26T10:21:33Z</time>
      </trkpt>
      <trkpt lat="49.3489527" lon="11.3551849">
        <ele>434.7000000</ele>
        <time>2009-11-26T10:21:37Z</time>
      </trkpt>
      <trkpt lat="49.3487618" lon="11.3548190">
        <ele>435.1000000</ele>
        <time>2009-11-26T10:21:47Z</time>
      </trkpt>
      <trkpt lat="49.3486112" lon="11.3546673">
        <ele>436.6000000</ele>
        <time>2009-11-26T10:21:52Z</time>
      </trkpt>
      <trkpt lat="49.3484623" lon="11.3544098">
        <ele>438.0000000</ele>
        <time>2009-11-26T10:21:59Z</time>
      </trkpt>
      <trkpt lat="49.3484102" lon="11.3542465">
        <ele>438.0000000</ele>
        <time>2009-11-26T10:22:03Z</time>
      </trkpt>
      <trkpt lat="49.3482740" lon="11.3534804">
        <ele>436.1000000</ele>
        <time>2009-11-26T10:22:19Z</time>
      </trkpt>
      <trkpt lat="49.3481068" lon="11.3531503">
        <ele>436.6000000</ele>
        <time>2009-11-26T10:22:27Z</time>
      </trkpt>
      <trkpt lat="49.3481549" lon="11.3527209">
        <ele>435.1000000</ele>
        <time>2009-11-26T10:22:36Z</time>
      </trkpt>
      <trkpt lat="49.3482391" lon="11.3527256">
        <ele>435.1000000</ele>
        <time>2009-11-26T10:22:39Z</time>
      </trkpt>
      <trkpt lat="49.3489379" lon="11.3523663">
        <ele>431.3000000</ele>
        <time>2009-11-26T10:23:02Z</time>
      </trkpt>
      <trkpt lat="49.3494549" lon="11.3520435">
        <ele>427.4000000</ele>
        <time>2009-11-26T10:23:19Z</time>
      </trkpt>
      <trkpt lat="49.3498012" lon="11.3518083">
        <ele>423.6000000</ele>
        <time>2009-11-26T10:23:31Z</time>
      </trkpt>
      <trkpt lat="49.3499192" lon="11.3517149">
        <ele>423.1000000</ele>
        <time>2009-11-26T10:23:35Z</time>
      </trkpt>
      <trkpt lat="49.3503979" lon="11.3510686">
        <ele>419.8000000</ele>
        <time>2009-11-26T10:23:54Z</time>
      </trkpt>
      <trkpt lat="49.3509234" lon="11.3505831">
        <ele>415.4000000</ele>
        <time>2009-11-26T10:24:13Z</time>
      </trkpt>
      <trkpt lat="49.3511356" lon="11.3503813">
        <ele>414.5000000</ele>
        <time>2009-11-26T10:24:21Z</time>
      </trkpt>
      <trkpt lat="49.3513131" lon="11.3501153">
        <ele>413.5000000</ele>
        <time>2009-11-26T10:24:29Z</time>
      </trkpt>
      <trkpt lat="49.3514469" lon="11.3492940">
        <ele>413.0000000</ele>
        <time>2009-11-26T10:24:46Z</time>
      </trkpt>
      <trkpt lat="49.3513685" lon="11.3490241">
        <ele>413.5000000</ele>
        <time>2009-11-26T10:24:52Z</time>
      </trkpt>
      <trkpt lat="49.3510459" lon="11.3483744">
        <ele>415.9000000</ele>
        <time>2009-11-26T10:25:08Z</time>
      </trkpt>
      <trkpt lat="49.3506122" lon="11.3471190">
        <ele>415.4000000</ele>
        <time>2009-11-26T10:25:37Z</time>
      </trkpt>
      <trkpt lat="49.3505157" lon="11.3466257">
        <ele>414.0000000</ele>
        <time>2009-11-26T10:25:47Z</time>
      </trkpt>
      <trkpt lat="49.3502883" lon="11.3457611">
        <ele>409.2000000</ele>
        <time>2009-11-26T10:26:06Z</time>
      </trkpt>
      <trkpt lat="49.3501735" lon="11.3453980">
        <ele>407.7000000</ele>
        <time>2009-11-26T10:26:14Z</time>
      </trkpt>
      <trkpt lat="49.3500512" lon="11.3449385">
        <ele>405.3000000</ele>
        <time>2009-11-26T10:26:24Z</time>
      </trkpt>
      <trkpt lat="49.3500175" lon="11.3447427">
        <ele>405.3000000</ele>
        <time>2009-11-26T10:26:28Z</time>
      </trkpt>
      <trkpt lat="49.3501203" lon="11.3445215">
        <ele>405.8000000</ele>
        <time>2009-11-26T10:26:34Z</time>
      </trkpt>
      <trkpt lat="49.3502341" lon="11.3444994">
        <ele>405.8000000</ele>
        <time>2009-11-26T10:26:37Z</time>
      </trkpt>
      <trkpt lat="49.3506685" lon="11.3442406">
        <ele>405.8000000</ele>
        <time>2009-11-26T10:26:52Z</time>
      </trkpt>
      <trkpt lat="49.3507395" lon="11.3441088">
        <ele>406.3000000</ele>
        <time>2009-11-26T10:26:55Z</time>
      </trkpt>
      <trkpt lat="49.3507283" lon="11.3441113">
        <ele>406.8000000</ele>
        <time>2009-11-26T10:26:55Z</time>
      </trkpt>
      <trkpt lat="49.3507611" lon="11.3442075">
        <ele>406.3000000</ele>
        <time>2009-11-26T10:26:58Z</time>
      </trkpt>
      <trkpt lat="49.3507694" lon="11.3442568">
        <ele>405.3000000</ele>
        <time>2009-11-26T10:26:59Z</time>
      </trkpt>
      <trkpt lat="49.3507760" lon="11.3441655">
        <ele>406.3000000</ele>
        <time>2009-11-26T10:27:00Z</time>
      </trkpt>
      <trkpt lat="49.3507315" lon="11.3439636">
        <ele>409.2000000</ele>
        <time>2009-11-26T10:27:05Z</time>
      </trkpt>
      <trkpt lat="49.3506195" lon="11.3435751">
        <ele>412.1000000</ele>
        <time>2009-11-26T10:27:13Z</time>
      </trkpt>
      <trkpt lat="49.3505744" lon="11.3431462">
        <ele>415.4000000</ele>
        <time>2009-11-26T10:27:22Z</time>
      </trkpt>
      <trkpt lat="49.3504676" lon="11.3425650">
        <ele>416.4000000</ele>
        <time>2009-11-26T10:27:34Z</time>
      </trkpt>
      <trkpt lat="49.3504534" lon="11.3425308">
        <ele>416.9000000</ele>
        <time>2009-11-26T10:27:35Z</time>
      </trkpt>
      <trkpt lat="49.3503481" lon="11.3422326">
        <ele>416.4000000</ele>
        <time>2009-11-26T10:27:42Z</time>
      </trkpt>
      <trkpt lat="49.3502347" lon="11.3409918">
        <ele>416.9000000</ele>
        <time>2009-11-26T10:28:07Z</time>
      </trkpt>
      <trkpt lat="49.3501966" lon="11.3405321">
        <ele>416.9000000</ele>
        <time>2009-11-26T10:28:16Z</time>
      </trkpt>
      <trkpt lat="49.3501001" lon="11.3395869">
        <ele>416.9000000</ele>
        <time>2009-11-26T10:28:36Z</time>
      </trkpt>
      <trkpt lat="49.3499176" lon="11.3378764">
        <ele>416.9000000</ele>
        <time>2009-11-26T10:29:11Z</time>
      </trkpt>
      <trkpt lat="49.3498539" lon="11.3373089">
        <ele>416.9000000</ele>
        <time>2009-11-26T10:29:22Z</time>
      </trkpt>
      <trkpt lat="49.3498508" lon="11.3371201">
        <ele>416.4000000</ele>
        <time>2009-11-26T10:29:26Z</time>
      </trkpt>
      <trkpt lat="49.3498133" lon="11.3368208">
        <ele>417.3000000</ele>
        <time>2009-11-26T10:29:32Z</time>
      </trkpt>
      <trkpt lat="49.3496903" lon="11.3358288">
        <ele>416.4000000</ele>
        <time>2009-11-26T10:29:53Z</time>
      </trkpt>
      <trkpt lat="49.3496762" lon="11.3357325">
        <ele>416.9000000</ele>
        <time>2009-11-26T10:29:55Z</time>
      </trkpt>
      <trkpt lat="49.3495286" lon="11.3353728">
        <ele>416.4000000</ele>
        <time>2009-11-26T10:30:03Z</time>
      </trkpt>
      <trkpt lat="49.3492997" lon="11.3345612">
        <ele>416.9000000</ele>
        <time>2009-11-26T10:30:21Z</time>
      </trkpt>
      <trkpt lat="49.3491988" lon="11.3339068">
        <ele>417.3000000</ele>
        <time>2009-11-26T10:30:34Z</time>
      </trkpt>
      <trkpt lat="49.3492681" lon="11.3327749">
        <ele>416.9000000</ele>
        <time>2009-11-26T10:30:57Z</time>
      </trkpt>
      <trkpt lat="49.3492479" lon="11.3325910">
        <ele>416.9000000</ele>
        <time>2009-11-26T10:31:01Z</time>
      </trkpt>
      <trkpt lat="49.3491997" lon="11.3322323">
        <ele>416.4000000</ele>
        <time>2009-11-26T10:31:08Z</time>
      </trkpt>
      <trkpt lat="49.3491899" lon="11.3317510">
        <ele>416.4000000</ele>
        <time>2009-11-26T10:31:18Z</time>
      </trkpt>
      <trkpt lat="49.3490971" lon="11.3315210">
        <ele>416.9000000</ele>
        <time>2009-11-26T10:31:24Z</time>
      </trkpt>
      <trkpt lat="49.3488700" lon="11.3309476">
        <ele>416.9000000</ele>
        <time>2009-11-26T10:31:37Z</time>
      </trkpt>
      <trkpt lat="49.3484562" lon="11.3299908">
        <ele>416.9000000</ele>
        <time>2009-11-26T10:32:00Z</time>
      </trkpt>
      <trkpt lat="49.3481006" lon="11.3295661">
        <ele>416.4000000</ele>
        <time>2009-11-26T10:32:14Z</time>
      </trkpt>
      <trkpt lat="49.3478822" lon="11.3290112">
        <ele>415.9000000</ele>
        <time>2009-11-26T10:32:27Z</time>
      </trkpt>
      <trkpt lat="49.3477663" lon="11.3286927">
        <ele>416.4000000</ele>
        <time>2009-11-26T10:32:35Z</time>
      </trkpt>
      <trkpt lat="49.3476462" lon="11.3282613">
        <ele>416.9000000</ele>
        <time>2009-11-26T10:32:44Z</time>
      </trkpt>
      <trkpt lat="49.3470993" lon="11.3269760">
        <ele>416.9000000</ele>
        <time>2009-11-26T10:33:15Z</time>
      </trkpt>
      <trkpt lat="49.3468940" lon="11.3265844">
        <ele>416.4000000</ele>
        <time>2009-11-26T10:33:25Z</time>
      </trkpt>
      <trkpt lat="49.3467991" lon="11.3263171">
        <ele>416.9000000</ele>
        <time>2009-11-26T10:33:31Z</time>
      </trkpt>
      <trkpt lat="49.3466965" lon="11.3258031">
        <ele>416.4000000</ele>
        <time>2009-11-26T10:33:42Z</time>
      </trkpt>
      <trkpt lat="49.3466040" lon="11.3254092">
        <ele>416.9000000</ele>
        <time>2009-11-26T10:33:51Z</time>
      </trkpt>
      <trkpt lat="49.3464466" lon="11.3249058">
        <ele>416.9000000</ele>
        <time>2009-11-26T10:34:02Z</time>
      </trkpt>
      <trkpt lat="49.3464469" lon="11.3247570">
        <ele>417.3000000</ele>
        <time>2009-11-26T10:34:05Z</time>
      </trkpt>
      <trkpt lat="49.3463517" lon="11.3243071">
        <ele>416.9000000</ele>
        <time>2009-11-26T10:34:14Z</time>
      </trkpt>
      <trkpt lat="49.3462139" lon="11.3238006">
        <ele>417.8000000</ele>
        <time>2009-11-26T10:34:25Z</time>
      </trkpt>
      <trkpt lat="49.3460346" lon="11.3235079">
        <ele>417.8000000</ele>
        <time>2009-11-26T10:34:33Z</time>
      </trkpt>
      <trkpt lat="49.3456314" lon="11.3229614">
        <ele>417.8000000</ele>
        <time>2009-11-26T10:34:50Z</time>
      </trkpt>
      <trkpt lat="49.3454444" lon="11.3226880">
        <ele>418.3000000</ele>
        <time>2009-11-26T10:34:58Z</time>
      </trkpt>
      <trkpt lat="49.3453841" lon="11.3225253">
        <ele>418.3000000</ele>
        <time>2009-11-26T10:35:02Z</time>
      </trkpt>
      <trkpt lat="49.3452162" lon="11.3221575">
        <ele>418.3000000</ele>
        <time>2009-11-26T10:35:11Z</time>
      </trkpt>
      <trkpt lat="49.3448515" lon="11.3217121">
        <ele>417.8000000</ele>
        <time>2009-11-26T10:35:25Z</time>
      </trkpt>
      <trkpt lat="49.3445332" lon="11.3214680">
        <ele>418.3000000</ele>
        <time>2009-11-26T10:35:36Z</time>
      </trkpt>
      <trkpt lat="49.3444734" lon="11.3213396">
        <ele>417.3000000</ele>
        <time>2009-11-26T10:35:40Z</time>
      </trkpt>
      <trkpt lat="49.3441807" lon="11.3207476">
        <ele>417.8000000</ele>
        <time>2009-11-26T10:35:54Z</time>
      </trkpt>
      <trkpt lat="49.3441439" lon="11.3206675">
        <ele>417.8000000</ele>
        <time>2009-11-26T10:35:56Z</time>
      </trkpt>
      <trkpt lat="49.3437207" lon="11.3200112">
        <ele>416.9000000</ele>
        <time>2009-11-26T10:36:15Z</time>
      </trkpt>
      <trkpt lat="49.3435403" lon="11.3197936">
        <ele>417.3000000</ele>
        <time>2009-11-26T10:36:22Z</time>
      </trkpt>
      <trkpt lat="49.3433400" lon="11.3193980">
        <ele>416.4000000</ele>
        <time>2009-11-26T10:36:32Z</time>
      </trkpt>
      <trkpt lat="49.3429700" lon="11.3188550">
        <ele>415.4000000</ele>
        <time>2009-11-26T10:36:48Z</time>
      </trkpt>
      <trkpt lat="49.3422651" lon="11.3178609">
        <ele>414.9000000</ele>
        <time>2009-11-26T10:37:18Z</time>
      </trkpt>
      <trkpt lat="49.3417187" lon="11.3170416">
        <ele>414.9000000</ele>
        <time>2009-11-26T10:37:41Z</time>
      </trkpt>
      <trkpt lat="49.3415459" lon="11.3166671">
        <ele>414.5000000</ele>
        <time>2009-11-26T10:37:51Z</time>
      </trkpt>
      <trkpt lat="49.3415118" lon="11.3164877">
        <ele>414.9000000</ele>
        <time>2009-11-26T10:37:54Z</time>
      </trkpt>
      <trkpt lat="49.3413703" lon="11.3160158">
        <ele>413.0000000</ele>
        <time>2009-11-26T10:38:05Z</time>
      </trkpt>
      <trkpt lat="49.3413481" lon="11.3149171">
        <ele>413.0000000</ele>
        <time>2009-11-26T10:38:27Z</time>
      </trkpt>
      <trkpt lat="49.3415101" lon="11.3143423">
        <ele>413.0000000</ele>
        <time>2009-11-26T10:38:40Z</time>
      </trkpt>
      <trkpt lat="49.3417384" lon="11.3138190">
        <ele>413.0000000</ele>
        <time>2009-11-26T10:38:52Z</time>
      </trkpt>
      <trkpt lat="49.3417414" lon="11.3132017">
        <ele>412.5000000</ele>
        <time>2009-11-26T10:39:05Z</time>
      </trkpt>
      <trkpt lat="49.3417237" lon="11.3126844">
        <ele>411.6000000</ele>
        <time>2009-11-26T10:39:15Z</time>
      </trkpt>
      <trkpt lat="49.3416708" lon="11.3124035">
        <ele>410.1000000</ele>
        <time>2009-11-26T10:39:21Z</time>
      </trkpt>
      <trkpt lat="49.3414564" lon="11.3118293">
        <ele>409.7000000</ele>
        <time>2009-11-26T10:39:34Z</time>
      </trkpt>
      <trkpt lat="49.3412235" lon="11.3113451">
        <ele>410.1000000</ele>
        <time>2009-11-26T10:39:46Z</time>
      </trkpt>
      <trkpt lat="49.3411006" lon="11.3111447">
        <ele>409.7000000</ele>
        <time>2009-11-26T10:39:52Z</time>
      </trkpt>
      <trkpt lat="49.3406871" lon="11.3102815">
        <ele>410.6000000</ele>
        <time>2009-11-26T10:40:14Z</time>
      </trkpt>
      <trkpt lat="49.3403096" lon="11.3095511">
        <ele>411.1000000</ele>
        <time>2009-11-26T10:40:32Z</time>
      </trkpt>
      <trkpt lat="49.3401341" lon="11.3092253">
        <ele>411.1000000</ele>
        <time>2009-11-26T10:40:41Z</time>
      </trkpt>
      <trkpt lat="49.3398834" lon="11.3085562">
        <ele>408.7000000</ele>
        <time>2009-11-26T10:40:56Z</time>
      </trkpt>
      <trkpt lat="49.3395065" lon="11.3076676">
        <ele>408.7000000</ele>
        <time>2009-11-26T10:41:18Z</time>
      </trkpt>
      <trkpt lat="49.3393077" lon="11.3071197">
        <ele>408.7000000</ele>
        <time>2009-11-26T10:41:30Z</time>
      </trkpt>
      <trkpt lat="49.3392554" lon="11.3064799">
        <ele>408.7000000</ele>
        <time>2009-11-26T10:41:43Z</time>
      </trkpt>
      <trkpt lat="49.3392262" lon="11.3063007">
        <ele>408.7000000</ele>
        <time>2009-11-26T10:41:47Z</time>
      </trkpt>
      <trkpt lat="49.3392326" lon="11.3059166">
        <ele>408.7000000</ele>
        <time>2009-11-26T10:41:55Z</time>
      </trkpt>
      <trkpt lat="49.3392207" lon="11.3055061">
        <ele>408.7000000</ele>
        <time>2009-11-26T10:42:03Z</time>
      </trkpt>
      <trkpt lat="49.3392114" lon="11.3050430">
        <ele>408.7000000</ele>
        <time>2009-11-26T10:42:13Z</time>
      </trkpt>
      <trkpt lat="49.3392627" lon="11.3047652">
        <ele>408.2000000</ele>
        <time>2009-11-26T10:42:18Z</time>
      </trkpt>
      <trkpt lat="49.3393046" lon="11.3043816">
        <ele>408.2000000</ele>
        <time>2009-11-26T10:42:26Z</time>
      </trkpt>
      <trkpt lat="49.3392720" lon="11.3027659">
        <ele>408.7000000</ele>
        <time>2009-11-26T10:42:59Z</time>
      </trkpt>
      <trkpt lat="49.3392226" lon="11.3021831">
        <ele>408.7000000</ele>
        <time>2009-11-26T10:43:11Z</time>
      </trkpt>
      <trkpt lat="49.3391145" lon="11.3018059">
        <ele>408.2000000</ele>
        <time>2009-11-26T10:43:19Z</time>
      </trkpt>
      <trkpt lat="49.3390910" lon="11.3015878">
        <ele>408.2000000</ele>
        <time>2009-11-26T10:43:23Z</time>
      </trkpt>
      <trkpt lat="49.3390627" lon="11.3014547">
        <ele>406.8000000</ele>
        <time>2009-11-26T10:43:26Z</time>
      </trkpt>
      <trkpt lat="49.3389943" lon="11.3011580">
        <ele>406.3000000</ele>
        <time>2009-11-26T10:43:33Z</time>
      </trkpt>
      <trkpt lat="49.3388673" lon="11.3007785">
        <ele>406.3000000</ele>
        <time>2009-11-26T10:43:41Z</time>
      </trkpt>
      <trkpt lat="49.3385393" lon="11.3000859">
        <ele>405.8000000</ele>
        <time>2009-11-26T10:43:58Z</time>
      </trkpt>
      <trkpt lat="49.3382334" lon="11.2994245">
        <ele>405.8000000</ele>
        <time>2009-11-26T10:44:15Z</time>
      </trkpt>
      <trkpt lat="49.3379765" lon="11.2988848">
        <ele>406.3000000</ele>
        <time>2009-11-26T10:44:28Z</time>
      </trkpt>
      <trkpt lat="49.3374741" lon="11.2978432">
        <ele>406.3000000</ele>
        <time>2009-11-26T10:44:54Z</time>
      </trkpt>
      <trkpt lat="49.3371597" lon="11.2970527">
        <ele>405.8000000</ele>
        <time>2009-11-26T10:45:13Z</time>
      </trkpt>
      <trkpt lat="49.3371502" lon="11.2968489">
        <ele>404.4000000</ele>
        <time>2009-11-26T10:45:17Z</time>
      </trkpt>
      <trkpt lat="49.3370280" lon="11.2966909">
        <ele>405.3000000</ele>
        <time>2009-11-26T10:45:22Z</time>
      </trkpt>
      <trkpt lat="49.3369725" lon="11.2966004">
        <ele>404.4000000</ele>
        <time>2009-11-26T10:45:24Z</time>
      </trkpt>
      <trkpt lat="49.3368994" lon="11.2964138">
        <ele>403.4000000</ele>
        <time>2009-11-26T10:45:29Z</time>
      </trkpt>
      <trkpt lat="49.3367966" lon="11.2957601">
        <ele>402.4000000</ele>
        <time>2009-11-26T10:45:42Z</time>
      </trkpt>
      <trkpt lat="49.3370025" lon="11.2943998">
        <ele>402.9000000</ele>
        <time>2009-11-26T10:46:11Z</time>
      </trkpt>
      <trkpt lat="49.3376050" lon="11.2930804">
        <ele>402.4000000</ele>
        <time>2009-11-26T10:46:43Z</time>
      </trkpt>
      <trkpt lat="49.3379473" lon="11.2923113">
        <ele>400.5000000</ele>
        <time>2009-11-26T10:47:02Z</time>
      </trkpt>
      <trkpt lat="49.3380639" lon="11.2920320">
        <ele>400.5000000</ele>
        <time>2009-11-26T10:47:08Z</time>
      </trkpt>
      <trkpt lat="49.3382061" lon="11.2917340">
        <ele>400.5000000</ele>
        <time>2009-11-26T10:47:16Z</time>
      </trkpt>
      <trkpt lat="49.3382660" lon="11.2916059">
        <ele>401.0000000</ele>
        <time>2009-11-26T10:47:19Z</time>
      </trkpt>
      <trkpt lat="49.3388115" lon="11.2904040">
        <ele>401.0000000</ele>
        <time>2009-11-26T10:47:49Z</time>
      </trkpt>
      <trkpt lat="49.3393470" lon="11.2892048">
        <ele>401.0000000</ele>
        <time>2009-11-26T10:48:18Z</time>
      </trkpt>
      <trkpt lat="49.3397009" lon="11.2883272">
        <ele>399.6000000</ele>
        <time>2009-11-26T10:48:39Z</time>
      </trkpt>
      <trkpt lat="49.3398999" lon="11.2877265">
        <ele>398.1000000</ele>
        <time>2009-11-26T10:48:52Z</time>
      </trkpt>
      <trkpt lat="49.3401636" lon="11.2875195">
        <ele>398.6000000</ele>
        <time>2009-11-26T10:49:01Z</time>
      </trkpt>
      <trkpt lat="49.3402894" lon="11.2870861">
        <ele>398.6000000</ele>
        <time>2009-11-26T10:49:11Z</time>
      </trkpt>
      <trkpt lat="49.3400826" lon="11.2866879">
        <ele>398.6000000</ele>
        <time>2009-11-26T10:49:21Z</time>
      </trkpt>
      <trkpt lat="49.3400626" lon="11.2864188">
        <ele>398.1000000</ele>
        <time>2009-11-26T10:49:27Z</time>
      </trkpt>
      <trkpt lat="49.3400307" lon="11.2860696">
        <ele>398.6000000</ele>
        <time>2009-11-26T10:49:34Z</time>
      </trkpt>
      <trkpt lat="49.3400343" lon="11.2857296">
        <ele>399.1000000</ele>
        <time>2009-11-26T10:49:41Z</time>
      </trkpt>
      <trkpt lat="49.3401458" lon="11.2850410">
        <ele>398.6000000</ele>
        <time>2009-11-26T10:49:55Z</time>
      </trkpt>
      <trkpt lat="49.3402909" lon="11.2845193">
        <ele>397.2000000</ele>
        <time>2009-11-26T10:50:06Z</time>
      </trkpt>
      <trkpt lat="49.3403315" lon="11.2844686">
        <ele>396.7000000</ele>
        <time>2009-11-26T10:50:08Z</time>
      </trkpt>
      <trkpt lat="49.3404940" lon="11.2842692">
        <ele>395.7000000</ele>
        <time>2009-11-26T10:50:14Z</time>
      </trkpt>
      <trkpt lat="49.3406453" lon="11.2839081">
        <ele>396.7000000</ele>
        <time>2009-11-26T10:50:23Z</time>
      </trkpt>
      <trkpt lat="49.3407732" lon="11.2833956">
        <ele>395.7000000</ele>
        <time>2009-11-26T10:50:34Z</time>
      </trkpt>
      <trkpt lat="49.3407272" lon="11.2832099">
        <ele>396.2000000</ele>
        <time>2009-11-26T10:50:38Z</time>
      </trkpt>
      <trkpt lat="49.3407248" lon="11.2831170">
        <ele>395.7000000</ele>
        <time>2009-11-26T10:50:40Z</time>
      </trkpt>
      <trkpt lat="49.3406567" lon="11.2828545">
        <ele>395.7000000</ele>
        <time>2009-11-26T10:50:46Z</time>
      </trkpt>
      <trkpt lat="49.3405778" lon="11.2827156">
        <ele>396.7000000</ele>
        <time>2009-11-26T10:50:49Z</time>
      </trkpt>
      <trkpt lat="49.3406414" lon="11.2824116">
        <ele>396.2000000</ele>
        <time>2009-11-26T10:50:56Z</time>
      </trkpt>
      <trkpt lat="49.3404370" lon="11.2812620">
        <ele>392.8000000</ele>
        <time>2009-11-26T10:51:20Z</time>
      </trkpt>
      <trkpt lat="49.3404291" lon="11.2811881">
        <ele>392.8000000</ele>
        <time>2009-11-26T10:51:21Z</time>
      </trkpt>
      <trkpt lat="49.3403061" lon="11.2799645">
        <ele>392.4000000</ele>
        <time>2009-11-26T10:51:46Z</time>
      </trkpt>
      <trkpt lat="49.3403579" lon="11.2783468">
        <ele>392.4000000</ele>
        <time>2009-11-26T10:52:19Z</time>
      </trkpt>
      <trkpt lat="49.3400393" lon="11.2769798">
        <ele>391.9000000</ele>
        <time>2009-11-26T10:52:48Z</time>
      </trkpt>
      <trkpt lat="49.3399483" lon="11.2767462">
        <ele>391.4000000</ele>
        <time>2009-11-26T10:52:54Z</time>
      </trkpt>
      <trkpt lat="49.3396560" lon="11.2753749">
        <ele>391.4000000</ele>
        <time>2009-11-26T10:53:23Z</time>
      </trkpt>
      <trkpt lat="49.3395857" lon="11.2748869">
        <ele>391.4000000</ele>
        <time>2009-11-26T10:53:33Z</time>
      </trkpt>
      <trkpt lat="49.3395777" lon="11.2741317">
        <ele>391.9000000</ele>
        <time>2009-11-26T10:53:48Z</time>
      </trkpt>
      <trkpt lat="49.3396326" lon="11.2738339">
        <ele>390.9000000</ele>
        <time>2009-11-26T10:53:54Z</time>
      </trkpt>
      <trkpt lat="49.3396999" lon="11.2735179">
        <ele>389.5000000</ele>
        <time>2009-11-26T10:54:01Z</time>
      </trkpt>
      <trkpt lat="49.3395818" lon="11.2727549">
        <ele>390.0000000</ele>
        <time>2009-11-26T10:54:17Z</time>
      </trkpt>
      <trkpt lat="49.3396529" lon="11.2719363">
        <ele>390.0000000</ele>
        <time>2009-11-26T10:54:33Z</time>
      </trkpt>
      <trkpt lat="49.3398413" lon="11.2712320">
        <ele>390.0000000</ele>
        <time>2009-11-26T10:54:49Z</time>
      </trkpt>
      <trkpt lat="49.3398620" lon="11.2711509">
        <ele>390.0000000</ele>
        <time>2009-11-26T10:54:51Z</time>
      </trkpt>
      <trkpt lat="49.3399330" lon="11.2702265">
        <ele>390.0000000</ele>
        <time>2009-11-26T10:55:09Z</time>
      </trkpt>
      <trkpt lat="49.3400041" lon="11.2695380">
        <ele>389.5000000</ele>
        <time>2009-11-26T10:55:23Z</time>
      </trkpt>
      <trkpt lat="49.3400429" lon="11.2691216">
        <ele>387.5000000</ele>
        <time>2009-11-26T10:55:32Z</time>
      </trkpt>
      <trkpt lat="49.3402184" lon="11.2683383">
        <ele>387.1000000</ele>
        <time>2009-11-26T10:55:49Z</time>
      </trkpt>
      <trkpt lat="49.3402941" lon="11.2673555">
        <ele>387.1000000</ele>
        <time>2009-11-26T10:56:08Z</time>
      </trkpt>
      <trkpt lat="49.3401965" lon="11.2665217">
        <ele>387.1000000</ele>
        <time>2009-11-26T10:56:26Z</time>
      </trkpt>
      <trkpt lat="49.3401837" lon="11.2664175">
        <ele>387.5000000</ele>
        <time>2009-11-26T10:56:28Z</time>
      </trkpt>
      <trkpt lat="49.3400406" lon="11.2661552">
        <ele>387.5000000</ele>
        <time>2009-11-26T10:56:35Z</time>
      </trkpt>
      <trkpt lat="49.3396309" lon="11.2653089">
        <ele>387.1000000</ele>
        <time>2009-11-26T10:56:56Z</time>
      </trkpt>
      <trkpt lat="49.3395906" lon="11.2646768">
        <ele>386.1000000</ele>
        <time>2009-11-26T10:57:09Z</time>
      </trkpt>
      <trkpt lat="49.3396010" lon="11.2641720">
        <ele>385.6000000</ele>
        <time>2009-11-26T10:57:19Z</time>
      </trkpt>
      <trkpt lat="49.3396212" lon="11.2638695">
        <ele>385.1000000</ele>
        <time>2009-11-26T10:57:25Z</time>
      </trkpt>
      <trkpt lat="49.3395497" lon="11.2633645">
        <ele>384.7000000</ele>
        <time>2009-11-26T10:57:35Z</time>
      </trkpt>
      <trkpt lat="49.3394874" lon="11.2630164">
        <ele>385.1000000</ele>
        <time>2009-11-26T10:57:43Z</time>
      </trkpt>
      <trkpt lat="49.3392356" lon="11.2617487">
        <ele>385.1000000</ele>
        <time>2009-11-26T10:58:09Z</time>
      </trkpt>
      <trkpt lat="49.3389999" lon="11.2605638">
        <ele>385.1000000</ele>
        <time>2009-11-26T10:58:34Z</time>
      </trkpt>
      <trkpt lat="49.3389549" lon="11.2604224">
        <ele>385.1000000</ele>
        <time>2009-11-26T10:58:37Z</time>
      </trkpt>
      <trkpt lat="49.3390537" lon="11.2599438">
        <ele>385.1000000</ele>
        <time>2009-11-26T10:58:48Z</time>
      </trkpt>
      <trkpt lat="49.3389695" lon="11.2595889">
        <ele>385.1000000</ele>
        <time>2009-11-26T10:58:55Z</time>
      </trkpt>
      <trkpt lat="49.3389991" lon="11.2591815">
        <ele>385.1000000</ele>
        <time>2009-11-26T10:59:03Z</time>
      </trkpt>
      <trkpt lat="49.3387348" lon="11.2584662">
        <ele>383.2000000</ele>
        <time>2009-11-26T10:59:20Z</time>
      </trkpt>
      <trkpt lat="49.3385583" lon="11.2570390">
        <ele>382.3000000</ele>
        <time>2009-11-26T10:59:49Z</time>
      </trkpt>
      <trkpt lat="49.3386923" lon="11.2561224">
        <ele>382.7000000</ele>
        <time>2009-11-26T11:00:08Z</time>
      </trkpt>
      <trkpt lat="49.3387613" lon="11.2559028">
        <ele>382.7000000</ele>
        <time>2009-11-26T11:00:13Z</time>
      </trkpt>
      <trkpt lat="49.3389931" lon="11.2542400">
        <ele>381.8000000</ele>
        <time>2009-11-26T11:00:47Z</time>
      </trkpt>
      <trkpt lat="49.3390138" lon="11.2539753">
        <ele>380.8000000</ele>
        <time>2009-11-26T11:00:53Z</time>
      </trkpt>
      <trkpt lat="49.3390693" lon="11.2535728">
        <ele>380.8000000</ele>
        <time>2009-11-26T11:01:01Z</time>
      </trkpt>
      <trkpt lat="49.3391147" lon="11.2533164">
        <ele>380.3000000</ele>
        <time>2009-11-26T11:01:06Z</time>
      </trkpt>
      <trkpt lat="49.3391083" lon="11.2529932">
        <ele>380.3000000</ele>
        <time>2009-11-26T11:01:13Z</time>
      </trkpt>
      <trkpt lat="49.3392512" lon="11.2521510">
        <ele>380.3000000</ele>
        <time>2009-11-26T11:01:30Z</time>
      </trkpt>
      <trkpt lat="49.3393197" lon="11.2519125">
        <ele>379.9000000</ele>
        <time>2009-11-26T11:01:36Z</time>
      </trkpt>
      <trkpt lat="49.3393021" lon="11.2512979">
        <ele>380.8000000</ele>
        <time>2009-11-26T11:01:48Z</time>
      </trkpt>
      <trkpt lat="49.3393368" lon="11.2509120">
        <ele>381.3000000</ele>
        <time>2009-11-26T11:01:56Z</time>
      </trkpt>
      <trkpt lat="49.3393590" lon="11.2505286">
        <ele>379.9000000</ele>
        <time>2009-11-26T11:02:04Z</time>
      </trkpt>
      <trkpt lat="49.3394585" lon="11.2503121">
        <ele>378.4000000</ele>
        <time>2009-11-26T11:02:09Z</time>
      </trkpt>
      <trkpt lat="49.3393535" lon="11.2492779">
        <ele>377.5000000</ele>
        <time>2009-11-26T11:02:30Z</time>
      </trkpt>
      <trkpt lat="49.3392767" lon="11.2486854">
        <ele>377.5000000</ele>
        <time>2009-11-26T11:02:42Z</time>
      </trkpt>
      <trkpt lat="49.3392710" lon="11.2484643">
        <ele>377.9000000</ele>
        <time>2009-11-26T11:02:47Z</time>
      </trkpt>
      <trkpt lat="49.3393272" lon="11.2479654">
        <ele>377.9000000</ele>
        <time>2009-11-26T11:02:57Z</time>
      </trkpt>
      <trkpt lat="49.3392953" lon="11.2474692">
        <ele>377.9000000</ele>
        <time>2009-11-26T11:03:07Z</time>
      </trkpt>
      <trkpt lat="49.3392661" lon="11.2469982">
        <ele>377.9000000</ele>
        <time>2009-11-26T11:03:17Z</time>
      </trkpt>
      <trkpt lat="49.3392751" lon="11.2466503">
        <ele>377.9000000</ele>
        <time>2009-11-26T11:03:24Z</time>
      </trkpt>
      <trkpt lat="49.3392399" lon="11.2463367">
        <ele>377.9000000</ele>
        <time>2009-11-26T11:03:30Z</time>
      </trkpt>
      <trkpt lat="49.3392405" lon="11.2459753">
        <ele>377.5000000</ele>
        <time>2009-11-26T11:03:37Z</time>
      </trkpt>
      <trkpt lat="49.3392811" lon="11.2456816">
        <ele>376.0000000</ele>
        <time>2009-11-26T11:03:43Z</time>
      </trkpt>
      <trkpt lat="49.3393004" lon="11.2453706">
        <ele>375.5000000</ele>
        <time>2009-11-26T11:03:50Z</time>
      </trkpt>
      <trkpt lat="49.3392778" lon="11.2449880">
        <ele>375.1000000</ele>
        <time>2009-11-26T11:03:57Z</time>
      </trkpt>
      <trkpt lat="49.3392721" lon="11.2446177">
        <ele>375.5000000</ele>
        <time>2009-11-26T11:04:05Z</time>
      </trkpt>
      <trkpt lat="49.3393136" lon="11.2443370">
        <ele>375.1000000</ele>
        <time>2009-11-26T11:04:11Z</time>
      </trkpt>
      <trkpt lat="49.3394564" lon="11.2438955">
        <ele>375.1000000</ele>
        <time>2009-11-26T11:04:20Z</time>
      </trkpt>
      <trkpt lat="49.3395351" lon="11.2437275">
        <ele>375.1000000</ele>
        <time>2009-11-26T11:04:25Z</time>
      </trkpt>
      <trkpt lat="49.3397530" lon="11.2431699">
        <ele>375.5000000</ele>
        <time>2009-11-26T11:04:38Z</time>
      </trkpt>
      <trkpt lat="49.3405328" lon="11.2422788">
        <ele>375.1000000</ele>
        <time>2009-11-26T11:05:08Z</time>
      </trkpt>
      <trkpt lat="49.3408997" lon="11.2419425">
        <ele>373.6000000</ele>
        <time>2009-11-26T11:05:21Z</time>
      </trkpt>
      <trkpt lat="49.3409435" lon="11.2419025">
        <ele>372.6000000</ele>
        <time>2009-11-26T11:05:23Z</time>
      </trkpt>
      <trkpt lat="49.3417004" lon="11.2410613">
        <ele>373.1000000</ele>
        <time>2009-11-26T11:05:52Z</time>
      </trkpt>
      <trkpt lat="49.3424213" lon="11.2403889">
        <ele>373.6000000</ele>
        <time>2009-11-26T11:06:18Z</time>
      </trkpt>
      <trkpt lat="49.3429893" lon="11.2398339">
        <ele>373.1000000</ele>
        <time>2009-11-26T11:06:38Z</time>
      </trkpt>
      <trkpt lat="49.3433230" lon="11.2394811">
        <ele>373.1000000</ele>
        <time>2009-11-26T11:06:51Z</time>
      </trkpt>
      <trkpt lat="49.3436632" lon="11.2390388">
        <ele>372.6000000</ele>
        <time>2009-11-26T11:07:05Z</time>
      </trkpt>
      <trkpt lat="49.3437658" lon="11.2388402">
        <ele>372.6000000</ele>
        <time>2009-11-26T11:07:10Z</time>
      </trkpt>
      <trkpt lat="49.3438735" lon="11.2384895">
        <ele>372.2000000</ele>
        <time>2009-11-26T11:07:18Z</time>
      </trkpt>
      <trkpt lat="49.3439261" lon="11.2383642">
        <ele>372.2000000</ele>
        <time>2009-11-26T11:07:21Z</time>
      </trkpt>
      <trkpt lat="49.3440299" lon="11.2381212">
        <ele>372.2000000</ele>
        <time>2009-11-26T11:07:27Z</time>
      </trkpt>
      <trkpt lat="49.3441185" lon="11.2380050">
        <ele>371.7000000</ele>
        <time>2009-11-26T11:07:30Z</time>
      </trkpt>
      <trkpt lat="49.3442221" lon="11.2378068">
        <ele>371.2000000</ele>
        <time>2009-11-26T11:07:35Z</time>
      </trkpt>
      <trkpt lat="49.3443677" lon="11.2370241">
        <ele>370.7000000</ele>
        <time>2009-11-26T11:07:52Z</time>
      </trkpt>
      <trkpt lat="49.3444291" lon="11.2365776">
        <ele>370.7000000</ele>
        <time>2009-11-26T11:08:01Z</time>
      </trkpt>
      <trkpt lat="49.3444267" lon="11.2358602">
        <ele>370.7000000</ele>
        <time>2009-11-26T11:08:15Z</time>
      </trkpt>
      <trkpt lat="49.3446071" lon="11.2346390">
        <ele>370.2000000</ele>
        <time>2009-11-26T11:08:41Z</time>
      </trkpt>
      <trkpt lat="49.3447297" lon="11.2339860">
        <ele>370.2000000</ele>
        <time>2009-11-26T11:08:54Z</time>
      </trkpt>
      <trkpt lat="49.3448676" lon="11.2333769">
        <ele>371.2000000</ele>
        <time>2009-11-26T11:09:07Z</time>
      </trkpt>
      <trkpt lat="49.3449484" lon="11.2330357">
        <ele>371.7000000</ele>
        <time>2009-11-26T11:09:14Z</time>
      </trkpt>
      <trkpt lat="49.3450051" lon="11.2328691">
        <ele>371.2000000</ele>
        <time>2009-11-26T11:09:18Z</time>
      </trkpt>
      <trkpt lat="49.3450788" lon="11.2324163">
        <ele>369.3000000</ele>
        <time>2009-11-26T11:09:28Z</time>
      </trkpt>
      <trkpt lat="49.3451457" lon="11.2321399">
        <ele>369.8000000</ele>
        <time>2009-11-26T11:09:34Z</time>
      </trkpt>
      <trkpt lat="49.3453018" lon="11.2317745">
        <ele>369.8000000</ele>
        <time>2009-11-26T11:09:42Z</time>
      </trkpt>
      <trkpt lat="49.3453938" lon="11.2313150">
        <ele>369.3000000</ele>
        <time>2009-11-26T11:09:52Z</time>
      </trkpt>
      <trkpt lat="49.3455815" lon="11.2307261">
        <ele>368.8000000</ele>
        <time>2009-11-26T11:10:05Z</time>
      </trkpt>
      <trkpt lat="49.3457477" lon="11.2301190">
        <ele>368.3000000</ele>
        <time>2009-11-26T11:10:19Z</time>
      </trkpt>
      <trkpt lat="49.3457736" lon="11.2299241">
        <ele>368.8000000</ele>
        <time>2009-11-26T11:10:23Z</time>
      </trkpt>
      <trkpt lat="49.3458785" lon="11.2295507">
        <ele>369.8000000</ele>
        <time>2009-11-26T11:10:31Z</time>
      </trkpt>
      <trkpt lat="49.3460161" lon="11.2291463">
        <ele>369.3000000</ele>
        <time>2009-11-26T11:10:40Z</time>
      </trkpt>
      <trkpt lat="49.3460792" lon="11.2285308">
        <ele>368.8000000</ele>
        <time>2009-11-26T11:10:53Z</time>
      </trkpt>
      <trkpt lat="49.3461601" lon="11.2279076">
        <ele>368.3000000</ele>
        <time>2009-11-26T11:11:05Z</time>
      </trkpt>
      <trkpt lat="49.3463061" lon="11.2275651">
        <ele>367.8000000</ele>
        <time>2009-11-26T11:11:14Z</time>
      </trkpt>
      <trkpt lat="49.3464076" lon="11.2271859">
        <ele>366.9000000</ele>
        <time>2009-11-26T11:11:22Z</time>
      </trkpt>
      <trkpt lat="49.3464478" lon="11.2270026">
        <ele>366.4000000</ele>
        <time>2009-11-26T11:11:26Z</time>
      </trkpt>
      <trkpt lat="49.3465593" lon="11.2266611">
        <ele>365.9000000</ele>
        <time>2009-11-26T11:11:33Z</time>
      </trkpt>
      <trkpt lat="49.3467210" lon="11.2261459">
        <ele>366.4000000</ele>
        <time>2009-11-26T11:11:45Z</time>
      </trkpt>
      <trkpt lat="49.3468773" lon="11.2258453">
        <ele>365.9000000</ele>
        <time>2009-11-26T11:11:53Z</time>
      </trkpt>
      <trkpt lat="49.3469459" lon="11.2256849">
        <ele>366.9000000</ele>
        <time>2009-11-26T11:11:57Z</time>
      </trkpt>
      <trkpt lat="49.3470509" lon="11.2251685">
        <ele>366.9000000</ele>
        <time>2009-11-26T11:12:07Z</time>
      </trkpt>
      <trkpt lat="49.3470679" lon="11.2246329">
        <ele>367.4000000</ele>
        <time>2009-11-26T11:12:18Z</time>
      </trkpt>
      <trkpt lat="49.3470981" lon="11.2244722">
        <ele>367.4000000</ele>
        <time>2009-11-26T11:12:22Z</time>
      </trkpt>
      <trkpt lat="49.3471902" lon="11.2243126">
        <ele>365.9000000</ele>
        <time>2009-11-26T11:12:26Z</time>
      </trkpt>
      <trkpt lat="49.3472981" lon="11.2240893">
        <ele>364.5000000</ele>
        <time>2009-11-26T11:12:32Z</time>
      </trkpt>
      <trkpt lat="49.3473234" lon="11.2240122">
        <ele>364.5000000</ele>
        <time>2009-11-26T11:12:33Z</time>
      </trkpt>
      <trkpt lat="49.3474958" lon="11.2233316">
        <ele>364.0000000</ele>
        <time>2009-11-26T11:12:48Z</time>
      </trkpt>
      <trkpt lat="49.3475281" lon="11.2231425">
        <ele>364.5000000</ele>
        <time>2009-11-26T11:12:52Z</time>
      </trkpt>
      <trkpt lat="49.3475709" lon="11.2230206">
        <ele>363.5000000</ele>
        <time>2009-11-26T11:12:55Z</time>
      </trkpt>
      <trkpt lat="49.3476574" lon="11.2228050">
        <ele>364.0000000</ele>
        <time>2009-11-26T11:13:00Z</time>
      </trkpt>
      <trkpt lat="49.3478518" lon="11.2223487">
        <ele>365.4000000</ele>
        <time>2009-11-26T11:13:11Z</time>
      </trkpt>
      <trkpt lat="49.3479155" lon="11.2221945">
        <ele>365.0000000</ele>
        <time>2009-11-26T11:13:14Z</time>
      </trkpt>
      <trkpt lat="49.3479538" lon="11.2220482">
        <ele>364.5000000</ele>
        <time>2009-11-26T11:13:18Z</time>
      </trkpt>
      <trkpt lat="49.3481559" lon="11.2212492">
        <ele>364.0000000</ele>
        <time>2009-11-26T11:13:35Z</time>
      </trkpt>
      <trkpt lat="49.3482501" lon="11.2210685">
        <ele>364.5000000</ele>
        <time>2009-11-26T11:13:40Z</time>
      </trkpt>
      <trkpt lat="49.3484336" lon="11.2206265">
        <ele>362.6000000</ele>
        <time>2009-11-26T11:13:50Z</time>
      </trkpt>
      <trkpt lat="49.3485112" lon="11.2204642">
        <ele>362.1000000</ele>
        <time>2009-11-26T11:13:54Z</time>
      </trkpt>
      <trkpt lat="49.3486105" lon="11.2203323">
        <ele>362.1000000</ele>
        <time>2009-11-26T11:13:58Z</time>
      </trkpt>
      <trkpt lat="49.3487247" lon="11.2200791">
        <ele>362.1000000</ele>
        <time>2009-11-26T11:14:04Z</time>
      </trkpt>
      <trkpt lat="49.3488511" lon="11.2195181">
        <ele>362.1000000</ele>
        <time>2009-11-26T11:14:16Z</time>
      </trkpt>
      <trkpt lat="49.3489123" lon="11.2190912">
        <ele>361.6000000</ele>
        <time>2009-11-26T11:14:25Z</time>
      </trkpt>
      <trkpt lat="49.3489749" lon="11.2187186">
        <ele>361.1000000</ele>
        <time>2009-11-26T11:14:33Z</time>
      </trkpt>
      <trkpt lat="49.3490094" lon="11.2183772">
        <ele>361.6000000</ele>
        <time>2009-11-26T11:14:40Z</time>
      </trkpt>
      <trkpt lat="49.3490762" lon="11.2179857">
        <ele>361.1000000</ele>
        <time>2009-11-26T11:14:48Z</time>
      </trkpt>
      <trkpt lat="49.3490770" lon="11.2172081">
        <ele>361.1000000</ele>
        <time>2009-11-26T11:15:04Z</time>
      </trkpt>
      <trkpt lat="49.3492235" lon="11.2169417">
        <ele>359.2000000</ele>
        <time>2009-11-26T11:15:11Z</time>
      </trkpt>
      <trkpt lat="49.3494167" lon="11.2164392">
        <ele>359.2000000</ele>
        <time>2009-11-26T11:15:23Z</time>
      </trkpt>
      <trkpt lat="49.3495684" lon="11.2161021">
        <ele>359.7000000</ele>
        <time>2009-11-26T11:15:31Z</time>
      </trkpt>
      <trkpt lat="49.3497312" lon="11.2158409">
        <ele>359.7000000</ele>
        <time>2009-11-26T11:15:38Z</time>
      </trkpt>
      <trkpt lat="49.3497646" lon="11.2151629">
        <ele>359.2000000</ele>
        <time>2009-11-26T11:15:52Z</time>
      </trkpt>
      <trkpt lat="49.3495923" lon="11.2143986">
        <ele>359.7000000</ele>
        <time>2009-11-26T11:16:08Z</time>
      </trkpt>
      <trkpt lat="49.3498007" lon="11.2130563">
        <ele>359.2000000</ele>
        <time>2009-11-26T11:16:36Z</time>
      </trkpt>
      <trkpt lat="49.3498519" lon="11.2128584">
        <ele>359.7000000</ele>
        <time>2009-11-26T11:16:40Z</time>
      </trkpt>
      <trkpt lat="49.3499724" lon="11.2124694">
        <ele>359.7000000</ele>
        <time>2009-11-26T11:16:49Z</time>
      </trkpt>
      <trkpt lat="49.3503173" lon="11.2114731">
        <ele>356.8000000</ele>
        <time>2009-11-26T11:17:12Z</time>
      </trkpt>
      <trkpt lat="49.3504235" lon="11.2110566">
        <ele>356.8000000</ele>
        <time>2009-11-26T11:17:21Z</time>
      </trkpt>
      <trkpt lat="49.3504859" lon="11.2108750">
        <ele>357.3000000</ele>
        <time>2009-11-26T11:17:25Z</time>
      </trkpt>
      <trkpt lat="49.3505974" lon="11.2104435">
        <ele>357.3000000</ele>
        <time>2009-11-26T11:17:34Z</time>
      </trkpt>
      <trkpt lat="49.3509371" lon="11.2092751">
        <ele>357.3000000</ele>
        <time>2009-11-26T11:18:00Z</time>
      </trkpt>
      <trkpt lat="49.3509664" lon="11.2091012">
        <ele>357.3000000</ele>
        <time>2009-11-26T11:18:03Z</time>
      </trkpt>
      <trkpt lat="49.3511050" lon="11.2086786">
        <ele>356.8000000</ele>
        <time>2009-11-26T11:18:13Z</time>
      </trkpt>
      <trkpt lat="49.3512313" lon="11.2082309">
        <ele>355.3000000</ele>
        <time>2009-11-26T11:18:23Z</time>
      </trkpt>
      <trkpt lat="49.3514326" lon="11.2075647">
        <ele>354.9000000</ele>
        <time>2009-11-26T11:18:38Z</time>
      </trkpt>
      <trkpt lat="49.3515064" lon="11.2074067">
        <ele>354.9000000</ele>
        <time>2009-11-26T11:18:42Z</time>
      </trkpt>
      <trkpt lat="49.3516198" lon="11.2070178">
        <ele>355.3000000</ele>
        <time>2009-11-26T11:18:50Z</time>
      </trkpt>
      <trkpt lat="49.3517896" lon="11.2067064">
        <ele>354.9000000</ele>
        <time>2009-11-26T11:18:58Z</time>
      </trkpt>
      <trkpt lat="49.3522967" lon="11.2060258">
        <ele>355.3000000</ele>
        <time>2009-11-26T11:19:19Z</time>
      </trkpt>
      <trkpt lat="49.3524087" lon="11.2058704">
        <ele>354.9000000</ele>
        <time>2009-11-26T11:19:24Z</time>
      </trkpt>
      <trkpt lat="49.3530593" lon="11.2055327">
        <ele>354.4000000</ele>
        <time>2009-11-26T11:19:45Z</time>
      </trkpt>
      <trkpt lat="49.3535050" lon="11.2055642">
        <ele>353.4000000</ele>
        <time>2009-11-26T11:19:59Z</time>
      </trkpt>
      <trkpt lat="49.3539482" lon="11.2056729">
        <ele>353.4000000</ele>
        <time>2009-11-26T11:20:13Z</time>
      </trkpt>
      <trkpt lat="49.3540846" lon="11.2057264">
        <ele>353.4000000</ele>
        <time>2009-11-26T11:20:17Z</time>
      </trkpt>
      <trkpt lat="49.3543513" lon="11.2057547">
        <ele>352.9000000</ele>
        <time>2009-11-26T11:20:25Z</time>
      </trkpt>
      <trkpt lat="49.3544435" lon="11.2058086">
        <ele>352.5000000</ele>
        <time>2009-11-26T11:20:28Z</time>
      </trkpt>
      <trkpt lat="49.3547822" lon="11.2060347">
        <ele>352.0000000</ele>
        <time>2009-11-26T11:20:40Z</time>
      </trkpt>
      <trkpt lat="49.3551012" lon="11.2062942">
        <ele>352.0000000</ele>
        <time>2009-11-26T11:20:51Z</time>
      </trkpt>
      <trkpt lat="49.3552863" lon="11.2064114">
        <ele>352.9000000</ele>
        <time>2009-11-26T11:20:57Z</time>
      </trkpt>
      <trkpt lat="49.3557709" lon="11.2067719">
        <ele>352.9000000</ele>
        <time>2009-11-26T11:21:14Z</time>
      </trkpt>
      <trkpt lat="49.3562584" lon="11.2070339">
        <ele>352.5000000</ele>
        <time>2009-11-26T11:21:30Z</time>
      </trkpt>
      <trkpt lat="49.3566284" lon="11.2070433">
        <ele>352.9000000</ele>
        <time>2009-11-26T11:21:41Z</time>
      </trkpt>
      <trkpt lat="49.3568667" lon="11.2069829">
        <ele>352.5000000</ele>
        <time>2009-11-26T11:21:49Z</time>
      </trkpt>
      <trkpt lat="49.3576459" lon="11.2066755">
        <ele>352.9000000</ele>
        <time>2009-11-26T11:22:14Z</time>
      </trkpt>
      <trkpt lat="49.3583131" lon="11.2060896">
        <ele>352.9000000</ele>
        <time>2009-11-26T11:22:37Z</time>
      </trkpt>
      <trkpt lat="49.3583550" lon="11.2060373">
        <ele>352.5000000</ele>
        <time>2009-11-26T11:22:39Z</time>
      </trkpt>
      <trkpt lat="49.3585575" lon="11.2057538">
        <ele>352.0000000</ele>
        <time>2009-11-26T11:22:47Z</time>
      </trkpt>
      <trkpt lat="49.3587191" lon="11.2055475">
        <ele>352.5000000</ele>
        <time>2009-11-26T11:22:54Z</time>
      </trkpt>
      <trkpt lat="49.3591310" lon="11.2049832">
        <ele>352.0000000</ele>
        <time>2009-11-26T11:23:11Z</time>
      </trkpt>
      <trkpt lat="49.3593512" lon="11.2044118">
        <ele>352.5000000</ele>
        <time>2009-11-26T11:23:24Z</time>
      </trkpt>
      <trkpt lat="49.3593801" lon="11.2038388">
        <ele>352.0000000</ele>
        <time>2009-11-26T11:23:36Z</time>
      </trkpt>
      <trkpt lat="49.3594462" lon="11.2034937">
        <ele>351.0000000</ele>
        <time>2009-11-26T11:23:43Z</time>
      </trkpt>
      <trkpt lat="49.3594781" lon="11.2033206">
        <ele>350.1000000</ele>
        <time>2009-11-26T11:23:47Z</time>
      </trkpt>
      <trkpt lat="49.3597272" lon="11.2027446">
        <ele>350.1000000</ele>
        <time>2009-11-26T11:24:01Z</time>
      </trkpt>
      <trkpt lat="49.3597084" lon="11.2016584">
        <ele>351.0000000</ele>
        <time>2009-11-26T11:24:23Z</time>
      </trkpt>
      <trkpt lat="49.3598080" lon="11.2013729">
        <ele>350.1000000</ele>
        <time>2009-11-26T11:24:29Z</time>
      </trkpt>
      <trkpt lat="49.3598655" lon="11.2009679">
        <ele>350.1000000</ele>
        <time>2009-11-26T11:24:38Z</time>
      </trkpt>
      <trkpt lat="49.3598847" lon="11.2008098">
        <ele>350.1000000</ele>
        <time>2009-11-26T11:24:41Z</time>
      </trkpt>
      <trkpt lat="49.3601868" lon="11.2005422">
        <ele>349.1000000</ele>
        <time>2009-11-26T11:24:52Z</time>
      </trkpt>
      <trkpt lat="49.3602880" lon="11.2004417">
        <ele>349.1000000</ele>
        <time>2009-11-26T11:24:55Z</time>
      </trkpt>
      <trkpt lat="49.3603678" lon="11.2002650">
        <ele>349.1000000</ele>
        <time>2009-11-26T11:25:00Z</time>
      </trkpt>
      <trkpt lat="49.3600282" lon="11.1999603">
        <ele>350.1000000</ele>
        <time>2009-11-26T11:25:12Z</time>
      </trkpt>
      <trkpt lat="49.3599953" lon="11.1999551">
        <ele>349.6000000</ele>
        <time>2009-11-26T11:25:13Z</time>
      </trkpt>
      <trkpt lat="49.3598764" lon="11.1997978">
        <ele>350.1000000</ele>
        <time>2009-11-26T11:25:18Z</time>
      </trkpt>
      <trkpt lat="49.3598395" lon="11.1994227">
        <ele>350.1000000</ele>
        <time>2009-11-26T11:25:25Z</time>
      </trkpt>
      <trkpt lat="49.3598099" lon="11.1990177">
        <ele>350.1000000</ele>
        <time>2009-11-26T11:25:33Z</time>
      </trkpt>
      <trkpt lat="49.3598214" lon="11.1988490">
        <ele>350.5000000</ele>
        <time>2009-11-26T11:25:37Z</time>
      </trkpt>
      <trkpt lat="49.3599319" lon="11.1984142">
        <ele>350.1000000</ele>
        <time>2009-11-26T11:25:46Z</time>
      </trkpt>
      <trkpt lat="49.3601742" lon="11.1976061">
        <ele>350.5000000</ele>
        <time>2009-11-26T11:26:04Z</time>
      </trkpt>
      <trkpt lat="49.3602526" lon="11.1972621">
        <ele>350.1000000</ele>
        <time>2009-11-26T11:26:12Z</time>
      </trkpt>
      <trkpt lat="49.3602943" lon="11.1970069">
        <ele>350.5000000</ele>
        <time>2009-11-26T11:26:17Z</time>
      </trkpt>
      <trkpt lat="49.3603134" lon="11.1966670">
        <ele>350.1000000</ele>
        <time>2009-11-26T11:26:24Z</time>
      </trkpt>
      <trkpt lat="49.3603690" lon="11.1964326">
        <ele>350.1000000</ele>
        <time>2009-11-26T11:26:29Z</time>
      </trkpt>
      <trkpt lat="49.3604202" lon="11.1961314">
        <ele>350.1000000</ele>
        <time>2009-11-26T11:26:35Z</time>
      </trkpt>
      <trkpt lat="49.3605377" lon="11.1958255">
        <ele>349.1000000</ele>
        <time>2009-11-26T11:26:42Z</time>
      </trkpt>
      <trkpt lat="49.3605931" lon="11.1956527">
        <ele>348.6000000</ele>
        <time>2009-11-26T11:26:46Z</time>
      </trkpt>
      <trkpt lat="49.3608030" lon="11.1950576">
        <ele>347.2000000</ele>
        <time>2009-11-26T11:27:00Z</time>
      </trkpt>
      <trkpt lat="49.3608575" lon="11.1947799">
        <ele>347.2000000</ele>
        <time>2009-11-26T11:27:06Z</time>
      </trkpt>
      <trkpt lat="49.3609538" lon="11.1943391">
        <ele>346.7000000</ele>
        <time>2009-11-26T11:27:15Z</time>
      </trkpt>
      <trkpt lat="49.3610828" lon="11.1939365">
        <ele>346.7000000</ele>
        <time>2009-11-26T11:27:24Z</time>
      </trkpt>
      <trkpt lat="49.3612665" lon="11.1931776">
        <ele>347.2000000</ele>
        <time>2009-11-26T11:27:40Z</time>
      </trkpt>
      <trkpt lat="49.3613507" lon="11.1926996">
        <ele>346.7000000</ele>
        <time>2009-11-26T11:27:50Z</time>
      </trkpt>
      <trkpt lat="49.3613882" lon="11.1923948">
        <ele>346.2000000</ele>
        <time>2009-11-26T11:27:56Z</time>
      </trkpt>
      <trkpt lat="49.3614107" lon="11.1921008">
        <ele>346.2000000</ele>
        <time>2009-11-26T11:28:02Z</time>
      </trkpt>
      <trkpt lat="49.3614258" lon="11.1919122">
        <ele>346.7000000</ele>
        <time>2009-11-26T11:28:06Z</time>
      </trkpt>
      <trkpt lat="49.3615341" lon="11.1915035">
        <ele>346.2000000</ele>
        <time>2009-11-26T11:28:15Z</time>
      </trkpt>
      <trkpt lat="49.3618857" lon="11.1903981">
        <ele>346.2000000</ele>
        <time>2009-11-26T11:28:40Z</time>
      </trkpt>
      <trkpt lat="49.3620298" lon="11.1897170">
        <ele>346.7000000</ele>
        <time>2009-11-26T11:28:54Z</time>
      </trkpt>
      <trkpt lat="49.3622405" lon="11.1886524">
        <ele>346.2000000</ele>
        <time>2009-11-26T11:29:17Z</time>
      </trkpt>
      <trkpt lat="49.3623685" lon="11.1883177">
        <ele>345.7000000</ele>
        <time>2009-11-26T11:29:25Z</time>
      </trkpt>
      <trkpt lat="49.3625338" lon="11.1874811">
        <ele>346.2000000</ele>
        <time>2009-11-26T11:29:42Z</time>
      </trkpt>
      <trkpt lat="49.3625917" lon="11.1867777">
        <ele>345.7000000</ele>
        <time>2009-11-26T11:29:56Z</time>
      </trkpt>
      <trkpt lat="49.3627413" lon="11.1863684">
        <ele>345.7000000</ele>
        <time>2009-11-26T11:30:06Z</time>
      </trkpt>
      <trkpt lat="49.3630875" lon="11.1849219">
        <ele>347.2000000</ele>
        <time>2009-11-26T11:30:37Z</time>
      </trkpt>
      <trkpt lat="49.3631092" lon="11.1848367">
        <ele>346.7000000</ele>
        <time>2009-11-26T11:30:39Z</time>
      </trkpt>
      <trkpt lat="49.3631497" lon="11.1846980">
        <ele>346.2000000</ele>
        <time>2009-11-26T11:30:42Z</time>
      </trkpt>
      <trkpt lat="49.3632445" lon="11.1841804">
        <ele>346.2000000</ele>
        <time>2009-11-26T11:30:53Z</time>
      </trkpt>
      <trkpt lat="49.3632911" lon="11.1840004">
        <ele>346.7000000</ele>
        <time>2009-11-26T11:30:57Z</time>
      </trkpt>
      <trkpt lat="49.3633240" lon="11.1837028">
        <ele>346.2000000</ele>
        <time>2009-11-26T11:31:03Z</time>
      </trkpt>
      <trkpt lat="49.3634625" lon="11.1832039">
        <ele>346.2000000</ele>
        <time>2009-11-26T11:31:14Z</time>
      </trkpt>
      <trkpt lat="49.3635811" lon="11.1826536">
        <ele>346.7000000</ele>
        <time>2009-11-26T11:31:25Z</time>
      </trkpt>
      <trkpt lat="49.3635820" lon="11.1823330">
        <ele>345.7000000</ele>
        <time>2009-11-26T11:31:32Z</time>
      </trkpt>
      <trkpt lat="49.3636219" lon="11.1820633">
        <ele>343.3000000</ele>
        <time>2009-11-26T11:31:37Z</time>
      </trkpt>
      <trkpt lat="49.3636924" lon="11.1819294">
        <ele>343.3000000</ele>
        <time>2009-11-26T11:31:41Z</time>
      </trkpt>
      <trkpt lat="49.3638361" lon="11.1814597">
        <ele>343.3000000</ele>
        <time>2009-11-26T11:31:51Z</time>
      </trkpt>
      <trkpt lat="49.3637977" lon="11.1811981">
        <ele>343.3000000</ele>
        <time>2009-11-26T11:31:57Z</time>
      </trkpt>
      <trkpt lat="49.3639349" lon="11.1804894">
        <ele>343.3000000</ele>
        <time>2009-11-26T11:32:11Z</time>
      </trkpt>
      <trkpt lat="49.3639954" lon="11.1799160">
        <ele>342.8000000</ele>
        <time>2009-11-26T11:32:23Z</time>
      </trkpt>
      <trkpt lat="49.3640431" lon="11.1794455">
        <ele>344.3000000</ele>
        <time>2009-11-26T11:32:33Z</time>
      </trkpt>
      <trkpt lat="49.3639697" lon="11.1791006">
        <ele>345.7000000</ele>
        <time>2009-11-26T11:32:40Z</time>
      </trkpt>
      <trkpt lat="49.3640232" lon="11.1789262">
        <ele>344.8000000</ele>
        <time>2009-11-26T11:32:44Z</time>
      </trkpt>
      <trkpt lat="49.3640748" lon="11.1786398">
        <ele>343.3000000</ele>
        <time>2009-11-26T11:32:50Z</time>
      </trkpt>
      <trkpt lat="49.3641399" lon="11.1782412">
        <ele>342.8000000</ele>
        <time>2009-11-26T11:32:58Z</time>
      </trkpt>
      <trkpt lat="49.3642303" lon="11.1777265">
        <ele>343.3000000</ele>
        <time>2009-11-26T11:33:09Z</time>
      </trkpt>
      <trkpt lat="49.3642136" lon="11.1774353">
        <ele>342.8000000</ele>
        <time>2009-11-26T11:33:15Z</time>
      </trkpt>
      <trkpt lat="49.3642344" lon="11.1770435">
        <ele>342.8000000</ele>
        <time>2009-11-26T11:33:23Z</time>
      </trkpt>
      <trkpt lat="49.3642958" lon="11.1763618">
        <ele>341.9000000</ele>
        <time>2009-11-26T11:33:37Z</time>
      </trkpt>
      <trkpt lat="49.3643002" lon="11.1761709">
        <ele>341.9000000</ele>
        <time>2009-11-26T11:33:40Z</time>
      </trkpt>
      <trkpt lat="49.3643146" lon="11.1757890">
        <ele>342.4000000</ele>
        <time>2009-11-26T11:33:48Z</time>
      </trkpt>
      <trkpt lat="49.3643288" lon="11.1755962">
        <ele>342.4000000</ele>
        <time>2009-11-26T11:33:52Z</time>
      </trkpt>
      <trkpt lat="49.3645307" lon="11.1736763">
        <ele>341.9000000</ele>
        <time>2009-11-26T11:34:31Z</time>
      </trkpt>
      <trkpt lat="49.3645437" lon="11.1735865">
        <ele>341.9000000</ele>
        <time>2009-11-26T11:34:33Z</time>
      </trkpt>
      <trkpt lat="49.3645706" lon="11.1728794">
        <ele>342.4000000</ele>
        <time>2009-11-26T11:34:47Z</time>
      </trkpt>
      <trkpt lat="49.3647042" lon="11.1715162">
        <ele>341.9000000</ele>
        <time>2009-11-26T11:35:15Z</time>
      </trkpt>
      <trkpt lat="49.3647073" lon="11.1712358">
        <ele>342.4000000</ele>
        <time>2009-11-26T11:35:21Z</time>
      </trkpt>
      <trkpt lat="49.3645675" lon="11.1701849">
        <ele>342.4000000</ele>
        <time>2009-11-26T11:35:42Z</time>
      </trkpt>
      <trkpt lat="49.3644715" lon="11.1697617">
        <ele>340.4000000</ele>
        <time>2009-11-26T11:35:51Z</time>
      </trkpt>
      <trkpt lat="49.3644550" lon="11.1697016">
        <ele>340.4000000</ele>
        <time>2009-11-26T11:35:53Z</time>
      </trkpt>
      <trkpt lat="49.3644053" lon="11.1694120">
        <ele>340.9000000</ele>
        <time>2009-11-26T11:35:59Z</time>
      </trkpt>
      <trkpt lat="49.3641888" lon="11.1684837">
        <ele>340.9000000</ele>
        <time>2009-11-26T11:36:19Z</time>
      </trkpt>
      <trkpt lat="49.3641171" lon="11.1681522">
        <ele>340.0000000</ele>
        <time>2009-11-26T11:36:26Z</time>
      </trkpt>
      <trkpt lat="49.3639500" lon="11.1675124">
        <ele>340.9000000</ele>
        <time>2009-11-26T11:36:40Z</time>
      </trkpt>
      <trkpt lat="49.3638749" lon="11.1672829">
        <ele>340.9000000</ele>
        <time>2009-11-26T11:36:45Z</time>
      </trkpt>
      <trkpt lat="49.3638042" lon="11.1670584">
        <ele>340.4000000</ele>
        <time>2009-11-26T11:36:50Z</time>
      </trkpt>
      <trkpt lat="49.3637780" lon="11.1668822">
        <ele>340.4000000</ele>
        <time>2009-11-26T11:36:53Z</time>
      </trkpt>
      <trkpt lat="49.3637514" lon="11.1666194">
        <ele>340.4000000</ele>
        <time>2009-11-26T11:36:59Z</time>
      </trkpt>
      <trkpt lat="49.3636830" lon="11.1663778">
        <ele>340.9000000</ele>
        <time>2009-11-26T11:37:04Z</time>
      </trkpt>
      <trkpt lat="49.3635376" lon="11.1658526">
        <ele>340.4000000</ele>
        <time>2009-11-26T11:37:16Z</time>
      </trkpt>
      <trkpt lat="49.3633170" lon="11.1647750">
        <ele>340.4000000</ele>
        <time>2009-11-26T11:37:38Z</time>
      </trkpt>
      <trkpt lat="49.3631850" lon="11.1639749">
        <ele>340.0000000</ele>
        <time>2009-11-26T11:37:55Z</time>
      </trkpt>
      <trkpt lat="49.3628902" lon="11.1630305">
        <ele>340.0000000</ele>
        <time>2009-11-26T11:38:16Z</time>
      </trkpt>
      <trkpt lat="49.3627166" lon="11.1624592">
        <ele>340.0000000</ele>
        <time>2009-11-26T11:38:29Z</time>
      </trkpt>
      <trkpt lat="49.3626817" lon="11.1621774">
        <ele>340.0000000</ele>
        <time>2009-11-26T11:38:34Z</time>
      </trkpt>
      <trkpt lat="49.3623779" lon="11.1609388">
        <ele>340.0000000</ele>
        <time>2009-11-26T11:39:01Z</time>
      </trkpt>
      <trkpt lat="49.3623033" lon="11.1602979">
        <ele>340.0000000</ele>
        <time>2009-11-26T11:39:14Z</time>
      </trkpt>
      <trkpt lat="49.3620111" lon="11.1591009">
        <ele>340.4000000</ele>
        <time>2009-11-26T11:39:40Z</time>
      </trkpt>
      <trkpt lat="49.3619146" lon="11.1587207">
        <ele>339.5000000</ele>
        <time>2009-11-26T11:39:48Z</time>
      </trkpt>
      <trkpt lat="49.3618935" lon="11.1584625">
        <ele>340.0000000</ele>
        <time>2009-11-26T11:39:53Z</time>
      </trkpt>
      <trkpt lat="49.3617821" lon="11.1580208">
        <ele>339.5000000</ele>
        <time>2009-11-26T11:40:03Z</time>
      </trkpt>
      <trkpt lat="49.3617178" lon="11.1577970">
        <ele>339.5000000</ele>
        <time>2009-11-26T11:40:08Z</time>
      </trkpt>
      <trkpt lat="49.3616360" lon="11.1573992">
        <ele>339.5000000</ele>
        <time>2009-11-26T11:40:16Z</time>
      </trkpt>
      <trkpt lat="49.3615696" lon="11.1571618">
        <ele>339.5000000</ele>
        <time>2009-11-26T11:40:21Z</time>
      </trkpt>
      <trkpt lat="49.3614693" lon="11.1568781">
        <ele>339.5000000</ele>
        <time>2009-11-26T11:40:28Z</time>
      </trkpt>
      <trkpt lat="49.3613667" lon="11.1565351">
        <ele>339.5000000</ele>
        <time>2009-11-26T11:40:36Z</time>
      </trkpt>
      <trkpt lat="49.3613330" lon="11.1562425">
        <ele>339.5000000</ele>
        <time>2009-11-26T11:40:42Z</time>
      </trkpt>
      <trkpt lat="49.3613142" lon="11.1560730">
        <ele>339.0000000</ele>
        <time>2009-11-26T11:40:45Z</time>
      </trkpt>
      <trkpt lat="49.3611067" lon="11.1551946">
        <ele>339.0000000</ele>
        <time>2009-11-26T11:41:04Z</time>
      </trkpt>
      <trkpt lat="49.3610564" lon="11.1550335">
        <ele>338.5000000</ele>
        <time>2009-11-26T11:41:07Z</time>
      </trkpt>
      <trkpt lat="49.3610127" lon="11.1548739">
        <ele>338.5000000</ele>
        <time>2009-11-26T11:41:11Z</time>
      </trkpt>
      <trkpt lat="49.3607486" lon="11.1540089">
        <ele>338.5000000</ele>
        <time>2009-11-26T11:41:30Z</time>
      </trkpt>
      <trkpt lat="49.3606352" lon="11.1537482">
        <ele>339.0000000</ele>
        <time>2009-11-26T11:41:36Z</time>
      </trkpt>
      <trkpt lat="49.3604425" lon="11.1534742">
        <ele>339.5000000</ele>
        <time>2009-11-26T11:41:45Z</time>
      </trkpt>
      <trkpt lat="49.3598054" lon="11.1527273">
        <ele>339.5000000</ele>
        <time>2009-11-26T11:42:09Z</time>
      </trkpt>
      <trkpt lat="49.3596887" lon="11.1525872">
        <ele>339.5000000</ele>
        <time>2009-11-26T11:42:14Z</time>
      </trkpt>
      <trkpt lat="49.3594752" lon="11.1521640">
        <ele>338.5000000</ele>
        <time>2009-11-26T11:42:25Z</time>
      </trkpt>
      <trkpt lat="49.3594814" lon="11.1521130">
        <ele>339.0000000</ele>
        <time>2009-11-26T11:42:26Z</time>
      </trkpt>
      <trkpt lat="49.3595195" lon="11.1520270">
        <ele>339.0000000</ele>
        <time>2009-11-26T11:42:28Z</time>
      </trkpt>
      <trkpt lat="49.3594329" lon="11.1516308">
        <ele>339.0000000</ele>
        <time>2009-11-26T11:42:36Z</time>
      </trkpt>
      <trkpt lat="49.3592908" lon="11.1511366">
        <ele>339.5000000</ele>
        <time>2009-11-26T11:42:47Z</time>
      </trkpt>
      <trkpt lat="49.3592499" lon="11.1506644">
        <ele>339.0000000</ele>
        <time>2009-11-26T11:42:57Z</time>
      </trkpt>
      <trkpt lat="49.3592152" lon="11.1502355">
        <ele>339.5000000</ele>
        <time>2009-11-26T11:43:05Z</time>
      </trkpt>
      <trkpt lat="49.3591929" lon="11.1498994">
        <ele>339.0000000</ele>
        <time>2009-11-26T11:43:12Z</time>
      </trkpt>
      <trkpt lat="49.3591635" lon="11.1496389">
        <ele>339.0000000</ele>
        <time>2009-11-26T11:43:18Z</time>
      </trkpt>
      <trkpt lat="49.3591320" lon="11.1493525">
        <ele>339.0000000</ele>
        <time>2009-11-26T11:43:23Z</time>
      </trkpt>
      <trkpt lat="49.3591064" lon="11.1489530">
        <ele>338.5000000</ele>
        <time>2009-11-26T11:43:32Z</time>
      </trkpt>
      <trkpt lat="49.3590092" lon="11.1485205">
        <ele>338.5000000</ele>
        <time>2009-11-26T11:43:41Z</time>
      </trkpt>
      <trkpt lat="49.3589596" lon="11.1477566">
        <ele>339.0000000</ele>
        <time>2009-11-26T11:43:56Z</time>
      </trkpt>
      <trkpt lat="49.3589538" lon="11.1476929">
        <ele>339.5000000</ele>
        <time>2009-11-26T11:43:58Z</time>
      </trkpt>
      <trkpt lat="49.3588746" lon="11.1472551">
        <ele>339.5000000</ele>
        <time>2009-11-26T11:44:07Z</time>
      </trkpt>
      <trkpt lat="49.3588642" lon="11.1470727">
        <ele>341.9000000</ele>
        <time>2009-11-26T11:44:10Z</time>
      </trkpt>
      <trkpt lat="49.3590313" lon="11.1465531">
        <ele>339.5000000</ele>
        <time>2009-11-26T11:44:22Z</time>
      </trkpt>
      <trkpt lat="49.3590344" lon="11.1464947">
        <ele>338.5000000</ele>
        <time>2009-11-26T11:44:23Z</time>
      </trkpt>
      <trkpt lat="49.3589921" lon="11.1460047">
        <ele>336.6000000</ele>
        <time>2009-11-26T11:44:33Z</time>
      </trkpt>
      <trkpt lat="49.3588974" lon="11.1452124">
        <ele>336.6000000</ele>
        <time>2009-11-26T11:44:49Z</time>
      </trkpt>
      <trkpt lat="49.3588366" lon="11.1447183">
        <ele>337.6000000</ele>
        <time>2009-11-26T11:45:00Z</time>
      </trkpt>
      <trkpt lat="49.3586632" lon="11.1441827">
        <ele>337.6000000</ele>
        <time>2009-11-26T11:45:12Z</time>
      </trkpt>
      <trkpt lat="49.3585834" lon="11.1438117">
        <ele>338.0000000</ele>
        <time>2009-11-26T11:45:19Z</time>
      </trkpt>
      <trkpt lat="49.3585047" lon="11.1435181">
        <ele>337.1000000</ele>
        <time>2009-11-26T11:45:26Z</time>
      </trkpt>
      <trkpt lat="49.3584566" lon="11.1428476">
        <ele>339.5000000</ele>
        <time>2009-11-26T11:45:39Z</time>
      </trkpt>
      <trkpt lat="49.3584967" lon="11.1425296">
        <ele>340.0000000</ele>
        <time>2009-11-26T11:45:46Z</time>
      </trkpt>
      <trkpt lat="49.3584465" lon="11.1414993">
        <ele>339.5000000</ele>
        <time>2009-11-26T11:46:07Z</time>
      </trkpt>
      <trkpt lat="49.3583027" lon="11.1392625">
        <ele>339.5000000</ele>
        <time>2009-11-26T11:46:52Z</time>
      </trkpt>
      <trkpt lat="49.3582931" lon="11.1391642">
        <ele>339.5000000</ele>
        <time>2009-11-26T11:46:54Z</time>
      </trkpt>
      <trkpt lat="49.3582649" lon="11.1389746">
        <ele>339.5000000</ele>
        <time>2009-11-26T11:46:58Z</time>
      </trkpt>
      <trkpt lat="49.3582297" lon="11.1385887">
        <ele>339.0000000</ele>
        <time>2009-11-26T11:47:06Z</time>
      </trkpt>
      <trkpt lat="49.3581565" lon="11.1369498">
        <ele>339.0000000</ele>
        <time>2009-11-26T11:47:39Z</time>
      </trkpt>
      <trkpt lat="49.3581731" lon="11.1368446">
        <ele>339.0000000</ele>
        <time>2009-11-26T11:47:41Z</time>
      </trkpt>
      <trkpt lat="49.3582649" lon="11.1364390">
        <ele>339.0000000</ele>
        <time>2009-11-26T11:47:50Z</time>
      </trkpt>
      <trkpt lat="49.3583571" lon="11.1360650">
        <ele>339.0000000</ele>
        <time>2009-11-26T11:47:58Z</time>
      </trkpt>
      <trkpt lat="49.3585019" lon="11.1357091">
        <ele>339.0000000</ele>
        <time>2009-11-26T11:48:06Z</time>
      </trkpt>
      <trkpt lat="49.3587197" lon="11.1352647">
        <ele>339.0000000</ele>
        <time>2009-11-26T11:48:17Z</time>
      </trkpt>
      <trkpt lat="49.3591947" lon="11.1341587">
        <ele>339.0000000</ele>
        <time>2009-11-26T11:48:44Z</time>
      </trkpt>
      <trkpt lat="49.3593039" lon="11.1336535">
        <ele>339.5000000</ele>
        <time>2009-11-26T11:48:55Z</time>
      </trkpt>
      <trkpt lat="49.3593261" lon="11.1333258">
        <ele>339.5000000</ele>
        <time>2009-11-26T11:49:01Z</time>
      </trkpt>
      <trkpt lat="49.3593335" lon="11.1329703">
        <ele>339.0000000</ele>
        <time>2009-11-26T11:49:09Z</time>
      </trkpt>
      <trkpt lat="49.3592905" lon="11.1323042">
        <ele>339.5000000</ele>
        <time>2009-11-26T11:49:22Z</time>
      </trkpt>
      <trkpt lat="49.3591345" lon="11.1308067">
        <ele>339.5000000</ele>
        <time>2009-11-26T11:49:53Z</time>
      </trkpt>
      <trkpt lat="49.3590284" lon="11.1293521">
        <ele>339.5000000</ele>
        <time>2009-11-26T11:50:22Z</time>
      </trkpt>
      <trkpt lat="49.3590087" lon="11.1292473">
        <ele>339.5000000</ele>
        <time>2009-11-26T11:50:24Z</time>
      </trkpt>
      <trkpt lat="49.3589855" lon="11.1289346">
        <ele>339.5000000</ele>
        <time>2009-11-26T11:50:31Z</time>
      </trkpt>
      <trkpt lat="49.3588705" lon="11.1274638">
        <ele>339.5000000</ele>
        <time>2009-11-26T11:51:00Z</time>
      </trkpt>
      <trkpt lat="49.3586789" lon="11.1267282">
        <ele>338.5000000</ele>
        <time>2009-11-26T11:51:16Z</time>
      </trkpt>
      <trkpt lat="49.3585504" lon="11.1265372">
        <ele>339.0000000</ele>
        <time>2009-11-26T11:51:22Z</time>
      </trkpt>
      <trkpt lat="49.3582814" lon="11.1257938">
        <ele>339.0000000</ele>
        <time>2009-11-26T11:51:39Z</time>
      </trkpt>
      <trkpt lat="49.3582248" lon="11.1255494">
        <ele>339.5000000</ele>
        <time>2009-11-26T11:51:44Z</time>
      </trkpt>
      <trkpt lat="49.3582491" lon="11.1246900">
        <ele>339.5000000</ele>
        <time>2009-11-26T11:52:02Z</time>
      </trkpt>
      <trkpt lat="49.3582439" lon="11.1243534">
        <ele>339.0000000</ele>
        <time>2009-11-26T11:52:08Z</time>
      </trkpt>
      <trkpt lat="49.3582524" lon="11.1240074">
        <ele>338.5000000</ele>
        <time>2009-11-26T11:52:15Z</time>
      </trkpt>
      <trkpt lat="49.3582959" lon="11.1236720">
        <ele>338.5000000</ele>
        <time>2009-11-26T11:52:22Z</time>
      </trkpt>
      <trkpt lat="49.3584253" lon="11.1232013">
        <ele>339.0000000</ele>
        <time>2009-11-26T11:52:33Z</time>
      </trkpt>
      <trkpt lat="49.3584739" lon="11.1228781">
        <ele>340.0000000</ele>
        <time>2009-11-26T11:52:39Z</time>
      </trkpt>
      <trkpt lat="49.3584829" lon="11.1227045">
        <ele>342.4000000</ele>
        <time>2009-11-26T11:52:43Z</time>
      </trkpt>
      <trkpt lat="49.3585214" lon="11.1226295">
        <ele>342.8000000</ele>
        <time>2009-11-26T11:52:45Z</time>
      </trkpt>
      <trkpt lat="49.3587392" lon="11.1227457">
        <ele>344.3000000</ele>
        <time>2009-11-26T11:52:52Z</time>
      </trkpt>
      <trkpt lat="49.3588096" lon="11.1227462">
        <ele>343.3000000</ele>
        <time>2009-11-26T11:52:54Z</time>
      </trkpt>
      <trkpt lat="49.3589243" lon="11.1225484">
        <ele>340.0000000</ele>
        <time>2009-11-26T11:52:59Z</time>
      </trkpt>
      <trkpt lat="49.3589994" lon="11.1223698">
        <ele>340.0000000</ele>
        <time>2009-11-26T11:53:04Z</time>
      </trkpt>
      <trkpt lat="49.3591361" lon="11.1219067">
        <ele>339.5000000</ele>
        <time>2009-11-26T11:53:14Z</time>
      </trkpt>
      <trkpt lat="49.3592619" lon="11.1215094">
        <ele>340.0000000</ele>
        <time>2009-11-26T11:53:23Z</time>
      </trkpt>
      <trkpt lat="49.3593209" lon="11.1213911">
        <ele>340.4000000</ele>
        <time>2009-11-26T11:53:26Z</time>
      </trkpt>
      <trkpt lat="49.3594291" lon="11.1212036">
        <ele>340.0000000</ele>
        <time>2009-11-26T11:53:31Z</time>
      </trkpt>
      <trkpt lat="49.3595475" lon="11.1210096">
        <ele>340.4000000</ele>
        <time>2009-11-26T11:53:36Z</time>
      </trkpt>
      <trkpt lat="49.3600940" lon="11.1202978">
        <ele>340.4000000</ele>
        <time>2009-11-26T11:53:58Z</time>
      </trkpt>
      <trkpt lat="49.3602002" lon="11.1201982">
        <ele>340.0000000</ele>
        <time>2009-11-26T11:54:02Z</time>
      </trkpt>
      <trkpt lat="49.3603502" lon="11.1200325">
        <ele>340.0000000</ele>
        <time>2009-11-26T11:54:08Z</time>
      </trkpt>
      <trkpt lat="49.3605491" lon="11.1198336">
        <ele>340.0000000</ele>
        <time>2009-11-26T11:54:15Z</time>
      </trkpt>
      <trkpt lat="49.3608006" lon="11.1195850">
        <ele>338.5000000</ele>
        <time>2009-11-26T11:54:24Z</time>
      </trkpt>
      <trkpt lat="49.3609896" lon="11.1194137">
        <ele>340.0000000</ele>
        <time>2009-11-26T11:54:31Z</time>
      </trkpt>
      <trkpt lat="49.3613188" lon="11.1190739">
        <ele>339.0000000</ele>
        <time>2009-11-26T11:54:44Z</time>
      </trkpt>
      <trkpt lat="49.3617179" lon="11.1186654">
        <ele>338.5000000</ele>
        <time>2009-11-26T11:54:58Z</time>
      </trkpt>
      <trkpt lat="49.3621960" lon="11.1182066">
        <ele>338.0000000</ele>
        <time>2009-11-26T11:55:16Z</time>
      </trkpt>
      <trkpt lat="49.3626625" lon="11.1177389">
        <ele>337.1000000</ele>
        <time>2009-11-26T11:55:33Z</time>
      </trkpt>
      <trkpt lat="49.3629463" lon="11.1174070">
        <ele>337.1000000</ele>
        <time>2009-11-26T11:55:44Z</time>
      </trkpt>
      <trkpt lat="49.3629285" lon="11.1163909">
        <ele>337.6000000</ele>
        <time>2009-11-26T11:56:05Z</time>
      </trkpt>
      <trkpt lat="49.3630523" lon="11.1161639">
        <ele>337.1000000</ele>
        <time>2009-11-26T11:56:10Z</time>
      </trkpt>
      <trkpt lat="49.3634154" lon="11.1157513">
        <ele>337.1000000</ele>
        <time>2009-11-26T11:56:24Z</time>
      </trkpt>
      <trkpt lat="49.3636516" lon="11.1154654">
        <ele>337.6000000</ele>
        <time>2009-11-26T11:56:34Z</time>
      </trkpt>
      <trkpt lat="49.3640908" lon="11.1149640">
        <ele>338.0000000</ele>
        <time>2009-11-26T11:56:51Z</time>
      </trkpt>
      <trkpt lat="49.3642878" lon="11.1147345">
        <ele>337.1000000</ele>
        <time>2009-11-26T11:56:58Z</time>
      </trkpt>
      <trkpt lat="49.3644347" lon="11.1145774">
        <ele>338.5000000</ele>
        <time>2009-11-26T11:57:04Z</time>
      </trkpt>
      <trkpt lat="49.3648449" lon="11.1141251">
        <ele>338.0000000</ele>
        <time>2009-11-26T11:57:19Z</time>
      </trkpt>
      <trkpt lat="49.3649881" lon="11.1138476">
        <ele>338.5000000</ele>
        <time>2009-11-26T11:57:27Z</time>
      </trkpt>
      <trkpt lat="49.3651812" lon="11.1136634">
        <ele>339.0000000</ele>
        <time>2009-11-26T11:57:34Z</time>
      </trkpt>
      <trkpt lat="49.3652764" lon="11.1135620">
        <ele>338.5000000</ele>
        <time>2009-11-26T11:57:37Z</time>
      </trkpt>
      <trkpt lat="49.3654753" lon="11.1133612">
        <ele>339.0000000</ele>
        <time>2009-11-26T11:57:45Z</time>
      </trkpt>
      <trkpt lat="49.3658437" lon="11.1128591">
        <ele>338.5000000</ele>
        <time>2009-11-26T11:58:00Z</time>
      </trkpt>
      <trkpt lat="49.3661055" lon="11.1126098">
        <ele>338.0000000</ele>
        <time>2009-11-26T11:58:09Z</time>
      </trkpt>
      <trkpt lat="49.3661615" lon="11.1124381">
        <ele>337.6000000</ele>
        <time>2009-11-26T11:58:13Z</time>
      </trkpt>
      <trkpt lat="49.3663961" lon="11.1120008">
        <ele>336.1000000</ele>
        <time>2009-11-26T11:58:25Z</time>
      </trkpt>
      <trkpt lat="49.3665690" lon="11.1117024">
        <ele>336.6000000</ele>
        <time>2009-11-26T11:58:33Z</time>
      </trkpt>
      <trkpt lat="49.3667607" lon="11.1112610">
        <ele>335.6000000</ele>
        <time>2009-11-26T11:58:43Z</time>
      </trkpt>
      <trkpt lat="49.3670933" lon="11.1106975">
        <ele>334.7000000</ele>
        <time>2009-11-26T11:58:59Z</time>
      </trkpt>
      <trkpt lat="49.3676458" lon="11.1100613">
        <ele>334.7000000</ele>
        <time>2009-11-26T11:59:20Z</time>
      </trkpt>
      <trkpt lat="49.3682112" lon="11.1096699">
        <ele>334.7000000</ele>
        <time>2009-11-26T11:59:39Z</time>
      </trkpt>
      <trkpt lat="49.3686383" lon="11.1092037">
        <ele>335.2000000</ele>
        <time>2009-11-26T11:59:55Z</time>
      </trkpt>
      <trkpt lat="49.3690248" lon="11.1087287">
        <ele>335.6000000</ele>
        <time>2009-11-26T12:00:11Z</time>
      </trkpt>
      <trkpt lat="49.3692285" lon="11.1083717">
        <ele>335.6000000</ele>
        <time>2009-11-26T12:00:20Z</time>
      </trkpt>
      <trkpt lat="49.3694381" lon="11.1080679">
        <ele>333.7000000</ele>
        <time>2009-11-26T12:00:29Z</time>
      </trkpt>
      <trkpt lat="49.3697671" lon="11.1076200">
        <ele>333.7000000</ele>
        <time>2009-11-26T12:00:43Z</time>
      </trkpt>
      <trkpt lat="49.3698481" lon="11.1074542">
        <ele>333.2000000</ele>
        <time>2009-11-26T12:00:47Z</time>
      </trkpt>
      <trkpt lat="49.3700377" lon="11.1072186">
        <ele>333.2000000</ele>
        <time>2009-11-26T12:00:54Z</time>
      </trkpt>
      <trkpt lat="49.3701963" lon="11.1069765">
        <ele>333.2000000</ele>
        <time>2009-11-26T12:01:01Z</time>
      </trkpt>
      <trkpt lat="49.3703247" lon="11.1066644">
        <ele>332.8000000</ele>
        <time>2009-11-26T12:01:09Z</time>
      </trkpt>
      <trkpt lat="49.3705676" lon="11.1062958">
        <ele>333.2000000</ele>
        <time>2009-11-26T12:01:19Z</time>
      </trkpt>
      <trkpt lat="49.3706514" lon="11.1061545">
        <ele>333.2000000</ele>
        <time>2009-11-26T12:01:23Z</time>
      </trkpt>
      <trkpt lat="49.3707297" lon="11.1060184">
        <ele>333.2000000</ele>
        <time>2009-11-26T12:01:27Z</time>
      </trkpt>
      <trkpt lat="49.3708308" lon="11.1057711">
        <ele>333.7000000</ele>
        <time>2009-11-26T12:01:33Z</time>
      </trkpt>
      <trkpt lat="49.3708986" lon="11.1056179">
        <ele>333.7000000</ele>
        <time>2009-11-26T12:01:36Z</time>
      </trkpt>
      <trkpt lat="49.3711664" lon="11.1050264">
        <ele>333.7000000</ele>
        <time>2009-11-26T12:01:51Z</time>
      </trkpt>
      <trkpt lat="49.3712933" lon="11.1042631">
        <ele>333.2000000</ele>
        <time>2009-11-26T12:02:07Z</time>
      </trkpt>
      <trkpt lat="49.3713596" lon="11.1039243">
        <ele>333.2000000</ele>
        <time>2009-11-26T12:02:14Z</time>
      </trkpt>
      <trkpt lat="49.3715496" lon="11.1035602">
        <ele>330.8000000</ele>
        <time>2009-11-26T12:02:23Z</time>
      </trkpt>
      <trkpt lat="49.3715868" lon="11.1034883">
        <ele>330.8000000</ele>
        <time>2009-11-26T12:02:25Z</time>
      </trkpt>
      <trkpt lat="49.3716816" lon="11.1033003">
        <ele>329.9000000</ele>
        <time>2009-11-26T12:02:30Z</time>
      </trkpt>
      <trkpt lat="49.3717360" lon="11.1031734">
        <ele>329.4000000</ele>
        <time>2009-11-26T12:02:33Z</time>
      </trkpt>
      <trkpt lat="49.3717859" lon="11.1029399">
        <ele>328.9000000</ele>
        <time>2009-11-26T12:02:38Z</time>
      </trkpt>
      <trkpt lat="49.3718414" lon="11.1026705">
        <ele>329.4000000</ele>
        <time>2009-11-26T12:02:44Z</time>
      </trkpt>
      <trkpt lat="49.3721263" lon="11.1016961">
        <ele>329.4000000</ele>
        <time>2009-11-26T12:03:05Z</time>
      </trkpt>
      <trkpt lat="49.3722355" lon="11.1013526">
        <ele>329.4000000</ele>
        <time>2009-11-26T12:03:13Z</time>
      </trkpt>
      <trkpt lat="49.3722915" lon="11.1012069">
        <ele>329.4000000</ele>
        <time>2009-11-26T12:03:16Z</time>
      </trkpt>
      <trkpt lat="49.3725240" lon="11.1006431">
        <ele>329.4000000</ele>
        <time>2009-11-26T12:03:30Z</time>
      </trkpt>
      <trkpt lat="49.3726811" lon="11.1002549">
        <ele>329.4000000</ele>
        <time>2009-11-26T12:03:39Z</time>
      </trkpt>
      <trkpt lat="49.3729277" lon="11.0996692">
        <ele>328.4000000</ele>
        <time>2009-11-26T12:03:53Z</time>
      </trkpt>
      <trkpt lat="49.3732496" lon="11.0995513">
        <ele>328.4000000</ele>
        <time>2009-11-26T12:04:03Z</time>
      </trkpt>
      <trkpt lat="49.3732843" lon="11.0995137">
        <ele>327.9000000</ele>
        <time>2009-11-26T12:04:05Z</time>
      </trkpt>
      <trkpt lat="49.3733067" lon="11.0993819">
        <ele>327.9000000</ele>
        <time>2009-11-26T12:04:07Z</time>
      </trkpt>
      <trkpt lat="49.3737324" lon="11.0987858">
        <ele>327.5000000</ele>
        <time>2009-11-26T12:04:25Z</time>
      </trkpt>
      <trkpt lat="49.3743247" lon="11.0981369">
        <ele>327.0000000</ele>
        <time>2009-11-26T12:04:48Z</time>
      </trkpt>
      <trkpt lat="49.3750306" lon="11.0976381">
        <ele>327.5000000</ele>
        <time>2009-11-26T12:05:12Z</time>
      </trkpt>
      <trkpt lat="49.3753854" lon="11.0974737">
        <ele>327.5000000</ele>
        <time>2009-11-26T12:05:23Z</time>
      </trkpt>
      <trkpt lat="49.3756112" lon="11.0975437">
        <ele>326.5000000</ele>
        <time>2009-11-26T12:05:30Z</time>
      </trkpt>
      <trkpt lat="49.3756108" lon="11.0976718">
        <ele>326.0000000</ele>
        <time>2009-11-26T12:05:33Z</time>
      </trkpt>
      <trkpt lat="49.3754901" lon="11.0985832">
        <ele>328.4000000</ele>
        <time>2009-11-26T12:05:52Z</time>
      </trkpt>
      <trkpt lat="49.3754224" lon="11.0995119">
        <ele>329.9000000</ele>
        <time>2009-11-26T12:06:10Z</time>
      </trkpt>
      <trkpt lat="49.3755639" lon="11.0996598">
        <ele>330.4000000</ele>
        <time>2009-11-26T12:06:16Z</time>
      </trkpt>
      <trkpt lat="49.3759378" lon="11.0997945">
        <ele>331.8000000</ele>
        <time>2009-11-26T12:06:28Z</time>
      </trkpt>
      <trkpt lat="49.3761805" lon="11.0998538">
        <ele>334.2000000</ele>
        <time>2009-11-26T12:06:35Z</time>
      </trkpt>
      <trkpt lat="49.3764309" lon="11.0999533">
        <ele>334.7000000</ele>
        <time>2009-11-26T12:06:43Z</time>
      </trkpt>
      <trkpt lat="49.3769655" lon="11.1001693">
        <ele>333.7000000</ele>
        <time>2009-11-26T12:07:00Z</time>
      </trkpt>
      <trkpt lat="49.3773186" lon="11.1004449">
        <ele>331.3000000</ele>
        <time>2009-11-26T12:07:12Z</time>
      </trkpt>
      <trkpt lat="49.3775835" lon="11.1007280">
        <ele>329.4000000</ele>
        <time>2009-11-26T12:07:22Z</time>
      </trkpt>
      <trkpt lat="49.3777952" lon="11.1009356">
        <ele>330.4000000</ele>
        <time>2009-11-26T12:07:30Z</time>
      </trkpt>
      <trkpt lat="49.3780167" lon="11.1013511">
        <ele>328.9000000</ele>
        <time>2009-11-26T12:07:41Z</time>
      </trkpt>
      <trkpt lat="49.3782648" lon="11.1017192">
        <ele>328.4000000</ele>
        <time>2009-11-26T12:07:52Z</time>
      </trkpt>
      <trkpt lat="49.3785760" lon="11.1021265">
        <ele>327.9000000</ele>
        <time>2009-11-26T12:08:04Z</time>
      </trkpt>
      <trkpt lat="49.3792318" lon="11.1030994">
        <ele>327.5000000</ele>
        <time>2009-11-26T12:08:33Z</time>
      </trkpt>
      <trkpt lat="49.3795435" lon="11.1035120">
        <ele>327.0000000</ele>
        <time>2009-11-26T12:08:45Z</time>
      </trkpt>
      <trkpt lat="49.3804288" lon="11.1038961">
        <ele>326.5000000</ele>
        <time>2009-11-26T12:09:14Z</time>
      </trkpt>
      <trkpt lat="49.3813268" lon="11.1042591">
        <ele>327.0000000</ele>
        <time>2009-11-26T12:09:42Z</time>
      </trkpt>
      <trkpt lat="49.3816857" lon="11.1044506">
        <ele>327.0000000</ele>
        <time>2009-11-26T12:09:54Z</time>
      </trkpt>
      <trkpt lat="49.3826805" lon="11.1052885">
        <ele>329.4000000</ele>
        <time>2009-11-26T12:10:29Z</time>
      </trkpt>
      <trkpt lat="49.3832961" lon="11.1059643">
        <ele>329.4000000</ele>
        <time>2009-11-26T12:10:53Z</time>
      </trkpt>
      <trkpt lat="49.3835686" lon="11.1063645">
        <ele>330.8000000</ele>
        <time>2009-11-26T12:11:04Z</time>
      </trkpt>
      <trkpt lat="49.3837365" lon="11.1065919">
        <ele>331.3000000</ele>
        <time>2009-11-26T12:11:11Z</time>
      </trkpt>
      <trkpt lat="49.3838094" lon="11.1066871">
        <ele>331.8000000</ele>
        <time>2009-11-26T12:11:14Z</time>
      </trkpt>
      <trkpt lat="49.3839954" lon="11.1069855">
        <ele>332.3000000</ele>
        <time>2009-11-26T12:11:22Z</time>
      </trkpt>
      <trkpt lat="49.3840779" lon="11.1071080">
        <ele>332.8000000</ele>
        <time>2009-11-26T12:11:26Z</time>
      </trkpt>
      <trkpt lat="49.3842820" lon="11.1072886">
        <ele>333.2000000</ele>
        <time>2009-11-26T12:11:33Z</time>
      </trkpt>
      <trkpt lat="49.3844324" lon="11.1075615">
        <ele>333.2000000</ele>
        <time>2009-11-26T12:11:41Z</time>
      </trkpt>
      <trkpt lat="49.3849451" lon="11.1078169">
        <ele>335.2000000</ele>
        <time>2009-11-26T12:11:57Z</time>
      </trkpt>
      <trkpt lat="49.3850947" lon="11.1079073">
        <ele>335.2000000</ele>
        <time>2009-11-26T12:12:02Z</time>
      </trkpt>
      <trkpt lat="49.3851983" lon="11.1080263">
        <ele>335.2000000</ele>
        <time>2009-11-26T12:12:06Z</time>
      </trkpt>
      <trkpt lat="49.3857075" lon="11.1083301">
        <ele>336.1000000</ele>
        <time>2009-11-26T12:12:23Z</time>
      </trkpt>
      <trkpt lat="49.3858704" lon="11.1084162">
        <ele>336.1000000</ele>
        <time>2009-11-26T12:12:28Z</time>
      </trkpt>
      <trkpt lat="49.3859685" lon="11.1084958">
        <ele>335.2000000</ele>
        <time>2009-11-26T12:12:32Z</time>
      </trkpt>
      <trkpt lat="49.3863421" lon="11.1087530">
        <ele>335.6000000</ele>
        <time>2009-11-26T12:12:44Z</time>
      </trkpt>
      <trkpt lat="49.3866373" lon="11.1088996">
        <ele>336.1000000</ele>
        <time>2009-11-26T12:12:54Z</time>
      </trkpt>
      <trkpt lat="49.3867400" lon="11.1089732">
        <ele>336.6000000</ele>
        <time>2009-11-26T12:12:58Z</time>
      </trkpt>
      <trkpt lat="49.3870637" lon="11.1092317">
        <ele>336.1000000</ele>
        <time>2009-11-26T12:13:09Z</time>
      </trkpt>
      <trkpt lat="49.3875840" lon="11.1094823">
        <ele>336.1000000</ele>
        <time>2009-11-26T12:13:26Z</time>
      </trkpt>
      <trkpt lat="49.3878404" lon="11.1096082">
        <ele>336.1000000</ele>
        <time>2009-11-26T12:13:34Z</time>
      </trkpt>
      <trkpt lat="49.3881337" lon="11.1096956">
        <ele>337.1000000</ele>
        <time>2009-11-26T12:13:43Z</time>
      </trkpt>
      <trkpt lat="49.3885348" lon="11.1097880">
        <ele>337.6000000</ele>
        <time>2009-11-26T12:13:56Z</time>
      </trkpt>
      <trkpt lat="49.3886494" lon="11.1097951">
        <ele>337.6000000</ele>
        <time>2009-11-26T12:13:59Z</time>
      </trkpt>
      <trkpt lat="49.3891187" lon="11.1097982">
        <ele>338.0000000</ele>
        <time>2009-11-26T12:14:14Z</time>
      </trkpt>
      <trkpt lat="49.3892486" lon="11.1098271">
        <ele>338.0000000</ele>
        <time>2009-11-26T12:14:18Z</time>
      </trkpt>
      <trkpt lat="49.3893473" lon="11.1098231">
        <ele>338.5000000</ele>
        <time>2009-11-26T12:14:21Z</time>
      </trkpt>
      <trkpt lat="49.3896816" lon="11.1098471">
        <ele>338.5000000</ele>
        <time>2009-11-26T12:14:31Z</time>
      </trkpt>
      <trkpt lat="49.3899152" lon="11.1097520">
        <ele>339.0000000</ele>
        <time>2009-11-26T12:14:39Z</time>
      </trkpt>
      <trkpt lat="49.3901997" lon="11.1096795">
        <ele>339.5000000</ele>
        <time>2009-11-26T12:14:48Z</time>
      </trkpt>
      <trkpt lat="49.3904374" lon="11.1096035">
        <ele>339.0000000</ele>
        <time>2009-11-26T12:14:55Z</time>
      </trkpt>
      <trkpt lat="49.3907689" lon="11.1095123">
        <ele>338.5000000</ele>
        <time>2009-11-26T12:15:06Z</time>
      </trkpt>
      <trkpt lat="49.3910697" lon="11.1095798">
        <ele>336.1000000</ele>
        <time>2009-11-26T12:15:15Z</time>
      </trkpt>
      <trkpt lat="49.3914817" lon="11.1098059">
        <ele>335.6000000</ele>
        <time>2009-11-26T12:15:29Z</time>
      </trkpt>
      <trkpt lat="49.3918132" lon="11.1100451">
        <ele>334.2000000</ele>
        <time>2009-11-26T12:15:40Z</time>
      </trkpt>
      <trkpt lat="49.3921375" lon="11.1102805">
        <ele>332.8000000</ele>
        <time>2009-11-26T12:15:51Z</time>
      </trkpt>
      <trkpt lat="49.3926403" lon="11.1105238">
        <ele>333.2000000</ele>
        <time>2009-11-26T12:16:07Z</time>
      </trkpt>
      <trkpt lat="49.3927263" lon="11.1105406">
        <ele>333.2000000</ele>
        <time>2009-11-26T12:16:10Z</time>
      </trkpt>
      <trkpt lat="49.3933372" lon="11.1106925">
        <ele>332.8000000</ele>
        <time>2009-11-26T12:16:29Z</time>
      </trkpt>
      <trkpt lat="49.3936715" lon="11.1107659">
        <ele>332.8000000</ele>
        <time>2009-11-26T12:16:40Z</time>
      </trkpt>
      <trkpt lat="49.3943368" lon="11.1108559">
        <ele>332.3000000</ele>
        <time>2009-11-26T12:17:00Z</time>
      </trkpt>
      <trkpt lat="49.3944151" lon="11.1109011">
        <ele>332.3000000</ele>
        <time>2009-11-26T12:17:03Z</time>
      </trkpt>
      <trkpt lat="49.3947322" lon="11.1111040">
        <ele>332.3000000</ele>
        <time>2009-11-26T12:17:13Z</time>
      </trkpt>
      <trkpt lat="49.3951544" lon="11.1112008">
        <ele>332.8000000</ele>
        <time>2009-11-26T12:17:27Z</time>
      </trkpt>
      <trkpt lat="49.3960001" lon="11.1110182">
        <ele>332.8000000</ele>
        <time>2009-11-26T12:17:53Z</time>
      </trkpt>
      <trkpt lat="49.3964794" lon="11.1108793">
        <ele>333.2000000</ele>
        <time>2009-11-26T12:18:08Z</time>
      </trkpt>
      <trkpt lat="49.3977289" lon="11.1103256">
        <ele>333.2000000</ele>
        <time>2009-11-26T12:18:48Z</time>
      </trkpt>
      <trkpt lat="49.3985345" lon="11.1099666">
        <ele>332.3000000</ele>
        <time>2009-11-26T12:19:14Z</time>
      </trkpt>
      <trkpt lat="49.3988932" lon="11.1098245">
        <ele>331.8000000</ele>
        <time>2009-11-26T12:19:26Z</time>
      </trkpt>
      <trkpt lat="49.3993330" lon="11.1096522">
        <ele>330.8000000</ele>
        <time>2009-11-26T12:19:40Z</time>
      </trkpt>
      <trkpt lat="49.3999947" lon="11.1092217">
        <ele>330.8000000</ele>
        <time>2009-11-26T12:20:02Z</time>
      </trkpt>
      <trkpt lat="49.4001887" lon="11.1090895">
        <ele>330.8000000</ele>
        <time>2009-11-26T12:20:09Z</time>
      </trkpt>
      <trkpt lat="49.4006023" lon="11.1089252">
        <ele>330.4000000</ele>
        <time>2009-11-26T12:20:22Z</time>
      </trkpt>
      <trkpt lat="49.4007150" lon="11.1089073">
        <ele>331.3000000</ele>
        <time>2009-11-26T12:20:25Z</time>
      </trkpt>
      <trkpt lat="49.4011000" lon="11.1090254">
        <ele>331.3000000</ele>
        <time>2009-11-26T12:20:37Z</time>
      </trkpt>
      <trkpt lat="49.4012804" lon="11.1092244">
        <ele>330.8000000</ele>
        <time>2009-11-26T12:20:44Z</time>
      </trkpt>
      <trkpt lat="49.4014787" lon="11.1095232">
        <ele>331.3000000</ele>
        <time>2009-11-26T12:20:53Z</time>
      </trkpt>
      <trkpt lat="49.4021075" lon="11.1103905">
        <ele>331.8000000</ele>
        <time>2009-11-26T12:21:19Z</time>
      </trkpt>
      <trkpt lat="49.4021575" lon="11.1104402">
        <ele>332.3000000</ele>
        <time>2009-11-26T12:21:21Z</time>
      </trkpt>
      <trkpt lat="49.4023796" lon="11.1107452">
        <ele>332.8000000</ele>
        <time>2009-11-26T12:21:30Z</time>
      </trkpt>
      <trkpt lat="49.4024900" lon="11.1109778">
        <ele>332.8000000</ele>
        <time>2009-11-26T12:21:36Z</time>
      </trkpt>
      <trkpt lat="49.4028677" lon="11.1114897">
        <ele>332.3000000</ele>
        <time>2009-11-26T12:21:51Z</time>
      </trkpt>
      <trkpt lat="49.4035434" lon="11.1123650">
        <ele>332.3000000</ele>
        <time>2009-11-26T12:22:19Z</time>
      </trkpt>
      <trkpt lat="49.4038300" lon="11.1128266">
        <ele>332.3000000</ele>
        <time>2009-11-26T12:22:32Z</time>
      </trkpt>
      <trkpt lat="49.4042139" lon="11.1128543">
        <ele>332.3000000</ele>
        <time>2009-11-26T12:22:43Z</time>
      </trkpt>
      <trkpt lat="49.4050458" lon="11.1121484">
        <ele>331.3000000</ele>
        <time>2009-11-26T12:23:13Z</time>
      </trkpt>
      <trkpt lat="49.4055669" lon="11.1116450">
        <ele>330.8000000</ele>
        <time>2009-11-26T12:23:32Z</time>
      </trkpt>
      <trkpt lat="49.4056940" lon="11.1115356">
        <ele>330.4000000</ele>
        <time>2009-11-26T12:23:36Z</time>
      </trkpt>
      <trkpt lat="49.4056683" lon="11.1115261">
        <ele>330.8000000</ele>
        <time>2009-11-26T12:23:37Z</time>
      </trkpt>
      <trkpt lat="49.4056429" lon="11.1116412">
        <ele>330.4000000</ele>
        <time>2009-11-26T12:23:40Z</time>
      </trkpt>
      <trkpt lat="49.4053378" lon="11.1119107">
        <ele>330.8000000</ele>
        <time>2009-11-26T12:23:50Z</time>
      </trkpt>
      <trkpt lat="49.4048369" lon="11.1123717">
        <ele>331.3000000</ele>
        <time>2009-11-26T12:24:09Z</time>
      </trkpt>
      <trkpt lat="49.4042818" lon="11.1130410">
        <ele>330.4000000</ele>
        <time>2009-11-26T12:24:30Z</time>
      </trkpt>
      <trkpt lat="49.4042363" lon="11.1130595">
        <ele>329.9000000</ele>
        <time>2009-11-26T12:24:32Z</time>
      </trkpt>
      <trkpt lat="49.4040622" lon="11.1127914">
        <ele>330.8000000</ele>
        <time>2009-11-26T12:24:39Z</time>
      </trkpt>
      <trkpt lat="49.4040244" lon="11.1127431">
        <ele>330.8000000</ele>
        <time>2009-11-26T12:24:41Z</time>
      </trkpt>
      <trkpt lat="49.4039832" lon="11.1127467">
        <ele>331.3000000</ele>
        <time>2009-11-26T12:24:42Z</time>
      </trkpt>
      <trkpt lat="49.4038187" lon="11.1129845">
        <ele>331.3000000</ele>
        <time>2009-11-26T12:24:49Z</time>
      </trkpt>
      <trkpt lat="49.4037331" lon="11.1133253">
        <ele>331.3000000</ele>
        <time>2009-11-26T12:24:57Z</time>
      </trkpt>
      <trkpt lat="49.4036967" lon="11.1135176">
        <ele>330.8000000</ele>
        <time>2009-11-26T12:25:01Z</time>
      </trkpt>
      <trkpt lat="49.4036810" lon="11.1136723">
        <ele>330.4000000</ele>
        <time>2009-11-26T12:25:04Z</time>
      </trkpt>
      <trkpt lat="49.4035938" lon="11.1141641">
        <ele>330.8000000</ele>
        <time>2009-11-26T12:25:14Z</time>
      </trkpt>
      <trkpt lat="49.4035213" lon="11.1147397">
        <ele>331.3000000</ele>
        <time>2009-11-26T12:25:26Z</time>
      </trkpt>
      <trkpt lat="49.4035275" lon="11.1148173">
        <ele>331.8000000</ele>
        <time>2009-11-26T12:25:27Z</time>
      </trkpt>
      <trkpt lat="49.4034911" lon="11.1152556">
        <ele>331.8000000</ele>
        <time>2009-11-26T12:25:36Z</time>
      </trkpt>
      <trkpt lat="49.4035379" lon="11.1152980">
        <ele>331.3000000</ele>
        <time>2009-11-26T12:25:38Z</time>
      </trkpt>
      <trkpt lat="49.4035991" lon="11.1153029">
        <ele>330.8000000</ele>
        <time>2009-11-26T12:25:40Z</time>
      </trkpt>
      <trkpt lat="49.4037736" lon="11.1152622">
        <ele>331.3000000</ele>
        <time>2009-11-26T12:25:45Z</time>
      </trkpt>
      <trkpt lat="49.4039155" lon="11.1151824">
        <ele>331.8000000</ele>
        <time>2009-11-26T12:25:50Z</time>
      </trkpt>
      <trkpt lat="49.4047754" lon="11.1149445">
        <ele>331.8000000</ele>
        <time>2009-11-26T12:26:17Z</time>
      </trkpt>
      <trkpt lat="49.4055098" lon="11.1147024">
        <ele>329.9000000</ele>
        <time>2009-11-26T12:26:40Z</time>
      </trkpt>
      <trkpt lat="49.4059678" lon="11.1145991">
        <ele>330.8000000</ele>
        <time>2009-11-26T12:26:55Z</time>
      </trkpt>
      <trkpt lat="49.4071101" lon="11.1143790">
        <ele>330.8000000</ele>
        <time>2009-11-26T12:27:30Z</time>
      </trkpt>
      <trkpt lat="49.4081171" lon="11.1141286">
        <ele>331.3000000</ele>
        <time>2009-11-26T12:28:02Z</time>
      </trkpt>
      <trkpt lat="49.4094876" lon="11.1138622">
        <ele>328.9000000</ele>
        <time>2009-11-26T12:28:44Z</time>
      </trkpt>
      <trkpt lat="49.4107051" lon="11.1136075">
        <ele>327.0000000</ele>
        <time>2009-11-26T12:29:22Z</time>
      </trkpt>
      <trkpt lat="49.4118115" lon="11.1133635">
        <ele>325.5000000</ele>
        <time>2009-11-26T12:29:57Z</time>
      </trkpt>
      <trkpt lat="49.4121642" lon="11.1132891">
        <ele>324.6000000</ele>
        <time>2009-11-26T12:30:08Z</time>
      </trkpt>
      <trkpt lat="49.4125343" lon="11.1131928">
        <ele>323.6000000</ele>
        <time>2009-11-26T12:30:20Z</time>
      </trkpt>
      <trkpt lat="49.4125879" lon="11.1131825">
        <ele>324.1000000</ele>
        <time>2009-11-26T12:30:21Z</time>
      </trkpt>
      <trkpt lat="49.4134169" lon="11.1130063">
        <ele>324.6000000</ele>
        <time>2009-11-26T12:30:47Z</time>
      </trkpt>
      <trkpt lat="49.4146019" lon="11.1127191">
        <ele>325.5000000</ele>
        <time>2009-11-26T12:31:24Z</time>
      </trkpt>
      <trkpt lat="49.4151256" lon="11.1124630">
        <ele>325.5000000</ele>
        <time>2009-11-26T12:31:41Z</time>
      </trkpt>
      <trkpt lat="49.4158171" lon="11.1117869">
        <ele>325.5000000</ele>
        <time>2009-11-26T12:32:07Z</time>
      </trkpt>
      <trkpt lat="49.4163141" lon="11.1112694">
        <ele>322.2000000</ele>
        <time>2009-11-26T12:32:25Z</time>
      </trkpt>
      <trkpt lat="49.4166125" lon="11.1109359">
        <ele>323.1000000</ele>
        <time>2009-11-26T12:32:37Z</time>
      </trkpt>
      <trkpt lat="49.4170036" lon="11.1099438">
        <ele>323.6000000</ele>
        <time>2009-11-26T12:33:00Z</time>
      </trkpt>
      <trkpt lat="49.4176686" lon="11.1086750">
        <ele>323.6000000</ele>
        <time>2009-11-26T12:33:33Z</time>
      </trkpt>
      <trkpt lat="49.4180851" lon="11.1079842">
        <ele>322.2000000</ele>
        <time>2009-11-26T12:33:52Z</time>
      </trkpt>
      <trkpt lat="49.4181099" lon="11.1079520">
        <ele>322.2000000</ele>
        <time>2009-11-26T12:33:53Z</time>
      </trkpt>
      <trkpt lat="49.4183821" lon="11.1074833">
        <ele>322.7000000</ele>
        <time>2009-11-26T12:34:05Z</time>
      </trkpt>
      <trkpt lat="49.4193490" lon="11.1064310">
        <ele>322.7000000</ele>
        <time>2009-11-26T12:34:42Z</time>
      </trkpt>
      <trkpt lat="49.4204235" lon="11.1058263">
        <ele>320.7000000</ele>
        <time>2009-11-26T12:35:17Z</time>
      </trkpt>
      <trkpt lat="49.4219200" lon="11.1055609">
        <ele>319.8000000</ele>
        <time>2009-11-26T12:36:04Z</time>
      </trkpt>
      <trkpt lat="49.4231183" lon="11.1054138">
        <ele>320.3000000</ele>
        <time>2009-11-26T12:36:41Z</time>
      </trkpt>
      <trkpt lat="49.4243363" lon="11.1052393">
        <ele>319.8000000</ele>
        <time>2009-11-26T12:37:19Z</time>
      </trkpt>
      <trkpt lat="49.4246664" lon="11.1052527">
        <ele>318.8000000</ele>
        <time>2009-11-26T12:37:29Z</time>
      </trkpt>
      <trkpt lat="49.4253356" lon="11.1050114">
        <ele>318.8000000</ele>
        <time>2009-11-26T12:37:50Z</time>
      </trkpt>
      <trkpt lat="49.4262313" lon="11.1046382">
        <ele>317.9000000</ele>
        <time>2009-11-26T12:38:19Z</time>
      </trkpt>
      <trkpt lat="49.4271548" lon="11.1043042">
        <ele>318.3000000</ele>
        <time>2009-11-26T12:38:48Z</time>
      </trkpt>
      <trkpt lat="49.4281714" lon="11.1040032">
        <ele>318.3000000</ele>
        <time>2009-11-26T12:39:20Z</time>
      </trkpt>
      <trkpt lat="49.4292525" lon="11.1037410">
        <ele>319.3000000</ele>
        <time>2009-11-26T12:39:54Z</time>
      </trkpt>
      <trkpt lat="49.4296788" lon="11.1036495">
        <ele>318.8000000</ele>
        <time>2009-11-26T12:40:07Z</time>
      </trkpt>
      <trkpt lat="49.4299306" lon="11.1036514">
        <ele>319.3000000</ele>
        <time>2009-11-26T12:40:15Z</time>
      </trkpt>
      <trkpt lat="49.4309557" lon="11.1035239">
        <ele>319.3000000</ele>
        <time>2009-11-26T12:40:47Z</time>
      </trkpt>
      <trkpt lat="49.4313239" lon="11.1034262">
        <ele>318.8000000</ele>
        <time>2009-11-26T12:40:59Z</time>
      </trkpt>
      <trkpt lat="49.4313591" lon="11.1034128">
        <ele>318.8000000</ele>
        <time>2009-11-26T12:41:00Z</time>
      </trkpt>
      <trkpt lat="49.4316155" lon="11.1033659">
        <ele>319.3000000</ele>
        <time>2009-11-26T12:41:08Z</time>
      </trkpt>
      <trkpt lat="49.4320585" lon="11.1032694">
        <ele>319.3000000</ele>
        <time>2009-11-26T12:41:22Z</time>
      </trkpt>
      <trkpt lat="49.4322362" lon="11.1031688">
        <ele>319.3000000</ele>
        <time>2009-11-26T12:41:27Z</time>
      </trkpt>
      <trkpt lat="49.4329390" lon="11.1030510">
        <ele>318.8000000</ele>
        <time>2009-11-26T12:41:49Z</time>
      </trkpt>
      <trkpt lat="49.4335953" lon="11.1030422">
        <ele>319.3000000</ele>
        <time>2009-11-26T12:42:10Z</time>
      </trkpt>
      <trkpt lat="49.4338425" lon="11.1029569">
        <ele>319.3000000</ele>
        <time>2009-11-26T12:42:17Z</time>
      </trkpt>
      <trkpt lat="49.4341233" lon="11.1027632">
        <ele>318.8000000</ele>
        <time>2009-11-26T12:42:27Z</time>
      </trkpt>
      <trkpt lat="49.4346169" lon="11.1024224">
        <ele>318.8000000</ele>
        <time>2009-11-26T12:42:44Z</time>
      </trkpt>
      <trkpt lat="49.4348013" lon="11.1023156">
        <ele>318.3000000</ele>
        <time>2009-11-26T12:42:50Z</time>
      </trkpt>
      <trkpt lat="49.4352706" lon="11.1021984">
        <ele>317.4000000</ele>
        <time>2009-11-26T12:43:04Z</time>
      </trkpt>
      <trkpt lat="49.4358886" lon="11.1021610">
        <ele>316.4000000</ele>
        <time>2009-11-26T12:43:24Z</time>
      </trkpt>
      <trkpt lat="49.4362741" lon="11.1022795">
        <ele>315.4000000</ele>
        <time>2009-11-26T12:43:36Z</time>
      </trkpt>
      <trkpt lat="49.4364754" lon="11.1023069">
        <ele>315.4000000</ele>
        <time>2009-11-26T12:43:42Z</time>
      </trkpt>
      <trkpt lat="49.4374461" lon="11.1025796">
        <ele>314.5000000</ele>
        <time>2009-11-26T12:44:13Z</time>
      </trkpt>
      <trkpt lat="49.4376026" lon="11.1026635">
        <ele>314.5000000</ele>
        <time>2009-11-26T12:44:18Z</time>
      </trkpt>
      <trkpt lat="49.4383114" lon="11.1029419">
        <ele>313.5000000</ele>
        <time>2009-11-26T12:44:40Z</time>
      </trkpt>
      <trkpt lat="49.4388038" lon="11.1030414">
        <ele>313.5000000</ele>
        <time>2009-11-26T12:44:56Z</time>
      </trkpt>
      <trkpt lat="49.4392794" lon="11.1031300">
        <ele>313.5000000</ele>
        <time>2009-11-26T12:45:10Z</time>
      </trkpt>
      <trkpt lat="49.4395037" lon="11.1031454">
        <ele>313.5000000</ele>
        <time>2009-11-26T12:45:17Z</time>
      </trkpt>
      <trkpt lat="49.4400264" lon="11.1032356">
        <ele>313.0000000</ele>
        <time>2009-11-26T12:45:34Z</time>
      </trkpt>
      <trkpt lat="49.4407943" lon="11.1028533">
        <ele>313.0000000</ele>
        <time>2009-11-26T12:45:59Z</time>
      </trkpt>
      <trkpt lat="49.4408449" lon="11.1028158">
        <ele>313.0000000</ele>
        <time>2009-11-26T12:46:00Z</time>
      </trkpt>
      <trkpt lat="49.4410024" lon="11.1025922">
        <ele>312.6000000</ele>
        <time>2009-11-26T12:46:07Z</time>
      </trkpt>
      <trkpt lat="49.4413366" lon="11.1020422">
        <ele>312.6000000</ele>
        <time>2009-11-26T12:46:22Z</time>
      </trkpt>
      <trkpt lat="49.4421462" lon="11.1010816">
        <ele>312.6000000</ele>
        <time>2009-11-26T12:46:54Z</time>
      </trkpt>
      <trkpt lat="49.4422306" lon="11.1009573">
        <ele>312.1000000</ele>
        <time>2009-11-26T12:46:57Z</time>
      </trkpt>
      <trkpt lat="49.4424699" lon="11.1007044">
        <ele>312.1000000</ele>
        <time>2009-11-26T12:47:06Z</time>
      </trkpt>
      <trkpt lat="49.4425617" lon="11.1006139">
        <ele>312.1000000</ele>
        <time>2009-11-26T12:47:10Z</time>
      </trkpt>
      <trkpt lat="49.4428595" lon="11.1003069">
        <ele>312.1000000</ele>
        <time>2009-11-26T12:47:21Z</time>
      </trkpt>
      <trkpt lat="49.4429419" lon="11.1001974">
        <ele>311.6000000</ele>
        <time>2009-11-26T12:47:24Z</time>
      </trkpt>
      <trkpt lat="49.4432290" lon="11.0999919">
        <ele>311.1000000</ele>
        <time>2009-11-26T12:47:34Z</time>
      </trkpt>
      <trkpt lat="49.4433927" lon="11.0994794">
        <ele>311.6000000</ele>
        <time>2009-11-26T12:47:45Z</time>
      </trkpt>
      <trkpt lat="49.4435882" lon="11.0991525">
        <ele>310.2000000</ele>
        <time>2009-11-26T12:47:54Z</time>
      </trkpt>
      <trkpt lat="49.4438032" lon="11.0988611">
        <ele>311.1000000</ele>
        <time>2009-11-26T12:48:03Z</time>
      </trkpt>
      <trkpt lat="49.4440934" lon="11.0985769">
        <ele>310.2000000</ele>
        <time>2009-11-26T12:48:14Z</time>
      </trkpt>
      <trkpt lat="49.4443736" lon="11.0981746">
        <ele>309.7000000</ele>
        <time>2009-11-26T12:48:26Z</time>
      </trkpt>
      <trkpt lat="49.4445119" lon="11.0979603">
        <ele>309.7000000</ele>
        <time>2009-11-26T12:48:32Z</time>
      </trkpt>
      <trkpt lat="49.4446372" lon="11.0977525">
        <ele>310.2000000</ele>
        <time>2009-11-26T12:48:37Z</time>
      </trkpt>
      <trkpt lat="49.4449006" lon="11.0974783">
        <ele>309.7000000</ele>
        <time>2009-11-26T12:48:47Z</time>
      </trkpt>
      <trkpt lat="49.4455369" lon="11.0974016">
        <ele>310.2000000</ele>
        <time>2009-11-26T12:49:07Z</time>
      </trkpt>
      <trkpt lat="49.4458474" lon="11.0975109">
        <ele>308.7000000</ele>
        <time>2009-11-26T12:49:17Z</time>
      </trkpt>
      <trkpt lat="49.4459386" lon="11.0976067">
        <ele>308.7000000</ele>
        <time>2009-11-26T12:49:20Z</time>
      </trkpt>
      <trkpt lat="49.4462239" lon="11.0976368">
        <ele>308.7000000</ele>
        <time>2009-11-26T12:49:29Z</time>
      </trkpt>
      <trkpt lat="49.4468703" lon="11.0977235">
        <ele>308.7000000</ele>
        <time>2009-11-26T12:49:49Z</time>
      </trkpt>
      <trkpt lat="49.4470040" lon="11.0977530">
        <ele>307.8000000</ele>
        <time>2009-11-26T12:49:53Z</time>
      </trkpt>
      <trkpt lat="49.4471642" lon="11.0977186">
        <ele>308.2000000</ele>
        <time>2009-11-26T12:49:58Z</time>
      </trkpt>
      <trkpt lat="49.4480218" lon="11.0977869">
        <ele>306.3000000</ele>
        <time>2009-11-26T12:50:25Z</time>
      </trkpt>
      <trkpt lat="49.4486136" lon="11.0977096">
        <ele>304.4000000</ele>
        <time>2009-11-26T12:50:43Z</time>
      </trkpt>
      <trkpt lat="49.4491388" lon="11.0977508">
        <ele>303.4000000</ele>
        <time>2009-11-26T12:51:00Z</time>
      </trkpt>
      <trkpt lat="49.4500640" lon="11.0977869">
        <ele>299.6000000</ele>
        <time>2009-11-26T12:51:28Z</time>
      </trkpt>
      <trkpt lat="49.4502430" lon="11.0978009">
        <ele>300.1000000</ele>
        <time>2009-11-26T12:51:34Z</time>
      </trkpt>
      <trkpt lat="49.4504305" lon="11.0977378">
        <ele>300.5000000</ele>
        <time>2009-11-26T12:51:40Z</time>
      </trkpt>
      <trkpt lat="49.4504666" lon="11.0977248">
        <ele>302.0000000</ele>
        <time>2009-11-26T12:51:41Z</time>
      </trkpt>
      <trkpt lat="49.4505378" lon="11.0976829">
        <ele>302.5000000</ele>
        <time>2009-11-26T12:51:43Z</time>
      </trkpt>
      <trkpt lat="49.4506867" lon="11.0975647">
        <ele>302.5000000</ele>
        <time>2009-11-26T12:51:48Z</time>
      </trkpt>
      <trkpt lat="49.4513518" lon="11.0975851">
        <ele>303.4000000</ele>
        <time>2009-11-26T12:52:09Z</time>
      </trkpt>
      <trkpt lat="49.4515528" lon="11.0976991">
        <ele>302.5000000</ele>
        <time>2009-11-26T12:52:16Z</time>
      </trkpt>
      <trkpt lat="49.4520129" lon="11.0981046">
        <ele>303.0000000</ele>
        <time>2009-11-26T12:52:32Z</time>
      </trkpt>
      <trkpt lat="49.4525383" lon="11.0982249">
        <ele>303.0000000</ele>
        <time>2009-11-26T12:52:48Z</time>
      </trkpt>
      <trkpt lat="49.4532591" lon="11.0986039">
        <ele>302.5000000</ele>
        <time>2009-11-26T12:53:12Z</time>
      </trkpt>
      <trkpt lat="49.4536476" lon="11.0989191">
        <ele>303.0000000</ele>
        <time>2009-11-26T12:53:26Z</time>
      </trkpt>
      <trkpt lat="49.4538589" lon="11.0991633">
        <ele>302.5000000</ele>
        <time>2009-11-26T12:53:34Z</time>
      </trkpt>
      <trkpt lat="49.4539566" lon="11.0993055">
        <ele>302.5000000</ele>
        <time>2009-11-26T12:53:38Z</time>
      </trkpt>
      <trkpt lat="49.4546613" lon="11.1002607">
        <ele>303.0000000</ele>
        <time>2009-11-26T12:54:07Z</time>
      </trkpt>
      <trkpt lat="49.4546093" lon="11.1008090">
        <ele>303.4000000</ele>
        <time>2009-11-26T12:54:18Z</time>
      </trkpt>
      <trkpt lat="49.4546633" lon="11.1009883">
        <ele>303.0000000</ele>
        <time>2009-11-26T12:54:22Z</time>
      </trkpt>
      <trkpt lat="49.4551346" lon="11.1022125">
        <ele>303.9000000</ele>
        <time>2009-11-26T12:54:51Z</time>
      </trkpt>
      <trkpt lat="49.4557149" lon="11.1034050">
        <ele>303.0000000</ele>
        <time>2009-11-26T12:55:21Z</time>
      </trkpt>
      <trkpt lat="49.4563859" lon="11.1047239">
        <ele>301.5000000</ele>
        <time>2009-11-26T12:55:54Z</time>
      </trkpt>
      <trkpt lat="49.4568697" lon="11.1056505">
        <ele>301.5000000</ele>
        <time>2009-11-26T12:56:18Z</time>
      </trkpt>
      <trkpt lat="49.4574872" lon="11.1071412">
        <ele>302.0000000</ele>
        <time>2009-11-26T12:56:54Z</time>
      </trkpt>
      <trkpt lat="49.4576010" lon="11.1075552">
        <ele>302.5000000</ele>
        <time>2009-11-26T12:57:03Z</time>
      </trkpt>
      <trkpt lat="49.4577483" lon="11.1081224">
        <ele>302.0000000</ele>
        <time>2009-11-26T12:57:15Z</time>
      </trkpt>
      <trkpt lat="49.4577778" lon="11.1083090">
        <ele>302.0000000</ele>
        <time>2009-11-26T12:57:19Z</time>
      </trkpt>
      <trkpt lat="49.4578293" lon="11.1084893">
        <ele>302.5000000</ele>
        <time>2009-11-26T12:57:23Z</time>
      </trkpt>
      <trkpt lat="49.4579187" lon="11.1094709">
        <ele>302.5000000</ele>
        <time>2009-11-26T12:57:43Z</time>
      </trkpt>
      <trkpt lat="49.4579227" lon="11.1098699">
        <ele>302.0000000</ele>
        <time>2009-11-26T12:57:51Z</time>
      </trkpt>
      <trkpt lat="49.4578968" lon="11.1104915">
        <ele>302.0000000</ele>
        <time>2009-11-26T12:58:03Z</time>
      </trkpt>
      <trkpt lat="49.4577321" lon="11.1115340">
        <ele>302.5000000</ele>
        <time>2009-11-26T12:58:25Z</time>
      </trkpt>
      <trkpt lat="49.4575999" lon="11.1118342">
        <ele>302.5000000</ele>
        <time>2009-11-26T12:58:32Z</time>
      </trkpt>
      <trkpt lat="49.4574223" lon="11.1124235">
        <ele>302.5000000</ele>
        <time>2009-11-26T12:58:45Z</time>
      </trkpt>
      <trkpt lat="49.4575418" lon="11.1128266">
        <ele>302.5000000</ele>
        <time>2009-11-26T12:58:54Z</time>
      </trkpt>
      <trkpt lat="49.4580064" lon="11.1134399">
        <ele>302.5000000</ele>
        <time>2009-11-26T12:59:13Z</time>
      </trkpt>
      <trkpt lat="49.4582517" lon="11.1136793">
        <ele>303.0000000</ele>
        <time>2009-11-26T12:59:22Z</time>
      </trkpt>
      <trkpt lat="49.4584122" lon="11.1138536">
        <ele>303.4000000</ele>
        <time>2009-11-26T12:59:28Z</time>
      </trkpt>
      <trkpt lat="49.4586733" lon="11.1141584">
        <ele>303.4000000</ele>
        <time>2009-11-26T12:59:38Z</time>
      </trkpt>
      <trkpt lat="49.4588940" lon="11.1145997">
        <ele>303.4000000</ele>
        <time>2009-11-26T12:59:49Z</time>
      </trkpt>
      <trkpt lat="49.4590245" lon="11.1148855">
        <ele>302.5000000</ele>
        <time>2009-11-26T12:59:56Z</time>
      </trkpt>
      <trkpt lat="49.4592215" lon="11.1153110">
        <ele>302.5000000</ele>
        <time>2009-11-26T13:00:07Z</time>
      </trkpt>
      <trkpt lat="49.4598015" lon="11.1159396">
        <ele>303.9000000</ele>
        <time>2009-11-26T13:00:29Z</time>
      </trkpt>
      <trkpt lat="49.4600710" lon="11.1164281">
        <ele>303.9000000</ele>
        <time>2009-11-26T13:00:42Z</time>
      </trkpt>
      <trkpt lat="49.4602936" lon="11.1168153">
        <ele>303.0000000</ele>
        <time>2009-11-26T13:00:52Z</time>
      </trkpt>
      <trkpt lat="49.4605262" lon="11.1175193">
        <ele>303.9000000</ele>
        <time>2009-11-26T13:01:08Z</time>
      </trkpt>
      <trkpt lat="49.4607869" lon="11.1187645">
        <ele>305.4000000</ele>
        <time>2009-11-26T13:01:34Z</time>
      </trkpt>
      <trkpt lat="49.4609167" lon="11.1198190">
        <ele>304.9000000</ele>
        <time>2009-11-26T13:01:56Z</time>
      </trkpt>
      <trkpt lat="49.4611181" lon="11.1209390">
        <ele>303.9000000</ele>
        <time>2009-11-26T13:02:19Z</time>
      </trkpt>
      <trkpt lat="49.4611428" lon="11.1210446">
        <ele>303.9000000</ele>
        <time>2009-11-26T13:02:21Z</time>
      </trkpt>
      <trkpt lat="49.4616327" lon="11.1220835">
        <ele>303.9000000</ele>
        <time>2009-11-26T13:02:47Z</time>
      </trkpt>
      <trkpt lat="49.4619143" lon="11.1228469">
        <ele>304.4000000</ele>
        <time>2009-11-26T13:03:05Z</time>
      </trkpt>
      <trkpt lat="49.4622347" lon="11.1243612">
        <ele>304.9000000</ele>
        <time>2009-11-26T13:03:37Z</time>
      </trkpt>
      <trkpt lat="49.4624240" lon="11.1257701">
        <ele>303.9000000</ele>
        <time>2009-11-26T13:04:06Z</time>
      </trkpt>
      <trkpt lat="49.4626136" lon="11.1263988">
        <ele>303.4000000</ele>
        <time>2009-11-26T13:04:20Z</time>
      </trkpt>
      <trkpt lat="49.4628514" lon="11.1276166">
        <ele>304.4000000</ele>
        <time>2009-11-26T13:04:45Z</time>
      </trkpt>
      <trkpt lat="49.4629633" lon="11.1279859">
        <ele>305.4000000</ele>
        <time>2009-11-26T13:04:54Z</time>
      </trkpt>
      <trkpt lat="49.4630158" lon="11.1281310">
        <ele>305.4000000</ele>
        <time>2009-11-26T13:04:57Z</time>
      </trkpt>
      <trkpt lat="49.4636493" lon="11.1291843">
        <ele>304.4000000</ele>
        <time>2009-11-26T13:05:26Z</time>
      </trkpt>
      <trkpt lat="49.4636927" lon="11.1292727">
        <ele>304.4000000</ele>
        <time>2009-11-26T13:05:28Z</time>
      </trkpt>
      <trkpt lat="49.4641326" lon="11.1298891">
        <ele>303.9000000</ele>
        <time>2009-11-26T13:05:46Z</time>
      </trkpt>
      <trkpt lat="49.4646225" lon="11.1301207">
        <ele>303.9000000</ele>
        <time>2009-11-26T13:06:02Z</time>
      </trkpt>
      <trkpt lat="49.4649107" lon="11.1304722">
        <ele>303.9000000</ele>
        <time>2009-11-26T13:06:14Z</time>
      </trkpt>
      <trkpt lat="49.4652339" lon="11.1306882">
        <ele>303.9000000</ele>
        <time>2009-11-26T13:06:24Z</time>
      </trkpt>
      <trkpt lat="49.4656090" lon="11.1308357">
        <ele>303.9000000</ele>
        <time>2009-11-26T13:06:36Z</time>
      </trkpt>
      <trkpt lat="49.4661851" lon="11.1308471">
        <ele>303.4000000</ele>
        <time>2009-11-26T13:06:54Z</time>
      </trkpt>
      <trkpt lat="49.4662459" lon="11.1307860">
        <ele>303.4000000</ele>
        <time>2009-11-26T13:06:56Z</time>
      </trkpt>
      <trkpt lat="49.4664223" lon="11.1305979">
        <ele>303.4000000</ele>
        <time>2009-11-26T13:07:03Z</time>
      </trkpt>
      <trkpt lat="49.4667385" lon="11.1301171">
        <ele>303.9000000</ele>
        <time>2009-11-26T13:07:17Z</time>
      </trkpt>
      <trkpt lat="49.4668615" lon="11.1299784">
        <ele>303.4000000</ele>
        <time>2009-11-26T13:07:22Z</time>
      </trkpt>
      <trkpt lat="49.4672301" lon="11.1299281">
        <ele>303.9000000</ele>
        <time>2009-11-26T13:07:33Z</time>
      </trkpt>
      <trkpt lat="49.4675235" lon="11.1299740">
        <ele>305.4000000</ele>
        <time>2009-11-26T13:07:42Z</time>
      </trkpt>
      <trkpt lat="49.4675725" lon="11.1299717">
        <ele>305.4000000</ele>
        <time>2009-11-26T13:07:44Z</time>
      </trkpt>
      <trkpt lat="49.4680409" lon="11.1305231">
        <ele>305.4000000</ele>
        <time>2009-11-26T13:08:02Z</time>
      </trkpt>
      <trkpt lat="49.4689676" lon="11.1317478">
        <ele>304.9000000</ele>
        <time>2009-11-26T13:08:40Z</time>
      </trkpt>
      <trkpt lat="49.4692049" lon="11.1320052">
        <ele>305.8000000</ele>
        <time>2009-11-26T13:08:49Z</time>
      </trkpt>
      <trkpt lat="49.4702114" lon="11.1333812">
        <ele>306.3000000</ele>
        <time>2009-11-26T13:09:30Z</time>
      </trkpt>
      <trkpt lat="49.4703050" lon="11.1335085">
        <ele>306.8000000</ele>
        <time>2009-11-26T13:09:34Z</time>
      </trkpt>
      <trkpt lat="49.4705210" lon="11.1338240">
        <ele>307.3000000</ele>
        <time>2009-11-26T13:09:43Z</time>
      </trkpt>
      <trkpt lat="49.4708847" lon="11.1343697">
        <ele>307.8000000</ele>
        <time>2009-11-26T13:09:59Z</time>
      </trkpt>
      <trkpt lat="49.4710668" lon="11.1346970">
        <ele>308.7000000</ele>
        <time>2009-11-26T13:10:08Z</time>
      </trkpt>
      <trkpt lat="49.4714526" lon="11.1355517">
        <ele>308.7000000</ele>
        <time>2009-11-26T13:10:29Z</time>
      </trkpt>
      <trkpt lat="49.4715956" lon="11.1360436">
        <ele>308.7000000</ele>
        <time>2009-11-26T13:10:39Z</time>
      </trkpt>
      <trkpt lat="49.4719592" lon="11.1372931">
        <ele>308.7000000</ele>
        <time>2009-11-26T13:11:07Z</time>
      </trkpt>
      <trkpt lat="49.4721914" lon="11.1385463">
        <ele>307.8000000</ele>
        <time>2009-11-26T13:11:33Z</time>
      </trkpt>
      <trkpt lat="49.4723838" lon="11.1389633">
        <ele>307.3000000</ele>
        <time>2009-11-26T13:11:43Z</time>
      </trkpt>
      <trkpt lat="49.4722562" lon="11.1396035">
        <ele>308.7000000</ele>
        <time>2009-11-26T13:11:57Z</time>
      </trkpt>
      <trkpt lat="49.4721825" lon="11.1405483">
        <ele>311.1000000</ele>
        <time>2009-11-26T13:12:16Z</time>
      </trkpt>
      <trkpt lat="49.4721856" lon="11.1406991">
        <ele>311.1000000</ele>
        <time>2009-11-26T13:12:19Z</time>
      </trkpt>
      <trkpt lat="49.4722400" lon="11.1413648">
        <ele>314.5000000</ele>
        <time>2009-11-26T13:12:33Z</time>
      </trkpt>
      <trkpt lat="49.4722477" lon="11.1414393">
        <ele>315.0000000</ele>
        <time>2009-11-26T13:12:34Z</time>
      </trkpt>
      <trkpt lat="49.4723209" lon="11.1422133">
        <ele>316.4000000</ele>
        <time>2009-11-26T13:12:50Z</time>
      </trkpt>
      <trkpt lat="49.4724198" lon="11.1432902">
        <ele>318.3000000</ele>
        <time>2009-11-26T13:13:12Z</time>
      </trkpt>
      <trkpt lat="49.4724815" lon="11.1439217">
        <ele>318.8000000</ele>
        <time>2009-11-26T13:13:24Z</time>
      </trkpt>
      <trkpt lat="49.4726719" lon="11.1455037">
        <ele>318.8000000</ele>
        <time>2009-11-26T13:13:57Z</time>
      </trkpt>
      <trkpt lat="49.4726731" lon="11.1458361">
        <ele>318.3000000</ele>
        <time>2009-11-26T13:14:03Z</time>
      </trkpt>
      <trkpt lat="49.4726280" lon="11.1473095">
        <ele>319.3000000</ele>
        <time>2009-11-26T13:14:33Z</time>
      </trkpt>
      <trkpt lat="49.4727534" lon="11.1477223">
        <ele>318.8000000</ele>
        <time>2009-11-26T13:14:42Z</time>
      </trkpt>
      <trkpt lat="49.4730144" lon="11.1481629">
        <ele>319.3000000</ele>
        <time>2009-11-26T13:14:54Z</time>
      </trkpt>
      <trkpt lat="49.4732526" lon="11.1497659">
        <ele>320.7000000</ele>
        <time>2009-11-26T13:15:27Z</time>
      </trkpt>
      <trkpt lat="49.4734914" lon="11.1515602">
        <ele>320.3000000</ele>
        <time>2009-11-26T13:16:04Z</time>
      </trkpt>
      <trkpt lat="49.4736418" lon="11.1525285">
        <ele>320.3000000</ele>
        <time>2009-11-26T13:16:24Z</time>
      </trkpt>
      <trkpt lat="49.4738451" lon="11.1540035">
        <ele>320.3000000</ele>
        <time>2009-11-26T13:16:54Z</time>
      </trkpt>
      <trkpt lat="49.4740678" lon="11.1557271">
        <ele>320.3000000</ele>
        <time>2009-11-26T13:17:30Z</time>
      </trkpt>
      <trkpt lat="49.4740784" lon="11.1558504">
        <ele>320.3000000</ele>
        <time>2009-11-26T13:17:32Z</time>
      </trkpt>
      <trkpt lat="49.4742601" lon="11.1572718">
        <ele>320.3000000</ele>
        <time>2009-11-26T13:18:01Z</time>
      </trkpt>
      <trkpt lat="49.4743935" lon="11.1580758">
        <ele>319.8000000</ele>
        <time>2009-11-26T13:18:18Z</time>
      </trkpt>
      <trkpt lat="49.4744897" lon="11.1588609">
        <ele>320.3000000</ele>
        <time>2009-11-26T13:18:34Z</time>
      </trkpt>
      <trkpt lat="49.4745432" lon="11.1596465">
        <ele>321.2000000</ele>
        <time>2009-11-26T13:18:50Z</time>
      </trkpt>
      <trkpt lat="49.4748529" lon="11.1615080">
        <ele>320.7000000</ele>
        <time>2009-11-26T13:19:29Z</time>
      </trkpt>
      <trkpt lat="49.4748627" lon="11.1616245">
        <ele>320.7000000</ele>
        <time>2009-11-26T13:19:31Z</time>
      </trkpt>
      <trkpt lat="49.4749224" lon="11.1622017">
        <ele>321.2000000</ele>
        <time>2009-11-26T13:19:43Z</time>
      </trkpt>
      <trkpt lat="49.4750953" lon="11.1638182">
        <ele>320.7000000</ele>
        <time>2009-11-26T13:20:16Z</time>
      </trkpt>
      <trkpt lat="49.4753760" lon="11.1652461">
        <ele>320.3000000</ele>
        <time>2009-11-26T13:20:46Z</time>
      </trkpt>
      <trkpt lat="49.4756362" lon="11.1669395">
        <ele>319.8000000</ele>
        <time>2009-11-26T13:21:20Z</time>
      </trkpt>
      <trkpt lat="49.4758234" lon="11.1684520">
        <ele>320.7000000</ele>
        <time>2009-11-26T13:21:51Z</time>
      </trkpt>
      <trkpt lat="49.4758289" lon="11.1685778">
        <ele>320.7000000</ele>
        <time>2009-11-26T13:21:54Z</time>
      </trkpt>
      <trkpt lat="49.4758790" lon="11.1691556">
        <ele>320.7000000</ele>
        <time>2009-11-26T13:22:06Z</time>
      </trkpt>
      <trkpt lat="49.4761642" lon="11.1709447">
        <ele>320.3000000</ele>
        <time>2009-11-26T13:22:43Z</time>
      </trkpt>
      <trkpt lat="49.4763862" lon="11.1725456">
        <ele>320.3000000</ele>
        <time>2009-11-26T13:23:16Z</time>
      </trkpt>
      <trkpt lat="49.4763093" lon="11.1731814">
        <ele>320.3000000</ele>
        <time>2009-11-26T13:23:29Z</time>
      </trkpt>
      <trkpt lat="49.4761390" lon="11.1734954">
        <ele>318.8000000</ele>
        <time>2009-11-26T13:23:37Z</time>
      </trkpt>
      <trkpt lat="49.4759701" lon="11.1741894">
        <ele>317.9000000</ele>
        <time>2009-11-26T13:23:52Z</time>
      </trkpt>
      <trkpt lat="49.4760795" lon="11.1746270">
        <ele>316.4000000</ele>
        <time>2009-11-26T13:24:01Z</time>
      </trkpt>
      <trkpt lat="49.4763473" lon="11.1749239">
        <ele>316.9000000</ele>
        <time>2009-11-26T13:24:11Z</time>
      </trkpt>
      <trkpt lat="49.4765549" lon="11.1752137">
        <ele>317.9000000</ele>
        <time>2009-11-26T13:24:20Z</time>
      </trkpt>
      <trkpt lat="49.4766466" lon="11.1753404">
        <ele>318.3000000</ele>
        <time>2009-11-26T13:24:24Z</time>
      </trkpt>
      <trkpt lat="49.4767217" lon="11.1754590">
        <ele>318.8000000</ele>
        <time>2009-11-26T13:24:27Z</time>
      </trkpt>
      <trkpt lat="49.4768042" lon="11.1756441">
        <ele>319.3000000</ele>
        <time>2009-11-26T13:24:32Z</time>
      </trkpt>
      <trkpt lat="49.4770248" lon="11.1764150">
        <ele>321.2000000</ele>
        <time>2009-11-26T13:24:49Z</time>
      </trkpt>
      <trkpt lat="49.4772086" lon="11.1779504">
        <ele>321.7000000</ele>
        <time>2009-11-26T13:25:20Z</time>
      </trkpt>
      <trkpt lat="49.4771642" lon="11.1789086">
        <ele>320.3000000</ele>
        <time>2009-11-26T13:25:39Z</time>
      </trkpt>
      <trkpt lat="49.4771656" lon="11.1795733">
        <ele>317.9000000</ele>
        <time>2009-11-26T13:25:53Z</time>
      </trkpt>
      <trkpt lat="49.4772103" lon="11.1798974">
        <ele>317.9000000</ele>
        <time>2009-11-26T13:25:59Z</time>
      </trkpt>
      <trkpt lat="49.4771735" lon="11.1802404">
        <ele>316.4000000</ele>
        <time>2009-11-26T13:26:06Z</time>
      </trkpt>
      <trkpt lat="49.4771019" lon="11.1804916">
        <ele>315.9000000</ele>
        <time>2009-11-26T13:26:12Z</time>
      </trkpt>
      <trkpt lat="49.4769886" lon="11.1807490">
        <ele>315.9000000</ele>
        <time>2009-11-26T13:26:18Z</time>
      </trkpt>
      <trkpt lat="49.4767779" lon="11.1811944">
        <ele>316.4000000</ele>
        <time>2009-11-26T13:26:29Z</time>
      </trkpt>
      <trkpt lat="49.4768809" lon="11.1814156">
        <ele>317.4000000</ele>
        <time>2009-11-26T13:26:35Z</time>
      </trkpt>
      <trkpt lat="49.4770174" lon="11.1815612">
        <ele>319.3000000</ele>
        <time>2009-11-26T13:26:40Z</time>
      </trkpt>
      <trkpt lat="49.4772610" lon="11.1816101">
        <ele>320.3000000</ele>
        <time>2009-11-26T13:26:47Z</time>
      </trkpt>
      <trkpt lat="49.4773389" lon="11.1816284">
        <ele>320.7000000</ele>
        <time>2009-11-26T13:26:50Z</time>
      </trkpt>
      <trkpt lat="49.4775998" lon="11.1818186">
        <ele>321.7000000</ele>
        <time>2009-11-26T13:26:59Z</time>
      </trkpt>
      <trkpt lat="49.4777107" lon="11.1820166">
        <ele>322.2000000</ele>
        <time>2009-11-26T13:27:04Z</time>
      </trkpt>
      <trkpt lat="49.4779506" lon="11.1831866">
        <ele>321.7000000</ele>
        <time>2009-11-26T13:27:29Z</time>
      </trkpt>
      <trkpt lat="49.4779946" lon="11.1835846">
        <ele>322.2000000</ele>
        <time>2009-11-26T13:27:37Z</time>
      </trkpt>
      <trkpt lat="49.4780244" lon="11.1838924">
        <ele>322.7000000</ele>
        <time>2009-11-26T13:27:43Z</time>
      </trkpt>
      <trkpt lat="49.4781442" lon="11.1847305">
        <ele>322.7000000</ele>
        <time>2009-11-26T13:28:00Z</time>
      </trkpt>
      <trkpt lat="49.4781893" lon="11.1850522">
        <ele>322.7000000</ele>
        <time>2009-11-26T13:28:07Z</time>
      </trkpt>
      <trkpt lat="49.4782048" lon="11.1852721">
        <ele>322.7000000</ele>
        <time>2009-11-26T13:28:11Z</time>
      </trkpt>
      <trkpt lat="49.4782629" lon="11.1857076">
        <ele>323.1000000</ele>
        <time>2009-11-26T13:28:20Z</time>
      </trkpt>
      <trkpt lat="49.4784942" lon="11.1872180">
        <ele>322.7000000</ele>
        <time>2009-11-26T13:28:51Z</time>
      </trkpt>
      <trkpt lat="49.4785230" lon="11.1874206">
        <ele>322.2000000</ele>
        <time>2009-11-26T13:28:55Z</time>
      </trkpt>
      <trkpt lat="49.4787082" lon="11.1889118">
        <ele>322.7000000</ele>
        <time>2009-11-26T13:29:26Z</time>
      </trkpt>
      <trkpt lat="49.4789758" lon="11.1909703">
        <ele>321.7000000</ele>
        <time>2009-11-26T13:30:08Z</time>
      </trkpt>
      <trkpt lat="49.4791377" lon="11.1921851">
        <ele>322.2000000</ele>
        <time>2009-11-26T13:30:33Z</time>
      </trkpt>
      <trkpt lat="49.4792461" lon="11.1929061">
        <ele>321.7000000</ele>
        <time>2009-11-26T13:30:48Z</time>
      </trkpt>
      <trkpt lat="49.4793469" lon="11.1938091">
        <ele>322.2000000</ele>
        <time>2009-11-26T13:31:06Z</time>
      </trkpt>
      <trkpt lat="49.4795340" lon="11.1951680">
        <ele>321.7000000</ele>
        <time>2009-11-26T13:31:34Z</time>
      </trkpt>
      <trkpt lat="49.4795613" lon="11.1953733">
        <ele>322.2000000</ele>
        <time>2009-11-26T13:31:38Z</time>
      </trkpt>
      <trkpt lat="49.4796377" lon="11.1958761">
        <ele>321.7000000</ele>
        <time>2009-11-26T13:31:49Z</time>
      </trkpt>
      <trkpt lat="49.4799009" lon="11.1974667">
        <ele>323.1000000</ele>
        <time>2009-11-26T13:32:22Z</time>
      </trkpt>
      <trkpt lat="49.4800397" lon="11.1985195">
        <ele>322.7000000</ele>
        <time>2009-11-26T13:32:43Z</time>
      </trkpt>
      <trkpt lat="49.4800965" lon="11.1989504">
        <ele>323.1000000</ele>
        <time>2009-11-26T13:32:52Z</time>
      </trkpt>
      <trkpt lat="49.4801225" lon="11.1992577">
        <ele>323.1000000</ele>
        <time>2009-11-26T13:32:58Z</time>
      </trkpt>
      <trkpt lat="49.4802848" lon="11.2000483">
        <ele>323.1000000</ele>
        <time>2009-11-26T13:33:15Z</time>
      </trkpt>
      <trkpt lat="49.4803386" lon="11.2002383">
        <ele>323.1000000</ele>
        <time>2009-11-26T13:33:19Z</time>
      </trkpt>
      <trkpt lat="49.4807660" lon="11.2010695">
        <ele>323.1000000</ele>
        <time>2009-11-26T13:33:41Z</time>
      </trkpt>
      <trkpt lat="49.4811969" lon="11.2016920">
        <ele>323.1000000</ele>
        <time>2009-11-26T13:33:59Z</time>
      </trkpt>
      <trkpt lat="49.4813283" lon="11.2019142">
        <ele>323.6000000</ele>
        <time>2009-11-26T13:34:05Z</time>
      </trkpt>
      <trkpt lat="49.4818673" lon="11.2027311">
        <ele>323.6000000</ele>
        <time>2009-11-26T13:34:28Z</time>
      </trkpt>
      <trkpt lat="49.4826417" lon="11.2039096">
        <ele>324.6000000</ele>
        <time>2009-11-26T13:35:02Z</time>
      </trkpt>
      <trkpt lat="49.4835004" lon="11.2051930">
        <ele>324.1000000</ele>
        <time>2009-11-26T13:35:39Z</time>
      </trkpt>
      <trkpt lat="49.4839491" lon="11.2058421">
        <ele>324.1000000</ele>
        <time>2009-11-26T13:35:58Z</time>
      </trkpt>
      <trkpt lat="49.4841568" lon="11.2062077">
        <ele>324.6000000</ele>
        <time>2009-11-26T13:36:08Z</time>
      </trkpt>
      <trkpt lat="49.4847910" lon="11.2074468">
        <ele>324.6000000</ele>
        <time>2009-11-26T13:36:39Z</time>
      </trkpt>
      <trkpt lat="49.4848681" lon="11.2077582">
        <ele>324.1000000</ele>
        <time>2009-11-26T13:36:46Z</time>
      </trkpt>
      <trkpt lat="49.4849950" lon="11.2085978">
        <ele>323.1000000</ele>
        <time>2009-11-26T13:37:03Z</time>
      </trkpt>
      <trkpt lat="49.4850458" lon="11.2088887">
        <ele>323.6000000</ele>
        <time>2009-11-26T13:37:10Z</time>
      </trkpt>
      <trkpt lat="49.4851937" lon="11.2099670">
        <ele>324.6000000</ele>
        <time>2009-11-26T13:37:32Z</time>
      </trkpt>
      <trkpt lat="49.4852078" lon="11.2104589">
        <ele>325.1000000</ele>
        <time>2009-11-26T13:37:42Z</time>
      </trkpt>
      <trkpt lat="49.4855534" lon="11.2118198">
        <ele>326.5000000</ele>
        <time>2009-11-26T13:38:11Z</time>
      </trkpt>
      <trkpt lat="49.4856788" lon="11.2126710">
        <ele>326.0000000</ele>
        <time>2009-11-26T13:38:28Z</time>
      </trkpt>
      <trkpt lat="49.4857176" lon="11.2130882">
        <ele>326.0000000</ele>
        <time>2009-11-26T13:38:37Z</time>
      </trkpt>
      <trkpt lat="49.4859806" lon="11.2144430">
        <ele>325.5000000</ele>
        <time>2009-11-26T13:39:05Z</time>
      </trkpt>
      <trkpt lat="49.4862039" lon="11.2158266">
        <ele>326.5000000</ele>
        <time>2009-11-26T13:39:34Z</time>
      </trkpt>
      <trkpt lat="49.4863406" lon="11.2167461">
        <ele>326.0000000</ele>
        <time>2009-11-26T13:39:53Z</time>
      </trkpt>
      <trkpt lat="49.4865802" lon="11.2181284">
        <ele>325.5000000</ele>
        <time>2009-11-26T13:40:22Z</time>
      </trkpt>
      <trkpt lat="49.4867609" lon="11.2191617">
        <ele>326.5000000</ele>
        <time>2009-11-26T13:40:43Z</time>
      </trkpt>
      <trkpt lat="49.4868101" lon="11.2193884">
        <ele>326.0000000</ele>
        <time>2009-11-26T13:40:48Z</time>
      </trkpt>
      <trkpt lat="49.4870292" lon="11.2209528">
        <ele>324.1000000</ele>
        <time>2009-11-26T13:41:20Z</time>
      </trkpt>
      <trkpt lat="49.4871803" lon="11.2218475">
        <ele>323.6000000</ele>
        <time>2009-11-26T13:41:39Z</time>
      </trkpt>
      <trkpt lat="49.4872833" lon="11.2223205">
        <ele>322.7000000</ele>
        <time>2009-11-26T13:41:49Z</time>
      </trkpt>
      <trkpt lat="49.4873087" lon="11.2225560">
        <ele>321.7000000</ele>
        <time>2009-11-26T13:41:53Z</time>
      </trkpt>
      <trkpt lat="49.4874710" lon="11.2235309">
        <ele>320.7000000</ele>
        <time>2009-11-26T13:42:14Z</time>
      </trkpt>
      <trkpt lat="49.4874913" lon="11.2237882">
        <ele>320.7000000</ele>
        <time>2009-11-26T13:42:19Z</time>
      </trkpt>
      <trkpt lat="49.4876420" lon="11.2244147">
        <ele>320.3000000</ele>
        <time>2009-11-26T13:42:32Z</time>
      </trkpt>
      <trkpt lat="49.4879192" lon="11.2251886">
        <ele>319.8000000</ele>
        <time>2009-11-26T13:42:50Z</time>
      </trkpt>
      <trkpt lat="49.4885214" lon="11.2264102">
        <ele>321.2000000</ele>
        <time>2009-11-26T13:43:21Z</time>
      </trkpt>
      <trkpt lat="49.4885672" lon="11.2265036">
        <ele>320.7000000</ele>
        <time>2009-11-26T13:43:23Z</time>
      </trkpt>
      <trkpt lat="49.4891550" lon="11.2275915">
        <ele>320.7000000</ele>
        <time>2009-11-26T13:43:52Z</time>
      </trkpt>
      <trkpt lat="49.4892171" lon="11.2276937">
        <ele>320.7000000</ele>
        <time>2009-11-26T13:43:54Z</time>
      </trkpt>
      <trkpt lat="49.4897425" lon="11.2291115">
        <ele>319.3000000</ele>
        <time>2009-11-26T13:44:27Z</time>
      </trkpt>
      <trkpt lat="49.4901438" lon="11.2304221">
        <ele>316.4000000</ele>
        <time>2009-11-26T13:44:56Z</time>
      </trkpt>
      <trkpt lat="49.4907618" lon="11.2325600">
        <ele>316.4000000</ele>
        <time>2009-11-26T13:45:43Z</time>
      </trkpt>
      <trkpt lat="49.4910826" lon="11.2336888">
        <ele>319.3000000</ele>
        <time>2009-11-26T13:46:08Z</time>
      </trkpt>
      <trkpt lat="49.4911381" lon="11.2339233">
        <ele>320.3000000</ele>
        <time>2009-11-26T13:46:13Z</time>
      </trkpt>
      <trkpt lat="49.4915825" lon="11.2354635">
        <ele>319.8000000</ele>
        <time>2009-11-26T13:46:47Z</time>
      </trkpt>
      <trkpt lat="49.4917336" lon="11.2358576">
        <ele>320.3000000</ele>
        <time>2009-11-26T13:46:56Z</time>
      </trkpt>
      <trkpt lat="49.4919003" lon="11.2363096">
        <ele>321.2000000</ele>
        <time>2009-11-26T13:47:07Z</time>
      </trkpt>
      <trkpt lat="49.4922803" lon="11.2377197">
        <ele>319.8000000</ele>
        <time>2009-11-26T13:47:37Z</time>
      </trkpt>
      <trkpt lat="49.4927216" lon="11.2393779">
        <ele>320.3000000</ele>
        <time>2009-11-26T13:48:13Z</time>
      </trkpt>
      <trkpt lat="49.4931278" lon="11.2408969">
        <ele>320.7000000</ele>
        <time>2009-11-26T13:48:46Z</time>
      </trkpt>
      <trkpt lat="49.4936645" lon="11.2425425">
        <ele>320.7000000</ele>
        <time>2009-11-26T13:49:23Z</time>
      </trkpt>
      <trkpt lat="49.4938498" lon="11.2430386">
        <ele>321.2000000</ele>
        <time>2009-11-26T13:49:35Z</time>
      </trkpt>
      <trkpt lat="49.4944492" lon="11.2441738">
        <ele>321.2000000</ele>
        <time>2009-11-26T13:50:04Z</time>
      </trkpt>
      <trkpt lat="49.4950481" lon="11.2453343">
        <ele>320.7000000</ele>
        <time>2009-11-26T13:50:34Z</time>
      </trkpt>
      <trkpt lat="49.4952056" lon="11.2456674">
        <ele>320.3000000</ele>
        <time>2009-11-26T13:50:42Z</time>
      </trkpt>
      <trkpt lat="49.4957902" lon="11.2467393">
        <ele>320.3000000</ele>
        <time>2009-11-26T13:51:10Z</time>
      </trkpt>
      <trkpt lat="49.4959865" lon="11.2471978">
        <ele>319.8000000</ele>
        <time>2009-11-26T13:51:21Z</time>
      </trkpt>
      <trkpt lat="49.4964863" lon="11.2480577">
        <ele>320.7000000</ele>
        <time>2009-11-26T13:51:44Z</time>
      </trkpt>
      <trkpt lat="49.4970590" lon="11.2491148">
        <ele>323.1000000</ele>
        <time>2009-11-26T13:52:12Z</time>
      </trkpt>
      <trkpt lat="49.4977915" lon="11.2504303">
        <ele>323.6000000</ele>
        <time>2009-11-26T13:52:47Z</time>
      </trkpt>
      <trkpt lat="49.4985371" lon="11.2511965">
        <ele>322.7000000</ele>
        <time>2009-11-26T13:53:15Z</time>
      </trkpt>
      <trkpt lat="49.4990025" lon="11.2516768">
        <ele>321.7000000</ele>
        <time>2009-11-26T13:53:32Z</time>
      </trkpt>
      <trkpt lat="49.4991468" lon="11.2519894">
        <ele>320.7000000</ele>
        <time>2009-11-26T13:53:40Z</time>
      </trkpt>
      <trkpt lat="49.4992473" lon="11.2521548">
        <ele>319.3000000</ele>
        <time>2009-11-26T13:53:44Z</time>
      </trkpt>
      <trkpt lat="49.5000523" lon="11.2531646">
        <ele>317.9000000</ele>
        <time>2009-11-26T13:54:16Z</time>
      </trkpt>
      <trkpt lat="49.5008378" lon="11.2546856">
        <ele>318.8000000</ele>
        <time>2009-11-26T13:54:55Z</time>
      </trkpt>
      <trkpt lat="49.5013944" lon="11.2563252">
        <ele>317.4000000</ele>
        <time>2009-11-26T13:55:33Z</time>
      </trkpt>
      <trkpt lat="49.5018256" lon="11.2578037">
        <ele>319.3000000</ele>
        <time>2009-11-26T13:56:05Z</time>
      </trkpt>
      <trkpt lat="49.5022621" lon="11.2594130">
        <ele>320.3000000</ele>
        <time>2009-11-26T13:56:40Z</time>
      </trkpt>
      <trkpt lat="49.5026087" lon="11.2608718">
        <ele>320.7000000</ele>
        <time>2009-11-26T13:57:11Z</time>
      </trkpt>
      <trkpt lat="49.5030080" lon="11.2626345">
        <ele>319.8000000</ele>
        <time>2009-11-26T13:57:49Z</time>
      </trkpt>
      <trkpt lat="49.5032196" lon="11.2647895">
        <ele>317.9000000</ele>
        <time>2009-11-26T13:58:33Z</time>
      </trkpt>
      <trkpt lat="49.5030132" lon="11.2657171">
        <ele>318.8000000</ele>
        <time>2009-11-26T13:58:52Z</time>
      </trkpt>
      <trkpt lat="49.5030234" lon="11.2663896">
        <ele>318.8000000</ele>
        <time>2009-11-26T13:59:06Z</time>
      </trkpt>
      <trkpt lat="49.5030500" lon="11.2666197">
        <ele>317.9000000</ele>
        <time>2009-11-26T13:59:10Z</time>
      </trkpt>
      <trkpt lat="49.5031489" lon="11.2669558">
        <ele>318.3000000</ele>
        <time>2009-11-26T13:59:18Z</time>
      </trkpt>
      <trkpt lat="49.5035343" lon="11.2675110">
        <ele>318.3000000</ele>
        <time>2009-11-26T13:59:34Z</time>
      </trkpt>
      <trkpt lat="49.5037198" lon="11.2679933">
        <ele>318.3000000</ele>
        <time>2009-11-26T13:59:45Z</time>
      </trkpt>
      <trkpt lat="49.5039769" lon="11.2679239">
        <ele>318.3000000</ele>
        <time>2009-11-26T13:59:53Z</time>
      </trkpt>
      <trkpt lat="49.5040862" lon="11.2679504">
        <ele>317.9000000</ele>
        <time>2009-11-26T13:59:57Z</time>
      </trkpt>
      <trkpt lat="49.5042386" lon="11.2680426">
        <ele>318.3000000</ele>
        <time>2009-11-26T14:00:02Z</time>
      </trkpt>
      <trkpt lat="49.5047783" lon="11.2685595">
        <ele>322.2000000</ele>
        <time>2009-11-26T14:00:22Z</time>
      </trkpt>
      <trkpt lat="49.5048694" lon="11.2686305">
        <ele>322.2000000</ele>
        <time>2009-11-26T14:00:25Z</time>
      </trkpt>
      <trkpt lat="49.5049550" lon="11.2686655">
        <ele>322.7000000</ele>
        <time>2009-11-26T14:00:28Z</time>
      </trkpt>
      <trkpt lat="49.5055216" lon="11.2692500">
        <ele>323.1000000</ele>
        <time>2009-11-26T14:00:49Z</time>
      </trkpt>
      <trkpt lat="49.5060715" lon="11.2697809">
        <ele>324.1000000</ele>
        <time>2009-11-26T14:01:09Z</time>
      </trkpt>
      <trkpt lat="49.5069342" lon="11.2705483">
        <ele>324.1000000</ele>
        <time>2009-11-26T14:01:39Z</time>
      </trkpt>
      <trkpt lat="49.5071013" lon="11.2706984">
        <ele>324.1000000</ele>
        <time>2009-11-26T14:01:45Z</time>
      </trkpt>
      <trkpt lat="49.5072295" lon="11.2708202">
        <ele>324.6000000</ele>
        <time>2009-11-26T14:01:50Z</time>
      </trkpt>
      <trkpt lat="49.5074280" lon="11.2711077">
        <ele>325.1000000</ele>
        <time>2009-11-26T14:01:59Z</time>
      </trkpt>
      <trkpt lat="49.5075078" lon="11.2711896">
        <ele>325.5000000</ele>
        <time>2009-11-26T14:02:02Z</time>
      </trkpt>
      <trkpt lat="49.5076360" lon="11.2712553">
        <ele>326.5000000</ele>
        <time>2009-11-26T14:02:06Z</time>
      </trkpt>
      <trkpt lat="49.5080841" lon="11.2716079">
        <ele>328.4000000</ele>
        <time>2009-11-26T14:02:21Z</time>
      </trkpt>
      <trkpt lat="49.5081852" lon="11.2716727">
        <ele>329.4000000</ele>
        <time>2009-11-26T14:02:25Z</time>
      </trkpt>
      <trkpt lat="49.5085778" lon="11.2720525">
        <ele>330.4000000</ele>
        <time>2009-11-26T14:02:39Z</time>
      </trkpt>
      <trkpt lat="49.5087512" lon="11.2718606">
        <ele>331.8000000</ele>
        <time>2009-11-26T14:02:46Z</time>
      </trkpt>
      <trkpt lat="49.5089304" lon="11.2706243">
        <ele>330.4000000</ele>
        <time>2009-11-26T14:03:11Z</time>
      </trkpt>
      <trkpt lat="49.5090802" lon="11.2698670">
        <ele>332.3000000</ele>
        <time>2009-11-26T14:03:27Z</time>
      </trkpt>
      <trkpt lat="49.5091409" lon="11.2695322">
        <ele>332.3000000</ele>
        <time>2009-11-26T14:03:34Z</time>
      </trkpt>
      <trkpt lat="49.5094241" lon="11.2688880">
        <ele>332.3000000</ele>
        <time>2009-11-26T14:03:50Z</time>
      </trkpt>
      <trkpt lat="49.5096226" lon="11.2685999">
        <ele>331.8000000</ele>
        <time>2009-11-26T14:03:58Z</time>
      </trkpt>
      <trkpt lat="49.5102764" lon="11.2684795">
        <ele>335.2000000</ele>
        <time>2009-11-26T14:04:18Z</time>
      </trkpt>
      <trkpt lat="49.5103188" lon="11.2684715">
        <ele>334.7000000</ele>
        <time>2009-11-26T14:04:20Z</time>
      </trkpt>
      <trkpt lat="49.5104541" lon="11.2688092">
        <ele>336.6000000</ele>
        <time>2009-11-26T14:04:28Z</time>
      </trkpt>
      <trkpt lat="49.5104829" lon="11.2690243">
        <ele>338.5000000</ele>
        <time>2009-11-26T14:04:32Z</time>
      </trkpt>
      <trkpt lat="49.5105814" lon="11.2695432">
        <ele>340.9000000</ele>
        <time>2009-11-26T14:04:43Z</time>
      </trkpt>
      <trkpt lat="49.5108468" lon="11.2696445">
        <ele>340.9000000</ele>
        <time>2009-11-26T14:04:51Z</time>
      </trkpt>
      <trkpt lat="49.5114768" lon="11.2691916">
        <ele>341.9000000</ele>
        <time>2009-11-26T14:05:13Z</time>
      </trkpt>
      <trkpt lat="49.5116293" lon="11.2690744">
        <ele>342.4000000</ele>
        <time>2009-11-26T14:05:18Z</time>
      </trkpt>
      <trkpt lat="49.5115809" lon="11.2691159">
        <ele>342.8000000</ele>
        <time>2009-11-26T14:05:20Z</time>
      </trkpt>
    </trkseg>
  </trk>

</gpx>
